<?xml version="1.0" encoding="UTF-8" standalone="no" ?>
<gpx xmlns="http://www.topografix.com/GPX/1/1" xmlns:xsi="http://www.w3.org/2001/XMLSchema-instance" xsi:schemaLocation="http://www.topografix.com/GPX/1/1 http://www.topografix.com/GPX/1/1/gpx.xsd" version="1.1" creator="VisuGPX - https://www.visugpx.com">
  <metadata>
    <name>CAP avec Flora</name>
  </metadata>
  <trk>
    <name><![CDATA[CAP avec Flora_1]]></name>
    <trkseg>
      <trkpt lat="45.61551" lon="5.27965">
        <ele>236</ele>
        <time>2021-12-05T09:43:06.402Z</time>
      </trkpt>
      <trkpt lat="45.61553" lon="5.27968">
        <ele>237</ele>
        <time>2021-12-05T09:43:07.402Z</time>
      </trkpt>
      <trkpt lat="45.61556" lon="5.27971">
        <ele>237</ele>
        <time>2021-12-05T09:43:08.403Z</time>
      </trkpt>
      <trkpt lat="45.61557" lon="5.27973">
        <ele>238</ele>
        <time>2021-12-05T09:43:09.402Z</time>
      </trkpt>
      <trkpt lat="45.61558" lon="5.27974">
        <ele>239</ele>
        <time>2021-12-05T09:43:10.403Z</time>
      </trkpt>
      <trkpt lat="45.61558" lon="5.27975">
        <ele>240</ele>
        <time>2021-12-05T09:43:11.403Z</time>
      </trkpt>
      <trkpt lat="45.6156" lon="5.27975">
        <ele>242</ele>
        <time>2021-12-05T09:43:12.403Z</time>
      </trkpt>
      <trkpt lat="45.61561" lon="5.27976">
        <ele>243</ele>
        <time>2021-12-05T09:43:13.402Z</time>
      </trkpt>
      <trkpt lat="45.61562" lon="5.27976">
        <ele>244</ele>
        <time>2021-12-05T09:43:14.402Z</time>
      </trkpt>
      <trkpt lat="45.61564" lon="5.27977">
        <ele>245</ele>
        <time>2021-12-05T09:43:15.403Z</time>
      </trkpt>
      <trkpt lat="45.61566" lon="5.27977">
        <ele>246</ele>
        <time>2021-12-05T09:43:16.403Z</time>
      </trkpt>
      <trkpt lat="45.61567" lon="5.27977">
        <ele>247</ele>
        <time>2021-12-05T09:43:17.403Z</time>
      </trkpt>
      <trkpt lat="45.6157" lon="5.27978">
        <ele>248</ele>
        <time>2021-12-05T09:43:18.403Z</time>
      </trkpt>
      <trkpt lat="45.61571" lon="5.2798">
        <ele>249</ele>
        <time>2021-12-05T09:43:19.403Z</time>
      </trkpt>
      <trkpt lat="45.61573" lon="5.27981">
        <ele>249</ele>
        <time>2021-12-05T09:43:20.403Z</time>
      </trkpt>
      <trkpt lat="45.61575" lon="5.27982">
        <ele>249</ele>
        <time>2021-12-05T09:43:21.402Z</time>
      </trkpt>
      <trkpt lat="45.61577" lon="5.27983">
        <ele>249</ele>
        <time>2021-12-05T09:43:22.402Z</time>
      </trkpt>
      <trkpt lat="45.61579" lon="5.27984">
        <ele>249</ele>
        <time>2021-12-05T09:43:23.403Z</time>
      </trkpt>
      <trkpt lat="45.61581" lon="5.27985">
        <ele>250</ele>
        <time>2021-12-05T09:43:24.403Z</time>
      </trkpt>
      <trkpt lat="45.61583" lon="5.27985">
        <ele>250</ele>
        <time>2021-12-05T09:43:25.403Z</time>
      </trkpt>
      <trkpt lat="45.61585" lon="5.27986">
        <ele>250</ele>
        <time>2021-12-05T09:43:26.403Z</time>
      </trkpt>
      <trkpt lat="45.61587" lon="5.27986">
        <ele>250</ele>
        <time>2021-12-05T09:43:27.402Z</time>
      </trkpt>
      <trkpt lat="45.61589" lon="5.27987">
        <ele>251</ele>
        <time>2021-12-05T09:43:28.402Z</time>
      </trkpt>
      <trkpt lat="45.6159" lon="5.27988">
        <ele>251</ele>
        <time>2021-12-05T09:43:29.403Z</time>
      </trkpt>
      <trkpt lat="45.61592" lon="5.27989">
        <ele>251</ele>
        <time>2021-12-05T09:43:30.403Z</time>
      </trkpt>
      <trkpt lat="45.61594" lon="5.27989">
        <ele>252</ele>
        <time>2021-12-05T09:43:31.403Z</time>
      </trkpt>
      <trkpt lat="45.61596" lon="5.27991">
        <ele>252</ele>
        <time>2021-12-05T09:43:32.403Z</time>
      </trkpt>
      <trkpt lat="45.61597" lon="5.27992">
        <ele>252</ele>
        <time>2021-12-05T09:43:33.402Z</time>
      </trkpt>
      <trkpt lat="45.61599" lon="5.27992">
        <ele>252</ele>
        <time>2021-12-05T09:43:34.403Z</time>
      </trkpt>
      <trkpt lat="45.61601" lon="5.27992">
        <ele>253</ele>
        <time>2021-12-05T09:43:35.403Z</time>
      </trkpt>
      <trkpt lat="45.61602" lon="5.27992">
        <ele>254</ele>
        <time>2021-12-05T09:43:36.403Z</time>
      </trkpt>
      <trkpt lat="45.61604" lon="5.27993">
        <ele>254</ele>
        <time>2021-12-05T09:43:37.402Z</time>
      </trkpt>
      <trkpt lat="45.61606" lon="5.27993">
        <ele>255</ele>
        <time>2021-12-05T09:43:38.403Z</time>
      </trkpt>
      <trkpt lat="45.61608" lon="5.27993">
        <ele>256</ele>
        <time>2021-12-05T09:43:39.402Z</time>
      </trkpt>
      <trkpt lat="45.61609" lon="5.27994">
        <ele>257</ele>
        <time>2021-12-05T09:43:40.402Z</time>
      </trkpt>
      <trkpt lat="45.61611" lon="5.27995">
        <ele>258</ele>
        <time>2021-12-05T09:43:41.403Z</time>
      </trkpt>
      <trkpt lat="45.61613" lon="5.27995">
        <ele>258</ele>
        <time>2021-12-05T09:43:42.402Z</time>
      </trkpt>
      <trkpt lat="45.61615" lon="5.27996">
        <ele>258</ele>
        <time>2021-12-05T09:43:43.403Z</time>
      </trkpt>
      <trkpt lat="45.61617" lon="5.27997">
        <ele>259</ele>
        <time>2021-12-05T09:43:44.403Z</time>
      </trkpt>
      <trkpt lat="45.61619" lon="5.27998">
        <ele>259</ele>
        <time>2021-12-05T09:43:45.403Z</time>
      </trkpt>
      <trkpt lat="45.6162" lon="5.28">
        <ele>259</ele>
        <time>2021-12-05T09:43:46.403Z</time>
      </trkpt>
      <trkpt lat="45.61622" lon="5.28001">
        <ele>259</ele>
        <time>2021-12-05T09:43:47.403Z</time>
      </trkpt>
      <trkpt lat="45.61624" lon="5.28002">
        <ele>258</ele>
        <time>2021-12-05T09:43:48.403Z</time>
      </trkpt>
      <trkpt lat="45.61625" lon="5.28003">
        <ele>258</ele>
        <time>2021-12-05T09:43:49.403Z</time>
      </trkpt>
      <trkpt lat="45.61627" lon="5.28004">
        <ele>258</ele>
        <time>2021-12-05T09:43:50.402Z</time>
      </trkpt>
      <trkpt lat="45.61628" lon="5.28005">
        <ele>258</ele>
        <time>2021-12-05T09:43:51.403Z</time>
      </trkpt>
      <trkpt lat="45.6163" lon="5.28007">
        <ele>257</ele>
        <time>2021-12-05T09:43:52.403Z</time>
      </trkpt>
      <trkpt lat="45.61632" lon="5.28008">
        <ele>257</ele>
        <time>2021-12-05T09:43:53.402Z</time>
      </trkpt>
      <trkpt lat="45.61633" lon="5.2801">
        <ele>256</ele>
        <time>2021-12-05T09:43:54.402Z</time>
      </trkpt>
      <trkpt lat="45.61634" lon="5.28011">
        <ele>256</ele>
        <time>2021-12-05T09:43:55.403Z</time>
      </trkpt>
      <trkpt lat="45.61635" lon="5.28013">
        <ele>256</ele>
        <time>2021-12-05T09:43:56.403Z</time>
      </trkpt>
      <trkpt lat="45.61637" lon="5.28015">
        <ele>256</ele>
        <time>2021-12-05T09:43:57.403Z</time>
      </trkpt>
      <trkpt lat="45.61639" lon="5.28017">
        <ele>255</ele>
        <time>2021-12-05T09:43:58.403Z</time>
      </trkpt>
      <trkpt lat="45.6164" lon="5.28019">
        <ele>255</ele>
        <time>2021-12-05T09:43:59.403Z</time>
      </trkpt>
      <trkpt lat="45.61642" lon="5.2802">
        <ele>255</ele>
        <time>2021-12-05T09:44:00.403Z</time>
      </trkpt>
      <trkpt lat="45.61643" lon="5.28022">
        <ele>255</ele>
        <time>2021-12-05T09:44:01.403Z</time>
      </trkpt>
      <trkpt lat="45.61644" lon="5.28024">
        <ele>255</ele>
        <time>2021-12-05T09:44:02.403Z</time>
      </trkpt>
      <trkpt lat="45.61646" lon="5.28026">
        <ele>255</ele>
        <time>2021-12-05T09:44:03.403Z</time>
      </trkpt>
      <trkpt lat="45.61647" lon="5.28028">
        <ele>255</ele>
        <time>2021-12-05T09:44:04.403Z</time>
      </trkpt>
      <trkpt lat="45.61648" lon="5.2803">
        <ele>255</ele>
        <time>2021-12-05T09:44:05.403Z</time>
      </trkpt>
      <trkpt lat="45.61649" lon="5.28032">
        <ele>255</ele>
        <time>2021-12-05T09:44:06.402Z</time>
      </trkpt>
      <trkpt lat="45.6165" lon="5.28035">
        <ele>256</ele>
        <time>2021-12-05T09:44:07.403Z</time>
      </trkpt>
      <trkpt lat="45.6165" lon="5.28038">
        <ele>255</ele>
        <time>2021-12-05T09:44:08.403Z</time>
      </trkpt>
      <trkpt lat="45.61651" lon="5.28041">
        <ele>255</ele>
        <time>2021-12-05T09:44:09.403Z</time>
      </trkpt>
      <trkpt lat="45.61652" lon="5.28044">
        <ele>254</ele>
        <time>2021-12-05T09:44:10.403Z</time>
      </trkpt>
      <trkpt lat="45.61652" lon="5.28046">
        <ele>254</ele>
        <time>2021-12-05T09:44:11.403Z</time>
      </trkpt>
      <trkpt lat="45.61653" lon="5.28049">
        <ele>254</ele>
        <time>2021-12-05T09:44:12.403Z</time>
      </trkpt>
      <trkpt lat="45.61653" lon="5.28051">
        <ele>254</ele>
        <time>2021-12-05T09:44:13.402Z</time>
      </trkpt>
      <trkpt lat="45.61653" lon="5.28054">
        <ele>254</ele>
        <time>2021-12-05T09:44:14.402Z</time>
      </trkpt>
      <trkpt lat="45.61653" lon="5.28057">
        <ele>254</ele>
        <time>2021-12-05T09:44:15.403Z</time>
      </trkpt>
      <trkpt lat="45.61654" lon="5.2806">
        <ele>254</ele>
        <time>2021-12-05T09:44:16.403Z</time>
      </trkpt>
      <trkpt lat="45.61653" lon="5.28063">
        <ele>254</ele>
        <time>2021-12-05T09:44:17.403Z</time>
      </trkpt>
      <trkpt lat="45.61653" lon="5.28066">
        <ele>255</ele>
        <time>2021-12-05T09:44:18.403Z</time>
      </trkpt>
      <trkpt lat="45.61653" lon="5.28069">
        <ele>255</ele>
        <time>2021-12-05T09:44:19.402Z</time>
      </trkpt>
      <trkpt lat="45.61652" lon="5.28072">
        <ele>255</ele>
        <time>2021-12-05T09:44:20.402Z</time>
      </trkpt>
      <trkpt lat="45.61652" lon="5.28073">
        <ele>255</ele>
        <time>2021-12-05T09:44:21.403Z</time>
      </trkpt>
      <trkpt lat="45.61652" lon="5.28074">
        <ele>256</ele>
        <time>2021-12-05T09:44:22.403Z</time>
      </trkpt>
      <trkpt lat="45.61652" lon="5.28074">
        <ele>256</ele>
        <time>2021-12-05T09:44:23.403Z</time>
      </trkpt>
      <trkpt lat="45.61653" lon="5.28074">
        <ele>256</ele>
        <time>2021-12-05T09:44:24.402Z</time>
      </trkpt>
      <trkpt lat="45.61654" lon="5.28076">
        <ele>256</ele>
        <time>2021-12-05T09:44:25.403Z</time>
      </trkpt>
      <trkpt lat="45.61654" lon="5.28078">
        <ele>257</ele>
        <time>2021-12-05T09:44:26.403Z</time>
      </trkpt>
      <trkpt lat="45.61655" lon="5.28081">
        <ele>257</ele>
        <time>2021-12-05T09:44:27.403Z</time>
      </trkpt>
      <trkpt lat="45.61655" lon="5.28082">
        <ele>257</ele>
        <time>2021-12-05T09:44:28.402Z</time>
      </trkpt>
      <trkpt lat="45.61656" lon="5.28085">
        <ele>258</ele>
        <time>2021-12-05T09:44:29.403Z</time>
      </trkpt>
      <trkpt lat="45.61656" lon="5.28088">
        <ele>258</ele>
        <time>2021-12-05T09:44:30.403Z</time>
      </trkpt>
      <trkpt lat="45.61656" lon="5.28091">
        <ele>258</ele>
        <time>2021-12-05T09:44:31.403Z</time>
      </trkpt>
      <trkpt lat="45.61656" lon="5.28092">
        <ele>259</ele>
        <time>2021-12-05T09:44:32.403Z</time>
      </trkpt>
      <trkpt lat="45.61656" lon="5.28094">
        <ele>260</ele>
        <time>2021-12-05T09:44:33.403Z</time>
      </trkpt>
      <trkpt lat="45.61655" lon="5.28096">
        <ele>261</ele>
        <time>2021-12-05T09:44:34.402Z</time>
      </trkpt>
      <trkpt lat="45.61655" lon="5.28098">
        <ele>261</ele>
        <time>2021-12-05T09:44:35.402Z</time>
      </trkpt>
      <trkpt lat="45.61655" lon="5.281">
        <ele>262</ele>
        <time>2021-12-05T09:44:36.403Z</time>
      </trkpt>
      <trkpt lat="45.61656" lon="5.28102">
        <ele>262</ele>
        <time>2021-12-05T09:44:37.403Z</time>
      </trkpt>
      <trkpt lat="45.61657" lon="5.28104">
        <ele>263</ele>
        <time>2021-12-05T09:44:38.403Z</time>
      </trkpt>
      <trkpt lat="45.61657" lon="5.28106">
        <ele>263</ele>
        <time>2021-12-05T09:44:39.403Z</time>
      </trkpt>
      <trkpt lat="45.61658" lon="5.28109">
        <ele>263</ele>
        <time>2021-12-05T09:44:40.403Z</time>
      </trkpt>
      <trkpt lat="45.61657" lon="5.28111">
        <ele>263</ele>
        <time>2021-12-05T09:44:41.403Z</time>
      </trkpt>
      <trkpt lat="45.61657" lon="5.28113">
        <ele>264</ele>
        <time>2021-12-05T09:44:42.403Z</time>
      </trkpt>
      <trkpt lat="45.61656" lon="5.28117">
        <ele>264</ele>
        <time>2021-12-05T09:44:43.402Z</time>
      </trkpt>
      <trkpt lat="45.61656" lon="5.28119">
        <ele>264</ele>
        <time>2021-12-05T09:44:44.403Z</time>
      </trkpt>
      <trkpt lat="45.61656" lon="5.28123">
        <ele>263</ele>
        <time>2021-12-05T09:44:45.402Z</time>
      </trkpt>
      <trkpt lat="45.61657" lon="5.28125">
        <ele>263</ele>
        <time>2021-12-05T09:44:46.402Z</time>
      </trkpt>
      <trkpt lat="45.61657" lon="5.28128">
        <ele>263</ele>
        <time>2021-12-05T09:44:47.403Z</time>
      </trkpt>
      <trkpt lat="45.61657" lon="5.28129">
        <ele>263</ele>
        <time>2021-12-05T09:44:48.403Z</time>
      </trkpt>
      <trkpt lat="45.61657" lon="5.28132">
        <ele>264</ele>
        <time>2021-12-05T09:44:49.402Z</time>
      </trkpt>
      <trkpt lat="45.61655" lon="5.28134">
        <ele>264</ele>
        <time>2021-12-05T09:44:50.403Z</time>
      </trkpt>
      <trkpt lat="45.61654" lon="5.28136">
        <ele>265</ele>
        <time>2021-12-05T09:44:51.402Z</time>
      </trkpt>
      <trkpt lat="45.61653" lon="5.28138">
        <ele>266</ele>
        <time>2021-12-05T09:44:52.402Z</time>
      </trkpt>
      <trkpt lat="45.61652" lon="5.2814">
        <ele>267</ele>
        <time>2021-12-05T09:44:53.402Z</time>
      </trkpt>
      <trkpt lat="45.6165" lon="5.28142">
        <ele>267</ele>
        <time>2021-12-05T09:44:54.403Z</time>
      </trkpt>
      <trkpt lat="45.61649" lon="5.28143">
        <ele>268</ele>
        <time>2021-12-05T09:44:55.402Z</time>
      </trkpt>
      <trkpt lat="45.61648" lon="5.28145">
        <ele>268</ele>
        <time>2021-12-05T09:44:56.402Z</time>
      </trkpt>
      <trkpt lat="45.61647" lon="5.28147">
        <ele>268</ele>
        <time>2021-12-05T09:44:57.403Z</time>
      </trkpt>
      <trkpt lat="45.61647" lon="5.28148">
        <ele>268</ele>
        <time>2021-12-05T09:44:58.402Z</time>
      </trkpt>
      <trkpt lat="45.61646" lon="5.2815">
        <ele>268</ele>
        <time>2021-12-05T09:44:59.403Z</time>
      </trkpt>
      <trkpt lat="45.61645" lon="5.28152">
        <ele>269</ele>
        <time>2021-12-05T09:45:00.403Z</time>
      </trkpt>
      <trkpt lat="45.61645" lon="5.28154">
        <ele>269</ele>
        <time>2021-12-05T09:45:01.403Z</time>
      </trkpt>
      <trkpt lat="45.61644" lon="5.28155">
        <ele>269</ele>
        <time>2021-12-05T09:45:02.403Z</time>
      </trkpt>
      <trkpt lat="45.61644" lon="5.28157">
        <ele>268</ele>
        <time>2021-12-05T09:45:03.403Z</time>
      </trkpt>
      <trkpt lat="45.61643" lon="5.28159">
        <ele>268</ele>
        <time>2021-12-05T09:45:04.403Z</time>
      </trkpt>
      <trkpt lat="45.61643" lon="5.2816">
        <ele>268</ele>
        <time>2021-12-05T09:45:05.403Z</time>
      </trkpt>
      <trkpt lat="45.61642" lon="5.28162">
        <ele>268</ele>
        <time>2021-12-05T09:45:06.402Z</time>
      </trkpt>
      <trkpt lat="45.61642" lon="5.28165">
        <ele>268</ele>
        <time>2021-12-05T09:45:07.403Z</time>
      </trkpt>
      <trkpt lat="45.61641" lon="5.28167">
        <ele>268</ele>
        <time>2021-12-05T09:45:08.403Z</time>
      </trkpt>
      <trkpt lat="45.61641" lon="5.28169">
        <ele>269</ele>
        <time>2021-12-05T09:45:09.402Z</time>
      </trkpt>
      <trkpt lat="45.61641" lon="5.28172">
        <ele>269</ele>
        <time>2021-12-05T09:45:10.403Z</time>
      </trkpt>
      <trkpt lat="45.61641" lon="5.28175">
        <ele>269</ele>
        <time>2021-12-05T09:45:11.402Z</time>
      </trkpt>
      <trkpt lat="45.61641" lon="5.2818">
        <ele>270</ele>
        <time>2021-12-05T09:45:12.403Z</time>
      </trkpt>
      <trkpt lat="45.61641" lon="5.28182">
        <ele>270</ele>
        <time>2021-12-05T09:45:13.403Z</time>
      </trkpt>
      <trkpt lat="45.61641" lon="5.28185">
        <ele>270</ele>
        <time>2021-12-05T09:45:14.403Z</time>
      </trkpt>
      <trkpt lat="45.61642" lon="5.28188">
        <ele>270</ele>
        <time>2021-12-05T09:45:15.403Z</time>
      </trkpt>
      <trkpt lat="45.61642" lon="5.2819">
        <ele>270</ele>
        <time>2021-12-05T09:45:16.403Z</time>
      </trkpt>
      <trkpt lat="45.61642" lon="5.28193">
        <ele>270</ele>
        <time>2021-12-05T09:45:17.403Z</time>
      </trkpt>
      <trkpt lat="45.61642" lon="5.28195">
        <ele>270</ele>
        <time>2021-12-05T09:45:18.403Z</time>
      </trkpt>
      <trkpt lat="45.61642" lon="5.28198">
        <ele>270</ele>
        <time>2021-12-05T09:45:19.403Z</time>
      </trkpt>
      <trkpt lat="45.61643" lon="5.282">
        <ele>271</ele>
        <time>2021-12-05T09:45:20.403Z</time>
      </trkpt>
      <trkpt lat="45.61643" lon="5.28202">
        <ele>271</ele>
        <time>2021-12-05T09:45:21.403Z</time>
      </trkpt>
      <trkpt lat="45.61644" lon="5.28205">
        <ele>271</ele>
        <time>2021-12-05T09:45:22.403Z</time>
      </trkpt>
      <trkpt lat="45.61645" lon="5.28207">
        <ele>271</ele>
        <time>2021-12-05T09:45:23.403Z</time>
      </trkpt>
      <trkpt lat="45.61645" lon="5.2821">
        <ele>271</ele>
        <time>2021-12-05T09:45:24.403Z</time>
      </trkpt>
      <trkpt lat="45.61646" lon="5.28212">
        <ele>271</ele>
        <time>2021-12-05T09:45:25.403Z</time>
      </trkpt>
      <trkpt lat="45.61647" lon="5.28214">
        <ele>271</ele>
        <time>2021-12-05T09:45:26.403Z</time>
      </trkpt>
      <trkpt lat="45.61648" lon="5.28217">
        <ele>271</ele>
        <time>2021-12-05T09:45:27.402Z</time>
      </trkpt>
      <trkpt lat="45.61649" lon="5.28219">
        <ele>271</ele>
        <time>2021-12-05T09:45:28.403Z</time>
      </trkpt>
      <trkpt lat="45.6165" lon="5.28223">
        <ele>271</ele>
        <time>2021-12-05T09:45:29.403Z</time>
      </trkpt>
      <trkpt lat="45.61651" lon="5.28226">
        <ele>272</ele>
        <time>2021-12-05T09:45:30.402Z</time>
      </trkpt>
      <trkpt lat="45.61651" lon="5.28229">
        <ele>272</ele>
        <time>2021-12-05T09:45:31.403Z</time>
      </trkpt>
      <trkpt lat="45.61653" lon="5.28232">
        <ele>272</ele>
        <time>2021-12-05T09:45:32.403Z</time>
      </trkpt>
      <trkpt lat="45.61654" lon="5.28235">
        <ele>272</ele>
        <time>2021-12-05T09:45:33.403Z</time>
      </trkpt>
      <trkpt lat="45.61655" lon="5.28237">
        <ele>272</ele>
        <time>2021-12-05T09:45:34.403Z</time>
      </trkpt>
      <trkpt lat="45.61656" lon="5.2824">
        <ele>272</ele>
        <time>2021-12-05T09:45:35.403Z</time>
      </trkpt>
      <trkpt lat="45.61657" lon="5.28242">
        <ele>272</ele>
        <time>2021-12-05T09:45:36.403Z</time>
      </trkpt>
      <trkpt lat="45.61659" lon="5.28244">
        <ele>272</ele>
        <time>2021-12-05T09:45:37.403Z</time>
      </trkpt>
      <trkpt lat="45.6166" lon="5.28246">
        <ele>272</ele>
        <time>2021-12-05T09:45:38.403Z</time>
      </trkpt>
      <trkpt lat="45.61661" lon="5.28249">
        <ele>272</ele>
        <time>2021-12-05T09:45:39.403Z</time>
      </trkpt>
      <trkpt lat="45.61662" lon="5.2825">
        <ele>272</ele>
        <time>2021-12-05T09:45:40.403Z</time>
      </trkpt>
      <trkpt lat="45.61663" lon="5.28254">
        <ele>272</ele>
        <time>2021-12-05T09:45:41.403Z</time>
      </trkpt>
      <trkpt lat="45.61664" lon="5.28256">
        <ele>273</ele>
        <time>2021-12-05T09:45:42.403Z</time>
      </trkpt>
      <trkpt lat="45.61665" lon="5.28258">
        <ele>272</ele>
        <time>2021-12-05T09:45:43.403Z</time>
      </trkpt>
      <trkpt lat="45.61666" lon="5.2826">
        <ele>272</ele>
        <time>2021-12-05T09:45:44.403Z</time>
      </trkpt>
      <trkpt lat="45.61667" lon="5.28262">
        <ele>273</ele>
        <time>2021-12-05T09:45:45.403Z</time>
      </trkpt>
      <trkpt lat="45.61668" lon="5.28265">
        <ele>273</ele>
        <time>2021-12-05T09:45:46.402Z</time>
      </trkpt>
      <trkpt lat="45.61669" lon="5.28266">
        <ele>273</ele>
        <time>2021-12-05T09:45:47.402Z</time>
      </trkpt>
      <trkpt lat="45.6167" lon="5.28269">
        <ele>273</ele>
        <time>2021-12-05T09:45:48.403Z</time>
      </trkpt>
      <trkpt lat="45.61671" lon="5.28272">
        <ele>274</ele>
        <time>2021-12-05T09:45:49.403Z</time>
      </trkpt>
      <trkpt lat="45.61672" lon="5.28274">
        <ele>274</ele>
        <time>2021-12-05T09:45:50.403Z</time>
      </trkpt>
      <trkpt lat="45.61673" lon="5.28277">
        <ele>274</ele>
        <time>2021-12-05T09:45:51.402Z</time>
      </trkpt>
      <trkpt lat="45.61673" lon="5.28279">
        <ele>274</ele>
        <time>2021-12-05T09:45:52.403Z</time>
      </trkpt>
      <trkpt lat="45.61674" lon="5.28282">
        <ele>275</ele>
        <time>2021-12-05T09:45:53.402Z</time>
      </trkpt>
      <trkpt lat="45.61675" lon="5.28284">
        <ele>275</ele>
        <time>2021-12-05T09:45:54.403Z</time>
      </trkpt>
      <trkpt lat="45.61676" lon="5.28287">
        <ele>275</ele>
        <time>2021-12-05T09:45:55.402Z</time>
      </trkpt>
      <trkpt lat="45.61677" lon="5.28289">
        <ele>276</ele>
        <time>2021-12-05T09:45:56.403Z</time>
      </trkpt>
      <trkpt lat="45.61678" lon="5.28292">
        <ele>276</ele>
        <time>2021-12-05T09:45:57.403Z</time>
      </trkpt>
      <trkpt lat="45.61679" lon="5.28294">
        <ele>276</ele>
        <time>2021-12-05T09:45:58.403Z</time>
      </trkpt>
      <trkpt lat="45.6168" lon="5.28297">
        <ele>277</ele>
        <time>2021-12-05T09:45:59.403Z</time>
      </trkpt>
      <trkpt lat="45.61681" lon="5.28299">
        <ele>277</ele>
        <time>2021-12-05T09:46:00.402Z</time>
      </trkpt>
      <trkpt lat="45.61682" lon="5.28302">
        <ele>277</ele>
        <time>2021-12-05T09:46:01.403Z</time>
      </trkpt>
      <trkpt lat="45.61683" lon="5.28304">
        <ele>278</ele>
        <time>2021-12-05T09:46:02.402Z</time>
      </trkpt>
      <trkpt lat="45.61683" lon="5.28306">
        <ele>278</ele>
        <time>2021-12-05T09:46:03.403Z</time>
      </trkpt>
      <trkpt lat="45.61684" lon="5.28308">
        <ele>278</ele>
        <time>2021-12-05T09:46:04.403Z</time>
      </trkpt>
      <trkpt lat="45.61684" lon="5.2831">
        <ele>279</ele>
        <time>2021-12-05T09:46:05.403Z</time>
      </trkpt>
      <trkpt lat="45.61685" lon="5.2831">
        <ele>279</ele>
        <time>2021-12-05T09:46:06.403Z</time>
      </trkpt>
      <trkpt lat="45.61687" lon="5.2831">
        <ele>279</ele>
        <time>2021-12-05T09:46:07.403Z</time>
      </trkpt>
      <trkpt lat="45.6169" lon="5.2831">
        <ele>279</ele>
        <time>2021-12-05T09:46:08.403Z</time>
      </trkpt>
      <trkpt lat="45.6169" lon="5.2831">
        <ele>279</ele>
        <time>2021-12-05T09:46:09.402Z</time>
      </trkpt>
      <trkpt lat="45.61689" lon="5.2831">
        <ele>279</ele>
        <time>2021-12-05T09:46:10.403Z</time>
      </trkpt>
      <trkpt lat="45.61689" lon="5.2831">
        <ele>279</ele>
        <time>2021-12-05T09:46:11.403Z</time>
      </trkpt>
      <trkpt lat="45.61689" lon="5.28309">
        <ele>278</ele>
        <time>2021-12-05T09:46:12.403Z</time>
      </trkpt>
      <trkpt lat="45.6169" lon="5.28308">
        <ele>278</ele>
        <time>2021-12-05T09:46:13.403Z</time>
      </trkpt>
      <trkpt lat="45.61689" lon="5.28309">
        <ele>278</ele>
        <time>2021-12-05T09:46:14.402Z</time>
      </trkpt>
      <trkpt lat="45.61689" lon="5.28309">
        <ele>278</ele>
        <time>2021-12-05T09:46:15.403Z</time>
      </trkpt>
      <trkpt lat="45.61689" lon="5.28309">
        <ele>279</ele>
        <time>2021-12-05T09:46:16.402Z</time>
      </trkpt>
      <trkpt lat="45.61689" lon="5.28308">
        <ele>279</ele>
        <time>2021-12-05T09:46:17.403Z</time>
      </trkpt>
      <trkpt lat="45.6169" lon="5.28308">
        <ele>279</ele>
        <time>2021-12-05T09:46:18.403Z</time>
      </trkpt>
      <trkpt lat="45.61691" lon="5.28309">
        <ele>280</ele>
        <time>2021-12-05T09:46:19.403Z</time>
      </trkpt>
      <trkpt lat="45.61691" lon="5.2831">
        <ele>280</ele>
        <time>2021-12-05T09:46:20.402Z</time>
      </trkpt>
      <trkpt lat="45.61692" lon="5.28312">
        <ele>280</ele>
        <time>2021-12-05T09:46:21.403Z</time>
      </trkpt>
      <trkpt lat="45.61692" lon="5.28313">
        <ele>280</ele>
        <time>2021-12-05T09:46:22.403Z</time>
      </trkpt>
      <trkpt lat="45.61693" lon="5.28315">
        <ele>280</ele>
        <time>2021-12-05T09:46:23.403Z</time>
      </trkpt>
      <trkpt lat="45.61694" lon="5.28316">
        <ele>280</ele>
        <time>2021-12-05T09:46:24.402Z</time>
      </trkpt>
      <trkpt lat="45.61695" lon="5.28318">
        <ele>280</ele>
        <time>2021-12-05T09:46:25.403Z</time>
      </trkpt>
      <trkpt lat="45.61695" lon="5.28319">
        <ele>280</ele>
        <time>2021-12-05T09:46:26.402Z</time>
      </trkpt>
      <trkpt lat="45.61696" lon="5.28321">
        <ele>280</ele>
        <time>2021-12-05T09:46:27.402Z</time>
      </trkpt>
      <trkpt lat="45.61696" lon="5.28323">
        <ele>280</ele>
        <time>2021-12-05T09:46:28.403Z</time>
      </trkpt>
      <trkpt lat="45.61696" lon="5.28325">
        <ele>280</ele>
        <time>2021-12-05T09:46:29.403Z</time>
      </trkpt>
      <trkpt lat="45.61696" lon="5.28328">
        <ele>280</ele>
        <time>2021-12-05T09:46:30.403Z</time>
      </trkpt>
      <trkpt lat="45.61696" lon="5.2833">
        <ele>280</ele>
        <time>2021-12-05T09:46:31.403Z</time>
      </trkpt>
      <trkpt lat="45.61697" lon="5.28332">
        <ele>280</ele>
        <time>2021-12-05T09:46:32.403Z</time>
      </trkpt>
      <trkpt lat="45.61698" lon="5.28334">
        <ele>280</ele>
        <time>2021-12-05T09:46:33.402Z</time>
      </trkpt>
      <trkpt lat="45.61699" lon="5.28336">
        <ele>280</ele>
        <time>2021-12-05T09:46:34.403Z</time>
      </trkpt>
      <trkpt lat="45.617" lon="5.28338">
        <ele>280</ele>
        <time>2021-12-05T09:46:35.403Z</time>
      </trkpt>
      <trkpt lat="45.61701" lon="5.2834">
        <ele>280</ele>
        <time>2021-12-05T09:46:36.403Z</time>
      </trkpt>
      <trkpt lat="45.61702" lon="5.28342">
        <ele>280</ele>
        <time>2021-12-05T09:46:37.403Z</time>
      </trkpt>
      <trkpt lat="45.61703" lon="5.28345">
        <ele>280</ele>
        <time>2021-12-05T09:46:38.403Z</time>
      </trkpt>
      <trkpt lat="45.61704" lon="5.28347">
        <ele>281</ele>
        <time>2021-12-05T09:46:39.403Z</time>
      </trkpt>
      <trkpt lat="45.61705" lon="5.28349">
        <ele>281</ele>
        <time>2021-12-05T09:46:40.402Z</time>
      </trkpt>
      <trkpt lat="45.61706" lon="5.28352">
        <ele>281</ele>
        <time>2021-12-05T09:46:41.402Z</time>
      </trkpt>
      <trkpt lat="45.61706" lon="5.28355">
        <ele>282</ele>
        <time>2021-12-05T09:46:42.403Z</time>
      </trkpt>
      <trkpt lat="45.61707" lon="5.28358">
        <ele>282</ele>
        <time>2021-12-05T09:46:43.403Z</time>
      </trkpt>
      <trkpt lat="45.61708" lon="5.28361">
        <ele>282</ele>
        <time>2021-12-05T09:46:44.403Z</time>
      </trkpt>
      <trkpt lat="45.61709" lon="5.28364">
        <ele>282</ele>
        <time>2021-12-05T09:46:45.403Z</time>
      </trkpt>
      <trkpt lat="45.6171" lon="5.28366">
        <ele>282</ele>
        <time>2021-12-05T09:46:46.403Z</time>
      </trkpt>
      <trkpt lat="45.6171" lon="5.28369">
        <ele>282</ele>
        <time>2021-12-05T09:46:47.403Z</time>
      </trkpt>
      <trkpt lat="45.6171" lon="5.28371">
        <ele>282</ele>
        <time>2021-12-05T09:46:48.403Z</time>
      </trkpt>
      <trkpt lat="45.61711" lon="5.28374">
        <ele>283</ele>
        <time>2021-12-05T09:46:49.402Z</time>
      </trkpt>
      <trkpt lat="45.61712" lon="5.28377">
        <ele>283</ele>
        <time>2021-12-05T09:46:50.402Z</time>
      </trkpt>
      <trkpt lat="45.61712" lon="5.28379">
        <ele>283</ele>
        <time>2021-12-05T09:46:51.403Z</time>
      </trkpt>
      <trkpt lat="45.61713" lon="5.28382">
        <ele>283</ele>
        <time>2021-12-05T09:46:52.403Z</time>
      </trkpt>
      <trkpt lat="45.61714" lon="5.28385">
        <ele>283</ele>
        <time>2021-12-05T09:46:53.402Z</time>
      </trkpt>
      <trkpt lat="45.61714" lon="5.28388">
        <ele>283</ele>
        <time>2021-12-05T09:46:54.403Z</time>
      </trkpt>
      <trkpt lat="45.61714" lon="5.2839">
        <ele>283</ele>
        <time>2021-12-05T09:46:55.403Z</time>
      </trkpt>
      <trkpt lat="45.61715" lon="5.28393">
        <ele>283</ele>
        <time>2021-12-05T09:46:56.403Z</time>
      </trkpt>
      <trkpt lat="45.61715" lon="5.28395">
        <ele>283</ele>
        <time>2021-12-05T09:46:57.403Z</time>
      </trkpt>
      <trkpt lat="45.61716" lon="5.28398">
        <ele>283</ele>
        <time>2021-12-05T09:46:58.403Z</time>
      </trkpt>
      <trkpt lat="45.61716" lon="5.28401">
        <ele>284</ele>
        <time>2021-12-05T09:46:59.403Z</time>
      </trkpt>
      <trkpt lat="45.61717" lon="5.28403">
        <ele>284</ele>
        <time>2021-12-05T09:47:00.403Z</time>
      </trkpt>
      <trkpt lat="45.61718" lon="5.28406">
        <ele>284</ele>
        <time>2021-12-05T09:47:01.403Z</time>
      </trkpt>
      <trkpt lat="45.61718" lon="5.28409">
        <ele>284</ele>
        <time>2021-12-05T09:47:02.403Z</time>
      </trkpt>
      <trkpt lat="45.61718" lon="5.28411">
        <ele>284</ele>
        <time>2021-12-05T09:47:03.403Z</time>
      </trkpt>
      <trkpt lat="45.61719" lon="5.28414">
        <ele>284</ele>
        <time>2021-12-05T09:47:04.403Z</time>
      </trkpt>
      <trkpt lat="45.6172" lon="5.28417">
        <ele>284</ele>
        <time>2021-12-05T09:47:05.403Z</time>
      </trkpt>
      <trkpt lat="45.6172" lon="5.28421">
        <ele>284</ele>
        <time>2021-12-05T09:47:06.403Z</time>
      </trkpt>
      <trkpt lat="45.61721" lon="5.28424">
        <ele>284</ele>
        <time>2021-12-05T09:47:07.402Z</time>
      </trkpt>
      <trkpt lat="45.61721" lon="5.28426">
        <ele>284</ele>
        <time>2021-12-05T09:47:08.402Z</time>
      </trkpt>
      <trkpt lat="45.61722" lon="5.28429">
        <ele>284</ele>
        <time>2021-12-05T09:47:09.403Z</time>
      </trkpt>
      <trkpt lat="45.61723" lon="5.28432">
        <ele>284</ele>
        <time>2021-12-05T09:47:10.403Z</time>
      </trkpt>
      <trkpt lat="45.61723" lon="5.28435">
        <ele>284</ele>
        <time>2021-12-05T09:47:11.403Z</time>
      </trkpt>
      <trkpt lat="45.61724" lon="5.28438">
        <ele>285</ele>
        <time>2021-12-05T09:47:12.402Z</time>
      </trkpt>
      <trkpt lat="45.61725" lon="5.28441">
        <ele>285</ele>
        <time>2021-12-05T09:47:13.402Z</time>
      </trkpt>
      <trkpt lat="45.61725" lon="5.28444">
        <ele>285</ele>
        <time>2021-12-05T09:47:14.403Z</time>
      </trkpt>
      <trkpt lat="45.61726" lon="5.28447">
        <ele>286</ele>
        <time>2021-12-05T09:47:15.403Z</time>
      </trkpt>
      <trkpt lat="45.61727" lon="5.2845">
        <ele>286</ele>
        <time>2021-12-05T09:47:16.403Z</time>
      </trkpt>
      <trkpt lat="45.61728" lon="5.28453">
        <ele>286</ele>
        <time>2021-12-05T09:47:17.403Z</time>
      </trkpt>
      <trkpt lat="45.61729" lon="5.28456">
        <ele>286</ele>
        <time>2021-12-05T09:47:18.403Z</time>
      </trkpt>
      <trkpt lat="45.61729" lon="5.2846">
        <ele>287</ele>
        <time>2021-12-05T09:47:19.403Z</time>
      </trkpt>
      <trkpt lat="45.6173" lon="5.28463">
        <ele>287</ele>
        <time>2021-12-05T09:47:20.403Z</time>
      </trkpt>
      <trkpt lat="45.61731" lon="5.28466">
        <ele>287</ele>
        <time>2021-12-05T09:47:21.403Z</time>
      </trkpt>
      <trkpt lat="45.61731" lon="5.28469">
        <ele>287</ele>
        <time>2021-12-05T09:47:22.403Z</time>
      </trkpt>
      <trkpt lat="45.61732" lon="5.28472">
        <ele>287</ele>
        <time>2021-12-05T09:47:23.403Z</time>
      </trkpt>
      <trkpt lat="45.61732" lon="5.28476">
        <ele>287</ele>
        <time>2021-12-05T09:47:24.403Z</time>
      </trkpt>
      <trkpt lat="45.61733" lon="5.28479">
        <ele>288</ele>
        <time>2021-12-05T09:47:25.403Z</time>
      </trkpt>
      <trkpt lat="45.61734" lon="5.28482">
        <ele>288</ele>
        <time>2021-12-05T09:47:26.403Z</time>
      </trkpt>
      <trkpt lat="45.61735" lon="5.28486">
        <ele>288</ele>
        <time>2021-12-05T09:47:27.403Z</time>
      </trkpt>
      <trkpt lat="45.61736" lon="5.28489">
        <ele>288</ele>
        <time>2021-12-05T09:47:28.403Z</time>
      </trkpt>
      <trkpt lat="45.61736" lon="5.28492">
        <ele>288</ele>
        <time>2021-12-05T09:47:29.402Z</time>
      </trkpt>
      <trkpt lat="45.61737" lon="5.28495">
        <ele>288</ele>
        <time>2021-12-05T09:47:30.403Z</time>
      </trkpt>
      <trkpt lat="45.61738" lon="5.28499">
        <ele>288</ele>
        <time>2021-12-05T09:47:31.403Z</time>
      </trkpt>
      <trkpt lat="45.61738" lon="5.28502">
        <ele>288</ele>
        <time>2021-12-05T09:47:32.403Z</time>
      </trkpt>
      <trkpt lat="45.61738" lon="5.28505">
        <ele>288</ele>
        <time>2021-12-05T09:47:33.403Z</time>
      </trkpt>
      <trkpt lat="45.61739" lon="5.28508">
        <ele>288</ele>
        <time>2021-12-05T09:47:34.403Z</time>
      </trkpt>
      <trkpt lat="45.61739" lon="5.28512">
        <ele>288</ele>
        <time>2021-12-05T09:47:35.403Z</time>
      </trkpt>
      <trkpt lat="45.61739" lon="5.28515">
        <ele>288</ele>
        <time>2021-12-05T09:47:36.403Z</time>
      </trkpt>
      <trkpt lat="45.61739" lon="5.28518">
        <ele>288</ele>
        <time>2021-12-05T09:47:37.403Z</time>
      </trkpt>
      <trkpt lat="45.6174" lon="5.28521">
        <ele>288</ele>
        <time>2021-12-05T09:47:38.403Z</time>
      </trkpt>
      <trkpt lat="45.6174" lon="5.28524">
        <ele>288</ele>
        <time>2021-12-05T09:47:39.403Z</time>
      </trkpt>
      <trkpt lat="45.6174" lon="5.28528">
        <ele>289</ele>
        <time>2021-12-05T09:47:40.403Z</time>
      </trkpt>
      <trkpt lat="45.6174" lon="5.28531">
        <ele>289</ele>
        <time>2021-12-05T09:47:41.403Z</time>
      </trkpt>
      <trkpt lat="45.6174" lon="5.28534">
        <ele>289</ele>
        <time>2021-12-05T09:47:42.403Z</time>
      </trkpt>
      <trkpt lat="45.6174" lon="5.28537">
        <ele>289</ele>
        <time>2021-12-05T09:47:43.403Z</time>
      </trkpt>
      <trkpt lat="45.6174" lon="5.2854">
        <ele>289</ele>
        <time>2021-12-05T09:47:44.403Z</time>
      </trkpt>
      <trkpt lat="45.6174" lon="5.28543">
        <ele>289</ele>
        <time>2021-12-05T09:47:45.403Z</time>
      </trkpt>
      <trkpt lat="45.6174" lon="5.28546">
        <ele>289</ele>
        <time>2021-12-05T09:47:46.403Z</time>
      </trkpt>
      <trkpt lat="45.61741" lon="5.2855">
        <ele>289</ele>
        <time>2021-12-05T09:47:47.403Z</time>
      </trkpt>
      <trkpt lat="45.61741" lon="5.28553">
        <ele>290</ele>
        <time>2021-12-05T09:47:48.402Z</time>
      </trkpt>
      <trkpt lat="45.61741" lon="5.28556">
        <ele>290</ele>
        <time>2021-12-05T09:47:49.403Z</time>
      </trkpt>
      <trkpt lat="45.61742" lon="5.2856">
        <ele>290</ele>
        <time>2021-12-05T09:47:50.403Z</time>
      </trkpt>
      <trkpt lat="45.61742" lon="5.28563">
        <ele>290</ele>
        <time>2021-12-05T09:47:51.403Z</time>
      </trkpt>
      <trkpt lat="45.61742" lon="5.28566">
        <ele>290</ele>
        <time>2021-12-05T09:47:52.403Z</time>
      </trkpt>
      <trkpt lat="45.61741" lon="5.28569">
        <ele>290</ele>
        <time>2021-12-05T09:47:53.403Z</time>
      </trkpt>
      <trkpt lat="45.6174" lon="5.28573">
        <ele>291</ele>
        <time>2021-12-05T09:47:54.403Z</time>
      </trkpt>
      <trkpt lat="45.6174" lon="5.28576">
        <ele>291</ele>
        <time>2021-12-05T09:47:55.403Z</time>
      </trkpt>
      <trkpt lat="45.6174" lon="5.28579">
        <ele>291</ele>
        <time>2021-12-05T09:47:56.403Z</time>
      </trkpt>
      <trkpt lat="45.6174" lon="5.28582">
        <ele>291</ele>
        <time>2021-12-05T09:47:57.403Z</time>
      </trkpt>
      <trkpt lat="45.6174" lon="5.28586">
        <ele>291</ele>
        <time>2021-12-05T09:47:58.402Z</time>
      </trkpt>
      <trkpt lat="45.61741" lon="5.28589">
        <ele>291</ele>
        <time>2021-12-05T09:47:59.403Z</time>
      </trkpt>
      <trkpt lat="45.6174" lon="5.28592">
        <ele>291</ele>
        <time>2021-12-05T09:48:00.403Z</time>
      </trkpt>
      <trkpt lat="45.6174" lon="5.28596">
        <ele>291</ele>
        <time>2021-12-05T09:48:01.402Z</time>
      </trkpt>
      <trkpt lat="45.6174" lon="5.28598">
        <ele>291</ele>
        <time>2021-12-05T09:48:02.403Z</time>
      </trkpt>
      <trkpt lat="45.6174" lon="5.28601">
        <ele>291</ele>
        <time>2021-12-05T09:48:03.403Z</time>
      </trkpt>
      <trkpt lat="45.6174" lon="5.28605">
        <ele>291</ele>
        <time>2021-12-05T09:48:04.403Z</time>
      </trkpt>
      <trkpt lat="45.6174" lon="5.28608">
        <ele>291</ele>
        <time>2021-12-05T09:48:05.403Z</time>
      </trkpt>
      <trkpt lat="45.6174" lon="5.28611">
        <ele>292</ele>
        <time>2021-12-05T09:48:06.402Z</time>
      </trkpt>
      <trkpt lat="45.6174" lon="5.28614">
        <ele>292</ele>
        <time>2021-12-05T09:48:07.403Z</time>
      </trkpt>
      <trkpt lat="45.6174" lon="5.28618">
        <ele>292</ele>
        <time>2021-12-05T09:48:08.403Z</time>
      </trkpt>
      <trkpt lat="45.6174" lon="5.28621">
        <ele>292</ele>
        <time>2021-12-05T09:48:09.403Z</time>
      </trkpt>
      <trkpt lat="45.61739" lon="5.28624">
        <ele>293</ele>
        <time>2021-12-05T09:48:10.402Z</time>
      </trkpt>
      <trkpt lat="45.61739" lon="5.28627">
        <ele>293</ele>
        <time>2021-12-05T09:48:11.403Z</time>
      </trkpt>
      <trkpt lat="45.61738" lon="5.2863">
        <ele>294</ele>
        <time>2021-12-05T09:48:12.403Z</time>
      </trkpt>
      <trkpt lat="45.61738" lon="5.28632">
        <ele>294</ele>
        <time>2021-12-05T09:48:13.402Z</time>
      </trkpt>
      <trkpt lat="45.61737" lon="5.28635">
        <ele>295</ele>
        <time>2021-12-05T09:48:14.403Z</time>
      </trkpt>
      <trkpt lat="45.61737" lon="5.28638">
        <ele>295</ele>
        <time>2021-12-05T09:48:15.402Z</time>
      </trkpt>
      <trkpt lat="45.61737" lon="5.2864">
        <ele>296</ele>
        <time>2021-12-05T09:48:16.403Z</time>
      </trkpt>
      <trkpt lat="45.61736" lon="5.28641">
        <ele>296</ele>
        <time>2021-12-05T09:48:17.403Z</time>
      </trkpt>
      <trkpt lat="45.61735" lon="5.28642">
        <ele>297</ele>
        <time>2021-12-05T09:48:18.403Z</time>
      </trkpt>
      <trkpt lat="45.61735" lon="5.28644">
        <ele>297</ele>
        <time>2021-12-05T09:48:19.403Z</time>
      </trkpt>
      <trkpt lat="45.61735" lon="5.28647">
        <ele>297</ele>
        <time>2021-12-05T09:48:20.402Z</time>
      </trkpt>
      <trkpt lat="45.61734" lon="5.28649">
        <ele>297</ele>
        <time>2021-12-05T09:48:21.403Z</time>
      </trkpt>
      <trkpt lat="45.61734" lon="5.28652">
        <ele>297</ele>
        <time>2021-12-05T09:48:22.403Z</time>
      </trkpt>
      <trkpt lat="45.61734" lon="5.28654">
        <ele>297</ele>
        <time>2021-12-05T09:48:23.403Z</time>
      </trkpt>
      <trkpt lat="45.61733" lon="5.28658">
        <ele>297</ele>
        <time>2021-12-05T09:48:24.402Z</time>
      </trkpt>
      <trkpt lat="45.61733" lon="5.28661">
        <ele>297</ele>
        <time>2021-12-05T09:48:25.403Z</time>
      </trkpt>
      <trkpt lat="45.61732" lon="5.28664">
        <ele>297</ele>
        <time>2021-12-05T09:48:26.403Z</time>
      </trkpt>
      <trkpt lat="45.61732" lon="5.28667">
        <ele>297</ele>
        <time>2021-12-05T09:48:27.403Z</time>
      </trkpt>
      <trkpt lat="45.61733" lon="5.2867">
        <ele>297</ele>
        <time>2021-12-05T09:48:28.403Z</time>
      </trkpt>
      <trkpt lat="45.61733" lon="5.28673">
        <ele>297</ele>
        <time>2021-12-05T09:48:29.402Z</time>
      </trkpt>
      <trkpt lat="45.61733" lon="5.28676">
        <ele>297</ele>
        <time>2021-12-05T09:48:30.402Z</time>
      </trkpt>
      <trkpt lat="45.61733" lon="5.28679">
        <ele>297</ele>
        <time>2021-12-05T09:48:31.403Z</time>
      </trkpt>
      <trkpt lat="45.61733" lon="5.28682">
        <ele>297</ele>
        <time>2021-12-05T09:48:32.403Z</time>
      </trkpt>
      <trkpt lat="45.61734" lon="5.28685">
        <ele>297</ele>
        <time>2021-12-05T09:48:33.403Z</time>
      </trkpt>
      <trkpt lat="45.61734" lon="5.28687">
        <ele>297</ele>
        <time>2021-12-05T09:48:34.403Z</time>
      </trkpt>
      <trkpt lat="45.61733" lon="5.28691">
        <ele>297</ele>
        <time>2021-12-05T09:48:35.402Z</time>
      </trkpt>
      <trkpt lat="45.61733" lon="5.28694">
        <ele>297</ele>
        <time>2021-12-05T09:48:36.403Z</time>
      </trkpt>
      <trkpt lat="45.61733" lon="5.28697">
        <ele>297</ele>
        <time>2021-12-05T09:48:37.403Z</time>
      </trkpt>
      <trkpt lat="45.61732" lon="5.287">
        <ele>297</ele>
        <time>2021-12-05T09:48:38.403Z</time>
      </trkpt>
      <trkpt lat="45.61732" lon="5.28703">
        <ele>297</ele>
        <time>2021-12-05T09:48:39.403Z</time>
      </trkpt>
      <trkpt lat="45.61733" lon="5.28706">
        <ele>297</ele>
        <time>2021-12-05T09:48:40.403Z</time>
      </trkpt>
      <trkpt lat="45.61733" lon="5.28709">
        <ele>297</ele>
        <time>2021-12-05T09:48:41.403Z</time>
      </trkpt>
      <trkpt lat="45.61733" lon="5.28712">
        <ele>297</ele>
        <time>2021-12-05T09:48:42.403Z</time>
      </trkpt>
      <trkpt lat="45.61733" lon="5.28715">
        <ele>297</ele>
        <time>2021-12-05T09:48:43.403Z</time>
      </trkpt>
      <trkpt lat="45.61732" lon="5.28718">
        <ele>297</ele>
        <time>2021-12-05T09:48:44.402Z</time>
      </trkpt>
      <trkpt lat="45.61732" lon="5.28721">
        <ele>297</ele>
        <time>2021-12-05T09:48:45.403Z</time>
      </trkpt>
      <trkpt lat="45.61732" lon="5.28723">
        <ele>297</ele>
        <time>2021-12-05T09:48:46.402Z</time>
      </trkpt>
      <trkpt lat="45.61732" lon="5.28726">
        <ele>297</ele>
        <time>2021-12-05T09:48:47.403Z</time>
      </trkpt>
      <trkpt lat="45.61731" lon="5.28729">
        <ele>297</ele>
        <time>2021-12-05T09:48:48.403Z</time>
      </trkpt>
      <trkpt lat="45.61731" lon="5.28732">
        <ele>297</ele>
        <time>2021-12-05T09:48:49.403Z</time>
      </trkpt>
      <trkpt lat="45.61731" lon="5.28735">
        <ele>297</ele>
        <time>2021-12-05T09:48:50.402Z</time>
      </trkpt>
      <trkpt lat="45.61732" lon="5.28738">
        <ele>297</ele>
        <time>2021-12-05T09:48:51.403Z</time>
      </trkpt>
      <trkpt lat="45.61732" lon="5.28741">
        <ele>298</ele>
        <time>2021-12-05T09:48:52.402Z</time>
      </trkpt>
      <trkpt lat="45.61732" lon="5.28744">
        <ele>298</ele>
        <time>2021-12-05T09:48:53.402Z</time>
      </trkpt>
      <trkpt lat="45.61732" lon="5.28747">
        <ele>298</ele>
        <time>2021-12-05T09:48:54.403Z</time>
      </trkpt>
      <trkpt lat="45.61732" lon="5.2875">
        <ele>298</ele>
        <time>2021-12-05T09:48:55.403Z</time>
      </trkpt>
      <trkpt lat="45.61733" lon="5.28753">
        <ele>299</ele>
        <time>2021-12-05T09:48:56.403Z</time>
      </trkpt>
      <trkpt lat="45.61733" lon="5.28756">
        <ele>299</ele>
        <time>2021-12-05T09:48:57.403Z</time>
      </trkpt>
      <trkpt lat="45.61733" lon="5.28759">
        <ele>299</ele>
        <time>2021-12-05T09:48:58.403Z</time>
      </trkpt>
      <trkpt lat="45.61733" lon="5.28762">
        <ele>299</ele>
        <time>2021-12-05T09:48:59.402Z</time>
      </trkpt>
      <trkpt lat="45.61733" lon="5.28765">
        <ele>299</ele>
        <time>2021-12-05T09:49:00.403Z</time>
      </trkpt>
      <trkpt lat="45.61733" lon="5.28768">
        <ele>299</ele>
        <time>2021-12-05T09:49:01.403Z</time>
      </trkpt>
      <trkpt lat="45.61733" lon="5.28771">
        <ele>298</ele>
        <time>2021-12-05T09:49:02.402Z</time>
      </trkpt>
      <trkpt lat="45.61734" lon="5.28774">
        <ele>298</ele>
        <time>2021-12-05T09:49:03.403Z</time>
      </trkpt>
      <trkpt lat="45.61734" lon="5.28777">
        <ele>298</ele>
        <time>2021-12-05T09:49:04.403Z</time>
      </trkpt>
      <trkpt lat="45.61735" lon="5.2878">
        <ele>298</ele>
        <time>2021-12-05T09:49:05.403Z</time>
      </trkpt>
      <trkpt lat="45.61735" lon="5.28783">
        <ele>298</ele>
        <time>2021-12-05T09:49:06.402Z</time>
      </trkpt>
      <trkpt lat="45.61736" lon="5.28785">
        <ele>298</ele>
        <time>2021-12-05T09:49:07.403Z</time>
      </trkpt>
      <trkpt lat="45.61737" lon="5.28788">
        <ele>298</ele>
        <time>2021-12-05T09:49:08.403Z</time>
      </trkpt>
      <trkpt lat="45.61738" lon="5.28791">
        <ele>298</ele>
        <time>2021-12-05T09:49:09.402Z</time>
      </trkpt>
      <trkpt lat="45.61739" lon="5.28795">
        <ele>298</ele>
        <time>2021-12-05T09:49:10.403Z</time>
      </trkpt>
      <trkpt lat="45.6174" lon="5.28797">
        <ele>298</ele>
        <time>2021-12-05T09:49:11.403Z</time>
      </trkpt>
      <trkpt lat="45.61741" lon="5.288">
        <ele>299</ele>
        <time>2021-12-05T09:49:12.403Z</time>
      </trkpt>
      <trkpt lat="45.61742" lon="5.28803">
        <ele>299</ele>
        <time>2021-12-05T09:49:13.403Z</time>
      </trkpt>
      <trkpt lat="45.61744" lon="5.28806">
        <ele>300</ele>
        <time>2021-12-05T09:49:14.402Z</time>
      </trkpt>
      <trkpt lat="45.61744" lon="5.28809">
        <ele>300</ele>
        <time>2021-12-05T09:49:15.403Z</time>
      </trkpt>
      <trkpt lat="45.61744" lon="5.28812">
        <ele>301</ele>
        <time>2021-12-05T09:49:16.403Z</time>
      </trkpt>
      <trkpt lat="45.61745" lon="5.28815">
        <ele>301</ele>
        <time>2021-12-05T09:49:17.403Z</time>
      </trkpt>
      <trkpt lat="45.61746" lon="5.28818">
        <ele>302</ele>
        <time>2021-12-05T09:49:18.403Z</time>
      </trkpt>
      <trkpt lat="45.61747" lon="5.2882">
        <ele>302</ele>
        <time>2021-12-05T09:49:19.403Z</time>
      </trkpt>
      <trkpt lat="45.61748" lon="5.28823">
        <ele>303</ele>
        <time>2021-12-05T09:49:20.403Z</time>
      </trkpt>
      <trkpt lat="45.61749" lon="5.28826">
        <ele>303</ele>
        <time>2021-12-05T09:49:21.403Z</time>
      </trkpt>
      <trkpt lat="45.61749" lon="5.28828">
        <ele>303</ele>
        <time>2021-12-05T09:49:22.402Z</time>
      </trkpt>
      <trkpt lat="45.6175" lon="5.28831">
        <ele>304</ele>
        <time>2021-12-05T09:49:23.402Z</time>
      </trkpt>
      <trkpt lat="45.61751" lon="5.28834">
        <ele>304</ele>
        <time>2021-12-05T09:49:24.402Z</time>
      </trkpt>
      <trkpt lat="45.61752" lon="5.28837">
        <ele>305</ele>
        <time>2021-12-05T09:49:25.402Z</time>
      </trkpt>
      <trkpt lat="45.61753" lon="5.2884">
        <ele>305</ele>
        <time>2021-12-05T09:49:26.403Z</time>
      </trkpt>
      <trkpt lat="45.61754" lon="5.28843">
        <ele>305</ele>
        <time>2021-12-05T09:49:27.403Z</time>
      </trkpt>
      <trkpt lat="45.61755" lon="5.28846">
        <ele>305</ele>
        <time>2021-12-05T09:49:28.403Z</time>
      </trkpt>
      <trkpt lat="45.61756" lon="5.28848">
        <ele>305</ele>
        <time>2021-12-05T09:49:29.402Z</time>
      </trkpt>
      <trkpt lat="45.61757" lon="5.28851">
        <ele>305</ele>
        <time>2021-12-05T09:49:30.403Z</time>
      </trkpt>
      <trkpt lat="45.61758" lon="5.28854">
        <ele>305</ele>
        <time>2021-12-05T09:49:31.403Z</time>
      </trkpt>
      <trkpt lat="45.61759" lon="5.28857">
        <ele>306</ele>
        <time>2021-12-05T09:49:32.403Z</time>
      </trkpt>
      <trkpt lat="45.6176" lon="5.28859">
        <ele>306</ele>
        <time>2021-12-05T09:49:33.403Z</time>
      </trkpt>
      <trkpt lat="45.61761" lon="5.28862">
        <ele>306</ele>
        <time>2021-12-05T09:49:34.403Z</time>
      </trkpt>
      <trkpt lat="45.61762" lon="5.28865">
        <ele>307</ele>
        <time>2021-12-05T09:49:35.403Z</time>
      </trkpt>
      <trkpt lat="45.61762" lon="5.28868">
        <ele>307</ele>
        <time>2021-12-05T09:49:36.403Z</time>
      </trkpt>
      <trkpt lat="45.61763" lon="5.2887">
        <ele>307</ele>
        <time>2021-12-05T09:49:37.403Z</time>
      </trkpt>
      <trkpt lat="45.61764" lon="5.28873">
        <ele>307</ele>
        <time>2021-12-05T09:49:38.402Z</time>
      </trkpt>
      <trkpt lat="45.61765" lon="5.28875">
        <ele>307</ele>
        <time>2021-12-05T09:49:39.403Z</time>
      </trkpt>
      <trkpt lat="45.61766" lon="5.28878">
        <ele>307</ele>
        <time>2021-12-05T09:49:40.403Z</time>
      </trkpt>
      <trkpt lat="45.61766" lon="5.28881">
        <ele>308</ele>
        <time>2021-12-05T09:49:41.403Z</time>
      </trkpt>
      <trkpt lat="45.61767" lon="5.28884">
        <ele>308</ele>
        <time>2021-12-05T09:49:42.403Z</time>
      </trkpt>
      <trkpt lat="45.61768" lon="5.28886">
        <ele>308</ele>
        <time>2021-12-05T09:49:43.403Z</time>
      </trkpt>
      <trkpt lat="45.61768" lon="5.28889">
        <ele>308</ele>
        <time>2021-12-05T09:49:44.403Z</time>
      </trkpt>
      <trkpt lat="45.61768" lon="5.28892">
        <ele>308</ele>
        <time>2021-12-05T09:49:45.403Z</time>
      </trkpt>
      <trkpt lat="45.61769" lon="5.28894">
        <ele>308</ele>
        <time>2021-12-05T09:49:46.403Z</time>
      </trkpt>
      <trkpt lat="45.6177" lon="5.28897">
        <ele>308</ele>
        <time>2021-12-05T09:49:47.403Z</time>
      </trkpt>
      <trkpt lat="45.61771" lon="5.28899">
        <ele>308</ele>
        <time>2021-12-05T09:49:48.402Z</time>
      </trkpt>
      <trkpt lat="45.61772" lon="5.28902">
        <ele>308</ele>
        <time>2021-12-05T09:49:49.403Z</time>
      </trkpt>
      <trkpt lat="45.61773" lon="5.28904">
        <ele>308</ele>
        <time>2021-12-05T09:49:50.402Z</time>
      </trkpt>
      <trkpt lat="45.61774" lon="5.28907">
        <ele>308</ele>
        <time>2021-12-05T09:49:51.403Z</time>
      </trkpt>
      <trkpt lat="45.61774" lon="5.2891">
        <ele>308</ele>
        <time>2021-12-05T09:49:52.402Z</time>
      </trkpt>
      <trkpt lat="45.61775" lon="5.28912">
        <ele>308</ele>
        <time>2021-12-05T09:49:53.403Z</time>
      </trkpt>
      <trkpt lat="45.61776" lon="5.28915">
        <ele>308</ele>
        <time>2021-12-05T09:49:54.402Z</time>
      </trkpt>
      <trkpt lat="45.61777" lon="5.28918">
        <ele>308</ele>
        <time>2021-12-05T09:49:55.403Z</time>
      </trkpt>
      <trkpt lat="45.61778" lon="5.28921">
        <ele>308</ele>
        <time>2021-12-05T09:49:56.403Z</time>
      </trkpt>
      <trkpt lat="45.61778" lon="5.28923">
        <ele>309</ele>
        <time>2021-12-05T09:49:57.403Z</time>
      </trkpt>
      <trkpt lat="45.61779" lon="5.28926">
        <ele>309</ele>
        <time>2021-12-05T09:49:58.403Z</time>
      </trkpt>
      <trkpt lat="45.6178" lon="5.28929">
        <ele>310</ele>
        <time>2021-12-05T09:49:59.403Z</time>
      </trkpt>
      <trkpt lat="45.6178" lon="5.28932">
        <ele>310</ele>
        <time>2021-12-05T09:50:00.402Z</time>
      </trkpt>
      <trkpt lat="45.6178" lon="5.28935">
        <ele>310</ele>
        <time>2021-12-05T09:50:01.403Z</time>
      </trkpt>
      <trkpt lat="45.6178" lon="5.28938">
        <ele>311</ele>
        <time>2021-12-05T09:50:02.403Z</time>
      </trkpt>
      <trkpt lat="45.61781" lon="5.2894">
        <ele>311</ele>
        <time>2021-12-05T09:50:03.402Z</time>
      </trkpt>
      <trkpt lat="45.61781" lon="5.28944">
        <ele>311</ele>
        <time>2021-12-05T09:50:04.403Z</time>
      </trkpt>
      <trkpt lat="45.61781" lon="5.28947">
        <ele>311</ele>
        <time>2021-12-05T09:50:05.403Z</time>
      </trkpt>
      <trkpt lat="45.61781" lon="5.28949">
        <ele>312</ele>
        <time>2021-12-05T09:50:06.402Z</time>
      </trkpt>
      <trkpt lat="45.61781" lon="5.28952">
        <ele>312</ele>
        <time>2021-12-05T09:50:07.403Z</time>
      </trkpt>
      <trkpt lat="45.6178" lon="5.28955">
        <ele>312</ele>
        <time>2021-12-05T09:50:08.403Z</time>
      </trkpt>
      <trkpt lat="45.6178" lon="5.28958">
        <ele>312</ele>
        <time>2021-12-05T09:50:09.403Z</time>
      </trkpt>
      <trkpt lat="45.61779" lon="5.28961">
        <ele>312</ele>
        <time>2021-12-05T09:50:10.403Z</time>
      </trkpt>
      <trkpt lat="45.61778" lon="5.28964">
        <ele>312</ele>
        <time>2021-12-05T09:50:11.403Z</time>
      </trkpt>
      <trkpt lat="45.61778" lon="5.28967">
        <ele>312</ele>
        <time>2021-12-05T09:50:12.402Z</time>
      </trkpt>
      <trkpt lat="45.61777" lon="5.28971">
        <ele>313</ele>
        <time>2021-12-05T09:50:13.402Z</time>
      </trkpt>
      <trkpt lat="45.61776" lon="5.28973">
        <ele>313</ele>
        <time>2021-12-05T09:50:14.403Z</time>
      </trkpt>
      <trkpt lat="45.61776" lon="5.28976">
        <ele>313</ele>
        <time>2021-12-05T09:50:15.403Z</time>
      </trkpt>
      <trkpt lat="45.61777" lon="5.28979">
        <ele>313</ele>
        <time>2021-12-05T09:50:16.403Z</time>
      </trkpt>
      <trkpt lat="45.61777" lon="5.28982">
        <ele>314</ele>
        <time>2021-12-05T09:50:17.403Z</time>
      </trkpt>
      <trkpt lat="45.61776" lon="5.28984">
        <ele>314</ele>
        <time>2021-12-05T09:50:18.403Z</time>
      </trkpt>
      <trkpt lat="45.61776" lon="5.28987">
        <ele>314</ele>
        <time>2021-12-05T09:50:19.403Z</time>
      </trkpt>
      <trkpt lat="45.61776" lon="5.2899">
        <ele>315</ele>
        <time>2021-12-05T09:50:20.403Z</time>
      </trkpt>
      <trkpt lat="45.61776" lon="5.28993">
        <ele>315</ele>
        <time>2021-12-05T09:50:21.403Z</time>
      </trkpt>
      <trkpt lat="45.61775" lon="5.28996">
        <ele>315</ele>
        <time>2021-12-05T09:50:22.403Z</time>
      </trkpt>
      <trkpt lat="45.61775" lon="5.28999">
        <ele>316</ele>
        <time>2021-12-05T09:50:23.403Z</time>
      </trkpt>
      <trkpt lat="45.61774" lon="5.29002">
        <ele>316</ele>
        <time>2021-12-05T09:50:24.403Z</time>
      </trkpt>
      <trkpt lat="45.61773" lon="5.29005">
        <ele>316</ele>
        <time>2021-12-05T09:50:25.403Z</time>
      </trkpt>
      <trkpt lat="45.61772" lon="5.29007">
        <ele>316</ele>
        <time>2021-12-05T09:50:26.403Z</time>
      </trkpt>
      <trkpt lat="45.61772" lon="5.2901">
        <ele>316</ele>
        <time>2021-12-05T09:50:27.403Z</time>
      </trkpt>
      <trkpt lat="45.61771" lon="5.29013">
        <ele>317</ele>
        <time>2021-12-05T09:50:28.403Z</time>
      </trkpt>
      <trkpt lat="45.61771" lon="5.29015">
        <ele>317</ele>
        <time>2021-12-05T09:50:29.403Z</time>
      </trkpt>
      <trkpt lat="45.61771" lon="5.29018">
        <ele>317</ele>
        <time>2021-12-05T09:50:30.403Z</time>
      </trkpt>
      <trkpt lat="45.61771" lon="5.29021">
        <ele>317</ele>
        <time>2021-12-05T09:50:31.402Z</time>
      </trkpt>
      <trkpt lat="45.6177" lon="5.29024">
        <ele>318</ele>
        <time>2021-12-05T09:50:32.402Z</time>
      </trkpt>
      <trkpt lat="45.6177" lon="5.29027">
        <ele>318</ele>
        <time>2021-12-05T09:50:33.403Z</time>
      </trkpt>
      <trkpt lat="45.61769" lon="5.29029">
        <ele>319</ele>
        <time>2021-12-05T09:50:34.402Z</time>
      </trkpt>
      <trkpt lat="45.61769" lon="5.29032">
        <ele>319</ele>
        <time>2021-12-05T09:50:35.403Z</time>
      </trkpt>
      <trkpt lat="45.61769" lon="5.29034">
        <ele>319</ele>
        <time>2021-12-05T09:50:36.402Z</time>
      </trkpt>
      <trkpt lat="45.61768" lon="5.29037">
        <ele>319</ele>
        <time>2021-12-05T09:50:37.403Z</time>
      </trkpt>
      <trkpt lat="45.61768" lon="5.2904">
        <ele>320</ele>
        <time>2021-12-05T09:50:38.403Z</time>
      </trkpt>
      <trkpt lat="45.61768" lon="5.29042">
        <ele>320</ele>
        <time>2021-12-05T09:50:39.403Z</time>
      </trkpt>
      <trkpt lat="45.61767" lon="5.29044">
        <ele>320</ele>
        <time>2021-12-05T09:50:40.403Z</time>
      </trkpt>
      <trkpt lat="45.61767" lon="5.29047">
        <ele>320</ele>
        <time>2021-12-05T09:50:41.403Z</time>
      </trkpt>
      <trkpt lat="45.61767" lon="5.29049">
        <ele>321</ele>
        <time>2021-12-05T09:50:42.403Z</time>
      </trkpt>
      <trkpt lat="45.61767" lon="5.29051">
        <ele>321</ele>
        <time>2021-12-05T09:50:43.403Z</time>
      </trkpt>
      <trkpt lat="45.61766" lon="5.29053">
        <ele>321</ele>
        <time>2021-12-05T09:50:44.403Z</time>
      </trkpt>
      <trkpt lat="45.61766" lon="5.29055">
        <ele>321</ele>
        <time>2021-12-05T09:50:45.403Z</time>
      </trkpt>
      <trkpt lat="45.61766" lon="5.29058">
        <ele>322</ele>
        <time>2021-12-05T09:50:46.403Z</time>
      </trkpt>
      <trkpt lat="45.61766" lon="5.2906">
        <ele>322</ele>
        <time>2021-12-05T09:50:47.403Z</time>
      </trkpt>
      <trkpt lat="45.61765" lon="5.29063">
        <ele>322</ele>
        <time>2021-12-05T09:50:48.403Z</time>
      </trkpt>
      <trkpt lat="45.61765" lon="5.29065">
        <ele>322</ele>
        <time>2021-12-05T09:50:49.402Z</time>
      </trkpt>
      <trkpt lat="45.61765" lon="5.29068">
        <ele>323</ele>
        <time>2021-12-05T09:50:50.402Z</time>
      </trkpt>
      <trkpt lat="45.61765" lon="5.29071">
        <ele>323</ele>
        <time>2021-12-05T09:50:51.403Z</time>
      </trkpt>
      <trkpt lat="45.61765" lon="5.29074">
        <ele>323</ele>
        <time>2021-12-05T09:50:52.402Z</time>
      </trkpt>
      <trkpt lat="45.61765" lon="5.29077">
        <ele>323</ele>
        <time>2021-12-05T09:50:53.402Z</time>
      </trkpt>
      <trkpt lat="45.61765" lon="5.2908">
        <ele>323</ele>
        <time>2021-12-05T09:50:54.403Z</time>
      </trkpt>
      <trkpt lat="45.61765" lon="5.29083">
        <ele>323</ele>
        <time>2021-12-05T09:50:55.403Z</time>
      </trkpt>
      <trkpt lat="45.61765" lon="5.29086">
        <ele>323</ele>
        <time>2021-12-05T09:50:56.403Z</time>
      </trkpt>
      <trkpt lat="45.61765" lon="5.29089">
        <ele>323</ele>
        <time>2021-12-05T09:50:57.402Z</time>
      </trkpt>
      <trkpt lat="45.61765" lon="5.29091">
        <ele>323</ele>
        <time>2021-12-05T09:50:58.403Z</time>
      </trkpt>
      <trkpt lat="45.61764" lon="5.29094">
        <ele>323</ele>
        <time>2021-12-05T09:50:59.403Z</time>
      </trkpt>
      <trkpt lat="45.61764" lon="5.29097">
        <ele>323</ele>
        <time>2021-12-05T09:51:00.402Z</time>
      </trkpt>
      <trkpt lat="45.61764" lon="5.29101">
        <ele>323</ele>
        <time>2021-12-05T09:51:01.403Z</time>
      </trkpt>
      <trkpt lat="45.61763" lon="5.29104">
        <ele>324</ele>
        <time>2021-12-05T09:51:02.402Z</time>
      </trkpt>
      <trkpt lat="45.61763" lon="5.29107">
        <ele>324</ele>
        <time>2021-12-05T09:51:03.403Z</time>
      </trkpt>
      <trkpt lat="45.61763" lon="5.2911">
        <ele>324</ele>
        <time>2021-12-05T09:51:04.403Z</time>
      </trkpt>
      <trkpt lat="45.61763" lon="5.29113">
        <ele>325</ele>
        <time>2021-12-05T09:51:05.402Z</time>
      </trkpt>
      <trkpt lat="45.61763" lon="5.29116">
        <ele>325</ele>
        <time>2021-12-05T09:51:06.403Z</time>
      </trkpt>
      <trkpt lat="45.61763" lon="5.2912">
        <ele>326</ele>
        <time>2021-12-05T09:51:07.403Z</time>
      </trkpt>
      <trkpt lat="45.61762" lon="5.29123">
        <ele>326</ele>
        <time>2021-12-05T09:51:08.402Z</time>
      </trkpt>
      <trkpt lat="45.61762" lon="5.29126">
        <ele>327</ele>
        <time>2021-12-05T09:51:09.403Z</time>
      </trkpt>
      <trkpt lat="45.61762" lon="5.29129">
        <ele>327</ele>
        <time>2021-12-05T09:51:10.403Z</time>
      </trkpt>
      <trkpt lat="45.61761" lon="5.29132">
        <ele>328</ele>
        <time>2021-12-05T09:51:11.403Z</time>
      </trkpt>
      <trkpt lat="45.6176" lon="5.29136">
        <ele>328</ele>
        <time>2021-12-05T09:51:12.402Z</time>
      </trkpt>
      <trkpt lat="45.61759" lon="5.29139">
        <ele>329</ele>
        <time>2021-12-05T09:51:13.402Z</time>
      </trkpt>
      <trkpt lat="45.61758" lon="5.29142">
        <ele>329</ele>
        <time>2021-12-05T09:51:14.403Z</time>
      </trkpt>
      <trkpt lat="45.61758" lon="5.29145">
        <ele>329</ele>
        <time>2021-12-05T09:51:15.403Z</time>
      </trkpt>
      <trkpt lat="45.61757" lon="5.29148">
        <ele>329</ele>
        <time>2021-12-05T09:51:16.403Z</time>
      </trkpt>
      <trkpt lat="45.61757" lon="5.29151">
        <ele>329</ele>
        <time>2021-12-05T09:51:17.403Z</time>
      </trkpt>
      <trkpt lat="45.61756" lon="5.29154">
        <ele>329</ele>
        <time>2021-12-05T09:51:18.403Z</time>
      </trkpt>
      <trkpt lat="45.61755" lon="5.29157">
        <ele>329</ele>
        <time>2021-12-05T09:51:19.402Z</time>
      </trkpt>
      <trkpt lat="45.61754" lon="5.2916">
        <ele>329</ele>
        <time>2021-12-05T09:51:20.403Z</time>
      </trkpt>
      <trkpt lat="45.61752" lon="5.29163">
        <ele>329</ele>
        <time>2021-12-05T09:51:21.403Z</time>
      </trkpt>
      <trkpt lat="45.61751" lon="5.29166">
        <ele>329</ele>
        <time>2021-12-05T09:51:22.402Z</time>
      </trkpt>
      <trkpt lat="45.6175" lon="5.29169">
        <ele>329</ele>
        <time>2021-12-05T09:51:23.403Z</time>
      </trkpt>
      <trkpt lat="45.61749" lon="5.29172">
        <ele>329</ele>
        <time>2021-12-05T09:51:24.403Z</time>
      </trkpt>
      <trkpt lat="45.61748" lon="5.29176">
        <ele>329</ele>
        <time>2021-12-05T09:51:25.403Z</time>
      </trkpt>
      <trkpt lat="45.61747" lon="5.29179">
        <ele>329</ele>
        <time>2021-12-05T09:51:26.403Z</time>
      </trkpt>
      <trkpt lat="45.61746" lon="5.29182">
        <ele>329</ele>
        <time>2021-12-05T09:51:27.403Z</time>
      </trkpt>
      <trkpt lat="45.61745" lon="5.29185">
        <ele>329</ele>
        <time>2021-12-05T09:51:28.403Z</time>
      </trkpt>
      <trkpt lat="45.61744" lon="5.29189">
        <ele>330</ele>
        <time>2021-12-05T09:51:29.403Z</time>
      </trkpt>
      <trkpt lat="45.61743" lon="5.29192">
        <ele>330</ele>
        <time>2021-12-05T09:51:30.403Z</time>
      </trkpt>
      <trkpt lat="45.61742" lon="5.29195">
        <ele>330</ele>
        <time>2021-12-05T09:51:31.403Z</time>
      </trkpt>
      <trkpt lat="45.61741" lon="5.29198">
        <ele>330</ele>
        <time>2021-12-05T09:51:32.403Z</time>
      </trkpt>
      <trkpt lat="45.61739" lon="5.29202">
        <ele>331</ele>
        <time>2021-12-05T09:51:33.402Z</time>
      </trkpt>
      <trkpt lat="45.61739" lon="5.29204">
        <ele>331</ele>
        <time>2021-12-05T09:51:34.403Z</time>
      </trkpt>
      <trkpt lat="45.61738" lon="5.29208">
        <ele>331</ele>
        <time>2021-12-05T09:51:35.403Z</time>
      </trkpt>
      <trkpt lat="45.61737" lon="5.29211">
        <ele>331</ele>
        <time>2021-12-05T09:51:36.403Z</time>
      </trkpt>
      <trkpt lat="45.61737" lon="5.29215">
        <ele>331</ele>
        <time>2021-12-05T09:51:37.402Z</time>
      </trkpt>
      <trkpt lat="45.61736" lon="5.29218">
        <ele>331</ele>
        <time>2021-12-05T09:51:38.403Z</time>
      </trkpt>
      <trkpt lat="45.61736" lon="5.29222">
        <ele>331</ele>
        <time>2021-12-05T09:51:39.403Z</time>
      </trkpt>
      <trkpt lat="45.61735" lon="5.29225">
        <ele>331</ele>
        <time>2021-12-05T09:51:40.403Z</time>
      </trkpt>
      <trkpt lat="45.61734" lon="5.29228">
        <ele>332</ele>
        <time>2021-12-05T09:51:41.403Z</time>
      </trkpt>
      <trkpt lat="45.61733" lon="5.2923">
        <ele>332</ele>
        <time>2021-12-05T09:51:42.403Z</time>
      </trkpt>
      <trkpt lat="45.61731" lon="5.29233">
        <ele>332</ele>
        <time>2021-12-05T09:51:43.403Z</time>
      </trkpt>
      <trkpt lat="45.6173" lon="5.29236">
        <ele>332</ele>
        <time>2021-12-05T09:51:44.402Z</time>
      </trkpt>
      <trkpt lat="45.61729" lon="5.29238">
        <ele>332</ele>
        <time>2021-12-05T09:51:45.403Z</time>
      </trkpt>
      <trkpt lat="45.61728" lon="5.2924">
        <ele>333</ele>
        <time>2021-12-05T09:51:46.403Z</time>
      </trkpt>
      <trkpt lat="45.61727" lon="5.29243">
        <ele>333</ele>
        <time>2021-12-05T09:51:47.402Z</time>
      </trkpt>
      <trkpt lat="45.61727" lon="5.29246">
        <ele>333</ele>
        <time>2021-12-05T09:51:48.402Z</time>
      </trkpt>
      <trkpt lat="45.61726" lon="5.29248">
        <ele>333</ele>
        <time>2021-12-05T09:51:49.402Z</time>
      </trkpt>
      <trkpt lat="45.61726" lon="5.29251">
        <ele>333</ele>
        <time>2021-12-05T09:51:50.403Z</time>
      </trkpt>
      <trkpt lat="45.61725" lon="5.29254">
        <ele>333</ele>
        <time>2021-12-05T09:51:51.403Z</time>
      </trkpt>
      <trkpt lat="45.61723" lon="5.29257">
        <ele>333</ele>
        <time>2021-12-05T09:51:52.403Z</time>
      </trkpt>
      <trkpt lat="45.61722" lon="5.2926">
        <ele>333</ele>
        <time>2021-12-05T09:51:53.403Z</time>
      </trkpt>
      <trkpt lat="45.61722" lon="5.29263">
        <ele>333</ele>
        <time>2021-12-05T09:51:54.403Z</time>
      </trkpt>
      <trkpt lat="45.61721" lon="5.29266">
        <ele>334</ele>
        <time>2021-12-05T09:51:55.403Z</time>
      </trkpt>
      <trkpt lat="45.6172" lon="5.29269">
        <ele>334</ele>
        <time>2021-12-05T09:51:56.403Z</time>
      </trkpt>
      <trkpt lat="45.61719" lon="5.29272">
        <ele>334</ele>
        <time>2021-12-05T09:51:57.403Z</time>
      </trkpt>
      <trkpt lat="45.61718" lon="5.29275">
        <ele>334</ele>
        <time>2021-12-05T09:51:58.403Z</time>
      </trkpt>
      <trkpt lat="45.61717" lon="5.29278">
        <ele>334</ele>
        <time>2021-12-05T09:51:59.403Z</time>
      </trkpt>
      <trkpt lat="45.61716" lon="5.29281">
        <ele>334</ele>
        <time>2021-12-05T09:52:00.403Z</time>
      </trkpt>
      <trkpt lat="45.61714" lon="5.29285">
        <ele>334</ele>
        <time>2021-12-05T09:52:01.402Z</time>
      </trkpt>
      <trkpt lat="45.61713" lon="5.29288">
        <ele>334</ele>
        <time>2021-12-05T09:52:02.403Z</time>
      </trkpt>
      <trkpt lat="45.61712" lon="5.29292">
        <ele>334</ele>
        <time>2021-12-05T09:52:03.403Z</time>
      </trkpt>
      <trkpt lat="45.61711" lon="5.29296">
        <ele>334</ele>
        <time>2021-12-05T09:52:04.402Z</time>
      </trkpt>
      <trkpt lat="45.6171" lon="5.29299">
        <ele>335</ele>
        <time>2021-12-05T09:52:05.403Z</time>
      </trkpt>
      <trkpt lat="45.61709" lon="5.29302">
        <ele>335</ele>
        <time>2021-12-05T09:52:06.403Z</time>
      </trkpt>
      <trkpt lat="45.61708" lon="5.29305">
        <ele>335</ele>
        <time>2021-12-05T09:52:07.403Z</time>
      </trkpt>
      <trkpt lat="45.61708" lon="5.29308">
        <ele>335</ele>
        <time>2021-12-05T09:52:08.403Z</time>
      </trkpt>
      <trkpt lat="45.61708" lon="5.29311">
        <ele>335</ele>
        <time>2021-12-05T09:52:09.403Z</time>
      </trkpt>
      <trkpt lat="45.61707" lon="5.29314">
        <ele>335</ele>
        <time>2021-12-05T09:52:10.403Z</time>
      </trkpt>
      <trkpt lat="45.61707" lon="5.29318">
        <ele>335</ele>
        <time>2021-12-05T09:52:11.403Z</time>
      </trkpt>
      <trkpt lat="45.61706" lon="5.29321">
        <ele>336</ele>
        <time>2021-12-05T09:52:12.403Z</time>
      </trkpt>
      <trkpt lat="45.61705" lon="5.29325">
        <ele>336</ele>
        <time>2021-12-05T09:52:13.403Z</time>
      </trkpt>
      <trkpt lat="45.61704" lon="5.29328">
        <ele>336</ele>
        <time>2021-12-05T09:52:14.403Z</time>
      </trkpt>
      <trkpt lat="45.61703" lon="5.29331">
        <ele>336</ele>
        <time>2021-12-05T09:52:15.403Z</time>
      </trkpt>
      <trkpt lat="45.61703" lon="5.29334">
        <ele>336</ele>
        <time>2021-12-05T09:52:16.403Z</time>
      </trkpt>
      <trkpt lat="45.61702" lon="5.29338">
        <ele>336</ele>
        <time>2021-12-05T09:52:17.402Z</time>
      </trkpt>
      <trkpt lat="45.61702" lon="5.29341">
        <ele>336</ele>
        <time>2021-12-05T09:52:18.403Z</time>
      </trkpt>
      <trkpt lat="45.61701" lon="5.29344">
        <ele>336</ele>
        <time>2021-12-05T09:52:19.402Z</time>
      </trkpt>
      <trkpt lat="45.61701" lon="5.29347">
        <ele>336</ele>
        <time>2021-12-05T09:52:20.403Z</time>
      </trkpt>
      <trkpt lat="45.61701" lon="5.29351">
        <ele>336</ele>
        <time>2021-12-05T09:52:21.403Z</time>
      </trkpt>
      <trkpt lat="45.617" lon="5.29355">
        <ele>336</ele>
        <time>2021-12-05T09:52:22.403Z</time>
      </trkpt>
      <trkpt lat="45.617" lon="5.29358">
        <ele>336</ele>
        <time>2021-12-05T09:52:23.403Z</time>
      </trkpt>
      <trkpt lat="45.61699" lon="5.29361">
        <ele>337</ele>
        <time>2021-12-05T09:52:24.402Z</time>
      </trkpt>
      <trkpt lat="45.61699" lon="5.29364">
        <ele>337</ele>
        <time>2021-12-05T09:52:25.403Z</time>
      </trkpt>
      <trkpt lat="45.61699" lon="5.29368">
        <ele>337</ele>
        <time>2021-12-05T09:52:26.403Z</time>
      </trkpt>
      <trkpt lat="45.61699" lon="5.29371">
        <ele>337</ele>
        <time>2021-12-05T09:52:27.403Z</time>
      </trkpt>
      <trkpt lat="45.61699" lon="5.29375">
        <ele>337</ele>
        <time>2021-12-05T09:52:28.403Z</time>
      </trkpt>
      <trkpt lat="45.61698" lon="5.29377">
        <ele>338</ele>
        <time>2021-12-05T09:52:29.402Z</time>
      </trkpt>
      <trkpt lat="45.61697" lon="5.29381">
        <ele>338</ele>
        <time>2021-12-05T09:52:30.402Z</time>
      </trkpt>
      <trkpt lat="45.61696" lon="5.29384">
        <ele>338</ele>
        <time>2021-12-05T09:52:31.403Z</time>
      </trkpt>
      <trkpt lat="45.61696" lon="5.29386">
        <ele>338</ele>
        <time>2021-12-05T09:52:32.403Z</time>
      </trkpt>
      <trkpt lat="45.61695" lon="5.2939">
        <ele>338</ele>
        <time>2021-12-05T09:52:33.403Z</time>
      </trkpt>
      <trkpt lat="45.61695" lon="5.29393">
        <ele>338</ele>
        <time>2021-12-05T09:52:34.403Z</time>
      </trkpt>
      <trkpt lat="45.61695" lon="5.29395">
        <ele>338</ele>
        <time>2021-12-05T09:52:35.403Z</time>
      </trkpt>
      <trkpt lat="45.61695" lon="5.29398">
        <ele>338</ele>
        <time>2021-12-05T09:52:36.403Z</time>
      </trkpt>
      <trkpt lat="45.61695" lon="5.29401">
        <ele>338</ele>
        <time>2021-12-05T09:52:37.402Z</time>
      </trkpt>
      <trkpt lat="45.61695" lon="5.29405">
        <ele>338</ele>
        <time>2021-12-05T09:52:38.403Z</time>
      </trkpt>
      <trkpt lat="45.61694" lon="5.29407">
        <ele>339</ele>
        <time>2021-12-05T09:52:39.403Z</time>
      </trkpt>
      <trkpt lat="45.61694" lon="5.2941">
        <ele>339</ele>
        <time>2021-12-05T09:52:40.403Z</time>
      </trkpt>
      <trkpt lat="45.61694" lon="5.29413">
        <ele>339</ele>
        <time>2021-12-05T09:52:41.403Z</time>
      </trkpt>
      <trkpt lat="45.61693" lon="5.29417">
        <ele>339</ele>
        <time>2021-12-05T09:52:42.403Z</time>
      </trkpt>
      <trkpt lat="45.61693" lon="5.29419">
        <ele>339</ele>
        <time>2021-12-05T09:52:43.403Z</time>
      </trkpt>
      <trkpt lat="45.61693" lon="5.29422">
        <ele>339</ele>
        <time>2021-12-05T09:52:44.403Z</time>
      </trkpt>
      <trkpt lat="45.61694" lon="5.29425">
        <ele>340</ele>
        <time>2021-12-05T09:52:45.403Z</time>
      </trkpt>
      <trkpt lat="45.61694" lon="5.29428">
        <ele>340</ele>
        <time>2021-12-05T09:52:46.403Z</time>
      </trkpt>
      <trkpt lat="45.61694" lon="5.29432">
        <ele>340</ele>
        <time>2021-12-05T09:52:47.402Z</time>
      </trkpt>
      <trkpt lat="45.61694" lon="5.29435">
        <ele>341</ele>
        <time>2021-12-05T09:52:48.403Z</time>
      </trkpt>
      <trkpt lat="45.61693" lon="5.29438">
        <ele>341</ele>
        <time>2021-12-05T09:52:49.403Z</time>
      </trkpt>
      <trkpt lat="45.61693" lon="5.29442">
        <ele>341</ele>
        <time>2021-12-05T09:52:50.403Z</time>
      </trkpt>
      <trkpt lat="45.61693" lon="5.29445">
        <ele>341</ele>
        <time>2021-12-05T09:52:51.403Z</time>
      </trkpt>
      <trkpt lat="45.61692" lon="5.29448">
        <ele>342</ele>
        <time>2021-12-05T09:52:52.403Z</time>
      </trkpt>
      <trkpt lat="45.61692" lon="5.29451">
        <ele>342</ele>
        <time>2021-12-05T09:52:53.403Z</time>
      </trkpt>
      <trkpt lat="45.61691" lon="5.29455">
        <ele>342</ele>
        <time>2021-12-05T09:52:54.403Z</time>
      </trkpt>
      <trkpt lat="45.61691" lon="5.29458">
        <ele>342</ele>
        <time>2021-12-05T09:52:55.403Z</time>
      </trkpt>
      <trkpt lat="45.61691" lon="5.29461">
        <ele>343</ele>
        <time>2021-12-05T09:52:56.403Z</time>
      </trkpt>
      <trkpt lat="45.61692" lon="5.29465">
        <ele>343</ele>
        <time>2021-12-05T09:52:57.403Z</time>
      </trkpt>
      <trkpt lat="45.61692" lon="5.29468">
        <ele>343</ele>
        <time>2021-12-05T09:52:58.403Z</time>
      </trkpt>
      <trkpt lat="45.61692" lon="5.29471">
        <ele>343</ele>
        <time>2021-12-05T09:52:59.403Z</time>
      </trkpt>
      <trkpt lat="45.61692" lon="5.29475">
        <ele>344</ele>
        <time>2021-12-05T09:53:00.403Z</time>
      </trkpt>
      <trkpt lat="45.61692" lon="5.29478">
        <ele>344</ele>
        <time>2021-12-05T09:53:01.402Z</time>
      </trkpt>
      <trkpt lat="45.61692" lon="5.29481">
        <ele>344</ele>
        <time>2021-12-05T09:53:02.402Z</time>
      </trkpt>
      <trkpt lat="45.61691" lon="5.29485">
        <ele>344</ele>
        <time>2021-12-05T09:53:03.403Z</time>
      </trkpt>
      <trkpt lat="45.61692" lon="5.29488">
        <ele>344</ele>
        <time>2021-12-05T09:53:04.402Z</time>
      </trkpt>
      <trkpt lat="45.61692" lon="5.29491">
        <ele>344</ele>
        <time>2021-12-05T09:53:05.403Z</time>
      </trkpt>
      <trkpt lat="45.61691" lon="5.29494">
        <ele>345</ele>
        <time>2021-12-05T09:53:06.403Z</time>
      </trkpt>
      <trkpt lat="45.6169" lon="5.29497">
        <ele>345</ele>
        <time>2021-12-05T09:53:07.403Z</time>
      </trkpt>
      <trkpt lat="45.6169" lon="5.295">
        <ele>345</ele>
        <time>2021-12-05T09:53:08.403Z</time>
      </trkpt>
      <trkpt lat="45.61689" lon="5.29504">
        <ele>346</ele>
        <time>2021-12-05T09:53:09.403Z</time>
      </trkpt>
      <trkpt lat="45.61688" lon="5.29507">
        <ele>346</ele>
        <time>2021-12-05T09:53:10.402Z</time>
      </trkpt>
      <trkpt lat="45.61688" lon="5.2951">
        <ele>347</ele>
        <time>2021-12-05T09:53:11.403Z</time>
      </trkpt>
      <trkpt lat="45.61686" lon="5.29513">
        <ele>347</ele>
        <time>2021-12-05T09:53:12.402Z</time>
      </trkpt>
      <trkpt lat="45.61685" lon="5.29516">
        <ele>347</ele>
        <time>2021-12-05T09:53:13.403Z</time>
      </trkpt>
      <trkpt lat="45.61684" lon="5.2952">
        <ele>348</ele>
        <time>2021-12-05T09:53:14.403Z</time>
      </trkpt>
      <trkpt lat="45.61683" lon="5.29522">
        <ele>348</ele>
        <time>2021-12-05T09:53:15.402Z</time>
      </trkpt>
      <trkpt lat="45.61682" lon="5.29526">
        <ele>348</ele>
        <time>2021-12-05T09:53:16.403Z</time>
      </trkpt>
      <trkpt lat="45.61681" lon="5.29529">
        <ele>349</ele>
        <time>2021-12-05T09:53:17.402Z</time>
      </trkpt>
      <trkpt lat="45.6168" lon="5.29532">
        <ele>349</ele>
        <time>2021-12-05T09:53:18.402Z</time>
      </trkpt>
      <trkpt lat="45.61679" lon="5.29536">
        <ele>349</ele>
        <time>2021-12-05T09:53:19.402Z</time>
      </trkpt>
      <trkpt lat="45.61678" lon="5.29539">
        <ele>349</ele>
        <time>2021-12-05T09:53:20.403Z</time>
      </trkpt>
      <trkpt lat="45.61677" lon="5.29542">
        <ele>349</ele>
        <time>2021-12-05T09:53:21.402Z</time>
      </trkpt>
      <trkpt lat="45.61677" lon="5.29545">
        <ele>348</ele>
        <time>2021-12-05T09:53:22.403Z</time>
      </trkpt>
      <trkpt lat="45.61676" lon="5.29548">
        <ele>348</ele>
        <time>2021-12-05T09:53:23.402Z</time>
      </trkpt>
      <trkpt lat="45.61675" lon="5.29551">
        <ele>348</ele>
        <time>2021-12-05T09:53:24.403Z</time>
      </trkpt>
      <trkpt lat="45.61675" lon="5.29555">
        <ele>348</ele>
        <time>2021-12-05T09:53:25.403Z</time>
      </trkpt>
      <trkpt lat="45.61675" lon="5.29558">
        <ele>348</ele>
        <time>2021-12-05T09:53:26.403Z</time>
      </trkpt>
      <trkpt lat="45.61674" lon="5.29561">
        <ele>348</ele>
        <time>2021-12-05T09:53:27.402Z</time>
      </trkpt>
      <trkpt lat="45.61673" lon="5.29565">
        <ele>348</ele>
        <time>2021-12-05T09:53:28.403Z</time>
      </trkpt>
      <trkpt lat="45.61673" lon="5.29568">
        <ele>348</ele>
        <time>2021-12-05T09:53:29.403Z</time>
      </trkpt>
      <trkpt lat="45.61673" lon="5.29572">
        <ele>349</ele>
        <time>2021-12-05T09:53:30.403Z</time>
      </trkpt>
      <trkpt lat="45.61672" lon="5.29575">
        <ele>349</ele>
        <time>2021-12-05T09:53:31.403Z</time>
      </trkpt>
      <trkpt lat="45.61672" lon="5.29579">
        <ele>349</ele>
        <time>2021-12-05T09:53:32.403Z</time>
      </trkpt>
      <trkpt lat="45.61671" lon="5.29582">
        <ele>349</ele>
        <time>2021-12-05T09:53:33.403Z</time>
      </trkpt>
      <trkpt lat="45.6167" lon="5.29586">
        <ele>349</ele>
        <time>2021-12-05T09:53:34.403Z</time>
      </trkpt>
      <trkpt lat="45.6167" lon="5.29589">
        <ele>349</ele>
        <time>2021-12-05T09:53:35.403Z</time>
      </trkpt>
      <trkpt lat="45.6167" lon="5.29593">
        <ele>349</ele>
        <time>2021-12-05T09:53:36.403Z</time>
      </trkpt>
      <trkpt lat="45.61669" lon="5.29596">
        <ele>349</ele>
        <time>2021-12-05T09:53:37.403Z</time>
      </trkpt>
      <trkpt lat="45.61669" lon="5.296">
        <ele>349</ele>
        <time>2021-12-05T09:53:38.403Z</time>
      </trkpt>
      <trkpt lat="45.61668" lon="5.29603">
        <ele>349</ele>
        <time>2021-12-05T09:53:39.403Z</time>
      </trkpt>
      <trkpt lat="45.61668" lon="5.29607">
        <ele>349</ele>
        <time>2021-12-05T09:53:40.403Z</time>
      </trkpt>
      <trkpt lat="45.61667" lon="5.29611">
        <ele>349</ele>
        <time>2021-12-05T09:53:41.403Z</time>
      </trkpt>
      <trkpt lat="45.61666" lon="5.29614">
        <ele>349</ele>
        <time>2021-12-05T09:53:42.403Z</time>
      </trkpt>
      <trkpt lat="45.61666" lon="5.29618">
        <ele>349</ele>
        <time>2021-12-05T09:53:43.403Z</time>
      </trkpt>
      <trkpt lat="45.61665" lon="5.29622">
        <ele>349</ele>
        <time>2021-12-05T09:53:44.403Z</time>
      </trkpt>
      <trkpt lat="45.61665" lon="5.29625">
        <ele>349</ele>
        <time>2021-12-05T09:53:45.403Z</time>
      </trkpt>
      <trkpt lat="45.61664" lon="5.29628">
        <ele>350</ele>
        <time>2021-12-05T09:53:46.403Z</time>
      </trkpt>
      <trkpt lat="45.61663" lon="5.29632">
        <ele>350</ele>
        <time>2021-12-05T09:53:47.402Z</time>
      </trkpt>
      <trkpt lat="45.61662" lon="5.29635">
        <ele>350</ele>
        <time>2021-12-05T09:53:48.402Z</time>
      </trkpt>
      <trkpt lat="45.61662" lon="5.2964">
        <ele>351</ele>
        <time>2021-12-05T09:53:49.402Z</time>
      </trkpt>
      <trkpt lat="45.61661" lon="5.29644">
        <ele>351</ele>
        <time>2021-12-05T09:53:50.403Z</time>
      </trkpt>
      <trkpt lat="45.61661" lon="5.29647">
        <ele>351</ele>
        <time>2021-12-05T09:53:51.403Z</time>
      </trkpt>
      <trkpt lat="45.61659" lon="5.2965">
        <ele>352</ele>
        <time>2021-12-05T09:53:52.403Z</time>
      </trkpt>
      <trkpt lat="45.61659" lon="5.29653">
        <ele>352</ele>
        <time>2021-12-05T09:53:53.402Z</time>
      </trkpt>
      <trkpt lat="45.61658" lon="5.29657">
        <ele>352</ele>
        <time>2021-12-05T09:53:54.402Z</time>
      </trkpt>
      <trkpt lat="45.61658" lon="5.2966">
        <ele>352</ele>
        <time>2021-12-05T09:53:55.403Z</time>
      </trkpt>
      <trkpt lat="45.61658" lon="5.29664">
        <ele>353</ele>
        <time>2021-12-05T09:53:56.403Z</time>
      </trkpt>
      <trkpt lat="45.61658" lon="5.29668">
        <ele>353</ele>
        <time>2021-12-05T09:53:57.403Z</time>
      </trkpt>
      <trkpt lat="45.61657" lon="5.29671">
        <ele>353</ele>
        <time>2021-12-05T09:53:58.403Z</time>
      </trkpt>
      <trkpt lat="45.61657" lon="5.29674">
        <ele>354</ele>
        <time>2021-12-05T09:53:59.403Z</time>
      </trkpt>
      <trkpt lat="45.61656" lon="5.29678">
        <ele>354</ele>
        <time>2021-12-05T09:54:00.403Z</time>
      </trkpt>
      <trkpt lat="45.61655" lon="5.29681">
        <ele>354</ele>
        <time>2021-12-05T09:54:01.402Z</time>
      </trkpt>
      <trkpt lat="45.61655" lon="5.29685">
        <ele>354</ele>
        <time>2021-12-05T09:54:02.402Z</time>
      </trkpt>
      <trkpt lat="45.61654" lon="5.29688">
        <ele>355</ele>
        <time>2021-12-05T09:54:03.403Z</time>
      </trkpt>
      <trkpt lat="45.61654" lon="5.29692">
        <ele>355</ele>
        <time>2021-12-05T09:54:04.403Z</time>
      </trkpt>
      <trkpt lat="45.61653" lon="5.29696">
        <ele>355</ele>
        <time>2021-12-05T09:54:05.403Z</time>
      </trkpt>
      <trkpt lat="45.61653" lon="5.29699">
        <ele>355</ele>
        <time>2021-12-05T09:54:06.402Z</time>
      </trkpt>
      <trkpt lat="45.61653" lon="5.29702">
        <ele>356</ele>
        <time>2021-12-05T09:54:07.403Z</time>
      </trkpt>
      <trkpt lat="45.61653" lon="5.29705">
        <ele>356</ele>
        <time>2021-12-05T09:54:08.403Z</time>
      </trkpt>
      <trkpt lat="45.61652" lon="5.29709">
        <ele>356</ele>
        <time>2021-12-05T09:54:09.403Z</time>
      </trkpt>
      <trkpt lat="45.61652" lon="5.29711">
        <ele>356</ele>
        <time>2021-12-05T09:54:10.402Z</time>
      </trkpt>
      <trkpt lat="45.61652" lon="5.29715">
        <ele>356</ele>
        <time>2021-12-05T09:54:11.403Z</time>
      </trkpt>
      <trkpt lat="45.61651" lon="5.29718">
        <ele>357</ele>
        <time>2021-12-05T09:54:12.402Z</time>
      </trkpt>
      <trkpt lat="45.61651" lon="5.29722">
        <ele>357</ele>
        <time>2021-12-05T09:54:13.403Z</time>
      </trkpt>
      <trkpt lat="45.6165" lon="5.29725">
        <ele>357</ele>
        <time>2021-12-05T09:54:14.403Z</time>
      </trkpt>
      <trkpt lat="45.6165" lon="5.29728">
        <ele>357</ele>
        <time>2021-12-05T09:54:15.403Z</time>
      </trkpt>
      <trkpt lat="45.61649" lon="5.29732">
        <ele>357</ele>
        <time>2021-12-05T09:54:16.403Z</time>
      </trkpt>
      <trkpt lat="45.61649" lon="5.29735">
        <ele>357</ele>
        <time>2021-12-05T09:54:17.403Z</time>
      </trkpt>
      <trkpt lat="45.61649" lon="5.29739">
        <ele>357</ele>
        <time>2021-12-05T09:54:18.402Z</time>
      </trkpt>
      <trkpt lat="45.61648" lon="5.29743">
        <ele>357</ele>
        <time>2021-12-05T09:54:19.403Z</time>
      </trkpt>
      <trkpt lat="45.61648" lon="5.29746">
        <ele>357</ele>
        <time>2021-12-05T09:54:20.403Z</time>
      </trkpt>
      <trkpt lat="45.61648" lon="5.2975">
        <ele>357</ele>
        <time>2021-12-05T09:54:21.403Z</time>
      </trkpt>
      <trkpt lat="45.61647" lon="5.29754">
        <ele>357</ele>
        <time>2021-12-05T09:54:22.403Z</time>
      </trkpt>
      <trkpt lat="45.61647" lon="5.29758">
        <ele>357</ele>
        <time>2021-12-05T09:54:23.403Z</time>
      </trkpt>
      <trkpt lat="45.61646" lon="5.29762">
        <ele>357</ele>
        <time>2021-12-05T09:54:24.403Z</time>
      </trkpt>
      <trkpt lat="45.61646" lon="5.29765">
        <ele>358</ele>
        <time>2021-12-05T09:54:25.402Z</time>
      </trkpt>
      <trkpt lat="45.61646" lon="5.29769">
        <ele>358</ele>
        <time>2021-12-05T09:54:26.403Z</time>
      </trkpt>
      <trkpt lat="45.61647" lon="5.29773">
        <ele>358</ele>
        <time>2021-12-05T09:54:27.403Z</time>
      </trkpt>
      <trkpt lat="45.61647" lon="5.29777">
        <ele>358</ele>
        <time>2021-12-05T09:54:28.402Z</time>
      </trkpt>
      <trkpt lat="45.61647" lon="5.2978">
        <ele>358</ele>
        <time>2021-12-05T09:54:29.403Z</time>
      </trkpt>
      <trkpt lat="45.61647" lon="5.29784">
        <ele>358</ele>
        <time>2021-12-05T09:54:30.403Z</time>
      </trkpt>
      <trkpt lat="45.61646" lon="5.29788">
        <ele>358</ele>
        <time>2021-12-05T09:54:31.402Z</time>
      </trkpt>
      <trkpt lat="45.61645" lon="5.29792">
        <ele>358</ele>
        <time>2021-12-05T09:54:32.402Z</time>
      </trkpt>
      <trkpt lat="45.61645" lon="5.29795">
        <ele>358</ele>
        <time>2021-12-05T09:54:33.403Z</time>
      </trkpt>
      <trkpt lat="45.61644" lon="5.29799">
        <ele>358</ele>
        <time>2021-12-05T09:54:34.402Z</time>
      </trkpt>
      <trkpt lat="45.61643" lon="5.29803">
        <ele>358</ele>
        <time>2021-12-05T09:54:35.403Z</time>
      </trkpt>
      <trkpt lat="45.61642" lon="5.29807">
        <ele>359</ele>
        <time>2021-12-05T09:54:36.402Z</time>
      </trkpt>
      <trkpt lat="45.61642" lon="5.2981">
        <ele>359</ele>
        <time>2021-12-05T09:54:37.403Z</time>
      </trkpt>
      <trkpt lat="45.61641" lon="5.29815">
        <ele>359</ele>
        <time>2021-12-05T09:54:38.403Z</time>
      </trkpt>
      <trkpt lat="45.61641" lon="5.29819">
        <ele>359</ele>
        <time>2021-12-05T09:54:39.403Z</time>
      </trkpt>
      <trkpt lat="45.61641" lon="5.29823">
        <ele>359</ele>
        <time>2021-12-05T09:54:40.403Z</time>
      </trkpt>
      <trkpt lat="45.61641" lon="5.29826">
        <ele>359</ele>
        <time>2021-12-05T09:54:41.403Z</time>
      </trkpt>
      <trkpt lat="45.6164" lon="5.2983">
        <ele>360</ele>
        <time>2021-12-05T09:54:42.402Z</time>
      </trkpt>
      <trkpt lat="45.6164" lon="5.29834">
        <ele>360</ele>
        <time>2021-12-05T09:54:43.403Z</time>
      </trkpt>
      <trkpt lat="45.6164" lon="5.29837">
        <ele>359</ele>
        <time>2021-12-05T09:54:44.403Z</time>
      </trkpt>
      <trkpt lat="45.61639" lon="5.29842">
        <ele>359</ele>
        <time>2021-12-05T09:54:45.403Z</time>
      </trkpt>
      <trkpt lat="45.61638" lon="5.29847">
        <ele>359</ele>
        <time>2021-12-05T09:54:46.403Z</time>
      </trkpt>
      <trkpt lat="45.61638" lon="5.29852">
        <ele>360</ele>
        <time>2021-12-05T09:54:47.402Z</time>
      </trkpt>
      <trkpt lat="45.61638" lon="5.29857">
        <ele>360</ele>
        <time>2021-12-05T09:54:48.403Z</time>
      </trkpt>
      <trkpt lat="45.61638" lon="5.29861">
        <ele>360</ele>
        <time>2021-12-05T09:54:49.403Z</time>
      </trkpt>
      <trkpt lat="45.61637" lon="5.29867">
        <ele>361</ele>
        <time>2021-12-05T09:54:50.403Z</time>
      </trkpt>
      <trkpt lat="45.61637" lon="5.29872">
        <ele>361</ele>
        <time>2021-12-05T09:54:51.402Z</time>
      </trkpt>
      <trkpt lat="45.61637" lon="5.29875">
        <ele>361</ele>
        <time>2021-12-05T09:54:52.403Z</time>
      </trkpt>
      <trkpt lat="45.61637" lon="5.2988">
        <ele>361</ele>
        <time>2021-12-05T09:54:53.402Z</time>
      </trkpt>
      <trkpt lat="45.61638" lon="5.29885">
        <ele>362</ele>
        <time>2021-12-05T09:54:54.403Z</time>
      </trkpt>
      <trkpt lat="45.61639" lon="5.2989">
        <ele>362</ele>
        <time>2021-12-05T09:54:55.403Z</time>
      </trkpt>
      <trkpt lat="45.61639" lon="5.29894">
        <ele>362</ele>
        <time>2021-12-05T09:54:56.403Z</time>
      </trkpt>
      <trkpt lat="45.6164" lon="5.29899">
        <ele>362</ele>
        <time>2021-12-05T09:54:57.403Z</time>
      </trkpt>
      <trkpt lat="45.61641" lon="5.29903">
        <ele>362</ele>
        <time>2021-12-05T09:54:58.403Z</time>
      </trkpt>
      <trkpt lat="45.61643" lon="5.29908">
        <ele>363</ele>
        <time>2021-12-05T09:54:59.403Z</time>
      </trkpt>
      <trkpt lat="45.61644" lon="5.29912">
        <ele>363</ele>
        <time>2021-12-05T09:55:00.403Z</time>
      </trkpt>
      <trkpt lat="45.61645" lon="5.29916">
        <ele>363</ele>
        <time>2021-12-05T09:55:01.403Z</time>
      </trkpt>
      <trkpt lat="45.61647" lon="5.2992">
        <ele>363</ele>
        <time>2021-12-05T09:55:02.403Z</time>
      </trkpt>
      <trkpt lat="45.61649" lon="5.29923">
        <ele>364</ele>
        <time>2021-12-05T09:55:03.402Z</time>
      </trkpt>
      <trkpt lat="45.61651" lon="5.29927">
        <ele>364</ele>
        <time>2021-12-05T09:55:04.402Z</time>
      </trkpt>
      <trkpt lat="45.61653" lon="5.2993">
        <ele>365</ele>
        <time>2021-12-05T09:55:05.403Z</time>
      </trkpt>
      <trkpt lat="45.61655" lon="5.29934">
        <ele>365</ele>
        <time>2021-12-05T09:55:06.403Z</time>
      </trkpt>
      <trkpt lat="45.61657" lon="5.29937">
        <ele>365</ele>
        <time>2021-12-05T09:55:07.402Z</time>
      </trkpt>
      <trkpt lat="45.6166" lon="5.2994">
        <ele>366</ele>
        <time>2021-12-05T09:55:08.403Z</time>
      </trkpt>
      <trkpt lat="45.61663" lon="5.29944">
        <ele>367</ele>
        <time>2021-12-05T09:55:09.403Z</time>
      </trkpt>
      <trkpt lat="45.61665" lon="5.29947">
        <ele>367</ele>
        <time>2021-12-05T09:55:10.403Z</time>
      </trkpt>
      <trkpt lat="45.61668" lon="5.2995">
        <ele>368</ele>
        <time>2021-12-05T09:55:11.402Z</time>
      </trkpt>
      <trkpt lat="45.6167" lon="5.29953">
        <ele>369</ele>
        <time>2021-12-05T09:55:12.403Z</time>
      </trkpt>
      <trkpt lat="45.61673" lon="5.29956">
        <ele>369</ele>
        <time>2021-12-05T09:55:13.403Z</time>
      </trkpt>
      <trkpt lat="45.61675" lon="5.2996">
        <ele>369</ele>
        <time>2021-12-05T09:55:14.403Z</time>
      </trkpt>
      <trkpt lat="45.61678" lon="5.29963">
        <ele>370</ele>
        <time>2021-12-05T09:55:15.403Z</time>
      </trkpt>
      <trkpt lat="45.6168" lon="5.29967">
        <ele>370</ele>
        <time>2021-12-05T09:55:16.403Z</time>
      </trkpt>
      <trkpt lat="45.61681" lon="5.29971">
        <ele>370</ele>
        <time>2021-12-05T09:55:17.403Z</time>
      </trkpt>
      <trkpt lat="45.61683" lon="5.29976">
        <ele>370</ele>
        <time>2021-12-05T09:55:18.403Z</time>
      </trkpt>
      <trkpt lat="45.61684" lon="5.29981">
        <ele>370</ele>
        <time>2021-12-05T09:55:19.403Z</time>
      </trkpt>
      <trkpt lat="45.61684" lon="5.29986">
        <ele>370</ele>
        <time>2021-12-05T09:55:20.402Z</time>
      </trkpt>
      <trkpt lat="45.61685" lon="5.2999">
        <ele>370</ele>
        <time>2021-12-05T09:55:21.403Z</time>
      </trkpt>
      <trkpt lat="45.61685" lon="5.29995">
        <ele>370</ele>
        <time>2021-12-05T09:55:22.403Z</time>
      </trkpt>
      <trkpt lat="45.61685" lon="5.3">
        <ele>370</ele>
        <time>2021-12-05T09:55:23.402Z</time>
      </trkpt>
      <trkpt lat="45.61686" lon="5.30004">
        <ele>370</ele>
        <time>2021-12-05T09:55:24.403Z</time>
      </trkpt>
      <trkpt lat="45.61686" lon="5.30007">
        <ele>370</ele>
        <time>2021-12-05T09:55:25.403Z</time>
      </trkpt>
      <trkpt lat="45.61687" lon="5.30009">
        <ele>371</ele>
        <time>2021-12-05T09:55:26.403Z</time>
      </trkpt>
      <trkpt lat="45.61687" lon="5.30009">
        <ele>371</ele>
        <time>2021-12-05T09:55:27.403Z</time>
      </trkpt>
      <trkpt lat="45.61688" lon="5.30009">
        <ele>371</ele>
        <time>2021-12-05T09:55:28.403Z</time>
      </trkpt>
      <trkpt lat="45.61688" lon="5.30007">
        <ele>371</ele>
        <time>2021-12-05T09:55:29.403Z</time>
      </trkpt>
      <trkpt lat="45.61687" lon="5.30003">
        <ele>372</ele>
        <time>2021-12-05T09:55:30.403Z</time>
      </trkpt>
      <trkpt lat="45.61687" lon="5.3">
        <ele>372</ele>
        <time>2021-12-05T09:55:31.403Z</time>
      </trkpt>
      <trkpt lat="45.61687" lon="5.29996">
        <ele>372</ele>
        <time>2021-12-05T09:55:32.402Z</time>
      </trkpt>
      <trkpt lat="45.61686" lon="5.29991">
        <ele>373</ele>
        <time>2021-12-05T09:55:33.403Z</time>
      </trkpt>
      <trkpt lat="45.61686" lon="5.29987">
        <ele>373</ele>
        <time>2021-12-05T09:55:34.403Z</time>
      </trkpt>
      <trkpt lat="45.61686" lon="5.29982">
        <ele>373</ele>
        <time>2021-12-05T09:55:35.403Z</time>
      </trkpt>
      <trkpt lat="45.61685" lon="5.29978">
        <ele>373</ele>
        <time>2021-12-05T09:55:36.403Z</time>
      </trkpt>
      <trkpt lat="45.61684" lon="5.29973">
        <ele>373</ele>
        <time>2021-12-05T09:55:37.403Z</time>
      </trkpt>
      <trkpt lat="45.61682" lon="5.29969">
        <ele>373</ele>
        <time>2021-12-05T09:55:38.403Z</time>
      </trkpt>
      <trkpt lat="45.61681" lon="5.29966">
        <ele>373</ele>
        <time>2021-12-05T09:55:39.403Z</time>
      </trkpt>
      <trkpt lat="45.61679" lon="5.29962">
        <ele>373</ele>
        <time>2021-12-05T09:55:40.402Z</time>
      </trkpt>
      <trkpt lat="45.61677" lon="5.29958">
        <ele>373</ele>
        <time>2021-12-05T09:55:41.403Z</time>
      </trkpt>
      <trkpt lat="45.61674" lon="5.29954">
        <ele>373</ele>
        <time>2021-12-05T09:55:42.403Z</time>
      </trkpt>
      <trkpt lat="45.61671" lon="5.2995">
        <ele>373</ele>
        <time>2021-12-05T09:55:43.402Z</time>
      </trkpt>
      <trkpt lat="45.61669" lon="5.29946">
        <ele>373</ele>
        <time>2021-12-05T09:55:44.402Z</time>
      </trkpt>
      <trkpt lat="45.61666" lon="5.29943">
        <ele>372</ele>
        <time>2021-12-05T09:55:45.403Z</time>
      </trkpt>
      <trkpt lat="45.61663" lon="5.29938">
        <ele>372</ele>
        <time>2021-12-05T09:55:46.403Z</time>
      </trkpt>
      <trkpt lat="45.6166" lon="5.29935">
        <ele>372</ele>
        <time>2021-12-05T09:55:47.403Z</time>
      </trkpt>
      <trkpt lat="45.61657" lon="5.2993">
        <ele>371</ele>
        <time>2021-12-05T09:55:48.403Z</time>
      </trkpt>
      <trkpt lat="45.61654" lon="5.29926">
        <ele>371</ele>
        <time>2021-12-05T09:55:49.403Z</time>
      </trkpt>
      <trkpt lat="45.61652" lon="5.29921">
        <ele>370</ele>
        <time>2021-12-05T09:55:50.403Z</time>
      </trkpt>
      <trkpt lat="45.61649" lon="5.29916">
        <ele>370</ele>
        <time>2021-12-05T09:55:51.403Z</time>
      </trkpt>
      <trkpt lat="45.61646" lon="5.29911">
        <ele>370</ele>
        <time>2021-12-05T09:55:52.403Z</time>
      </trkpt>
      <trkpt lat="45.61645" lon="5.29906">
        <ele>369</ele>
        <time>2021-12-05T09:55:53.402Z</time>
      </trkpt>
      <trkpt lat="45.61643" lon="5.299">
        <ele>370</ele>
        <time>2021-12-05T09:55:54.402Z</time>
      </trkpt>
      <trkpt lat="45.61641" lon="5.29894">
        <ele>369</ele>
        <time>2021-12-05T09:55:55.403Z</time>
      </trkpt>
      <trkpt lat="45.6164" lon="5.29889">
        <ele>369</ele>
        <time>2021-12-05T09:55:56.403Z</time>
      </trkpt>
      <trkpt lat="45.61639" lon="5.29883">
        <ele>368</ele>
        <time>2021-12-05T09:55:57.403Z</time>
      </trkpt>
      <trkpt lat="45.61639" lon="5.29877">
        <ele>367</ele>
        <time>2021-12-05T09:55:58.402Z</time>
      </trkpt>
      <trkpt lat="45.61639" lon="5.29871">
        <ele>367</ele>
        <time>2021-12-05T09:55:59.403Z</time>
      </trkpt>
      <trkpt lat="45.61639" lon="5.29865">
        <ele>366</ele>
        <time>2021-12-05T09:56:00.403Z</time>
      </trkpt>
      <trkpt lat="45.61639" lon="5.2986">
        <ele>366</ele>
        <time>2021-12-05T09:56:01.403Z</time>
      </trkpt>
      <trkpt lat="45.61639" lon="5.29854">
        <ele>366</ele>
        <time>2021-12-05T09:56:02.402Z</time>
      </trkpt>
      <trkpt lat="45.6164" lon="5.29849">
        <ele>365</ele>
        <time>2021-12-05T09:56:03.403Z</time>
      </trkpt>
      <trkpt lat="45.6164" lon="5.29843">
        <ele>365</ele>
        <time>2021-12-05T09:56:04.403Z</time>
      </trkpt>
      <trkpt lat="45.6164" lon="5.29838">
        <ele>365</ele>
        <time>2021-12-05T09:56:05.403Z</time>
      </trkpt>
      <trkpt lat="45.61641" lon="5.29832">
        <ele>365</ele>
        <time>2021-12-05T09:56:06.403Z</time>
      </trkpt>
      <trkpt lat="45.61641" lon="5.29826">
        <ele>365</ele>
        <time>2021-12-05T09:56:07.403Z</time>
      </trkpt>
      <trkpt lat="45.61642" lon="5.29821">
        <ele>365</ele>
        <time>2021-12-05T09:56:08.403Z</time>
      </trkpt>
      <trkpt lat="45.61643" lon="5.29815">
        <ele>364</ele>
        <time>2021-12-05T09:56:09.403Z</time>
      </trkpt>
      <trkpt lat="45.61644" lon="5.2981">
        <ele>364</ele>
        <time>2021-12-05T09:56:10.403Z</time>
      </trkpt>
      <trkpt lat="45.61644" lon="5.29804">
        <ele>363</ele>
        <time>2021-12-05T09:56:11.403Z</time>
      </trkpt>
      <trkpt lat="45.61645" lon="5.29799">
        <ele>363</ele>
        <time>2021-12-05T09:56:12.403Z</time>
      </trkpt>
      <trkpt lat="45.61645" lon="5.29794">
        <ele>363</ele>
        <time>2021-12-05T09:56:13.403Z</time>
      </trkpt>
      <trkpt lat="45.61646" lon="5.29789">
        <ele>363</ele>
        <time>2021-12-05T09:56:14.403Z</time>
      </trkpt>
      <trkpt lat="45.61647" lon="5.29783">
        <ele>363</ele>
        <time>2021-12-05T09:56:15.403Z</time>
      </trkpt>
      <trkpt lat="45.61647" lon="5.29778">
        <ele>363</ele>
        <time>2021-12-05T09:56:16.403Z</time>
      </trkpt>
      <trkpt lat="45.61648" lon="5.29774">
        <ele>362</ele>
        <time>2021-12-05T09:56:17.403Z</time>
      </trkpt>
      <trkpt lat="45.61648" lon="5.29773">
        <ele>362</ele>
        <time>2021-12-05T09:56:18.403Z</time>
      </trkpt>
      <trkpt lat="45.61647" lon="5.29773">
        <ele>361</ele>
        <time>2021-12-05T09:56:19.403Z</time>
      </trkpt>
      <trkpt lat="45.61647" lon="5.29774">
        <ele>361</ele>
        <time>2021-12-05T09:56:20.403Z</time>
      </trkpt>
      <trkpt lat="45.61647" lon="5.29776">
        <ele>361</ele>
        <time>2021-12-05T09:56:21.403Z</time>
      </trkpt>
      <trkpt lat="45.61647" lon="5.29778">
        <ele>361</ele>
        <time>2021-12-05T09:56:22.402Z</time>
      </trkpt>
      <trkpt lat="45.61646" lon="5.29782">
        <ele>361</ele>
        <time>2021-12-05T09:56:23.403Z</time>
      </trkpt>
      <trkpt lat="45.61646" lon="5.29785">
        <ele>361</ele>
        <time>2021-12-05T09:56:24.403Z</time>
      </trkpt>
      <trkpt lat="45.61646" lon="5.29788">
        <ele>361</ele>
        <time>2021-12-05T09:56:25.402Z</time>
      </trkpt>
      <trkpt lat="45.61646" lon="5.29791">
        <ele>362</ele>
        <time>2021-12-05T09:56:26.402Z</time>
      </trkpt>
      <trkpt lat="45.61646" lon="5.29794">
        <ele>362</ele>
        <time>2021-12-05T09:56:27.402Z</time>
      </trkpt>
      <trkpt lat="45.61646" lon="5.29797">
        <ele>362</ele>
        <time>2021-12-05T09:56:28.403Z</time>
      </trkpt>
      <trkpt lat="45.61646" lon="5.29799">
        <ele>362</ele>
        <time>2021-12-05T09:56:29.403Z</time>
      </trkpt>
      <trkpt lat="45.61645" lon="5.29801">
        <ele>361</ele>
        <time>2021-12-05T09:56:30.402Z</time>
      </trkpt>
      <trkpt lat="45.61645" lon="5.29804">
        <ele>361</ele>
        <time>2021-12-05T09:56:31.402Z</time>
      </trkpt>
      <trkpt lat="45.61644" lon="5.29807">
        <ele>361</ele>
        <time>2021-12-05T09:56:32.403Z</time>
      </trkpt>
      <trkpt lat="45.61644" lon="5.2981">
        <ele>360</ele>
        <time>2021-12-05T09:56:33.402Z</time>
      </trkpt>
      <trkpt lat="45.61644" lon="5.29813">
        <ele>360</ele>
        <time>2021-12-05T09:56:34.403Z</time>
      </trkpt>
      <trkpt lat="45.61643" lon="5.29816">
        <ele>360</ele>
        <time>2021-12-05T09:56:35.403Z</time>
      </trkpt>
      <trkpt lat="45.61643" lon="5.29819">
        <ele>361</ele>
        <time>2021-12-05T09:56:36.403Z</time>
      </trkpt>
      <trkpt lat="45.61643" lon="5.29822">
        <ele>361</ele>
        <time>2021-12-05T09:56:37.403Z</time>
      </trkpt>
      <trkpt lat="45.61643" lon="5.29824">
        <ele>361</ele>
        <time>2021-12-05T09:56:38.403Z</time>
      </trkpt>
      <trkpt lat="45.61642" lon="5.29827">
        <ele>361</ele>
        <time>2021-12-05T09:56:39.403Z</time>
      </trkpt>
      <trkpt lat="45.61641" lon="5.29829">
        <ele>362</ele>
        <time>2021-12-05T09:56:40.403Z</time>
      </trkpt>
      <trkpt lat="45.6164" lon="5.29832">
        <ele>362</ele>
        <time>2021-12-05T09:56:41.403Z</time>
      </trkpt>
      <trkpt lat="45.6164" lon="5.29834">
        <ele>362</ele>
        <time>2021-12-05T09:56:42.403Z</time>
      </trkpt>
      <trkpt lat="45.61639" lon="5.29837">
        <ele>363</ele>
        <time>2021-12-05T09:56:43.403Z</time>
      </trkpt>
      <trkpt lat="45.61639" lon="5.29839">
        <ele>363</ele>
        <time>2021-12-05T09:56:44.402Z</time>
      </trkpt>
      <trkpt lat="45.61639" lon="5.29842">
        <ele>363</ele>
        <time>2021-12-05T09:56:45.403Z</time>
      </trkpt>
      <trkpt lat="45.61639" lon="5.29845">
        <ele>363</ele>
        <time>2021-12-05T09:56:46.403Z</time>
      </trkpt>
      <trkpt lat="45.61639" lon="5.29848">
        <ele>363</ele>
        <time>2021-12-05T09:56:47.403Z</time>
      </trkpt>
      <trkpt lat="45.6164" lon="5.29851">
        <ele>363</ele>
        <time>2021-12-05T09:56:48.402Z</time>
      </trkpt>
      <trkpt lat="45.6164" lon="5.29853">
        <ele>364</ele>
        <time>2021-12-05T09:56:49.403Z</time>
      </trkpt>
      <trkpt lat="45.61639" lon="5.29856">
        <ele>364</ele>
        <time>2021-12-05T09:56:50.402Z</time>
      </trkpt>
      <trkpt lat="45.61639" lon="5.29859">
        <ele>364</ele>
        <time>2021-12-05T09:56:51.403Z</time>
      </trkpt>
      <trkpt lat="45.6164" lon="5.29862">
        <ele>364</ele>
        <time>2021-12-05T09:56:52.403Z</time>
      </trkpt>
      <trkpt lat="45.6164" lon="5.29864">
        <ele>364</ele>
        <time>2021-12-05T09:56:53.403Z</time>
      </trkpt>
      <trkpt lat="45.61639" lon="5.29867">
        <ele>364</ele>
        <time>2021-12-05T09:56:54.403Z</time>
      </trkpt>
      <trkpt lat="45.61639" lon="5.29869">
        <ele>365</ele>
        <time>2021-12-05T09:56:55.402Z</time>
      </trkpt>
      <trkpt lat="45.6164" lon="5.29872">
        <ele>365</ele>
        <time>2021-12-05T09:56:56.402Z</time>
      </trkpt>
      <trkpt lat="45.61641" lon="5.29875">
        <ele>366</ele>
        <time>2021-12-05T09:56:57.403Z</time>
      </trkpt>
      <trkpt lat="45.61641" lon="5.29878">
        <ele>366</ele>
        <time>2021-12-05T09:56:58.402Z</time>
      </trkpt>
      <trkpt lat="45.61641" lon="5.2988">
        <ele>367</ele>
        <time>2021-12-05T09:56:59.403Z</time>
      </trkpt>
      <trkpt lat="45.61641" lon="5.29883">
        <ele>367</ele>
        <time>2021-12-05T09:57:00.403Z</time>
      </trkpt>
      <trkpt lat="45.61642" lon="5.29885">
        <ele>368</ele>
        <time>2021-12-05T09:57:01.403Z</time>
      </trkpt>
      <trkpt lat="45.61642" lon="5.29888">
        <ele>368</ele>
        <time>2021-12-05T09:57:02.403Z</time>
      </trkpt>
      <trkpt lat="45.61642" lon="5.2989">
        <ele>369</ele>
        <time>2021-12-05T09:57:03.403Z</time>
      </trkpt>
      <trkpt lat="45.61643" lon="5.29893">
        <ele>369</ele>
        <time>2021-12-05T09:57:04.402Z</time>
      </trkpt>
      <trkpt lat="45.61643" lon="5.29895">
        <ele>369</ele>
        <time>2021-12-05T09:57:05.403Z</time>
      </trkpt>
      <trkpt lat="45.61644" lon="5.29897">
        <ele>370</ele>
        <time>2021-12-05T09:57:06.403Z</time>
      </trkpt>
      <trkpt lat="45.61645" lon="5.299">
        <ele>370</ele>
        <time>2021-12-05T09:57:07.403Z</time>
      </trkpt>
      <trkpt lat="45.61645" lon="5.29902">
        <ele>370</ele>
        <time>2021-12-05T09:57:08.403Z</time>
      </trkpt>
      <trkpt lat="45.61646" lon="5.29904">
        <ele>371</ele>
        <time>2021-12-05T09:57:09.402Z</time>
      </trkpt>
      <trkpt lat="45.61646" lon="5.29907">
        <ele>371</ele>
        <time>2021-12-05T09:57:10.403Z</time>
      </trkpt>
      <trkpt lat="45.61647" lon="5.29909">
        <ele>372</ele>
        <time>2021-12-05T09:57:11.403Z</time>
      </trkpt>
      <trkpt lat="45.61648" lon="5.29911">
        <ele>373</ele>
        <time>2021-12-05T09:57:12.403Z</time>
      </trkpt>
      <trkpt lat="45.61649" lon="5.29913">
        <ele>373</ele>
        <time>2021-12-05T09:57:13.403Z</time>
      </trkpt>
      <trkpt lat="45.6165" lon="5.29914">
        <ele>373</ele>
        <time>2021-12-05T09:57:14.403Z</time>
      </trkpt>
      <trkpt lat="45.61651" lon="5.29916">
        <ele>373</ele>
        <time>2021-12-05T09:57:15.403Z</time>
      </trkpt>
      <trkpt lat="45.61651" lon="5.29918">
        <ele>373</ele>
        <time>2021-12-05T09:57:16.402Z</time>
      </trkpt>
      <trkpt lat="45.61652" lon="5.2992">
        <ele>374</ele>
        <time>2021-12-05T09:57:17.402Z</time>
      </trkpt>
      <trkpt lat="45.61653" lon="5.29922">
        <ele>374</ele>
        <time>2021-12-05T09:57:18.403Z</time>
      </trkpt>
      <trkpt lat="45.61654" lon="5.29924">
        <ele>374</ele>
        <time>2021-12-05T09:57:19.403Z</time>
      </trkpt>
      <trkpt lat="45.61655" lon="5.29925">
        <ele>374</ele>
        <time>2021-12-05T09:57:20.403Z</time>
      </trkpt>
      <trkpt lat="45.61656" lon="5.29927">
        <ele>374</ele>
        <time>2021-12-05T09:57:21.403Z</time>
      </trkpt>
      <trkpt lat="45.61657" lon="5.2993">
        <ele>374</ele>
        <time>2021-12-05T09:57:22.403Z</time>
      </trkpt>
      <trkpt lat="45.61658" lon="5.29931">
        <ele>374</ele>
        <time>2021-12-05T09:57:23.403Z</time>
      </trkpt>
      <trkpt lat="45.61659" lon="5.29933">
        <ele>374</ele>
        <time>2021-12-05T09:57:24.403Z</time>
      </trkpt>
      <trkpt lat="45.6166" lon="5.29935">
        <ele>374</ele>
        <time>2021-12-05T09:57:25.403Z</time>
      </trkpt>
      <trkpt lat="45.61661" lon="5.29937">
        <ele>374</ele>
        <time>2021-12-05T09:57:26.403Z</time>
      </trkpt>
      <trkpt lat="45.61662" lon="5.29938">
        <ele>374</ele>
        <time>2021-12-05T09:57:27.402Z</time>
      </trkpt>
      <trkpt lat="45.61663" lon="5.2994">
        <ele>374</ele>
        <time>2021-12-05T09:57:28.402Z</time>
      </trkpt>
      <trkpt lat="45.61664" lon="5.29941">
        <ele>374</ele>
        <time>2021-12-05T09:57:29.403Z</time>
      </trkpt>
      <trkpt lat="45.61665" lon="5.29942">
        <ele>375</ele>
        <time>2021-12-05T09:57:30.403Z</time>
      </trkpt>
      <trkpt lat="45.61666" lon="5.29943">
        <ele>375</ele>
        <time>2021-12-05T09:57:31.402Z</time>
      </trkpt>
      <trkpt lat="45.61667" lon="5.29944">
        <ele>375</ele>
        <time>2021-12-05T09:57:32.403Z</time>
      </trkpt>
      <trkpt lat="45.61669" lon="5.29945">
        <ele>375</ele>
        <time>2021-12-05T09:57:33.403Z</time>
      </trkpt>
      <trkpt lat="45.6167" lon="5.29947">
        <ele>375</ele>
        <time>2021-12-05T09:57:34.403Z</time>
      </trkpt>
      <trkpt lat="45.61671" lon="5.29948">
        <ele>375</ele>
        <time>2021-12-05T09:57:35.403Z</time>
      </trkpt>
      <trkpt lat="45.61673" lon="5.2995">
        <ele>375</ele>
        <time>2021-12-05T09:57:36.402Z</time>
      </trkpt>
      <trkpt lat="45.61674" lon="5.29951">
        <ele>375</ele>
        <time>2021-12-05T09:57:37.403Z</time>
      </trkpt>
      <trkpt lat="45.61675" lon="5.29953">
        <ele>375</ele>
        <time>2021-12-05T09:57:38.402Z</time>
      </trkpt>
      <trkpt lat="45.61677" lon="5.29954">
        <ele>376</ele>
        <time>2021-12-05T09:57:39.403Z</time>
      </trkpt>
      <trkpt lat="45.61678" lon="5.29956">
        <ele>376</ele>
        <time>2021-12-05T09:57:40.403Z</time>
      </trkpt>
      <trkpt lat="45.61679" lon="5.29958">
        <ele>376</ele>
        <time>2021-12-05T09:57:41.403Z</time>
      </trkpt>
      <trkpt lat="45.6168" lon="5.2996">
        <ele>376</ele>
        <time>2021-12-05T09:57:42.403Z</time>
      </trkpt>
      <trkpt lat="45.61681" lon="5.29962">
        <ele>377</ele>
        <time>2021-12-05T09:57:43.403Z</time>
      </trkpt>
      <trkpt lat="45.61682" lon="5.29964">
        <ele>377</ele>
        <time>2021-12-05T09:57:44.402Z</time>
      </trkpt>
      <trkpt lat="45.61683" lon="5.29966">
        <ele>378</ele>
        <time>2021-12-05T09:57:45.403Z</time>
      </trkpt>
      <trkpt lat="45.61684" lon="5.29969">
        <ele>378</ele>
        <time>2021-12-05T09:57:46.403Z</time>
      </trkpt>
      <trkpt lat="45.61685" lon="5.29971">
        <ele>378</ele>
        <time>2021-12-05T09:57:47.403Z</time>
      </trkpt>
      <trkpt lat="45.61685" lon="5.29974">
        <ele>378</ele>
        <time>2021-12-05T09:57:48.403Z</time>
      </trkpt>
      <trkpt lat="45.61686" lon="5.29976">
        <ele>378</ele>
        <time>2021-12-05T09:57:49.403Z</time>
      </trkpt>
      <trkpt lat="45.61686" lon="5.29979">
        <ele>379</ele>
        <time>2021-12-05T09:57:50.403Z</time>
      </trkpt>
      <trkpt lat="45.61686" lon="5.29982">
        <ele>379</ele>
        <time>2021-12-05T09:57:51.402Z</time>
      </trkpt>
      <trkpt lat="45.61687" lon="5.29984">
        <ele>380</ele>
        <time>2021-12-05T09:57:52.403Z</time>
      </trkpt>
      <trkpt lat="45.61687" lon="5.29987">
        <ele>381</ele>
        <time>2021-12-05T09:57:53.402Z</time>
      </trkpt>
      <trkpt lat="45.61687" lon="5.2999">
        <ele>381</ele>
        <time>2021-12-05T09:57:54.403Z</time>
      </trkpt>
      <trkpt lat="45.61687" lon="5.29992">
        <ele>382</ele>
        <time>2021-12-05T09:57:55.403Z</time>
      </trkpt>
      <trkpt lat="45.61687" lon="5.29994">
        <ele>382</ele>
        <time>2021-12-05T09:57:56.403Z</time>
      </trkpt>
      <trkpt lat="45.61686" lon="5.29997">
        <ele>382</ele>
        <time>2021-12-05T09:57:57.403Z</time>
      </trkpt>
      <trkpt lat="45.61686" lon="5.29999">
        <ele>383</ele>
        <time>2021-12-05T09:57:58.403Z</time>
      </trkpt>
      <trkpt lat="45.61687" lon="5.30002">
        <ele>383</ele>
        <time>2021-12-05T09:57:59.402Z</time>
      </trkpt>
      <trkpt lat="45.61687" lon="5.30005">
        <ele>383</ele>
        <time>2021-12-05T09:58:00.403Z</time>
      </trkpt>
      <trkpt lat="45.61687" lon="5.30008">
        <ele>383</ele>
        <time>2021-12-05T09:58:01.403Z</time>
      </trkpt>
      <trkpt lat="45.61687" lon="5.3001">
        <ele>383</ele>
        <time>2021-12-05T09:58:02.403Z</time>
      </trkpt>
      <trkpt lat="45.61688" lon="5.30013">
        <ele>383</ele>
        <time>2021-12-05T09:58:03.403Z</time>
      </trkpt>
      <trkpt lat="45.61687" lon="5.30015">
        <ele>383</ele>
        <time>2021-12-05T09:58:04.403Z</time>
      </trkpt>
      <trkpt lat="45.61688" lon="5.30018">
        <ele>383</ele>
        <time>2021-12-05T09:58:05.403Z</time>
      </trkpt>
      <trkpt lat="45.61687" lon="5.30021">
        <ele>384</ele>
        <time>2021-12-05T09:58:06.403Z</time>
      </trkpt>
      <trkpt lat="45.61687" lon="5.30023">
        <ele>384</ele>
        <time>2021-12-05T09:58:07.403Z</time>
      </trkpt>
      <trkpt lat="45.61687" lon="5.30026">
        <ele>385</ele>
        <time>2021-12-05T09:58:08.403Z</time>
      </trkpt>
      <trkpt lat="45.61687" lon="5.30029">
        <ele>385</ele>
        <time>2021-12-05T09:58:09.403Z</time>
      </trkpt>
      <trkpt lat="45.61687" lon="5.30032">
        <ele>386</ele>
        <time>2021-12-05T09:58:10.402Z</time>
      </trkpt>
      <trkpt lat="45.61687" lon="5.30035">
        <ele>386</ele>
        <time>2021-12-05T09:58:11.403Z</time>
      </trkpt>
      <trkpt lat="45.61687" lon="5.30038">
        <ele>386</ele>
        <time>2021-12-05T09:58:12.403Z</time>
      </trkpt>
      <trkpt lat="45.61688" lon="5.3004">
        <ele>386</ele>
        <time>2021-12-05T09:58:13.403Z</time>
      </trkpt>
      <trkpt lat="45.61688" lon="5.30043">
        <ele>386</ele>
        <time>2021-12-05T09:58:14.402Z</time>
      </trkpt>
      <trkpt lat="45.61688" lon="5.30046">
        <ele>386</ele>
        <time>2021-12-05T09:58:15.402Z</time>
      </trkpt>
      <trkpt lat="45.61688" lon="5.30049">
        <ele>386</ele>
        <time>2021-12-05T09:58:16.402Z</time>
      </trkpt>
      <trkpt lat="45.61688" lon="5.30052">
        <ele>386</ele>
        <time>2021-12-05T09:58:17.402Z</time>
      </trkpt>
      <trkpt lat="45.61689" lon="5.30055">
        <ele>386</ele>
        <time>2021-12-05T09:58:18.403Z</time>
      </trkpt>
      <trkpt lat="45.61689" lon="5.30058">
        <ele>385</ele>
        <time>2021-12-05T09:58:19.403Z</time>
      </trkpt>
      <trkpt lat="45.61689" lon="5.30061">
        <ele>385</ele>
        <time>2021-12-05T09:58:20.403Z</time>
      </trkpt>
      <trkpt lat="45.61689" lon="5.30064">
        <ele>384</ele>
        <time>2021-12-05T09:58:21.402Z</time>
      </trkpt>
      <trkpt lat="45.61689" lon="5.30067">
        <ele>384</ele>
        <time>2021-12-05T09:58:22.402Z</time>
      </trkpt>
      <trkpt lat="45.61689" lon="5.3007">
        <ele>383</ele>
        <time>2021-12-05T09:58:23.403Z</time>
      </trkpt>
      <trkpt lat="45.61689" lon="5.30073">
        <ele>383</ele>
        <time>2021-12-05T09:58:24.402Z</time>
      </trkpt>
      <trkpt lat="45.61689" lon="5.30076">
        <ele>382</ele>
        <time>2021-12-05T09:58:25.403Z</time>
      </trkpt>
      <trkpt lat="45.61689" lon="5.30079">
        <ele>381</ele>
        <time>2021-12-05T09:58:26.403Z</time>
      </trkpt>
      <trkpt lat="45.61689" lon="5.30082">
        <ele>381</ele>
        <time>2021-12-05T09:58:27.402Z</time>
      </trkpt>
      <trkpt lat="45.61689" lon="5.30085">
        <ele>380</ele>
        <time>2021-12-05T09:58:28.403Z</time>
      </trkpt>
      <trkpt lat="45.61689" lon="5.30088">
        <ele>379</ele>
        <time>2021-12-05T09:58:29.402Z</time>
      </trkpt>
      <trkpt lat="45.61689" lon="5.30091">
        <ele>379</ele>
        <time>2021-12-05T09:58:30.403Z</time>
      </trkpt>
      <trkpt lat="45.61689" lon="5.30094">
        <ele>378</ele>
        <time>2021-12-05T09:58:31.402Z</time>
      </trkpt>
      <trkpt lat="45.61689" lon="5.30097">
        <ele>378</ele>
        <time>2021-12-05T09:58:32.402Z</time>
      </trkpt>
      <trkpt lat="45.61689" lon="5.301">
        <ele>378</ele>
        <time>2021-12-05T09:58:33.402Z</time>
      </trkpt>
      <trkpt lat="45.61689" lon="5.30103">
        <ele>378</ele>
        <time>2021-12-05T09:58:34.402Z</time>
      </trkpt>
      <trkpt lat="45.61689" lon="5.30106">
        <ele>378</ele>
        <time>2021-12-05T09:58:35.402Z</time>
      </trkpt>
      <trkpt lat="45.61689" lon="5.30109">
        <ele>378</ele>
        <time>2021-12-05T09:58:36.403Z</time>
      </trkpt>
      <trkpt lat="45.61689" lon="5.30112">
        <ele>378</ele>
        <time>2021-12-05T09:58:37.402Z</time>
      </trkpt>
      <trkpt lat="45.61689" lon="5.30115">
        <ele>378</ele>
        <time>2021-12-05T09:58:38.402Z</time>
      </trkpt>
      <trkpt lat="45.61689" lon="5.30118">
        <ele>378</ele>
        <time>2021-12-05T09:58:39.402Z</time>
      </trkpt>
      <trkpt lat="45.61689" lon="5.30121">
        <ele>378</ele>
        <time>2021-12-05T09:58:40.403Z</time>
      </trkpt>
      <trkpt lat="45.61689" lon="5.30125">
        <ele>378</ele>
        <time>2021-12-05T09:58:41.402Z</time>
      </trkpt>
      <trkpt lat="45.61689" lon="5.30128">
        <ele>378</ele>
        <time>2021-12-05T09:58:42.402Z</time>
      </trkpt>
      <trkpt lat="45.61689" lon="5.30131">
        <ele>378</ele>
        <time>2021-12-05T09:58:43.402Z</time>
      </trkpt>
      <trkpt lat="45.61689" lon="5.30134">
        <ele>378</ele>
        <time>2021-12-05T09:58:44.402Z</time>
      </trkpt>
      <trkpt lat="45.6169" lon="5.30137">
        <ele>377</ele>
        <time>2021-12-05T09:58:45.403Z</time>
      </trkpt>
      <trkpt lat="45.6169" lon="5.30139">
        <ele>377</ele>
        <time>2021-12-05T09:58:46.403Z</time>
      </trkpt>
      <trkpt lat="45.6169" lon="5.30142">
        <ele>377</ele>
        <time>2021-12-05T09:58:47.402Z</time>
      </trkpt>
      <trkpt lat="45.6169" lon="5.30145">
        <ele>376</ele>
        <time>2021-12-05T09:58:48.402Z</time>
      </trkpt>
      <trkpt lat="45.6169" lon="5.30147">
        <ele>376</ele>
        <time>2021-12-05T09:58:49.402Z</time>
      </trkpt>
      <trkpt lat="45.6169" lon="5.3015">
        <ele>377</ele>
        <time>2021-12-05T09:58:50.403Z</time>
      </trkpt>
      <trkpt lat="45.6169" lon="5.30153">
        <ele>377</ele>
        <time>2021-12-05T09:58:51.403Z</time>
      </trkpt>
      <trkpt lat="45.61691" lon="5.30156">
        <ele>377</ele>
        <time>2021-12-05T09:58:52.402Z</time>
      </trkpt>
      <trkpt lat="45.61691" lon="5.30159">
        <ele>377</ele>
        <time>2021-12-05T09:58:53.402Z</time>
      </trkpt>
      <trkpt lat="45.61691" lon="5.30163">
        <ele>377</ele>
        <time>2021-12-05T09:58:54.402Z</time>
      </trkpt>
      <trkpt lat="45.61692" lon="5.30166">
        <ele>378</ele>
        <time>2021-12-05T09:58:55.402Z</time>
      </trkpt>
      <trkpt lat="45.61692" lon="5.30169">
        <ele>378</ele>
        <time>2021-12-05T09:58:56.402Z</time>
      </trkpt>
      <trkpt lat="45.61693" lon="5.30172">
        <ele>378</ele>
        <time>2021-12-05T09:58:57.402Z</time>
      </trkpt>
      <trkpt lat="45.61693" lon="5.30175">
        <ele>378</ele>
        <time>2021-12-05T09:58:58.402Z</time>
      </trkpt>
      <trkpt lat="45.61693" lon="5.30178">
        <ele>378</ele>
        <time>2021-12-05T09:58:59.402Z</time>
      </trkpt>
      <trkpt lat="45.61693" lon="5.30181">
        <ele>378</ele>
        <time>2021-12-05T09:59:00.402Z</time>
      </trkpt>
      <trkpt lat="45.61694" lon="5.30184">
        <ele>378</ele>
        <time>2021-12-05T09:59:01.402Z</time>
      </trkpt>
      <trkpt lat="45.61694" lon="5.30187">
        <ele>377</ele>
        <time>2021-12-05T09:59:02.402Z</time>
      </trkpt>
      <trkpt lat="45.61694" lon="5.30191">
        <ele>377</ele>
        <time>2021-12-05T09:59:03.402Z</time>
      </trkpt>
      <trkpt lat="45.61695" lon="5.30194">
        <ele>377</ele>
        <time>2021-12-05T09:59:04.403Z</time>
      </trkpt>
      <trkpt lat="45.61695" lon="5.30197">
        <ele>376</ele>
        <time>2021-12-05T09:59:05.403Z</time>
      </trkpt>
      <trkpt lat="45.61696" lon="5.302">
        <ele>376</ele>
        <time>2021-12-05T09:59:06.402Z</time>
      </trkpt>
      <trkpt lat="45.61696" lon="5.30203">
        <ele>376</ele>
        <time>2021-12-05T09:59:07.403Z</time>
      </trkpt>
      <trkpt lat="45.61697" lon="5.30206">
        <ele>376</ele>
        <time>2021-12-05T09:59:08.403Z</time>
      </trkpt>
      <trkpt lat="45.61697" lon="5.30209">
        <ele>376</ele>
        <time>2021-12-05T09:59:09.403Z</time>
      </trkpt>
      <trkpt lat="45.61697" lon="5.30213">
        <ele>377</ele>
        <time>2021-12-05T09:59:10.402Z</time>
      </trkpt>
      <trkpt lat="45.61698" lon="5.30216">
        <ele>377</ele>
        <time>2021-12-05T09:59:11.403Z</time>
      </trkpt>
      <trkpt lat="45.61699" lon="5.30218">
        <ele>377</ele>
        <time>2021-12-05T09:59:12.402Z</time>
      </trkpt>
      <trkpt lat="45.61699" lon="5.30221">
        <ele>378</ele>
        <time>2021-12-05T09:59:13.402Z</time>
      </trkpt>
      <trkpt lat="45.617" lon="5.30224">
        <ele>378</ele>
        <time>2021-12-05T09:59:14.403Z</time>
      </trkpt>
      <trkpt lat="45.61701" lon="5.30228">
        <ele>379</ele>
        <time>2021-12-05T09:59:15.403Z</time>
      </trkpt>
      <trkpt lat="45.61702" lon="5.30231">
        <ele>379</ele>
        <time>2021-12-05T09:59:16.403Z</time>
      </trkpt>
      <trkpt lat="45.61702" lon="5.30234">
        <ele>380</ele>
        <time>2021-12-05T09:59:17.403Z</time>
      </trkpt>
      <trkpt lat="45.61703" lon="5.30237">
        <ele>380</ele>
        <time>2021-12-05T09:59:18.402Z</time>
      </trkpt>
      <trkpt lat="45.61703" lon="5.30241">
        <ele>380</ele>
        <time>2021-12-05T09:59:19.402Z</time>
      </trkpt>
      <trkpt lat="45.61704" lon="5.30243">
        <ele>381</ele>
        <time>2021-12-05T09:59:20.403Z</time>
      </trkpt>
      <trkpt lat="45.61705" lon="5.30246">
        <ele>381</ele>
        <time>2021-12-05T09:59:21.402Z</time>
      </trkpt>
      <trkpt lat="45.61705" lon="5.3025">
        <ele>382</ele>
        <time>2021-12-05T09:59:22.403Z</time>
      </trkpt>
      <trkpt lat="45.61706" lon="5.30253">
        <ele>382</ele>
        <time>2021-12-05T09:59:23.403Z</time>
      </trkpt>
      <trkpt lat="45.61706" lon="5.30256">
        <ele>383</ele>
        <time>2021-12-05T09:59:24.403Z</time>
      </trkpt>
      <trkpt lat="45.61707" lon="5.30259">
        <ele>383</ele>
        <time>2021-12-05T09:59:25.403Z</time>
      </trkpt>
      <trkpt lat="45.61708" lon="5.30262">
        <ele>383</ele>
        <time>2021-12-05T09:59:26.403Z</time>
      </trkpt>
      <trkpt lat="45.61709" lon="5.30265">
        <ele>384</ele>
        <time>2021-12-05T09:59:27.403Z</time>
      </trkpt>
      <trkpt lat="45.6171" lon="5.30268">
        <ele>384</ele>
        <time>2021-12-05T09:59:28.403Z</time>
      </trkpt>
      <trkpt lat="45.61711" lon="5.30271">
        <ele>384</ele>
        <time>2021-12-05T09:59:29.403Z</time>
      </trkpt>
      <trkpt lat="45.61711" lon="5.30274">
        <ele>385</ele>
        <time>2021-12-05T09:59:30.402Z</time>
      </trkpt>
      <trkpt lat="45.61712" lon="5.30277">
        <ele>385</ele>
        <time>2021-12-05T09:59:31.403Z</time>
      </trkpt>
      <trkpt lat="45.61712" lon="5.3028">
        <ele>385</ele>
        <time>2021-12-05T09:59:32.402Z</time>
      </trkpt>
      <trkpt lat="45.61712" lon="5.30283">
        <ele>386</ele>
        <time>2021-12-05T09:59:33.402Z</time>
      </trkpt>
      <trkpt lat="45.61712" lon="5.30285">
        <ele>386</ele>
        <time>2021-12-05T09:59:34.403Z</time>
      </trkpt>
      <trkpt lat="45.61713" lon="5.30288">
        <ele>386</ele>
        <time>2021-12-05T09:59:35.403Z</time>
      </trkpt>
      <trkpt lat="45.61713" lon="5.30291">
        <ele>386</ele>
        <time>2021-12-05T09:59:36.403Z</time>
      </trkpt>
      <trkpt lat="45.61714" lon="5.30295">
        <ele>385</ele>
        <time>2021-12-05T09:59:37.402Z</time>
      </trkpt>
      <trkpt lat="45.61714" lon="5.30298">
        <ele>385</ele>
        <time>2021-12-05T09:59:38.402Z</time>
      </trkpt>
      <trkpt lat="45.61714" lon="5.30301">
        <ele>385</ele>
        <time>2021-12-05T09:59:39.403Z</time>
      </trkpt>
      <trkpt lat="45.61714" lon="5.30304">
        <ele>385</ele>
        <time>2021-12-05T09:59:40.403Z</time>
      </trkpt>
      <trkpt lat="45.61715" lon="5.30307">
        <ele>384</ele>
        <time>2021-12-05T09:59:41.403Z</time>
      </trkpt>
      <trkpt lat="45.61715" lon="5.3031">
        <ele>384</ele>
        <time>2021-12-05T09:59:42.402Z</time>
      </trkpt>
      <trkpt lat="45.61716" lon="5.30313">
        <ele>384</ele>
        <time>2021-12-05T09:59:43.402Z</time>
      </trkpt>
      <trkpt lat="45.61716" lon="5.30317">
        <ele>383</ele>
        <time>2021-12-05T09:59:44.403Z</time>
      </trkpt>
      <trkpt lat="45.61716" lon="5.3032">
        <ele>382</ele>
        <time>2021-12-05T09:59:45.403Z</time>
      </trkpt>
      <trkpt lat="45.61715" lon="5.30323">
        <ele>381</ele>
        <time>2021-12-05T09:59:46.403Z</time>
      </trkpt>
      <trkpt lat="45.61715" lon="5.30326">
        <ele>380</ele>
        <time>2021-12-05T09:59:47.402Z</time>
      </trkpt>
      <trkpt lat="45.61714" lon="5.3033">
        <ele>379</ele>
        <time>2021-12-05T09:59:48.403Z</time>
      </trkpt>
      <trkpt lat="45.61714" lon="5.30333">
        <ele>378</ele>
        <time>2021-12-05T09:59:49.403Z</time>
      </trkpt>
      <trkpt lat="45.61713" lon="5.30336">
        <ele>377</ele>
        <time>2021-12-05T09:59:50.403Z</time>
      </trkpt>
      <trkpt lat="45.61713" lon="5.30339">
        <ele>376</ele>
        <time>2021-12-05T09:59:51.403Z</time>
      </trkpt>
      <trkpt lat="45.61713" lon="5.30342">
        <ele>375</ele>
        <time>2021-12-05T09:59:52.403Z</time>
      </trkpt>
      <trkpt lat="45.61713" lon="5.30346">
        <ele>374</ele>
        <time>2021-12-05T09:59:53.403Z</time>
      </trkpt>
      <trkpt lat="45.61713" lon="5.30349">
        <ele>374</ele>
        <time>2021-12-05T09:59:54.403Z</time>
      </trkpt>
      <trkpt lat="45.61712" lon="5.30352">
        <ele>373</ele>
        <time>2021-12-05T09:59:55.402Z</time>
      </trkpt>
      <trkpt lat="45.61712" lon="5.30356">
        <ele>373</ele>
        <time>2021-12-05T09:59:56.402Z</time>
      </trkpt>
      <trkpt lat="45.61712" lon="5.30359">
        <ele>372</ele>
        <time>2021-12-05T09:59:57.402Z</time>
      </trkpt>
      <trkpt lat="45.61712" lon="5.30362">
        <ele>372</ele>
        <time>2021-12-05T09:59:58.403Z</time>
      </trkpt>
      <trkpt lat="45.61712" lon="5.30365">
        <ele>372</ele>
        <time>2021-12-05T09:59:59.402Z</time>
      </trkpt>
      <trkpt lat="45.61712" lon="5.30368">
        <ele>372</ele>
        <time>2021-12-05T10:00:00.402Z</time>
      </trkpt>
      <trkpt lat="45.61712" lon="5.30371">
        <ele>371</ele>
        <time>2021-12-05T10:00:01.403Z</time>
      </trkpt>
      <trkpt lat="45.61712" lon="5.30374">
        <ele>371</ele>
        <time>2021-12-05T10:00:02.403Z</time>
      </trkpt>
      <trkpt lat="45.61712" lon="5.30377">
        <ele>371</ele>
        <time>2021-12-05T10:00:03.403Z</time>
      </trkpt>
      <trkpt lat="45.61712" lon="5.3038">
        <ele>371</ele>
        <time>2021-12-05T10:00:04.403Z</time>
      </trkpt>
      <trkpt lat="45.61712" lon="5.30383">
        <ele>371</ele>
        <time>2021-12-05T10:00:05.402Z</time>
      </trkpt>
      <trkpt lat="45.61711" lon="5.30387">
        <ele>371</ele>
        <time>2021-12-05T10:00:06.403Z</time>
      </trkpt>
      <trkpt lat="45.61711" lon="5.3039">
        <ele>370</ele>
        <time>2021-12-05T10:00:07.402Z</time>
      </trkpt>
      <trkpt lat="45.61711" lon="5.30393">
        <ele>370</ele>
        <time>2021-12-05T10:00:08.403Z</time>
      </trkpt>
      <trkpt lat="45.61711" lon="5.30396">
        <ele>370</ele>
        <time>2021-12-05T10:00:09.402Z</time>
      </trkpt>
      <trkpt lat="45.61711" lon="5.30399">
        <ele>370</ele>
        <time>2021-12-05T10:00:10.402Z</time>
      </trkpt>
      <trkpt lat="45.6171" lon="5.30402">
        <ele>369</ele>
        <time>2021-12-05T10:00:11.402Z</time>
      </trkpt>
      <trkpt lat="45.6171" lon="5.30406">
        <ele>369</ele>
        <time>2021-12-05T10:00:12.402Z</time>
      </trkpt>
      <trkpt lat="45.61709" lon="5.30409">
        <ele>369</ele>
        <time>2021-12-05T10:00:13.402Z</time>
      </trkpt>
      <trkpt lat="45.61709" lon="5.30412">
        <ele>369</ele>
        <time>2021-12-05T10:00:14.403Z</time>
      </trkpt>
      <trkpt lat="45.61708" lon="5.30415">
        <ele>369</ele>
        <time>2021-12-05T10:00:15.403Z</time>
      </trkpt>
      <trkpt lat="45.61708" lon="5.30418">
        <ele>369</ele>
        <time>2021-12-05T10:00:16.403Z</time>
      </trkpt>
      <trkpt lat="45.61708" lon="5.30421">
        <ele>369</ele>
        <time>2021-12-05T10:00:17.403Z</time>
      </trkpt>
      <trkpt lat="45.61707" lon="5.30424">
        <ele>369</ele>
        <time>2021-12-05T10:00:18.403Z</time>
      </trkpt>
      <trkpt lat="45.61707" lon="5.30428">
        <ele>369</ele>
        <time>2021-12-05T10:00:19.403Z</time>
      </trkpt>
      <trkpt lat="45.61707" lon="5.30431">
        <ele>368</ele>
        <time>2021-12-05T10:00:20.402Z</time>
      </trkpt>
      <trkpt lat="45.61707" lon="5.30434">
        <ele>368</ele>
        <time>2021-12-05T10:00:21.403Z</time>
      </trkpt>
      <trkpt lat="45.61707" lon="5.30438">
        <ele>367</ele>
        <time>2021-12-05T10:00:22.403Z</time>
      </trkpt>
      <trkpt lat="45.61706" lon="5.30441">
        <ele>367</ele>
        <time>2021-12-05T10:00:23.402Z</time>
      </trkpt>
      <trkpt lat="45.61706" lon="5.30445">
        <ele>367</ele>
        <time>2021-12-05T10:00:24.403Z</time>
      </trkpt>
      <trkpt lat="45.61706" lon="5.30448">
        <ele>367</ele>
        <time>2021-12-05T10:00:25.403Z</time>
      </trkpt>
      <trkpt lat="45.61705" lon="5.30451">
        <ele>367</ele>
        <time>2021-12-05T10:00:26.403Z</time>
      </trkpt>
      <trkpt lat="45.61705" lon="5.30455">
        <ele>368</ele>
        <time>2021-12-05T10:00:27.402Z</time>
      </trkpt>
      <trkpt lat="45.61704" lon="5.30458">
        <ele>368</ele>
        <time>2021-12-05T10:00:28.403Z</time>
      </trkpt>
      <trkpt lat="45.61704" lon="5.30461">
        <ele>368</ele>
        <time>2021-12-05T10:00:29.403Z</time>
      </trkpt>
      <trkpt lat="45.61704" lon="5.30465">
        <ele>369</ele>
        <time>2021-12-05T10:00:30.402Z</time>
      </trkpt>
      <trkpt lat="45.61703" lon="5.30468">
        <ele>369</ele>
        <time>2021-12-05T10:00:31.403Z</time>
      </trkpt>
      <trkpt lat="45.61703" lon="5.30471">
        <ele>369</ele>
        <time>2021-12-05T10:00:32.403Z</time>
      </trkpt>
      <trkpt lat="45.61703" lon="5.30474">
        <ele>369</ele>
        <time>2021-12-05T10:00:33.403Z</time>
      </trkpt>
      <trkpt lat="45.61702" lon="5.30477">
        <ele>369</ele>
        <time>2021-12-05T10:00:34.402Z</time>
      </trkpt>
      <trkpt lat="45.61702" lon="5.3048">
        <ele>368</ele>
        <time>2021-12-05T10:00:35.403Z</time>
      </trkpt>
      <trkpt lat="45.61702" lon="5.30483">
        <ele>368</ele>
        <time>2021-12-05T10:00:36.403Z</time>
      </trkpt>
      <trkpt lat="45.61701" lon="5.30487">
        <ele>367</ele>
        <time>2021-12-05T10:00:37.403Z</time>
      </trkpt>
      <trkpt lat="45.61701" lon="5.3049">
        <ele>366</ele>
        <time>2021-12-05T10:00:38.403Z</time>
      </trkpt>
      <trkpt lat="45.61701" lon="5.30494">
        <ele>366</ele>
        <time>2021-12-05T10:00:39.403Z</time>
      </trkpt>
      <trkpt lat="45.61701" lon="5.30498">
        <ele>366</ele>
        <time>2021-12-05T10:00:40.403Z</time>
      </trkpt>
      <trkpt lat="45.61701" lon="5.30501">
        <ele>365</ele>
        <time>2021-12-05T10:00:41.403Z</time>
      </trkpt>
      <trkpt lat="45.61701" lon="5.30504">
        <ele>365</ele>
        <time>2021-12-05T10:00:42.403Z</time>
      </trkpt>
      <trkpt lat="45.617" lon="5.30508">
        <ele>365</ele>
        <time>2021-12-05T10:00:43.403Z</time>
      </trkpt>
      <trkpt lat="45.617" lon="5.30511">
        <ele>364</ele>
        <time>2021-12-05T10:00:44.402Z</time>
      </trkpt>
      <trkpt lat="45.61699" lon="5.30514">
        <ele>364</ele>
        <time>2021-12-05T10:00:45.403Z</time>
      </trkpt>
      <trkpt lat="45.61699" lon="5.30516">
        <ele>364</ele>
        <time>2021-12-05T10:00:46.402Z</time>
      </trkpt>
      <trkpt lat="45.61698" lon="5.30519">
        <ele>364</ele>
        <time>2021-12-05T10:00:47.403Z</time>
      </trkpt>
      <trkpt lat="45.61698" lon="5.30522">
        <ele>364</ele>
        <time>2021-12-05T10:00:48.402Z</time>
      </trkpt>
      <trkpt lat="45.61697" lon="5.30525">
        <ele>365</ele>
        <time>2021-12-05T10:00:49.402Z</time>
      </trkpt>
      <trkpt lat="45.61697" lon="5.30528">
        <ele>365</ele>
        <time>2021-12-05T10:00:50.402Z</time>
      </trkpt>
      <trkpt lat="45.61697" lon="5.30531">
        <ele>365</ele>
        <time>2021-12-05T10:00:51.402Z</time>
      </trkpt>
      <trkpt lat="45.61697" lon="5.30534">
        <ele>365</ele>
        <time>2021-12-05T10:00:52.402Z</time>
      </trkpt>
      <trkpt lat="45.61697" lon="5.30536">
        <ele>365</ele>
        <time>2021-12-05T10:00:53.402Z</time>
      </trkpt>
      <trkpt lat="45.61696" lon="5.3054">
        <ele>366</ele>
        <time>2021-12-05T10:00:54.403Z</time>
      </trkpt>
      <trkpt lat="45.61696" lon="5.30543">
        <ele>366</ele>
        <time>2021-12-05T10:00:55.403Z</time>
      </trkpt>
      <trkpt lat="45.61696" lon="5.30546">
        <ele>366</ele>
        <time>2021-12-05T10:00:56.403Z</time>
      </trkpt>
      <trkpt lat="45.61695" lon="5.30549">
        <ele>366</ele>
        <time>2021-12-05T10:00:57.403Z</time>
      </trkpt>
      <trkpt lat="45.61694" lon="5.30552">
        <ele>366</ele>
        <time>2021-12-05T10:00:58.402Z</time>
      </trkpt>
      <trkpt lat="45.61693" lon="5.30555">
        <ele>366</ele>
        <time>2021-12-05T10:00:59.403Z</time>
      </trkpt>
      <trkpt lat="45.61692" lon="5.30559">
        <ele>366</ele>
        <time>2021-12-05T10:01:00.402Z</time>
      </trkpt>
      <trkpt lat="45.61692" lon="5.30563">
        <ele>366</ele>
        <time>2021-12-05T10:01:01.403Z</time>
      </trkpt>
      <trkpt lat="45.61692" lon="5.30566">
        <ele>366</ele>
        <time>2021-12-05T10:01:02.403Z</time>
      </trkpt>
      <trkpt lat="45.61692" lon="5.30569">
        <ele>367</ele>
        <time>2021-12-05T10:01:03.403Z</time>
      </trkpt>
      <trkpt lat="45.61691" lon="5.30573">
        <ele>367</ele>
        <time>2021-12-05T10:01:04.403Z</time>
      </trkpt>
      <trkpt lat="45.61691" lon="5.30576">
        <ele>367</ele>
        <time>2021-12-05T10:01:05.403Z</time>
      </trkpt>
      <trkpt lat="45.6169" lon="5.30579">
        <ele>367</ele>
        <time>2021-12-05T10:01:06.403Z</time>
      </trkpt>
      <trkpt lat="45.61689" lon="5.30582">
        <ele>368</ele>
        <time>2021-12-05T10:01:07.403Z</time>
      </trkpt>
      <trkpt lat="45.61689" lon="5.30585">
        <ele>368</ele>
        <time>2021-12-05T10:01:08.402Z</time>
      </trkpt>
      <trkpt lat="45.61688" lon="5.30588">
        <ele>368</ele>
        <time>2021-12-05T10:01:09.403Z</time>
      </trkpt>
      <trkpt lat="45.61688" lon="5.30591">
        <ele>368</ele>
        <time>2021-12-05T10:01:10.403Z</time>
      </trkpt>
      <trkpt lat="45.61687" lon="5.30594">
        <ele>369</ele>
        <time>2021-12-05T10:01:11.403Z</time>
      </trkpt>
      <trkpt lat="45.61686" lon="5.30598">
        <ele>369</ele>
        <time>2021-12-05T10:01:12.402Z</time>
      </trkpt>
      <trkpt lat="45.61685" lon="5.30601">
        <ele>369</ele>
        <time>2021-12-05T10:01:13.403Z</time>
      </trkpt>
      <trkpt lat="45.61685" lon="5.30604">
        <ele>369</ele>
        <time>2021-12-05T10:01:14.402Z</time>
      </trkpt>
      <trkpt lat="45.61684" lon="5.30607">
        <ele>369</ele>
        <time>2021-12-05T10:01:15.403Z</time>
      </trkpt>
      <trkpt lat="45.61684" lon="5.30611">
        <ele>369</ele>
        <time>2021-12-05T10:01:16.402Z</time>
      </trkpt>
      <trkpt lat="45.61683" lon="5.30614">
        <ele>369</ele>
        <time>2021-12-05T10:01:17.402Z</time>
      </trkpt>
      <trkpt lat="45.61683" lon="5.30617">
        <ele>368</ele>
        <time>2021-12-05T10:01:18.403Z</time>
      </trkpt>
      <trkpt lat="45.61683" lon="5.3062">
        <ele>368</ele>
        <time>2021-12-05T10:01:19.403Z</time>
      </trkpt>
      <trkpt lat="45.61682" lon="5.30623">
        <ele>367</ele>
        <time>2021-12-05T10:01:20.402Z</time>
      </trkpt>
      <trkpt lat="45.61682" lon="5.30626">
        <ele>367</ele>
        <time>2021-12-05T10:01:21.403Z</time>
      </trkpt>
      <trkpt lat="45.61681" lon="5.30629">
        <ele>366</ele>
        <time>2021-12-05T10:01:22.402Z</time>
      </trkpt>
      <trkpt lat="45.6168" lon="5.30631">
        <ele>366</ele>
        <time>2021-12-05T10:01:23.402Z</time>
      </trkpt>
      <trkpt lat="45.61679" lon="5.30634">
        <ele>365</ele>
        <time>2021-12-05T10:01:24.403Z</time>
      </trkpt>
      <trkpt lat="45.61678" lon="5.30637">
        <ele>365</ele>
        <time>2021-12-05T10:01:25.403Z</time>
      </trkpt>
      <trkpt lat="45.61678" lon="5.3064">
        <ele>365</ele>
        <time>2021-12-05T10:01:26.402Z</time>
      </trkpt>
      <trkpt lat="45.61677" lon="5.30644">
        <ele>365</ele>
        <time>2021-12-05T10:01:27.403Z</time>
      </trkpt>
      <trkpt lat="45.61676" lon="5.30647">
        <ele>366</ele>
        <time>2021-12-05T10:01:28.403Z</time>
      </trkpt>
      <trkpt lat="45.61676" lon="5.3065">
        <ele>366</ele>
        <time>2021-12-05T10:01:29.403Z</time>
      </trkpt>
      <trkpt lat="45.61675" lon="5.30653">
        <ele>366</ele>
        <time>2021-12-05T10:01:30.403Z</time>
      </trkpt>
      <trkpt lat="45.61674" lon="5.30656">
        <ele>366</ele>
        <time>2021-12-05T10:01:31.403Z</time>
      </trkpt>
      <trkpt lat="45.61674" lon="5.3066">
        <ele>366</ele>
        <time>2021-12-05T10:01:32.403Z</time>
      </trkpt>
      <trkpt lat="45.61673" lon="5.30664">
        <ele>365</ele>
        <time>2021-12-05T10:01:33.402Z</time>
      </trkpt>
      <trkpt lat="45.61672" lon="5.30667">
        <ele>365</ele>
        <time>2021-12-05T10:01:34.403Z</time>
      </trkpt>
      <trkpt lat="45.61672" lon="5.3067">
        <ele>364</ele>
        <time>2021-12-05T10:01:35.403Z</time>
      </trkpt>
      <trkpt lat="45.61671" lon="5.30673">
        <ele>364</ele>
        <time>2021-12-05T10:01:36.403Z</time>
      </trkpt>
      <trkpt lat="45.6167" lon="5.30676">
        <ele>363</ele>
        <time>2021-12-05T10:01:37.403Z</time>
      </trkpt>
      <trkpt lat="45.61669" lon="5.30679">
        <ele>363</ele>
        <time>2021-12-05T10:01:38.402Z</time>
      </trkpt>
      <trkpt lat="45.61668" lon="5.30682">
        <ele>362</ele>
        <time>2021-12-05T10:01:39.402Z</time>
      </trkpt>
      <trkpt lat="45.61667" lon="5.30686">
        <ele>362</ele>
        <time>2021-12-05T10:01:40.403Z</time>
      </trkpt>
      <trkpt lat="45.61667" lon="5.30689">
        <ele>362</ele>
        <time>2021-12-05T10:01:41.402Z</time>
      </trkpt>
      <trkpt lat="45.61666" lon="5.30692">
        <ele>362</ele>
        <time>2021-12-05T10:01:42.402Z</time>
      </trkpt>
      <trkpt lat="45.61665" lon="5.30696">
        <ele>362</ele>
        <time>2021-12-05T10:01:43.402Z</time>
      </trkpt>
      <trkpt lat="45.61664" lon="5.30699">
        <ele>362</ele>
        <time>2021-12-05T10:01:44.403Z</time>
      </trkpt>
      <trkpt lat="45.61664" lon="5.30701">
        <ele>362</ele>
        <time>2021-12-05T10:01:45.403Z</time>
      </trkpt>
      <trkpt lat="45.61663" lon="5.30704">
        <ele>362</ele>
        <time>2021-12-05T10:01:46.403Z</time>
      </trkpt>
      <trkpt lat="45.61662" lon="5.30707">
        <ele>362</ele>
        <time>2021-12-05T10:01:47.403Z</time>
      </trkpt>
      <trkpt lat="45.61662" lon="5.3071">
        <ele>362</ele>
        <time>2021-12-05T10:01:48.403Z</time>
      </trkpt>
      <trkpt lat="45.61661" lon="5.30713">
        <ele>362</ele>
        <time>2021-12-05T10:01:49.403Z</time>
      </trkpt>
      <trkpt lat="45.6166" lon="5.30716">
        <ele>362</ele>
        <time>2021-12-05T10:01:50.403Z</time>
      </trkpt>
      <trkpt lat="45.6166" lon="5.30719">
        <ele>362</ele>
        <time>2021-12-05T10:01:51.402Z</time>
      </trkpt>
      <trkpt lat="45.61659" lon="5.30722">
        <ele>362</ele>
        <time>2021-12-05T10:01:52.402Z</time>
      </trkpt>
      <trkpt lat="45.61658" lon="5.30724">
        <ele>362</ele>
        <time>2021-12-05T10:01:53.403Z</time>
      </trkpt>
      <trkpt lat="45.61658" lon="5.30727">
        <ele>362</ele>
        <time>2021-12-05T10:01:54.402Z</time>
      </trkpt>
      <trkpt lat="45.61657" lon="5.3073">
        <ele>362</ele>
        <time>2021-12-05T10:01:55.402Z</time>
      </trkpt>
      <trkpt lat="45.61656" lon="5.30733">
        <ele>362</ele>
        <time>2021-12-05T10:01:56.402Z</time>
      </trkpt>
      <trkpt lat="45.61656" lon="5.30736">
        <ele>362</ele>
        <time>2021-12-05T10:01:57.402Z</time>
      </trkpt>
      <trkpt lat="45.61655" lon="5.30739">
        <ele>362</ele>
        <time>2021-12-05T10:01:58.402Z</time>
      </trkpt>
      <trkpt lat="45.61655" lon="5.30743">
        <ele>362</ele>
        <time>2021-12-05T10:01:59.402Z</time>
      </trkpt>
      <trkpt lat="45.61655" lon="5.30746">
        <ele>362</ele>
        <time>2021-12-05T10:02:00.403Z</time>
      </trkpt>
      <trkpt lat="45.61655" lon="5.3075">
        <ele>362</ele>
        <time>2021-12-05T10:02:01.403Z</time>
      </trkpt>
      <trkpt lat="45.61654" lon="5.30752">
        <ele>362</ele>
        <time>2021-12-05T10:02:02.403Z</time>
      </trkpt>
      <trkpt lat="45.61653" lon="5.30753">
        <ele>361</ele>
        <time>2021-12-05T10:02:03.402Z</time>
      </trkpt>
      <trkpt lat="45.61653" lon="5.30754">
        <ele>361</ele>
        <time>2021-12-05T10:02:04.403Z</time>
      </trkpt>
      <trkpt lat="45.61653" lon="5.30756">
        <ele>360</ele>
        <time>2021-12-05T10:02:05.403Z</time>
      </trkpt>
      <trkpt lat="45.61653" lon="5.30757">
        <ele>359</ele>
        <time>2021-12-05T10:02:06.402Z</time>
      </trkpt>
      <trkpt lat="45.61653" lon="5.3076">
        <ele>359</ele>
        <time>2021-12-05T10:02:07.403Z</time>
      </trkpt>
      <trkpt lat="45.61653" lon="5.30763">
        <ele>358</ele>
        <time>2021-12-05T10:02:08.403Z</time>
      </trkpt>
      <trkpt lat="45.61653" lon="5.30766">
        <ele>358</ele>
        <time>2021-12-05T10:02:09.402Z</time>
      </trkpt>
      <trkpt lat="45.61652" lon="5.30769">
        <ele>358</ele>
        <time>2021-12-05T10:02:10.403Z</time>
      </trkpt>
      <trkpt lat="45.61652" lon="5.30772">
        <ele>358</ele>
        <time>2021-12-05T10:02:11.403Z</time>
      </trkpt>
      <trkpt lat="45.61651" lon="5.30775">
        <ele>358</ele>
        <time>2021-12-05T10:02:12.402Z</time>
      </trkpt>
      <trkpt lat="45.61651" lon="5.30778">
        <ele>358</ele>
        <time>2021-12-05T10:02:13.402Z</time>
      </trkpt>
      <trkpt lat="45.6165" lon="5.3078">
        <ele>357</ele>
        <time>2021-12-05T10:02:14.403Z</time>
      </trkpt>
      <trkpt lat="45.6165" lon="5.30783">
        <ele>357</ele>
        <time>2021-12-05T10:02:15.402Z</time>
      </trkpt>
      <trkpt lat="45.61651" lon="5.30787">
        <ele>357</ele>
        <time>2021-12-05T10:02:16.403Z</time>
      </trkpt>
      <trkpt lat="45.61651" lon="5.3079">
        <ele>358</ele>
        <time>2021-12-05T10:02:17.402Z</time>
      </trkpt>
      <trkpt lat="45.6165" lon="5.30793">
        <ele>358</ele>
        <time>2021-12-05T10:02:18.403Z</time>
      </trkpt>
      <trkpt lat="45.6165" lon="5.30796">
        <ele>358</ele>
        <time>2021-12-05T10:02:19.403Z</time>
      </trkpt>
      <trkpt lat="45.6165" lon="5.308">
        <ele>358</ele>
        <time>2021-12-05T10:02:20.403Z</time>
      </trkpt>
      <trkpt lat="45.6165" lon="5.30803">
        <ele>358</ele>
        <time>2021-12-05T10:02:21.403Z</time>
      </trkpt>
      <trkpt lat="45.6165" lon="5.30806">
        <ele>358</ele>
        <time>2021-12-05T10:02:22.403Z</time>
      </trkpt>
      <trkpt lat="45.61649" lon="5.30809">
        <ele>358</ele>
        <time>2021-12-05T10:02:23.402Z</time>
      </trkpt>
      <trkpt lat="45.61649" lon="5.30812">
        <ele>358</ele>
        <time>2021-12-05T10:02:24.403Z</time>
      </trkpt>
      <trkpt lat="45.61648" lon="5.30815">
        <ele>358</ele>
        <time>2021-12-05T10:02:25.403Z</time>
      </trkpt>
      <trkpt lat="45.61648" lon="5.30818">
        <ele>358</ele>
        <time>2021-12-05T10:02:26.402Z</time>
      </trkpt>
      <trkpt lat="45.61647" lon="5.30821">
        <ele>358</ele>
        <time>2021-12-05T10:02:27.403Z</time>
      </trkpt>
      <trkpt lat="45.61647" lon="5.30824">
        <ele>358</ele>
        <time>2021-12-05T10:02:28.403Z</time>
      </trkpt>
      <trkpt lat="45.61646" lon="5.30827">
        <ele>358</ele>
        <time>2021-12-05T10:02:29.403Z</time>
      </trkpt>
      <trkpt lat="45.61646" lon="5.3083">
        <ele>358</ele>
        <time>2021-12-05T10:02:30.403Z</time>
      </trkpt>
      <trkpt lat="45.61645" lon="5.30833">
        <ele>358</ele>
        <time>2021-12-05T10:02:31.402Z</time>
      </trkpt>
      <trkpt lat="45.61645" lon="5.30837">
        <ele>357</ele>
        <time>2021-12-05T10:02:32.402Z</time>
      </trkpt>
      <trkpt lat="45.61644" lon="5.3084">
        <ele>357</ele>
        <time>2021-12-05T10:02:33.402Z</time>
      </trkpt>
      <trkpt lat="45.61644" lon="5.30843">
        <ele>357</ele>
        <time>2021-12-05T10:02:34.403Z</time>
      </trkpt>
      <trkpt lat="45.61643" lon="5.30846">
        <ele>357</ele>
        <time>2021-12-05T10:02:35.403Z</time>
      </trkpt>
      <trkpt lat="45.61643" lon="5.30849">
        <ele>356</ele>
        <time>2021-12-05T10:02:36.403Z</time>
      </trkpt>
      <trkpt lat="45.61643" lon="5.30852">
        <ele>356</ele>
        <time>2021-12-05T10:02:37.403Z</time>
      </trkpt>
      <trkpt lat="45.61642" lon="5.30855">
        <ele>357</ele>
        <time>2021-12-05T10:02:38.403Z</time>
      </trkpt>
      <trkpt lat="45.61642" lon="5.30859">
        <ele>357</ele>
        <time>2021-12-05T10:02:39.402Z</time>
      </trkpt>
      <trkpt lat="45.61641" lon="5.30862">
        <ele>357</ele>
        <time>2021-12-05T10:02:40.403Z</time>
      </trkpt>
      <trkpt lat="45.61641" lon="5.30865">
        <ele>356</ele>
        <time>2021-12-05T10:02:41.403Z</time>
      </trkpt>
      <trkpt lat="45.6164" lon="5.30868">
        <ele>356</ele>
        <time>2021-12-05T10:02:42.403Z</time>
      </trkpt>
      <trkpt lat="45.61639" lon="5.30871">
        <ele>356</ele>
        <time>2021-12-05T10:02:43.403Z</time>
      </trkpt>
      <trkpt lat="45.61639" lon="5.30874">
        <ele>356</ele>
        <time>2021-12-05T10:02:44.403Z</time>
      </trkpt>
      <trkpt lat="45.61638" lon="5.30877">
        <ele>356</ele>
        <time>2021-12-05T10:02:45.402Z</time>
      </trkpt>
      <trkpt lat="45.61637" lon="5.30881">
        <ele>356</ele>
        <time>2021-12-05T10:02:46.402Z</time>
      </trkpt>
      <trkpt lat="45.61637" lon="5.30884">
        <ele>357</ele>
        <time>2021-12-05T10:02:47.403Z</time>
      </trkpt>
      <trkpt lat="45.61637" lon="5.30887">
        <ele>356</ele>
        <time>2021-12-05T10:02:48.403Z</time>
      </trkpt>
      <trkpt lat="45.61636" lon="5.3089">
        <ele>357</ele>
        <time>2021-12-05T10:02:49.402Z</time>
      </trkpt>
      <trkpt lat="45.61636" lon="5.30893">
        <ele>357</ele>
        <time>2021-12-05T10:02:50.403Z</time>
      </trkpt>
      <trkpt lat="45.61636" lon="5.30896">
        <ele>357</ele>
        <time>2021-12-05T10:02:51.402Z</time>
      </trkpt>
      <trkpt lat="45.61635" lon="5.30899">
        <ele>357</ele>
        <time>2021-12-05T10:02:52.403Z</time>
      </trkpt>
      <trkpt lat="45.61635" lon="5.30903">
        <ele>358</ele>
        <time>2021-12-05T10:02:53.403Z</time>
      </trkpt>
      <trkpt lat="45.61635" lon="5.30906">
        <ele>358</ele>
        <time>2021-12-05T10:02:54.403Z</time>
      </trkpt>
      <trkpt lat="45.61635" lon="5.30909">
        <ele>358</ele>
        <time>2021-12-05T10:02:55.402Z</time>
      </trkpt>
      <trkpt lat="45.61634" lon="5.30912">
        <ele>359</ele>
        <time>2021-12-05T10:02:56.403Z</time>
      </trkpt>
      <trkpt lat="45.61634" lon="5.30916">
        <ele>358</ele>
        <time>2021-12-05T10:02:57.403Z</time>
      </trkpt>
      <trkpt lat="45.61634" lon="5.30919">
        <ele>358</ele>
        <time>2021-12-05T10:02:58.402Z</time>
      </trkpt>
      <trkpt lat="45.61633" lon="5.30922">
        <ele>358</ele>
        <time>2021-12-05T10:02:59.402Z</time>
      </trkpt>
      <trkpt lat="45.61633" lon="5.30925">
        <ele>358</ele>
        <time>2021-12-05T10:03:00.402Z</time>
      </trkpt>
      <trkpt lat="45.61632" lon="5.30928">
        <ele>358</ele>
        <time>2021-12-05T10:03:01.403Z</time>
      </trkpt>
      <trkpt lat="45.61632" lon="5.30931">
        <ele>358</ele>
        <time>2021-12-05T10:03:02.402Z</time>
      </trkpt>
      <trkpt lat="45.61631" lon="5.30935">
        <ele>358</ele>
        <time>2021-12-05T10:03:03.403Z</time>
      </trkpt>
      <trkpt lat="45.61631" lon="5.30938">
        <ele>357</ele>
        <time>2021-12-05T10:03:04.403Z</time>
      </trkpt>
      <trkpt lat="45.61631" lon="5.30941">
        <ele>357</ele>
        <time>2021-12-05T10:03:05.403Z</time>
      </trkpt>
      <trkpt lat="45.6163" lon="5.30944">
        <ele>357</ele>
        <time>2021-12-05T10:03:06.403Z</time>
      </trkpt>
      <trkpt lat="45.61629" lon="5.30948">
        <ele>356</ele>
        <time>2021-12-05T10:03:07.402Z</time>
      </trkpt>
      <trkpt lat="45.61629" lon="5.30951">
        <ele>356</ele>
        <time>2021-12-05T10:03:08.403Z</time>
      </trkpt>
      <trkpt lat="45.61628" lon="5.30954">
        <ele>356</ele>
        <time>2021-12-05T10:03:09.403Z</time>
      </trkpt>
      <trkpt lat="45.61628" lon="5.30958">
        <ele>356</ele>
        <time>2021-12-05T10:03:10.403Z</time>
      </trkpt>
      <trkpt lat="45.61627" lon="5.30961">
        <ele>356</ele>
        <time>2021-12-05T10:03:11.402Z</time>
      </trkpt>
      <trkpt lat="45.61627" lon="5.30964">
        <ele>356</ele>
        <time>2021-12-05T10:03:12.402Z</time>
      </trkpt>
      <trkpt lat="45.61626" lon="5.30968">
        <ele>356</ele>
        <time>2021-12-05T10:03:13.403Z</time>
      </trkpt>
      <trkpt lat="45.61626" lon="5.30971">
        <ele>357</ele>
        <time>2021-12-05T10:03:14.403Z</time>
      </trkpt>
      <trkpt lat="45.61625" lon="5.30974">
        <ele>357</ele>
        <time>2021-12-05T10:03:15.402Z</time>
      </trkpt>
      <trkpt lat="45.61625" lon="5.30977">
        <ele>358</ele>
        <time>2021-12-05T10:03:16.403Z</time>
      </trkpt>
      <trkpt lat="45.61624" lon="5.3098">
        <ele>358</ele>
        <time>2021-12-05T10:03:17.402Z</time>
      </trkpt>
      <trkpt lat="45.61624" lon="5.30983">
        <ele>358</ele>
        <time>2021-12-05T10:03:18.402Z</time>
      </trkpt>
      <trkpt lat="45.61623" lon="5.30986">
        <ele>357</ele>
        <time>2021-12-05T10:03:19.403Z</time>
      </trkpt>
      <trkpt lat="45.61622" lon="5.30989">
        <ele>357</ele>
        <time>2021-12-05T10:03:20.403Z</time>
      </trkpt>
      <trkpt lat="45.61621" lon="5.30992">
        <ele>356</ele>
        <time>2021-12-05T10:03:21.403Z</time>
      </trkpt>
      <trkpt lat="45.61621" lon="5.30995">
        <ele>356</ele>
        <time>2021-12-05T10:03:22.403Z</time>
      </trkpt>
      <trkpt lat="45.6162" lon="5.30998">
        <ele>356</ele>
        <time>2021-12-05T10:03:23.403Z</time>
      </trkpt>
      <trkpt lat="45.6162" lon="5.31001">
        <ele>356</ele>
        <time>2021-12-05T10:03:24.403Z</time>
      </trkpt>
      <trkpt lat="45.6162" lon="5.31004">
        <ele>356</ele>
        <time>2021-12-05T10:03:25.402Z</time>
      </trkpt>
      <trkpt lat="45.61619" lon="5.31008">
        <ele>356</ele>
        <time>2021-12-05T10:03:26.402Z</time>
      </trkpt>
      <trkpt lat="45.61619" lon="5.31011">
        <ele>356</ele>
        <time>2021-12-05T10:03:27.403Z</time>
      </trkpt>
      <trkpt lat="45.61618" lon="5.31013">
        <ele>356</ele>
        <time>2021-12-05T10:03:28.403Z</time>
      </trkpt>
      <trkpt lat="45.61618" lon="5.31016">
        <ele>356</ele>
        <time>2021-12-05T10:03:29.403Z</time>
      </trkpt>
      <trkpt lat="45.61617" lon="5.3102">
        <ele>356</ele>
        <time>2021-12-05T10:03:30.402Z</time>
      </trkpt>
      <trkpt lat="45.61616" lon="5.31023">
        <ele>356</ele>
        <time>2021-12-05T10:03:31.403Z</time>
      </trkpt>
      <trkpt lat="45.61616" lon="5.31026">
        <ele>356</ele>
        <time>2021-12-05T10:03:32.403Z</time>
      </trkpt>
      <trkpt lat="45.61615" lon="5.31029">
        <ele>357</ele>
        <time>2021-12-05T10:03:33.403Z</time>
      </trkpt>
      <trkpt lat="45.61615" lon="5.31032">
        <ele>357</ele>
        <time>2021-12-05T10:03:34.403Z</time>
      </trkpt>
      <trkpt lat="45.61614" lon="5.31035">
        <ele>356</ele>
        <time>2021-12-05T10:03:35.403Z</time>
      </trkpt>
      <trkpt lat="45.61614" lon="5.31038">
        <ele>356</ele>
        <time>2021-12-05T10:03:36.402Z</time>
      </trkpt>
      <trkpt lat="45.61613" lon="5.31041">
        <ele>356</ele>
        <time>2021-12-05T10:03:37.402Z</time>
      </trkpt>
      <trkpt lat="45.61613" lon="5.31044">
        <ele>356</ele>
        <time>2021-12-05T10:03:38.403Z</time>
      </trkpt>
      <trkpt lat="45.61613" lon="5.31047">
        <ele>355</ele>
        <time>2021-12-05T10:03:39.402Z</time>
      </trkpt>
      <trkpt lat="45.61612" lon="5.3105">
        <ele>355</ele>
        <time>2021-12-05T10:03:40.402Z</time>
      </trkpt>
      <trkpt lat="45.61612" lon="5.31053">
        <ele>355</ele>
        <time>2021-12-05T10:03:41.403Z</time>
      </trkpt>
      <trkpt lat="45.61612" lon="5.31056">
        <ele>355</ele>
        <time>2021-12-05T10:03:42.402Z</time>
      </trkpt>
      <trkpt lat="45.61611" lon="5.3106">
        <ele>355</ele>
        <time>2021-12-05T10:03:43.402Z</time>
      </trkpt>
      <trkpt lat="45.61611" lon="5.31063">
        <ele>355</ele>
        <time>2021-12-05T10:03:44.403Z</time>
      </trkpt>
      <trkpt lat="45.61611" lon="5.31066">
        <ele>354</ele>
        <time>2021-12-05T10:03:45.403Z</time>
      </trkpt>
      <trkpt lat="45.6161" lon="5.31069">
        <ele>354</ele>
        <time>2021-12-05T10:03:46.403Z</time>
      </trkpt>
      <trkpt lat="45.6161" lon="5.31072">
        <ele>353</ele>
        <time>2021-12-05T10:03:47.403Z</time>
      </trkpt>
      <trkpt lat="45.61609" lon="5.31075">
        <ele>352</ele>
        <time>2021-12-05T10:03:48.403Z</time>
      </trkpt>
      <trkpt lat="45.61608" lon="5.31078">
        <ele>351</ele>
        <time>2021-12-05T10:03:49.402Z</time>
      </trkpt>
      <trkpt lat="45.61607" lon="5.31081">
        <ele>351</ele>
        <time>2021-12-05T10:03:50.403Z</time>
      </trkpt>
      <trkpt lat="45.61607" lon="5.31084">
        <ele>350</ele>
        <time>2021-12-05T10:03:51.402Z</time>
      </trkpt>
      <trkpt lat="45.61606" lon="5.31087">
        <ele>350</ele>
        <time>2021-12-05T10:03:52.403Z</time>
      </trkpt>
      <trkpt lat="45.61606" lon="5.3109">
        <ele>350</ele>
        <time>2021-12-05T10:03:53.402Z</time>
      </trkpt>
      <trkpt lat="45.61605" lon="5.31093">
        <ele>349</ele>
        <time>2021-12-05T10:03:54.403Z</time>
      </trkpt>
      <trkpt lat="45.61605" lon="5.31096">
        <ele>348</ele>
        <time>2021-12-05T10:03:55.403Z</time>
      </trkpt>
      <trkpt lat="45.61605" lon="5.31099">
        <ele>348</ele>
        <time>2021-12-05T10:03:56.403Z</time>
      </trkpt>
      <trkpt lat="45.61604" lon="5.31102">
        <ele>348</ele>
        <time>2021-12-05T10:03:57.403Z</time>
      </trkpt>
      <trkpt lat="45.61603" lon="5.31105">
        <ele>347</ele>
        <time>2021-12-05T10:03:58.403Z</time>
      </trkpt>
      <trkpt lat="45.61603" lon="5.31108">
        <ele>347</ele>
        <time>2021-12-05T10:03:59.402Z</time>
      </trkpt>
      <trkpt lat="45.61602" lon="5.31111">
        <ele>346</ele>
        <time>2021-12-05T10:04:00.402Z</time>
      </trkpt>
      <trkpt lat="45.61602" lon="5.31114">
        <ele>346</ele>
        <time>2021-12-05T10:04:01.403Z</time>
      </trkpt>
      <trkpt lat="45.61601" lon="5.31117">
        <ele>346</ele>
        <time>2021-12-05T10:04:02.403Z</time>
      </trkpt>
      <trkpt lat="45.61601" lon="5.3112">
        <ele>345</ele>
        <time>2021-12-05T10:04:03.402Z</time>
      </trkpt>
      <trkpt lat="45.61601" lon="5.31123">
        <ele>345</ele>
        <time>2021-12-05T10:04:04.402Z</time>
      </trkpt>
      <trkpt lat="45.61601" lon="5.31127">
        <ele>345</ele>
        <time>2021-12-05T10:04:05.403Z</time>
      </trkpt>
      <trkpt lat="45.616" lon="5.3113">
        <ele>345</ele>
        <time>2021-12-05T10:04:06.403Z</time>
      </trkpt>
      <trkpt lat="45.616" lon="5.31133">
        <ele>345</ele>
        <time>2021-12-05T10:04:07.402Z</time>
      </trkpt>
      <trkpt lat="45.616" lon="5.31136">
        <ele>346</ele>
        <time>2021-12-05T10:04:08.403Z</time>
      </trkpt>
      <trkpt lat="45.616" lon="5.31139">
        <ele>346</ele>
        <time>2021-12-05T10:04:09.403Z</time>
      </trkpt>
      <trkpt lat="45.616" lon="5.31142">
        <ele>345</ele>
        <time>2021-12-05T10:04:10.403Z</time>
      </trkpt>
      <trkpt lat="45.61599" lon="5.31146">
        <ele>345</ele>
        <time>2021-12-05T10:04:11.403Z</time>
      </trkpt>
      <trkpt lat="45.61599" lon="5.31149">
        <ele>346</ele>
        <time>2021-12-05T10:04:12.403Z</time>
      </trkpt>
      <trkpt lat="45.61598" lon="5.31152">
        <ele>346</ele>
        <time>2021-12-05T10:04:13.403Z</time>
      </trkpt>
      <trkpt lat="45.61598" lon="5.31154">
        <ele>347</ele>
        <time>2021-12-05T10:04:14.403Z</time>
      </trkpt>
      <trkpt lat="45.61598" lon="5.31157">
        <ele>347</ele>
        <time>2021-12-05T10:04:15.403Z</time>
      </trkpt>
      <trkpt lat="45.61597" lon="5.31161">
        <ele>347</ele>
        <time>2021-12-05T10:04:16.403Z</time>
      </trkpt>
      <trkpt lat="45.61597" lon="5.31164">
        <ele>347</ele>
        <time>2021-12-05T10:04:17.403Z</time>
      </trkpt>
      <trkpt lat="45.61597" lon="5.31167">
        <ele>346</ele>
        <time>2021-12-05T10:04:18.402Z</time>
      </trkpt>
      <trkpt lat="45.61596" lon="5.3117">
        <ele>346</ele>
        <time>2021-12-05T10:04:19.403Z</time>
      </trkpt>
      <trkpt lat="45.61596" lon="5.31173">
        <ele>346</ele>
        <time>2021-12-05T10:04:20.403Z</time>
      </trkpt>
      <trkpt lat="45.61595" lon="5.31176">
        <ele>346</ele>
        <time>2021-12-05T10:04:21.403Z</time>
      </trkpt>
      <trkpt lat="45.61595" lon="5.31179">
        <ele>346</ele>
        <time>2021-12-05T10:04:22.402Z</time>
      </trkpt>
      <trkpt lat="45.61595" lon="5.31182">
        <ele>346</ele>
        <time>2021-12-05T10:04:23.403Z</time>
      </trkpt>
      <trkpt lat="45.61594" lon="5.31185">
        <ele>346</ele>
        <time>2021-12-05T10:04:24.402Z</time>
      </trkpt>
      <trkpt lat="45.61594" lon="5.31188">
        <ele>346</ele>
        <time>2021-12-05T10:04:25.403Z</time>
      </trkpt>
      <trkpt lat="45.61594" lon="5.31191">
        <ele>346</ele>
        <time>2021-12-05T10:04:26.402Z</time>
      </trkpt>
      <trkpt lat="45.61593" lon="5.31194">
        <ele>346</ele>
        <time>2021-12-05T10:04:27.403Z</time>
      </trkpt>
      <trkpt lat="45.61593" lon="5.31197">
        <ele>346</ele>
        <time>2021-12-05T10:04:28.403Z</time>
      </trkpt>
      <trkpt lat="45.61592" lon="5.312">
        <ele>347</ele>
        <time>2021-12-05T10:04:29.402Z</time>
      </trkpt>
      <trkpt lat="45.61592" lon="5.31203">
        <ele>348</ele>
        <time>2021-12-05T10:04:30.403Z</time>
      </trkpt>
      <trkpt lat="45.61592" lon="5.31206">
        <ele>349</ele>
        <time>2021-12-05T10:04:31.403Z</time>
      </trkpt>
      <trkpt lat="45.61591" lon="5.31209">
        <ele>350</ele>
        <time>2021-12-05T10:04:32.402Z</time>
      </trkpt>
      <trkpt lat="45.61591" lon="5.31212">
        <ele>350</ele>
        <time>2021-12-05T10:04:33.403Z</time>
      </trkpt>
      <trkpt lat="45.6159" lon="5.31215">
        <ele>351</ele>
        <time>2021-12-05T10:04:34.402Z</time>
      </trkpt>
      <trkpt lat="45.6159" lon="5.31217">
        <ele>351</ele>
        <time>2021-12-05T10:04:35.403Z</time>
      </trkpt>
      <trkpt lat="45.61589" lon="5.31219">
        <ele>351</ele>
        <time>2021-12-05T10:04:36.402Z</time>
      </trkpt>
      <trkpt lat="45.61589" lon="5.31222">
        <ele>351</ele>
        <time>2021-12-05T10:04:37.403Z</time>
      </trkpt>
      <trkpt lat="45.61588" lon="5.31225">
        <ele>351</ele>
        <time>2021-12-05T10:04:38.402Z</time>
      </trkpt>
      <trkpt lat="45.61588" lon="5.31228">
        <ele>351</ele>
        <time>2021-12-05T10:04:39.403Z</time>
      </trkpt>
      <trkpt lat="45.61587" lon="5.31231">
        <ele>351</ele>
        <time>2021-12-05T10:04:40.403Z</time>
      </trkpt>
      <trkpt lat="45.61587" lon="5.31234">
        <ele>351</ele>
        <time>2021-12-05T10:04:41.402Z</time>
      </trkpt>
      <trkpt lat="45.61586" lon="5.31237">
        <ele>351</ele>
        <time>2021-12-05T10:04:42.403Z</time>
      </trkpt>
      <trkpt lat="45.61586" lon="5.3124">
        <ele>351</ele>
        <time>2021-12-05T10:04:43.403Z</time>
      </trkpt>
      <trkpt lat="45.61585" lon="5.31243">
        <ele>352</ele>
        <time>2021-12-05T10:04:44.403Z</time>
      </trkpt>
      <trkpt lat="45.61585" lon="5.31247">
        <ele>352</ele>
        <time>2021-12-05T10:04:45.403Z</time>
      </trkpt>
      <trkpt lat="45.61584" lon="5.3125">
        <ele>352</ele>
        <time>2021-12-05T10:04:46.402Z</time>
      </trkpt>
      <trkpt lat="45.61584" lon="5.31253">
        <ele>352</ele>
        <time>2021-12-05T10:04:47.403Z</time>
      </trkpt>
      <trkpt lat="45.61584" lon="5.31256">
        <ele>353</ele>
        <time>2021-12-05T10:04:48.403Z</time>
      </trkpt>
      <trkpt lat="45.61583" lon="5.31259">
        <ele>353</ele>
        <time>2021-12-05T10:04:49.403Z</time>
      </trkpt>
      <trkpt lat="45.61583" lon="5.31262">
        <ele>353</ele>
        <time>2021-12-05T10:04:50.403Z</time>
      </trkpt>
      <trkpt lat="45.61583" lon="5.31266">
        <ele>353</ele>
        <time>2021-12-05T10:04:51.403Z</time>
      </trkpt>
      <trkpt lat="45.61582" lon="5.31268">
        <ele>354</ele>
        <time>2021-12-05T10:04:52.403Z</time>
      </trkpt>
      <trkpt lat="45.61581" lon="5.31272">
        <ele>354</ele>
        <time>2021-12-05T10:04:53.403Z</time>
      </trkpt>
      <trkpt lat="45.61581" lon="5.31275">
        <ele>355</ele>
        <time>2021-12-05T10:04:54.402Z</time>
      </trkpt>
      <trkpt lat="45.61581" lon="5.31278">
        <ele>355</ele>
        <time>2021-12-05T10:04:55.402Z</time>
      </trkpt>
      <trkpt lat="45.61581" lon="5.31281">
        <ele>355</ele>
        <time>2021-12-05T10:04:56.402Z</time>
      </trkpt>
      <trkpt lat="45.61581" lon="5.31284">
        <ele>355</ele>
        <time>2021-12-05T10:04:57.402Z</time>
      </trkpt>
      <trkpt lat="45.61581" lon="5.31287">
        <ele>356</ele>
        <time>2021-12-05T10:04:58.403Z</time>
      </trkpt>
      <trkpt lat="45.6158" lon="5.3129">
        <ele>356</ele>
        <time>2021-12-05T10:04:59.403Z</time>
      </trkpt>
      <trkpt lat="45.6158" lon="5.31293">
        <ele>356</ele>
        <time>2021-12-05T10:05:00.403Z</time>
      </trkpt>
      <trkpt lat="45.6158" lon="5.31296">
        <ele>356</ele>
        <time>2021-12-05T10:05:01.403Z</time>
      </trkpt>
      <trkpt lat="45.6158" lon="5.31299">
        <ele>357</ele>
        <time>2021-12-05T10:05:02.403Z</time>
      </trkpt>
      <trkpt lat="45.61579" lon="5.31302">
        <ele>357</ele>
        <time>2021-12-05T10:05:03.403Z</time>
      </trkpt>
      <trkpt lat="45.61579" lon="5.31305">
        <ele>357</ele>
        <time>2021-12-05T10:05:04.402Z</time>
      </trkpt>
      <trkpt lat="45.61579" lon="5.31308">
        <ele>358</ele>
        <time>2021-12-05T10:05:05.402Z</time>
      </trkpt>
      <trkpt lat="45.61578" lon="5.3131">
        <ele>358</ele>
        <time>2021-12-05T10:05:06.403Z</time>
      </trkpt>
      <trkpt lat="45.61577" lon="5.31313">
        <ele>358</ele>
        <time>2021-12-05T10:05:07.403Z</time>
      </trkpt>
      <trkpt lat="45.61577" lon="5.31316">
        <ele>358</ele>
        <time>2021-12-05T10:05:08.402Z</time>
      </trkpt>
      <trkpt lat="45.61577" lon="5.31319">
        <ele>358</ele>
        <time>2021-12-05T10:05:09.402Z</time>
      </trkpt>
      <trkpt lat="45.61576" lon="5.31322">
        <ele>357</ele>
        <time>2021-12-05T10:05:10.402Z</time>
      </trkpt>
      <trkpt lat="45.61576" lon="5.31325">
        <ele>357</ele>
        <time>2021-12-05T10:05:11.403Z</time>
      </trkpt>
      <trkpt lat="45.61576" lon="5.31328">
        <ele>357</ele>
        <time>2021-12-05T10:05:12.403Z</time>
      </trkpt>
      <trkpt lat="45.61575" lon="5.31331">
        <ele>356</ele>
        <time>2021-12-05T10:05:13.403Z</time>
      </trkpt>
      <trkpt lat="45.61575" lon="5.31334">
        <ele>356</ele>
        <time>2021-12-05T10:05:14.403Z</time>
      </trkpt>
      <trkpt lat="45.61575" lon="5.31337">
        <ele>356</ele>
        <time>2021-12-05T10:05:15.403Z</time>
      </trkpt>
      <trkpt lat="45.61575" lon="5.3134">
        <ele>357</ele>
        <time>2021-12-05T10:05:16.403Z</time>
      </trkpt>
      <trkpt lat="45.61574" lon="5.31342">
        <ele>357</ele>
        <time>2021-12-05T10:05:17.403Z</time>
      </trkpt>
      <trkpt lat="45.61574" lon="5.31345">
        <ele>356</ele>
        <time>2021-12-05T10:05:18.403Z</time>
      </trkpt>
      <trkpt lat="45.61574" lon="5.31348">
        <ele>356</ele>
        <time>2021-12-05T10:05:19.403Z</time>
      </trkpt>
      <trkpt lat="45.61574" lon="5.31352">
        <ele>355</ele>
        <time>2021-12-05T10:05:20.403Z</time>
      </trkpt>
      <trkpt lat="45.61574" lon="5.31355">
        <ele>355</ele>
        <time>2021-12-05T10:05:21.403Z</time>
      </trkpt>
      <trkpt lat="45.61574" lon="5.31358">
        <ele>355</ele>
        <time>2021-12-05T10:05:22.403Z</time>
      </trkpt>
      <trkpt lat="45.61573" lon="5.31361">
        <ele>355</ele>
        <time>2021-12-05T10:05:23.402Z</time>
      </trkpt>
      <trkpt lat="45.61572" lon="5.31364">
        <ele>356</ele>
        <time>2021-12-05T10:05:24.402Z</time>
      </trkpt>
      <trkpt lat="45.61572" lon="5.31366">
        <ele>357</ele>
        <time>2021-12-05T10:05:25.402Z</time>
      </trkpt>
      <trkpt lat="45.61572" lon="5.31369">
        <ele>357</ele>
        <time>2021-12-05T10:05:26.403Z</time>
      </trkpt>
      <trkpt lat="45.61571" lon="5.31371">
        <ele>358</ele>
        <time>2021-12-05T10:05:27.402Z</time>
      </trkpt>
      <trkpt lat="45.61572" lon="5.31374">
        <ele>359</ele>
        <time>2021-12-05T10:05:28.403Z</time>
      </trkpt>
      <trkpt lat="45.61572" lon="5.31377">
        <ele>359</ele>
        <time>2021-12-05T10:05:29.403Z</time>
      </trkpt>
      <trkpt lat="45.61572" lon="5.3138">
        <ele>359</ele>
        <time>2021-12-05T10:05:30.403Z</time>
      </trkpt>
      <trkpt lat="45.61571" lon="5.31384">
        <ele>359</ele>
        <time>2021-12-05T10:05:31.403Z</time>
      </trkpt>
      <trkpt lat="45.61571" lon="5.31387">
        <ele>359</ele>
        <time>2021-12-05T10:05:32.403Z</time>
      </trkpt>
      <trkpt lat="45.61571" lon="5.3139">
        <ele>359</ele>
        <time>2021-12-05T10:05:33.403Z</time>
      </trkpt>
      <trkpt lat="45.61571" lon="5.31392">
        <ele>359</ele>
        <time>2021-12-05T10:05:34.402Z</time>
      </trkpt>
      <trkpt lat="45.6157" lon="5.31395">
        <ele>359</ele>
        <time>2021-12-05T10:05:35.403Z</time>
      </trkpt>
      <trkpt lat="45.6157" lon="5.31398">
        <ele>359</ele>
        <time>2021-12-05T10:05:36.403Z</time>
      </trkpt>
      <trkpt lat="45.61569" lon="5.31401">
        <ele>358</ele>
        <time>2021-12-05T10:05:37.403Z</time>
      </trkpt>
      <trkpt lat="45.61569" lon="5.31403">
        <ele>358</ele>
        <time>2021-12-05T10:05:38.402Z</time>
      </trkpt>
      <trkpt lat="45.61568" lon="5.31406">
        <ele>358</ele>
        <time>2021-12-05T10:05:39.403Z</time>
      </trkpt>
      <trkpt lat="45.61568" lon="5.31409">
        <ele>358</ele>
        <time>2021-12-05T10:05:40.403Z</time>
      </trkpt>
      <trkpt lat="45.61567" lon="5.31412">
        <ele>359</ele>
        <time>2021-12-05T10:05:41.402Z</time>
      </trkpt>
      <trkpt lat="45.61567" lon="5.31414">
        <ele>359</ele>
        <time>2021-12-05T10:05:42.402Z</time>
      </trkpt>
      <trkpt lat="45.61567" lon="5.31417">
        <ele>360</ele>
        <time>2021-12-05T10:05:43.403Z</time>
      </trkpt>
      <trkpt lat="45.61566" lon="5.3142">
        <ele>361</ele>
        <time>2021-12-05T10:05:44.403Z</time>
      </trkpt>
      <trkpt lat="45.61566" lon="5.31423">
        <ele>361</ele>
        <time>2021-12-05T10:05:45.403Z</time>
      </trkpt>
      <trkpt lat="45.61566" lon="5.31426">
        <ele>362</ele>
        <time>2021-12-05T10:05:46.402Z</time>
      </trkpt>
      <trkpt lat="45.61566" lon="5.31429">
        <ele>362</ele>
        <time>2021-12-05T10:05:47.403Z</time>
      </trkpt>
      <trkpt lat="45.61566" lon="5.31431">
        <ele>363</ele>
        <time>2021-12-05T10:05:48.403Z</time>
      </trkpt>
      <trkpt lat="45.61565" lon="5.31434">
        <ele>363</ele>
        <time>2021-12-05T10:05:49.402Z</time>
      </trkpt>
      <trkpt lat="45.61564" lon="5.31437">
        <ele>364</ele>
        <time>2021-12-05T10:05:50.403Z</time>
      </trkpt>
      <trkpt lat="45.61564" lon="5.31439">
        <ele>364</ele>
        <time>2021-12-05T10:05:51.403Z</time>
      </trkpt>
      <trkpt lat="45.61563" lon="5.31442">
        <ele>365</ele>
        <time>2021-12-05T10:05:52.403Z</time>
      </trkpt>
      <trkpt lat="45.61563" lon="5.31445">
        <ele>365</ele>
        <time>2021-12-05T10:05:53.403Z</time>
      </trkpt>
      <trkpt lat="45.61563" lon="5.31448">
        <ele>365</ele>
        <time>2021-12-05T10:05:54.402Z</time>
      </trkpt>
      <trkpt lat="45.61562" lon="5.31451">
        <ele>366</ele>
        <time>2021-12-05T10:05:55.403Z</time>
      </trkpt>
      <trkpt lat="45.61562" lon="5.31453">
        <ele>366</ele>
        <time>2021-12-05T10:05:56.403Z</time>
      </trkpt>
      <trkpt lat="45.61561" lon="5.31455">
        <ele>366</ele>
        <time>2021-12-05T10:05:57.402Z</time>
      </trkpt>
      <trkpt lat="45.6156" lon="5.31458">
        <ele>366</ele>
        <time>2021-12-05T10:05:58.402Z</time>
      </trkpt>
      <trkpt lat="45.6156" lon="5.31461">
        <ele>366</ele>
        <time>2021-12-05T10:05:59.402Z</time>
      </trkpt>
      <trkpt lat="45.61559" lon="5.31464">
        <ele>366</ele>
        <time>2021-12-05T10:06:00.402Z</time>
      </trkpt>
      <trkpt lat="45.61559" lon="5.31466">
        <ele>366</ele>
        <time>2021-12-05T10:06:01.403Z</time>
      </trkpt>
      <trkpt lat="45.61559" lon="5.31469">
        <ele>366</ele>
        <time>2021-12-05T10:06:02.402Z</time>
      </trkpt>
      <trkpt lat="45.61559" lon="5.31472">
        <ele>366</ele>
        <time>2021-12-05T10:06:03.403Z</time>
      </trkpt>
      <trkpt lat="45.61559" lon="5.31475">
        <ele>366</ele>
        <time>2021-12-05T10:06:04.403Z</time>
      </trkpt>
      <trkpt lat="45.61559" lon="5.31478">
        <ele>366</ele>
        <time>2021-12-05T10:06:05.403Z</time>
      </trkpt>
      <trkpt lat="45.61559" lon="5.31481">
        <ele>366</ele>
        <time>2021-12-05T10:06:06.403Z</time>
      </trkpt>
      <trkpt lat="45.61559" lon="5.31484">
        <ele>367</ele>
        <time>2021-12-05T10:06:07.402Z</time>
      </trkpt>
      <trkpt lat="45.61558" lon="5.31486">
        <ele>367</ele>
        <time>2021-12-05T10:06:08.403Z</time>
      </trkpt>
      <trkpt lat="45.61558" lon="5.31489">
        <ele>367</ele>
        <time>2021-12-05T10:06:09.403Z</time>
      </trkpt>
      <trkpt lat="45.61558" lon="5.31492">
        <ele>368</ele>
        <time>2021-12-05T10:06:10.403Z</time>
      </trkpt>
      <trkpt lat="45.61557" lon="5.31495">
        <ele>368</ele>
        <time>2021-12-05T10:06:11.403Z</time>
      </trkpt>
      <trkpt lat="45.61557" lon="5.31498">
        <ele>368</ele>
        <time>2021-12-05T10:06:12.402Z</time>
      </trkpt>
      <trkpt lat="45.61556" lon="5.31501">
        <ele>369</ele>
        <time>2021-12-05T10:06:13.403Z</time>
      </trkpt>
      <trkpt lat="45.61555" lon="5.31504">
        <ele>369</ele>
        <time>2021-12-05T10:06:14.403Z</time>
      </trkpt>
      <trkpt lat="45.61555" lon="5.31507">
        <ele>368</ele>
        <time>2021-12-05T10:06:15.403Z</time>
      </trkpt>
      <trkpt lat="45.61555" lon="5.3151">
        <ele>368</ele>
        <time>2021-12-05T10:06:16.403Z</time>
      </trkpt>
      <trkpt lat="45.61555" lon="5.31513">
        <ele>368</ele>
        <time>2021-12-05T10:06:17.403Z</time>
      </trkpt>
      <trkpt lat="45.61555" lon="5.31516">
        <ele>368</ele>
        <time>2021-12-05T10:06:18.403Z</time>
      </trkpt>
      <trkpt lat="45.61555" lon="5.31519">
        <ele>367</ele>
        <time>2021-12-05T10:06:19.403Z</time>
      </trkpt>
      <trkpt lat="45.61555" lon="5.31523">
        <ele>367</ele>
        <time>2021-12-05T10:06:20.402Z</time>
      </trkpt>
      <trkpt lat="45.61555" lon="5.31526">
        <ele>367</ele>
        <time>2021-12-05T10:06:21.402Z</time>
      </trkpt>
      <trkpt lat="45.61555" lon="5.31529">
        <ele>367</ele>
        <time>2021-12-05T10:06:22.403Z</time>
      </trkpt>
      <trkpt lat="45.61555" lon="5.31532">
        <ele>367</ele>
        <time>2021-12-05T10:06:23.403Z</time>
      </trkpt>
      <trkpt lat="45.61555" lon="5.31536">
        <ele>366</ele>
        <time>2021-12-05T10:06:24.403Z</time>
      </trkpt>
      <trkpt lat="45.61555" lon="5.31538">
        <ele>366</ele>
        <time>2021-12-05T10:06:25.403Z</time>
      </trkpt>
      <trkpt lat="45.61554" lon="5.31541">
        <ele>366</ele>
        <time>2021-12-05T10:06:26.402Z</time>
      </trkpt>
      <trkpt lat="45.61554" lon="5.31545">
        <ele>366</ele>
        <time>2021-12-05T10:06:27.403Z</time>
      </trkpt>
      <trkpt lat="45.61554" lon="5.31548">
        <ele>366</ele>
        <time>2021-12-05T10:06:28.403Z</time>
      </trkpt>
      <trkpt lat="45.61554" lon="5.31551">
        <ele>366</ele>
        <time>2021-12-05T10:06:29.402Z</time>
      </trkpt>
      <trkpt lat="45.61554" lon="5.31554">
        <ele>366</ele>
        <time>2021-12-05T10:06:30.403Z</time>
      </trkpt>
      <trkpt lat="45.61554" lon="5.31557">
        <ele>365</ele>
        <time>2021-12-05T10:06:31.403Z</time>
      </trkpt>
      <trkpt lat="45.61554" lon="5.3156">
        <ele>364</ele>
        <time>2021-12-05T10:06:32.402Z</time>
      </trkpt>
      <trkpt lat="45.61554" lon="5.31564">
        <ele>364</ele>
        <time>2021-12-05T10:06:33.403Z</time>
      </trkpt>
      <trkpt lat="45.61554" lon="5.31567">
        <ele>364</ele>
        <time>2021-12-05T10:06:34.402Z</time>
      </trkpt>
      <trkpt lat="45.61554" lon="5.3157">
        <ele>364</ele>
        <time>2021-12-05T10:06:35.402Z</time>
      </trkpt>
      <trkpt lat="45.61554" lon="5.31573">
        <ele>364</ele>
        <time>2021-12-05T10:06:36.402Z</time>
      </trkpt>
      <trkpt lat="45.61554" lon="5.31576">
        <ele>364</ele>
        <time>2021-12-05T10:06:37.402Z</time>
      </trkpt>
      <trkpt lat="45.61555" lon="5.31579">
        <ele>364</ele>
        <time>2021-12-05T10:06:38.403Z</time>
      </trkpt>
      <trkpt lat="45.61555" lon="5.31582">
        <ele>365</ele>
        <time>2021-12-05T10:06:39.403Z</time>
      </trkpt>
      <trkpt lat="45.61555" lon="5.31585">
        <ele>365</ele>
        <time>2021-12-05T10:06:40.403Z</time>
      </trkpt>
      <trkpt lat="45.61555" lon="5.31588">
        <ele>365</ele>
        <time>2021-12-05T10:06:41.403Z</time>
      </trkpt>
      <trkpt lat="45.61555" lon="5.31592">
        <ele>365</ele>
        <time>2021-12-05T10:06:42.403Z</time>
      </trkpt>
      <trkpt lat="45.61555" lon="5.31595">
        <ele>366</ele>
        <time>2021-12-05T10:06:43.402Z</time>
      </trkpt>
      <trkpt lat="45.61555" lon="5.31598">
        <ele>366</ele>
        <time>2021-12-05T10:06:44.402Z</time>
      </trkpt>
      <trkpt lat="45.61554" lon="5.31602">
        <ele>366</ele>
        <time>2021-12-05T10:06:45.403Z</time>
      </trkpt>
      <trkpt lat="45.61554" lon="5.31605">
        <ele>366</ele>
        <time>2021-12-05T10:06:46.403Z</time>
      </trkpt>
      <trkpt lat="45.61554" lon="5.31608">
        <ele>366</ele>
        <time>2021-12-05T10:06:47.403Z</time>
      </trkpt>
      <trkpt lat="45.61554" lon="5.31611">
        <ele>366</ele>
        <time>2021-12-05T10:06:48.403Z</time>
      </trkpt>
      <trkpt lat="45.61554" lon="5.31615">
        <ele>366</ele>
        <time>2021-12-05T10:06:49.402Z</time>
      </trkpt>
      <trkpt lat="45.61554" lon="5.31618">
        <ele>366</ele>
        <time>2021-12-05T10:06:50.402Z</time>
      </trkpt>
      <trkpt lat="45.61554" lon="5.31621">
        <ele>367</ele>
        <time>2021-12-05T10:06:51.402Z</time>
      </trkpt>
      <trkpt lat="45.61554" lon="5.31624">
        <ele>368</ele>
        <time>2021-12-05T10:06:52.403Z</time>
      </trkpt>
      <trkpt lat="45.61554" lon="5.31627">
        <ele>369</ele>
        <time>2021-12-05T10:06:53.402Z</time>
      </trkpt>
      <trkpt lat="45.61554" lon="5.3163">
        <ele>369</ele>
        <time>2021-12-05T10:06:54.402Z</time>
      </trkpt>
      <trkpt lat="45.61554" lon="5.31633">
        <ele>369</ele>
        <time>2021-12-05T10:06:55.402Z</time>
      </trkpt>
      <trkpt lat="45.61554" lon="5.31636">
        <ele>370</ele>
        <time>2021-12-05T10:06:56.402Z</time>
      </trkpt>
      <trkpt lat="45.61554" lon="5.31639">
        <ele>370</ele>
        <time>2021-12-05T10:06:57.403Z</time>
      </trkpt>
      <trkpt lat="45.61554" lon="5.31643">
        <ele>371</ele>
        <time>2021-12-05T10:06:58.403Z</time>
      </trkpt>
      <trkpt lat="45.61554" lon="5.31646">
        <ele>371</ele>
        <time>2021-12-05T10:06:59.403Z</time>
      </trkpt>
      <trkpt lat="45.61554" lon="5.31649">
        <ele>370</ele>
        <time>2021-12-05T10:07:00.402Z</time>
      </trkpt>
      <trkpt lat="45.61554" lon="5.31652">
        <ele>370</ele>
        <time>2021-12-05T10:07:01.402Z</time>
      </trkpt>
      <trkpt lat="45.61553" lon="5.31655">
        <ele>370</ele>
        <time>2021-12-05T10:07:02.402Z</time>
      </trkpt>
      <trkpt lat="45.61553" lon="5.31658">
        <ele>371</ele>
        <time>2021-12-05T10:07:03.403Z</time>
      </trkpt>
      <trkpt lat="45.61553" lon="5.31661">
        <ele>371</ele>
        <time>2021-12-05T10:07:04.403Z</time>
      </trkpt>
      <trkpt lat="45.61553" lon="5.31664">
        <ele>371</ele>
        <time>2021-12-05T10:07:05.403Z</time>
      </trkpt>
      <trkpt lat="45.61553" lon="5.31667">
        <ele>370</ele>
        <time>2021-12-05T10:07:06.403Z</time>
      </trkpt>
      <trkpt lat="45.61553" lon="5.3167">
        <ele>370</ele>
        <time>2021-12-05T10:07:07.403Z</time>
      </trkpt>
      <trkpt lat="45.61553" lon="5.31674">
        <ele>369</ele>
        <time>2021-12-05T10:07:08.403Z</time>
      </trkpt>
      <trkpt lat="45.61553" lon="5.31677">
        <ele>369</ele>
        <time>2021-12-05T10:07:09.403Z</time>
      </trkpt>
      <trkpt lat="45.61554" lon="5.3168">
        <ele>368</ele>
        <time>2021-12-05T10:07:10.402Z</time>
      </trkpt>
      <trkpt lat="45.61554" lon="5.31684">
        <ele>368</ele>
        <time>2021-12-05T10:07:11.403Z</time>
      </trkpt>
      <trkpt lat="45.61554" lon="5.31687">
        <ele>368</ele>
        <time>2021-12-05T10:07:12.402Z</time>
      </trkpt>
      <trkpt lat="45.61554" lon="5.3169">
        <ele>368</ele>
        <time>2021-12-05T10:07:13.403Z</time>
      </trkpt>
      <trkpt lat="45.61554" lon="5.31693">
        <ele>369</ele>
        <time>2021-12-05T10:07:14.403Z</time>
      </trkpt>
      <trkpt lat="45.61554" lon="5.31697">
        <ele>369</ele>
        <time>2021-12-05T10:07:15.403Z</time>
      </trkpt>
      <trkpt lat="45.61555" lon="5.317">
        <ele>369</ele>
        <time>2021-12-05T10:07:16.403Z</time>
      </trkpt>
      <trkpt lat="45.61555" lon="5.31703">
        <ele>370</ele>
        <time>2021-12-05T10:07:17.403Z</time>
      </trkpt>
      <trkpt lat="45.61555" lon="5.31706">
        <ele>370</ele>
        <time>2021-12-05T10:07:18.402Z</time>
      </trkpt>
      <trkpt lat="45.61555" lon="5.31709">
        <ele>370</ele>
        <time>2021-12-05T10:07:19.403Z</time>
      </trkpt>
      <trkpt lat="45.61556" lon="5.31713">
        <ele>370</ele>
        <time>2021-12-05T10:07:20.403Z</time>
      </trkpt>
      <trkpt lat="45.61556" lon="5.31716">
        <ele>371</ele>
        <time>2021-12-05T10:07:21.403Z</time>
      </trkpt>
      <trkpt lat="45.61556" lon="5.31719">
        <ele>371</ele>
        <time>2021-12-05T10:07:22.403Z</time>
      </trkpt>
      <trkpt lat="45.61556" lon="5.31722">
        <ele>371</ele>
        <time>2021-12-05T10:07:23.403Z</time>
      </trkpt>
      <trkpt lat="45.61556" lon="5.31725">
        <ele>371</ele>
        <time>2021-12-05T10:07:24.403Z</time>
      </trkpt>
      <trkpt lat="45.61556" lon="5.31728">
        <ele>371</ele>
        <time>2021-12-05T10:07:25.403Z</time>
      </trkpt>
      <trkpt lat="45.61556" lon="5.31732">
        <ele>371</ele>
        <time>2021-12-05T10:07:26.403Z</time>
      </trkpt>
      <trkpt lat="45.61556" lon="5.31735">
        <ele>371</ele>
        <time>2021-12-05T10:07:27.403Z</time>
      </trkpt>
      <trkpt lat="45.61556" lon="5.31738">
        <ele>371</ele>
        <time>2021-12-05T10:07:28.403Z</time>
      </trkpt>
      <trkpt lat="45.61556" lon="5.31741">
        <ele>371</ele>
        <time>2021-12-05T10:07:29.402Z</time>
      </trkpt>
      <trkpt lat="45.61555" lon="5.31744">
        <ele>372</ele>
        <time>2021-12-05T10:07:30.403Z</time>
      </trkpt>
      <trkpt lat="45.61555" lon="5.31747">
        <ele>372</ele>
        <time>2021-12-05T10:07:31.403Z</time>
      </trkpt>
      <trkpt lat="45.61555" lon="5.3175">
        <ele>372</ele>
        <time>2021-12-05T10:07:32.403Z</time>
      </trkpt>
      <trkpt lat="45.61555" lon="5.31753">
        <ele>372</ele>
        <time>2021-12-05T10:07:33.403Z</time>
      </trkpt>
      <trkpt lat="45.61555" lon="5.31757">
        <ele>372</ele>
        <time>2021-12-05T10:07:34.402Z</time>
      </trkpt>
      <trkpt lat="45.61555" lon="5.3176">
        <ele>372</ele>
        <time>2021-12-05T10:07:35.403Z</time>
      </trkpt>
      <trkpt lat="45.61555" lon="5.31763">
        <ele>372</ele>
        <time>2021-12-05T10:07:36.403Z</time>
      </trkpt>
      <trkpt lat="45.61555" lon="5.31766">
        <ele>372</ele>
        <time>2021-12-05T10:07:37.403Z</time>
      </trkpt>
      <trkpt lat="45.61556" lon="5.31769">
        <ele>371</ele>
        <time>2021-12-05T10:07:38.403Z</time>
      </trkpt>
      <trkpt lat="45.61556" lon="5.31772">
        <ele>371</ele>
        <time>2021-12-05T10:07:39.402Z</time>
      </trkpt>
      <trkpt lat="45.61556" lon="5.31775">
        <ele>370</ele>
        <time>2021-12-05T10:07:40.402Z</time>
      </trkpt>
      <trkpt lat="45.61556" lon="5.31778">
        <ele>370</ele>
        <time>2021-12-05T10:07:41.402Z</time>
      </trkpt>
      <trkpt lat="45.61556" lon="5.31782">
        <ele>370</ele>
        <time>2021-12-05T10:07:42.403Z</time>
      </trkpt>
      <trkpt lat="45.61556" lon="5.31785">
        <ele>369</ele>
        <time>2021-12-05T10:07:43.403Z</time>
      </trkpt>
      <trkpt lat="45.61556" lon="5.31788">
        <ele>369</ele>
        <time>2021-12-05T10:07:44.402Z</time>
      </trkpt>
      <trkpt lat="45.61556" lon="5.31791">
        <ele>368</ele>
        <time>2021-12-05T10:07:45.402Z</time>
      </trkpt>
      <trkpt lat="45.61556" lon="5.31794">
        <ele>368</ele>
        <time>2021-12-05T10:07:46.403Z</time>
      </trkpt>
      <trkpt lat="45.61556" lon="5.31797">
        <ele>368</ele>
        <time>2021-12-05T10:07:47.403Z</time>
      </trkpt>
      <trkpt lat="45.61557" lon="5.31801">
        <ele>368</ele>
        <time>2021-12-05T10:07:48.403Z</time>
      </trkpt>
      <trkpt lat="45.61557" lon="5.31804">
        <ele>367</ele>
        <time>2021-12-05T10:07:49.403Z</time>
      </trkpt>
      <trkpt lat="45.61557" lon="5.31807">
        <ele>367</ele>
        <time>2021-12-05T10:07:50.403Z</time>
      </trkpt>
      <trkpt lat="45.61557" lon="5.3181">
        <ele>367</ele>
        <time>2021-12-05T10:07:51.402Z</time>
      </trkpt>
      <trkpt lat="45.61557" lon="5.31813">
        <ele>368</ele>
        <time>2021-12-05T10:07:52.403Z</time>
      </trkpt>
      <trkpt lat="45.61557" lon="5.31816">
        <ele>368</ele>
        <time>2021-12-05T10:07:53.403Z</time>
      </trkpt>
      <trkpt lat="45.61557" lon="5.31819">
        <ele>368</ele>
        <time>2021-12-05T10:07:54.403Z</time>
      </trkpt>
      <trkpt lat="45.61557" lon="5.31822">
        <ele>368</ele>
        <time>2021-12-05T10:07:55.403Z</time>
      </trkpt>
      <trkpt lat="45.61557" lon="5.31825">
        <ele>368</ele>
        <time>2021-12-05T10:07:56.403Z</time>
      </trkpt>
      <trkpt lat="45.61557" lon="5.31828">
        <ele>368</ele>
        <time>2021-12-05T10:07:57.402Z</time>
      </trkpt>
      <trkpt lat="45.61557" lon="5.31831">
        <ele>368</ele>
        <time>2021-12-05T10:07:58.403Z</time>
      </trkpt>
      <trkpt lat="45.61556" lon="5.31833">
        <ele>367</ele>
        <time>2021-12-05T10:07:59.402Z</time>
      </trkpt>
      <trkpt lat="45.61556" lon="5.31836">
        <ele>367</ele>
        <time>2021-12-05T10:08:00.403Z</time>
      </trkpt>
      <trkpt lat="45.61556" lon="5.31839">
        <ele>367</ele>
        <time>2021-12-05T10:08:01.402Z</time>
      </trkpt>
      <trkpt lat="45.61555" lon="5.31842">
        <ele>367</ele>
        <time>2021-12-05T10:08:02.403Z</time>
      </trkpt>
      <trkpt lat="45.61555" lon="5.31844">
        <ele>367</ele>
        <time>2021-12-05T10:08:03.403Z</time>
      </trkpt>
      <trkpt lat="45.61555" lon="5.31848">
        <ele>367</ele>
        <time>2021-12-05T10:08:04.402Z</time>
      </trkpt>
      <trkpt lat="45.61555" lon="5.31851">
        <ele>367</ele>
        <time>2021-12-05T10:08:05.403Z</time>
      </trkpt>
      <trkpt lat="45.61555" lon="5.31854">
        <ele>367</ele>
        <time>2021-12-05T10:08:06.403Z</time>
      </trkpt>
      <trkpt lat="45.61554" lon="5.31858">
        <ele>367</ele>
        <time>2021-12-05T10:08:07.403Z</time>
      </trkpt>
      <trkpt lat="45.61554" lon="5.31861">
        <ele>366</ele>
        <time>2021-12-05T10:08:08.403Z</time>
      </trkpt>
      <trkpt lat="45.61554" lon="5.31864">
        <ele>366</ele>
        <time>2021-12-05T10:08:09.403Z</time>
      </trkpt>
      <trkpt lat="45.61554" lon="5.31867">
        <ele>366</ele>
        <time>2021-12-05T10:08:10.403Z</time>
      </trkpt>
      <trkpt lat="45.61554" lon="5.3187">
        <ele>365</ele>
        <time>2021-12-05T10:08:11.403Z</time>
      </trkpt>
      <trkpt lat="45.61553" lon="5.31873">
        <ele>365</ele>
        <time>2021-12-05T10:08:12.403Z</time>
      </trkpt>
      <trkpt lat="45.61553" lon="5.31877">
        <ele>365</ele>
        <time>2021-12-05T10:08:13.403Z</time>
      </trkpt>
      <trkpt lat="45.61553" lon="5.3188">
        <ele>365</ele>
        <time>2021-12-05T10:08:14.402Z</time>
      </trkpt>
      <trkpt lat="45.61552" lon="5.31883">
        <ele>365</ele>
        <time>2021-12-05T10:08:15.402Z</time>
      </trkpt>
      <trkpt lat="45.61551" lon="5.31885">
        <ele>366</ele>
        <time>2021-12-05T10:08:16.403Z</time>
      </trkpt>
      <trkpt lat="45.6155" lon="5.31888">
        <ele>366</ele>
        <time>2021-12-05T10:08:17.402Z</time>
      </trkpt>
      <trkpt lat="45.61548" lon="5.3189">
        <ele>367</ele>
        <time>2021-12-05T10:08:18.403Z</time>
      </trkpt>
      <trkpt lat="45.61546" lon="5.31891">
        <ele>367</ele>
        <time>2021-12-05T10:08:19.403Z</time>
      </trkpt>
      <trkpt lat="45.61543" lon="5.31892">
        <ele>367</ele>
        <time>2021-12-05T10:08:20.402Z</time>
      </trkpt>
      <trkpt lat="45.61541" lon="5.31893">
        <ele>367</ele>
        <time>2021-12-05T10:08:21.403Z</time>
      </trkpt>
      <trkpt lat="45.61538" lon="5.31893">
        <ele>367</ele>
        <time>2021-12-05T10:08:22.403Z</time>
      </trkpt>
      <trkpt lat="45.61535" lon="5.31892">
        <ele>367</ele>
        <time>2021-12-05T10:08:23.402Z</time>
      </trkpt>
      <trkpt lat="45.61533" lon="5.3189">
        <ele>367</ele>
        <time>2021-12-05T10:08:24.403Z</time>
      </trkpt>
      <trkpt lat="45.61531" lon="5.31888">
        <ele>366</ele>
        <time>2021-12-05T10:08:25.403Z</time>
      </trkpt>
      <trkpt lat="45.61529" lon="5.31886">
        <ele>366</ele>
        <time>2021-12-05T10:08:26.403Z</time>
      </trkpt>
      <trkpt lat="45.61526" lon="5.31884">
        <ele>365</ele>
        <time>2021-12-05T10:08:27.402Z</time>
      </trkpt>
      <trkpt lat="45.61524" lon="5.31883">
        <ele>364</ele>
        <time>2021-12-05T10:08:28.403Z</time>
      </trkpt>
      <trkpt lat="45.61523" lon="5.3188">
        <ele>364</ele>
        <time>2021-12-05T10:08:29.403Z</time>
      </trkpt>
      <trkpt lat="45.61521" lon="5.31878">
        <ele>364</ele>
        <time>2021-12-05T10:08:30.403Z</time>
      </trkpt>
      <trkpt lat="45.61519" lon="5.31876">
        <ele>364</ele>
        <time>2021-12-05T10:08:31.403Z</time>
      </trkpt>
      <trkpt lat="45.61518" lon="5.31874">
        <ele>363</ele>
        <time>2021-12-05T10:08:32.403Z</time>
      </trkpt>
      <trkpt lat="45.61516" lon="5.31871">
        <ele>363</ele>
        <time>2021-12-05T10:08:33.403Z</time>
      </trkpt>
      <trkpt lat="45.61514" lon="5.31869">
        <ele>362</ele>
        <time>2021-12-05T10:08:34.403Z</time>
      </trkpt>
      <trkpt lat="45.61512" lon="5.31867">
        <ele>361</ele>
        <time>2021-12-05T10:08:35.403Z</time>
      </trkpt>
      <trkpt lat="45.61511" lon="5.31865">
        <ele>361</ele>
        <time>2021-12-05T10:08:36.402Z</time>
      </trkpt>
      <trkpt lat="45.61509" lon="5.31862">
        <ele>360</ele>
        <time>2021-12-05T10:08:37.403Z</time>
      </trkpt>
      <trkpt lat="45.61507" lon="5.3186">
        <ele>360</ele>
        <time>2021-12-05T10:08:38.403Z</time>
      </trkpt>
      <trkpt lat="45.61506" lon="5.31858">
        <ele>359</ele>
        <time>2021-12-05T10:08:39.403Z</time>
      </trkpt>
      <trkpt lat="45.61503" lon="5.31858">
        <ele>359</ele>
        <time>2021-12-05T10:08:40.403Z</time>
      </trkpt>
      <trkpt lat="45.61501" lon="5.31857">
        <ele>359</ele>
        <time>2021-12-05T10:08:41.403Z</time>
      </trkpt>
      <trkpt lat="45.61499" lon="5.31856">
        <ele>359</ele>
        <time>2021-12-05T10:08:42.403Z</time>
      </trkpt>
      <trkpt lat="45.61497" lon="5.31854">
        <ele>359</ele>
        <time>2021-12-05T10:08:43.403Z</time>
      </trkpt>
      <trkpt lat="45.61495" lon="5.31852">
        <ele>359</ele>
        <time>2021-12-05T10:08:44.403Z</time>
      </trkpt>
      <trkpt lat="45.61493" lon="5.31849">
        <ele>359</ele>
        <time>2021-12-05T10:08:45.403Z</time>
      </trkpt>
      <trkpt lat="45.61492" lon="5.31847">
        <ele>359</ele>
        <time>2021-12-05T10:08:46.403Z</time>
      </trkpt>
      <trkpt lat="45.6149" lon="5.31844">
        <ele>359</ele>
        <time>2021-12-05T10:08:47.402Z</time>
      </trkpt>
      <trkpt lat="45.61489" lon="5.31842">
        <ele>359</ele>
        <time>2021-12-05T10:08:48.402Z</time>
      </trkpt>
      <trkpt lat="45.61487" lon="5.31839">
        <ele>359</ele>
        <time>2021-12-05T10:08:49.402Z</time>
      </trkpt>
      <trkpt lat="45.61486" lon="5.31837">
        <ele>359</ele>
        <time>2021-12-05T10:08:50.402Z</time>
      </trkpt>
      <trkpt lat="45.61484" lon="5.31834">
        <ele>359</ele>
        <time>2021-12-05T10:08:51.403Z</time>
      </trkpt>
      <trkpt lat="45.61483" lon="5.31832">
        <ele>359</ele>
        <time>2021-12-05T10:08:52.403Z</time>
      </trkpt>
      <trkpt lat="45.61481" lon="5.31829">
        <ele>359</ele>
        <time>2021-12-05T10:08:53.403Z</time>
      </trkpt>
      <trkpt lat="45.6148" lon="5.31827">
        <ele>358</ele>
        <time>2021-12-05T10:08:54.402Z</time>
      </trkpt>
      <trkpt lat="45.61478" lon="5.31824">
        <ele>358</ele>
        <time>2021-12-05T10:08:55.403Z</time>
      </trkpt>
      <trkpt lat="45.61477" lon="5.31822">
        <ele>357</ele>
        <time>2021-12-05T10:08:56.403Z</time>
      </trkpt>
      <trkpt lat="45.61475" lon="5.31819">
        <ele>357</ele>
        <time>2021-12-05T10:08:57.403Z</time>
      </trkpt>
      <trkpt lat="45.61474" lon="5.31817">
        <ele>357</ele>
        <time>2021-12-05T10:08:58.403Z</time>
      </trkpt>
      <trkpt lat="45.61472" lon="5.31815">
        <ele>356</ele>
        <time>2021-12-05T10:08:59.403Z</time>
      </trkpt>
      <trkpt lat="45.61471" lon="5.31813">
        <ele>356</ele>
        <time>2021-12-05T10:09:00.403Z</time>
      </trkpt>
      <trkpt lat="45.6147" lon="5.3181">
        <ele>355</ele>
        <time>2021-12-05T10:09:01.403Z</time>
      </trkpt>
      <trkpt lat="45.61469" lon="5.31808">
        <ele>355</ele>
        <time>2021-12-05T10:09:02.402Z</time>
      </trkpt>
      <trkpt lat="45.61467" lon="5.31806">
        <ele>355</ele>
        <time>2021-12-05T10:09:03.403Z</time>
      </trkpt>
      <trkpt lat="45.61465" lon="5.31804">
        <ele>354</ele>
        <time>2021-12-05T10:09:04.403Z</time>
      </trkpt>
      <trkpt lat="45.61464" lon="5.31801">
        <ele>354</ele>
        <time>2021-12-05T10:09:05.402Z</time>
      </trkpt>
      <trkpt lat="45.61463" lon="5.31799">
        <ele>353</ele>
        <time>2021-12-05T10:09:06.402Z</time>
      </trkpt>
      <trkpt lat="45.61462" lon="5.31797">
        <ele>353</ele>
        <time>2021-12-05T10:09:07.403Z</time>
      </trkpt>
      <trkpt lat="45.6146" lon="5.31794">
        <ele>352</ele>
        <time>2021-12-05T10:09:08.403Z</time>
      </trkpt>
      <trkpt lat="45.61458" lon="5.31792">
        <ele>352</ele>
        <time>2021-12-05T10:09:09.402Z</time>
      </trkpt>
      <trkpt lat="45.61456" lon="5.31789">
        <ele>352</ele>
        <time>2021-12-05T10:09:10.403Z</time>
      </trkpt>
      <trkpt lat="45.61455" lon="5.31787">
        <ele>351</ele>
        <time>2021-12-05T10:09:11.403Z</time>
      </trkpt>
      <trkpt lat="45.61453" lon="5.31785">
        <ele>351</ele>
        <time>2021-12-05T10:09:12.403Z</time>
      </trkpt>
      <trkpt lat="45.61451" lon="5.31782">
        <ele>351</ele>
        <time>2021-12-05T10:09:13.402Z</time>
      </trkpt>
      <trkpt lat="45.61449" lon="5.31779">
        <ele>351</ele>
        <time>2021-12-05T10:09:14.403Z</time>
      </trkpt>
      <trkpt lat="45.61448" lon="5.31777">
        <ele>350</ele>
        <time>2021-12-05T10:09:15.403Z</time>
      </trkpt>
      <trkpt lat="45.61446" lon="5.31775">
        <ele>350</ele>
        <time>2021-12-05T10:09:16.403Z</time>
      </trkpt>
      <trkpt lat="45.61444" lon="5.31772">
        <ele>350</ele>
        <time>2021-12-05T10:09:17.403Z</time>
      </trkpt>
      <trkpt lat="45.61442" lon="5.3177">
        <ele>349</ele>
        <time>2021-12-05T10:09:18.403Z</time>
      </trkpt>
      <trkpt lat="45.6144" lon="5.31767">
        <ele>349</ele>
        <time>2021-12-05T10:09:19.403Z</time>
      </trkpt>
      <trkpt lat="45.61439" lon="5.31765">
        <ele>349</ele>
        <time>2021-12-05T10:09:20.402Z</time>
      </trkpt>
      <trkpt lat="45.61437" lon="5.31762">
        <ele>349</ele>
        <time>2021-12-05T10:09:21.403Z</time>
      </trkpt>
      <trkpt lat="45.61435" lon="5.3176">
        <ele>348</ele>
        <time>2021-12-05T10:09:22.403Z</time>
      </trkpt>
      <trkpt lat="45.61434" lon="5.31758">
        <ele>348</ele>
        <time>2021-12-05T10:09:23.403Z</time>
      </trkpt>
      <trkpt lat="45.61432" lon="5.31756">
        <ele>348</ele>
        <time>2021-12-05T10:09:24.403Z</time>
      </trkpt>
      <trkpt lat="45.61431" lon="5.31754">
        <ele>348</ele>
        <time>2021-12-05T10:09:25.403Z</time>
      </trkpt>
      <trkpt lat="45.61429" lon="5.31751">
        <ele>347</ele>
        <time>2021-12-05T10:09:26.402Z</time>
      </trkpt>
      <trkpt lat="45.61427" lon="5.31749">
        <ele>347</ele>
        <time>2021-12-05T10:09:27.403Z</time>
      </trkpt>
      <trkpt lat="45.61426" lon="5.31748">
        <ele>347</ele>
        <time>2021-12-05T10:09:28.403Z</time>
      </trkpt>
      <trkpt lat="45.61424" lon="5.31745">
        <ele>346</ele>
        <time>2021-12-05T10:09:29.403Z</time>
      </trkpt>
      <trkpt lat="45.61422" lon="5.31742">
        <ele>346</ele>
        <time>2021-12-05T10:09:30.402Z</time>
      </trkpt>
      <trkpt lat="45.6142" lon="5.3174">
        <ele>346</ele>
        <time>2021-12-05T10:09:31.403Z</time>
      </trkpt>
      <trkpt lat="45.61419" lon="5.31737">
        <ele>346</ele>
        <time>2021-12-05T10:09:32.403Z</time>
      </trkpt>
      <trkpt lat="45.61417" lon="5.31735">
        <ele>346</ele>
        <time>2021-12-05T10:09:33.402Z</time>
      </trkpt>
      <trkpt lat="45.61415" lon="5.31732">
        <ele>346</ele>
        <time>2021-12-05T10:09:34.403Z</time>
      </trkpt>
      <trkpt lat="45.61413" lon="5.31729">
        <ele>346</ele>
        <time>2021-12-05T10:09:35.403Z</time>
      </trkpt>
      <trkpt lat="45.61411" lon="5.31727">
        <ele>345</ele>
        <time>2021-12-05T10:09:36.403Z</time>
      </trkpt>
      <trkpt lat="45.6141" lon="5.31725">
        <ele>345</ele>
        <time>2021-12-05T10:09:37.403Z</time>
      </trkpt>
      <trkpt lat="45.61408" lon="5.31723">
        <ele>345</ele>
        <time>2021-12-05T10:09:38.403Z</time>
      </trkpt>
      <trkpt lat="45.61406" lon="5.3172">
        <ele>344</ele>
        <time>2021-12-05T10:09:39.403Z</time>
      </trkpt>
      <trkpt lat="45.61404" lon="5.31718">
        <ele>344</ele>
        <time>2021-12-05T10:09:40.403Z</time>
      </trkpt>
      <trkpt lat="45.61402" lon="5.31715">
        <ele>344</ele>
        <time>2021-12-05T10:09:41.403Z</time>
      </trkpt>
      <trkpt lat="45.614" lon="5.31713">
        <ele>344</ele>
        <time>2021-12-05T10:09:42.403Z</time>
      </trkpt>
      <trkpt lat="45.61398" lon="5.31711">
        <ele>344</ele>
        <time>2021-12-05T10:09:43.402Z</time>
      </trkpt>
      <trkpt lat="45.61396" lon="5.31708">
        <ele>344</ele>
        <time>2021-12-05T10:09:44.403Z</time>
      </trkpt>
      <trkpt lat="45.61394" lon="5.31706">
        <ele>344</ele>
        <time>2021-12-05T10:09:45.403Z</time>
      </trkpt>
      <trkpt lat="45.61393" lon="5.31704">
        <ele>344</ele>
        <time>2021-12-05T10:09:46.403Z</time>
      </trkpt>
      <trkpt lat="45.6139" lon="5.31701">
        <ele>344</ele>
        <time>2021-12-05T10:09:47.403Z</time>
      </trkpt>
      <trkpt lat="45.61388" lon="5.31699">
        <ele>344</ele>
        <time>2021-12-05T10:09:48.403Z</time>
      </trkpt>
      <trkpt lat="45.61386" lon="5.31697">
        <ele>344</ele>
        <time>2021-12-05T10:09:49.402Z</time>
      </trkpt>
      <trkpt lat="45.61385" lon="5.31695">
        <ele>343</ele>
        <time>2021-12-05T10:09:50.402Z</time>
      </trkpt>
      <trkpt lat="45.61383" lon="5.31693">
        <ele>343</ele>
        <time>2021-12-05T10:09:51.403Z</time>
      </trkpt>
      <trkpt lat="45.61381" lon="5.3169">
        <ele>343</ele>
        <time>2021-12-05T10:09:52.402Z</time>
      </trkpt>
      <trkpt lat="45.61379" lon="5.31688">
        <ele>343</ele>
        <time>2021-12-05T10:09:53.403Z</time>
      </trkpt>
      <trkpt lat="45.61377" lon="5.31685">
        <ele>342</ele>
        <time>2021-12-05T10:09:54.403Z</time>
      </trkpt>
      <trkpt lat="45.61376" lon="5.31684">
        <ele>342</ele>
        <time>2021-12-05T10:09:55.403Z</time>
      </trkpt>
      <trkpt lat="45.61374" lon="5.31681">
        <ele>342</ele>
        <time>2021-12-05T10:09:56.402Z</time>
      </trkpt>
      <trkpt lat="45.61372" lon="5.31678">
        <ele>342</ele>
        <time>2021-12-05T10:09:57.402Z</time>
      </trkpt>
      <trkpt lat="45.6137" lon="5.31676">
        <ele>342</ele>
        <time>2021-12-05T10:09:58.402Z</time>
      </trkpt>
      <trkpt lat="45.61369" lon="5.31675">
        <ele>341</ele>
        <time>2021-12-05T10:09:59.402Z</time>
      </trkpt>
      <trkpt lat="45.61367" lon="5.31672">
        <ele>341</ele>
        <time>2021-12-05T10:10:00.402Z</time>
      </trkpt>
      <trkpt lat="45.61364" lon="5.3167">
        <ele>341</ele>
        <time>2021-12-05T10:10:01.402Z</time>
      </trkpt>
      <trkpt lat="45.61362" lon="5.31667">
        <ele>341</ele>
        <time>2021-12-05T10:10:02.402Z</time>
      </trkpt>
      <trkpt lat="45.61361" lon="5.31665">
        <ele>341</ele>
        <time>2021-12-05T10:10:03.403Z</time>
      </trkpt>
      <trkpt lat="45.61359" lon="5.31663">
        <ele>342</ele>
        <time>2021-12-05T10:10:04.403Z</time>
      </trkpt>
      <trkpt lat="45.61357" lon="5.3166">
        <ele>342</ele>
        <time>2021-12-05T10:10:05.403Z</time>
      </trkpt>
      <trkpt lat="45.61355" lon="5.31658">
        <ele>342</ele>
        <time>2021-12-05T10:10:06.402Z</time>
      </trkpt>
      <trkpt lat="45.61352" lon="5.31655">
        <ele>342</ele>
        <time>2021-12-05T10:10:07.402Z</time>
      </trkpt>
      <trkpt lat="45.61351" lon="5.31653">
        <ele>342</ele>
        <time>2021-12-05T10:10:08.403Z</time>
      </trkpt>
      <trkpt lat="45.61348" lon="5.3165">
        <ele>342</ele>
        <time>2021-12-05T10:10:09.403Z</time>
      </trkpt>
      <trkpt lat="45.61346" lon="5.31648">
        <ele>342</ele>
        <time>2021-12-05T10:10:10.403Z</time>
      </trkpt>
      <trkpt lat="45.61344" lon="5.31645">
        <ele>342</ele>
        <time>2021-12-05T10:10:11.402Z</time>
      </trkpt>
      <trkpt lat="45.61343" lon="5.31643">
        <ele>342</ele>
        <time>2021-12-05T10:10:12.403Z</time>
      </trkpt>
      <trkpt lat="45.61341" lon="5.31641">
        <ele>342</ele>
        <time>2021-12-05T10:10:13.402Z</time>
      </trkpt>
      <trkpt lat="45.61339" lon="5.31638">
        <ele>341</ele>
        <time>2021-12-05T10:10:14.403Z</time>
      </trkpt>
      <trkpt lat="45.61337" lon="5.31636">
        <ele>341</ele>
        <time>2021-12-05T10:10:15.402Z</time>
      </trkpt>
      <trkpt lat="45.61335" lon="5.31634">
        <ele>341</ele>
        <time>2021-12-05T10:10:16.403Z</time>
      </trkpt>
      <trkpt lat="45.61334" lon="5.31631">
        <ele>341</ele>
        <time>2021-12-05T10:10:17.403Z</time>
      </trkpt>
      <trkpt lat="45.61332" lon="5.31629">
        <ele>341</ele>
        <time>2021-12-05T10:10:18.403Z</time>
      </trkpt>
      <trkpt lat="45.6133" lon="5.31626">
        <ele>341</ele>
        <time>2021-12-05T10:10:19.403Z</time>
      </trkpt>
      <trkpt lat="45.61328" lon="5.31624">
        <ele>341</ele>
        <time>2021-12-05T10:10:20.403Z</time>
      </trkpt>
      <trkpt lat="45.61327" lon="5.31622">
        <ele>341</ele>
        <time>2021-12-05T10:10:21.402Z</time>
      </trkpt>
      <trkpt lat="45.61325" lon="5.3162">
        <ele>341</ele>
        <time>2021-12-05T10:10:22.403Z</time>
      </trkpt>
      <trkpt lat="45.61323" lon="5.31618">
        <ele>340</ele>
        <time>2021-12-05T10:10:23.403Z</time>
      </trkpt>
      <trkpt lat="45.61322" lon="5.31616">
        <ele>340</ele>
        <time>2021-12-05T10:10:24.402Z</time>
      </trkpt>
      <trkpt lat="45.61321" lon="5.31614">
        <ele>339</ele>
        <time>2021-12-05T10:10:25.403Z</time>
      </trkpt>
      <trkpt lat="45.61319" lon="5.31612">
        <ele>339</ele>
        <time>2021-12-05T10:10:26.403Z</time>
      </trkpt>
      <trkpt lat="45.61317" lon="5.3161">
        <ele>338</ele>
        <time>2021-12-05T10:10:27.403Z</time>
      </trkpt>
      <trkpt lat="45.61315" lon="5.31607">
        <ele>338</ele>
        <time>2021-12-05T10:10:28.402Z</time>
      </trkpt>
      <trkpt lat="45.61314" lon="5.31605">
        <ele>338</ele>
        <time>2021-12-05T10:10:29.403Z</time>
      </trkpt>
      <trkpt lat="45.61312" lon="5.31603">
        <ele>338</ele>
        <time>2021-12-05T10:10:30.402Z</time>
      </trkpt>
      <trkpt lat="45.6131" lon="5.31601">
        <ele>338</ele>
        <time>2021-12-05T10:10:31.402Z</time>
      </trkpt>
      <trkpt lat="45.61308" lon="5.31598">
        <ele>338</ele>
        <time>2021-12-05T10:10:32.403Z</time>
      </trkpt>
      <trkpt lat="45.61306" lon="5.31596">
        <ele>338</ele>
        <time>2021-12-05T10:10:33.403Z</time>
      </trkpt>
      <trkpt lat="45.61305" lon="5.31594">
        <ele>337</ele>
        <time>2021-12-05T10:10:34.403Z</time>
      </trkpt>
      <trkpt lat="45.61303" lon="5.31592">
        <ele>337</ele>
        <time>2021-12-05T10:10:35.403Z</time>
      </trkpt>
      <trkpt lat="45.61301" lon="5.3159">
        <ele>337</ele>
        <time>2021-12-05T10:10:36.402Z</time>
      </trkpt>
      <trkpt lat="45.61299" lon="5.31587">
        <ele>336</ele>
        <time>2021-12-05T10:10:37.403Z</time>
      </trkpt>
      <trkpt lat="45.61298" lon="5.31586">
        <ele>336</ele>
        <time>2021-12-05T10:10:38.402Z</time>
      </trkpt>
      <trkpt lat="45.61296" lon="5.31584">
        <ele>336</ele>
        <time>2021-12-05T10:10:39.402Z</time>
      </trkpt>
      <trkpt lat="45.61294" lon="5.31581">
        <ele>335</ele>
        <time>2021-12-05T10:10:40.402Z</time>
      </trkpt>
      <trkpt lat="45.61292" lon="5.31579">
        <ele>335</ele>
        <time>2021-12-05T10:10:41.402Z</time>
      </trkpt>
      <trkpt lat="45.61291" lon="5.31576">
        <ele>335</ele>
        <time>2021-12-05T10:10:42.403Z</time>
      </trkpt>
      <trkpt lat="45.6129" lon="5.31574">
        <ele>335</ele>
        <time>2021-12-05T10:10:43.402Z</time>
      </trkpt>
      <trkpt lat="45.61288" lon="5.31571">
        <ele>335</ele>
        <time>2021-12-05T10:10:44.402Z</time>
      </trkpt>
      <trkpt lat="45.61286" lon="5.31568">
        <ele>335</ele>
        <time>2021-12-05T10:10:45.403Z</time>
      </trkpt>
      <trkpt lat="45.61284" lon="5.31566">
        <ele>335</ele>
        <time>2021-12-05T10:10:46.403Z</time>
      </trkpt>
      <trkpt lat="45.61283" lon="5.31563">
        <ele>335</ele>
        <time>2021-12-05T10:10:47.403Z</time>
      </trkpt>
      <trkpt lat="45.61281" lon="5.31561">
        <ele>335</ele>
        <time>2021-12-05T10:10:48.403Z</time>
      </trkpt>
      <trkpt lat="45.61279" lon="5.31558">
        <ele>335</ele>
        <time>2021-12-05T10:10:49.403Z</time>
      </trkpt>
      <trkpt lat="45.61277" lon="5.31555">
        <ele>335</ele>
        <time>2021-12-05T10:10:50.402Z</time>
      </trkpt>
      <trkpt lat="45.61276" lon="5.31552">
        <ele>335</ele>
        <time>2021-12-05T10:10:51.403Z</time>
      </trkpt>
      <trkpt lat="45.61275" lon="5.3155">
        <ele>335</ele>
        <time>2021-12-05T10:10:52.403Z</time>
      </trkpt>
      <trkpt lat="45.61273" lon="5.31548">
        <ele>335</ele>
        <time>2021-12-05T10:10:53.402Z</time>
      </trkpt>
      <trkpt lat="45.61271" lon="5.31546">
        <ele>335</ele>
        <time>2021-12-05T10:10:54.403Z</time>
      </trkpt>
      <trkpt lat="45.6127" lon="5.31544">
        <ele>334</ele>
        <time>2021-12-05T10:10:55.403Z</time>
      </trkpt>
      <trkpt lat="45.61268" lon="5.31543">
        <ele>334</ele>
        <time>2021-12-05T10:10:56.403Z</time>
      </trkpt>
      <trkpt lat="45.61266" lon="5.3154">
        <ele>334</ele>
        <time>2021-12-05T10:10:57.403Z</time>
      </trkpt>
      <trkpt lat="45.61264" lon="5.31538">
        <ele>334</ele>
        <time>2021-12-05T10:10:58.403Z</time>
      </trkpt>
      <trkpt lat="45.61263" lon="5.31536">
        <ele>334</ele>
        <time>2021-12-05T10:10:59.403Z</time>
      </trkpt>
      <trkpt lat="45.61261" lon="5.31534">
        <ele>334</ele>
        <time>2021-12-05T10:11:00.403Z</time>
      </trkpt>
      <trkpt lat="45.61259" lon="5.31532">
        <ele>334</ele>
        <time>2021-12-05T10:11:01.402Z</time>
      </trkpt>
      <trkpt lat="45.61257" lon="5.31529">
        <ele>334</ele>
        <time>2021-12-05T10:11:02.403Z</time>
      </trkpt>
      <trkpt lat="45.61256" lon="5.31526">
        <ele>334</ele>
        <time>2021-12-05T10:11:03.402Z</time>
      </trkpt>
      <trkpt lat="45.61255" lon="5.31523">
        <ele>334</ele>
        <time>2021-12-05T10:11:04.403Z</time>
      </trkpt>
      <trkpt lat="45.61254" lon="5.31521">
        <ele>334</ele>
        <time>2021-12-05T10:11:05.403Z</time>
      </trkpt>
      <trkpt lat="45.61252" lon="5.31518">
        <ele>334</ele>
        <time>2021-12-05T10:11:06.403Z</time>
      </trkpt>
      <trkpt lat="45.61252" lon="5.31515">
        <ele>334</ele>
        <time>2021-12-05T10:11:07.402Z</time>
      </trkpt>
      <trkpt lat="45.6125" lon="5.31513">
        <ele>334</ele>
        <time>2021-12-05T10:11:08.403Z</time>
      </trkpt>
      <trkpt lat="45.61249" lon="5.31511">
        <ele>334</ele>
        <time>2021-12-05T10:11:09.402Z</time>
      </trkpt>
      <trkpt lat="45.61248" lon="5.31508">
        <ele>334</ele>
        <time>2021-12-05T10:11:10.403Z</time>
      </trkpt>
      <trkpt lat="45.61246" lon="5.31505">
        <ele>334</ele>
        <time>2021-12-05T10:11:11.402Z</time>
      </trkpt>
      <trkpt lat="45.61244" lon="5.31502">
        <ele>334</ele>
        <time>2021-12-05T10:11:12.402Z</time>
      </trkpt>
      <trkpt lat="45.61243" lon="5.31499">
        <ele>333</ele>
        <time>2021-12-05T10:11:13.403Z</time>
      </trkpt>
      <trkpt lat="45.61241" lon="5.31497">
        <ele>333</ele>
        <time>2021-12-05T10:11:14.403Z</time>
      </trkpt>
      <trkpt lat="45.6124" lon="5.31494">
        <ele>332</ele>
        <time>2021-12-05T10:11:15.403Z</time>
      </trkpt>
      <trkpt lat="45.61239" lon="5.31491">
        <ele>332</ele>
        <time>2021-12-05T10:11:16.403Z</time>
      </trkpt>
      <trkpt lat="45.61237" lon="5.31488">
        <ele>332</ele>
        <time>2021-12-05T10:11:17.403Z</time>
      </trkpt>
      <trkpt lat="45.61236" lon="5.31485">
        <ele>331</ele>
        <time>2021-12-05T10:11:18.403Z</time>
      </trkpt>
      <trkpt lat="45.61235" lon="5.31481">
        <ele>331</ele>
        <time>2021-12-05T10:11:19.403Z</time>
      </trkpt>
      <trkpt lat="45.61234" lon="5.31478">
        <ele>330</ele>
        <time>2021-12-05T10:11:20.403Z</time>
      </trkpt>
      <trkpt lat="45.61233" lon="5.31475">
        <ele>329</ele>
        <time>2021-12-05T10:11:21.403Z</time>
      </trkpt>
      <trkpt lat="45.61232" lon="5.31472">
        <ele>329</ele>
        <time>2021-12-05T10:11:22.403Z</time>
      </trkpt>
      <trkpt lat="45.61231" lon="5.31468">
        <ele>329</ele>
        <time>2021-12-05T10:11:23.403Z</time>
      </trkpt>
      <trkpt lat="45.6123" lon="5.31465">
        <ele>329</ele>
        <time>2021-12-05T10:11:24.403Z</time>
      </trkpt>
      <trkpt lat="45.61229" lon="5.31462">
        <ele>328</ele>
        <time>2021-12-05T10:11:25.403Z</time>
      </trkpt>
      <trkpt lat="45.61228" lon="5.31458">
        <ele>329</ele>
        <time>2021-12-05T10:11:26.403Z</time>
      </trkpt>
      <trkpt lat="45.61227" lon="5.31454">
        <ele>329</ele>
        <time>2021-12-05T10:11:27.403Z</time>
      </trkpt>
      <trkpt lat="45.61227" lon="5.31452">
        <ele>328</ele>
        <time>2021-12-05T10:11:28.403Z</time>
      </trkpt>
      <trkpt lat="45.61225" lon="5.31448">
        <ele>328</ele>
        <time>2021-12-05T10:11:29.403Z</time>
      </trkpt>
      <trkpt lat="45.61224" lon="5.31444">
        <ele>328</ele>
        <time>2021-12-05T10:11:30.403Z</time>
      </trkpt>
      <trkpt lat="45.61223" lon="5.31441">
        <ele>328</ele>
        <time>2021-12-05T10:11:31.402Z</time>
      </trkpt>
      <trkpt lat="45.61222" lon="5.31438">
        <ele>328</ele>
        <time>2021-12-05T10:11:32.403Z</time>
      </trkpt>
      <trkpt lat="45.61222" lon="5.31434">
        <ele>328</ele>
        <time>2021-12-05T10:11:33.403Z</time>
      </trkpt>
      <trkpt lat="45.61221" lon="5.31431">
        <ele>328</ele>
        <time>2021-12-05T10:11:34.403Z</time>
      </trkpt>
      <trkpt lat="45.6122" lon="5.31427">
        <ele>328</ele>
        <time>2021-12-05T10:11:35.402Z</time>
      </trkpt>
      <trkpt lat="45.6122" lon="5.31425">
        <ele>328</ele>
        <time>2021-12-05T10:11:36.403Z</time>
      </trkpt>
      <trkpt lat="45.61219" lon="5.31421">
        <ele>327</ele>
        <time>2021-12-05T10:11:37.403Z</time>
      </trkpt>
      <trkpt lat="45.61218" lon="5.31417">
        <ele>327</ele>
        <time>2021-12-05T10:11:38.403Z</time>
      </trkpt>
      <trkpt lat="45.61217" lon="5.31414">
        <ele>327</ele>
        <time>2021-12-05T10:11:39.403Z</time>
      </trkpt>
      <trkpt lat="45.61216" lon="5.3141">
        <ele>326</ele>
        <time>2021-12-05T10:11:40.403Z</time>
      </trkpt>
      <trkpt lat="45.61215" lon="5.31407">
        <ele>326</ele>
        <time>2021-12-05T10:11:41.403Z</time>
      </trkpt>
      <trkpt lat="45.61214" lon="5.31403">
        <ele>326</ele>
        <time>2021-12-05T10:11:42.403Z</time>
      </trkpt>
      <trkpt lat="45.61214" lon="5.31401">
        <ele>325</ele>
        <time>2021-12-05T10:11:43.403Z</time>
      </trkpt>
      <trkpt lat="45.61213" lon="5.31397">
        <ele>326</ele>
        <time>2021-12-05T10:11:44.402Z</time>
      </trkpt>
      <trkpt lat="45.61212" lon="5.31394">
        <ele>326</ele>
        <time>2021-12-05T10:11:45.403Z</time>
      </trkpt>
      <trkpt lat="45.61211" lon="5.31391">
        <ele>326</ele>
        <time>2021-12-05T10:11:46.403Z</time>
      </trkpt>
      <trkpt lat="45.61211" lon="5.31386">
        <ele>327</ele>
        <time>2021-12-05T10:11:47.403Z</time>
      </trkpt>
      <trkpt lat="45.6121" lon="5.31383">
        <ele>327</ele>
        <time>2021-12-05T10:11:48.403Z</time>
      </trkpt>
      <trkpt lat="45.6121" lon="5.31379">
        <ele>327</ele>
        <time>2021-12-05T10:11:49.403Z</time>
      </trkpt>
      <trkpt lat="45.61211" lon="5.31376">
        <ele>326</ele>
        <time>2021-12-05T10:11:50.403Z</time>
      </trkpt>
      <trkpt lat="45.61211" lon="5.31372">
        <ele>327</ele>
        <time>2021-12-05T10:11:51.402Z</time>
      </trkpt>
      <trkpt lat="45.6121" lon="5.31369">
        <ele>327</ele>
        <time>2021-12-05T10:11:52.403Z</time>
      </trkpt>
      <trkpt lat="45.6121" lon="5.31365">
        <ele>328</ele>
        <time>2021-12-05T10:11:53.402Z</time>
      </trkpt>
      <trkpt lat="45.61209" lon="5.31363">
        <ele>328</ele>
        <time>2021-12-05T10:11:54.403Z</time>
      </trkpt>
      <trkpt lat="45.61208" lon="5.31359">
        <ele>328</ele>
        <time>2021-12-05T10:11:55.402Z</time>
      </trkpt>
      <trkpt lat="45.61207" lon="5.31355">
        <ele>328</ele>
        <time>2021-12-05T10:11:56.403Z</time>
      </trkpt>
      <trkpt lat="45.61206" lon="5.31352">
        <ele>328</ele>
        <time>2021-12-05T10:11:57.402Z</time>
      </trkpt>
      <trkpt lat="45.61205" lon="5.31349">
        <ele>328</ele>
        <time>2021-12-05T10:11:58.403Z</time>
      </trkpt>
      <trkpt lat="45.61204" lon="5.31346">
        <ele>327</ele>
        <time>2021-12-05T10:11:59.403Z</time>
      </trkpt>
      <trkpt lat="45.61203" lon="5.31342">
        <ele>327</ele>
        <time>2021-12-05T10:12:00.403Z</time>
      </trkpt>
      <trkpt lat="45.61202" lon="5.31339">
        <ele>327</ele>
        <time>2021-12-05T10:12:01.403Z</time>
      </trkpt>
      <trkpt lat="45.61201" lon="5.31335">
        <ele>327</ele>
        <time>2021-12-05T10:12:02.403Z</time>
      </trkpt>
      <trkpt lat="45.612" lon="5.31331">
        <ele>327</ele>
        <time>2021-12-05T10:12:03.403Z</time>
      </trkpt>
      <trkpt lat="45.612" lon="5.31329">
        <ele>327</ele>
        <time>2021-12-05T10:12:04.403Z</time>
      </trkpt>
      <trkpt lat="45.61199" lon="5.31325">
        <ele>327</ele>
        <time>2021-12-05T10:12:05.403Z</time>
      </trkpt>
      <trkpt lat="45.61198" lon="5.31322">
        <ele>326</ele>
        <time>2021-12-05T10:12:06.403Z</time>
      </trkpt>
      <trkpt lat="45.61198" lon="5.3132">
        <ele>325</ele>
        <time>2021-12-05T10:12:07.403Z</time>
      </trkpt>
      <trkpt lat="45.61197" lon="5.31317">
        <ele>324</ele>
        <time>2021-12-05T10:12:08.402Z</time>
      </trkpt>
      <trkpt lat="45.61196" lon="5.31314">
        <ele>324</ele>
        <time>2021-12-05T10:12:09.403Z</time>
      </trkpt>
      <trkpt lat="45.61194" lon="5.31312">
        <ele>323</ele>
        <time>2021-12-05T10:12:10.403Z</time>
      </trkpt>
      <trkpt lat="45.61193" lon="5.31309">
        <ele>323</ele>
        <time>2021-12-05T10:12:11.403Z</time>
      </trkpt>
      <trkpt lat="45.61192" lon="5.31306">
        <ele>322</ele>
        <time>2021-12-05T10:12:12.403Z</time>
      </trkpt>
      <trkpt lat="45.6119" lon="5.31303">
        <ele>322</ele>
        <time>2021-12-05T10:12:13.402Z</time>
      </trkpt>
      <trkpt lat="45.61188" lon="5.313">
        <ele>322</ele>
        <time>2021-12-05T10:12:14.403Z</time>
      </trkpt>
      <trkpt lat="45.61187" lon="5.31298">
        <ele>322</ele>
        <time>2021-12-05T10:12:15.403Z</time>
      </trkpt>
      <trkpt lat="45.61185" lon="5.31294">
        <ele>321</ele>
        <time>2021-12-05T10:12:16.403Z</time>
      </trkpt>
      <trkpt lat="45.61184" lon="5.31292">
        <ele>322</ele>
        <time>2021-12-05T10:12:17.402Z</time>
      </trkpt>
      <trkpt lat="45.61182" lon="5.31289">
        <ele>322</ele>
        <time>2021-12-05T10:12:18.403Z</time>
      </trkpt>
      <trkpt lat="45.6118" lon="5.31285">
        <ele>322</ele>
        <time>2021-12-05T10:12:19.403Z</time>
      </trkpt>
      <trkpt lat="45.61179" lon="5.31283">
        <ele>323</ele>
        <time>2021-12-05T10:12:20.403Z</time>
      </trkpt>
      <trkpt lat="45.61177" lon="5.3128">
        <ele>323</ele>
        <time>2021-12-05T10:12:21.402Z</time>
      </trkpt>
      <trkpt lat="45.61176" lon="5.31277">
        <ele>324</ele>
        <time>2021-12-05T10:12:22.403Z</time>
      </trkpt>
      <trkpt lat="45.61175" lon="5.31275">
        <ele>324</ele>
        <time>2021-12-05T10:12:23.403Z</time>
      </trkpt>
      <trkpt lat="45.61173" lon="5.31272">
        <ele>324</ele>
        <time>2021-12-05T10:12:24.402Z</time>
      </trkpt>
      <trkpt lat="45.61172" lon="5.3127">
        <ele>323</ele>
        <time>2021-12-05T10:12:25.402Z</time>
      </trkpt>
      <trkpt lat="45.61171" lon="5.31267">
        <ele>323</ele>
        <time>2021-12-05T10:12:26.403Z</time>
      </trkpt>
      <trkpt lat="45.61169" lon="5.31265">
        <ele>323</ele>
        <time>2021-12-05T10:12:27.402Z</time>
      </trkpt>
      <trkpt lat="45.61168" lon="5.31263">
        <ele>322</ele>
        <time>2021-12-05T10:12:28.403Z</time>
      </trkpt>
      <trkpt lat="45.61167" lon="5.31261">
        <ele>322</ele>
        <time>2021-12-05T10:12:29.403Z</time>
      </trkpt>
      <trkpt lat="45.61166" lon="5.31259">
        <ele>321</ele>
        <time>2021-12-05T10:12:30.403Z</time>
      </trkpt>
      <trkpt lat="45.61164" lon="5.31255">
        <ele>321</ele>
        <time>2021-12-05T10:12:31.403Z</time>
      </trkpt>
      <trkpt lat="45.61163" lon="5.31253">
        <ele>322</ele>
        <time>2021-12-05T10:12:32.403Z</time>
      </trkpt>
      <trkpt lat="45.61162" lon="5.31249">
        <ele>322</ele>
        <time>2021-12-05T10:12:33.403Z</time>
      </trkpt>
      <trkpt lat="45.61161" lon="5.31246">
        <ele>322</ele>
        <time>2021-12-05T10:12:34.403Z</time>
      </trkpt>
      <trkpt lat="45.61161" lon="5.31243">
        <ele>322</ele>
        <time>2021-12-05T10:12:35.403Z</time>
      </trkpt>
      <trkpt lat="45.61161" lon="5.31239">
        <ele>323</ele>
        <time>2021-12-05T10:12:36.403Z</time>
      </trkpt>
      <trkpt lat="45.61162" lon="5.31236">
        <ele>323</ele>
        <time>2021-12-05T10:12:37.403Z</time>
      </trkpt>
      <trkpt lat="45.61163" lon="5.31233">
        <ele>324</ele>
        <time>2021-12-05T10:12:38.403Z</time>
      </trkpt>
      <trkpt lat="45.61164" lon="5.31229">
        <ele>324</ele>
        <time>2021-12-05T10:12:39.402Z</time>
      </trkpt>
      <trkpt lat="45.61166" lon="5.31225">
        <ele>323</ele>
        <time>2021-12-05T10:12:40.403Z</time>
      </trkpt>
      <trkpt lat="45.61167" lon="5.31222">
        <ele>323</ele>
        <time>2021-12-05T10:12:41.402Z</time>
      </trkpt>
      <trkpt lat="45.61168" lon="5.31219">
        <ele>323</ele>
        <time>2021-12-05T10:12:42.402Z</time>
      </trkpt>
      <trkpt lat="45.61169" lon="5.31215">
        <ele>323</ele>
        <time>2021-12-05T10:12:43.403Z</time>
      </trkpt>
      <trkpt lat="45.61171" lon="5.31212">
        <ele>323</ele>
        <time>2021-12-05T10:12:44.402Z</time>
      </trkpt>
      <trkpt lat="45.61171" lon="5.31209">
        <ele>323</ele>
        <time>2021-12-05T10:12:45.402Z</time>
      </trkpt>
      <trkpt lat="45.61172" lon="5.31205">
        <ele>322</ele>
        <time>2021-12-05T10:12:46.403Z</time>
      </trkpt>
      <trkpt lat="45.61173" lon="5.31202">
        <ele>322</ele>
        <time>2021-12-05T10:12:47.403Z</time>
      </trkpt>
      <trkpt lat="45.61173" lon="5.31199">
        <ele>321</ele>
        <time>2021-12-05T10:12:48.402Z</time>
      </trkpt>
      <trkpt lat="45.61174" lon="5.31196">
        <ele>321</ele>
        <time>2021-12-05T10:12:49.402Z</time>
      </trkpt>
      <trkpt lat="45.61174" lon="5.31193">
        <ele>322</ele>
        <time>2021-12-05T10:12:50.403Z</time>
      </trkpt>
      <trkpt lat="45.61175" lon="5.3119">
        <ele>323</ele>
        <time>2021-12-05T10:12:51.403Z</time>
      </trkpt>
      <trkpt lat="45.61175" lon="5.31186">
        <ele>323</ele>
        <time>2021-12-05T10:12:52.403Z</time>
      </trkpt>
      <trkpt lat="45.61175" lon="5.31183">
        <ele>323</ele>
        <time>2021-12-05T10:12:53.403Z</time>
      </trkpt>
      <trkpt lat="45.61175" lon="5.3118">
        <ele>323</ele>
        <time>2021-12-05T10:12:54.403Z</time>
      </trkpt>
      <trkpt lat="45.61175" lon="5.31176">
        <ele>323</ele>
        <time>2021-12-05T10:12:55.403Z</time>
      </trkpt>
      <trkpt lat="45.61175" lon="5.31174">
        <ele>323</ele>
        <time>2021-12-05T10:12:56.402Z</time>
      </trkpt>
      <trkpt lat="45.61175" lon="5.3117">
        <ele>323</ele>
        <time>2021-12-05T10:12:57.403Z</time>
      </trkpt>
      <trkpt lat="45.61175" lon="5.31167">
        <ele>322</ele>
        <time>2021-12-05T10:12:58.403Z</time>
      </trkpt>
      <trkpt lat="45.61175" lon="5.31164">
        <ele>322</ele>
        <time>2021-12-05T10:12:59.403Z</time>
      </trkpt>
      <trkpt lat="45.61175" lon="5.3116">
        <ele>322</ele>
        <time>2021-12-05T10:13:00.403Z</time>
      </trkpt>
      <trkpt lat="45.61175" lon="5.31157">
        <ele>322</ele>
        <time>2021-12-05T10:13:01.403Z</time>
      </trkpt>
      <trkpt lat="45.61174" lon="5.31153">
        <ele>322</ele>
        <time>2021-12-05T10:13:02.403Z</time>
      </trkpt>
      <trkpt lat="45.61174" lon="5.3115">
        <ele>322</ele>
        <time>2021-12-05T10:13:03.403Z</time>
      </trkpt>
      <trkpt lat="45.61174" lon="5.31146">
        <ele>322</ele>
        <time>2021-12-05T10:13:04.403Z</time>
      </trkpt>
      <trkpt lat="45.61174" lon="5.31143">
        <ele>323</ele>
        <time>2021-12-05T10:13:05.403Z</time>
      </trkpt>
      <trkpt lat="45.61174" lon="5.3114">
        <ele>322</ele>
        <time>2021-12-05T10:13:06.403Z</time>
      </trkpt>
      <trkpt lat="45.61174" lon="5.31136">
        <ele>322</ele>
        <time>2021-12-05T10:13:07.403Z</time>
      </trkpt>
      <trkpt lat="45.61174" lon="5.31133">
        <ele>322</ele>
        <time>2021-12-05T10:13:08.402Z</time>
      </trkpt>
      <trkpt lat="45.61174" lon="5.31129">
        <ele>322</ele>
        <time>2021-12-05T10:13:09.402Z</time>
      </trkpt>
      <trkpt lat="45.61174" lon="5.31126">
        <ele>322</ele>
        <time>2021-12-05T10:13:10.402Z</time>
      </trkpt>
      <trkpt lat="45.61174" lon="5.31123">
        <ele>322</ele>
        <time>2021-12-05T10:13:11.403Z</time>
      </trkpt>
      <trkpt lat="45.61174" lon="5.31119">
        <ele>321</ele>
        <time>2021-12-05T10:13:12.402Z</time>
      </trkpt>
      <trkpt lat="45.61174" lon="5.31116">
        <ele>321</ele>
        <time>2021-12-05T10:13:13.403Z</time>
      </trkpt>
      <trkpt lat="45.61174" lon="5.31112">
        <ele>321</ele>
        <time>2021-12-05T10:13:14.403Z</time>
      </trkpt>
      <trkpt lat="45.61174" lon="5.31109">
        <ele>320</ele>
        <time>2021-12-05T10:13:15.403Z</time>
      </trkpt>
      <trkpt lat="45.61174" lon="5.31105">
        <ele>320</ele>
        <time>2021-12-05T10:13:16.402Z</time>
      </trkpt>
      <trkpt lat="45.61174" lon="5.31102">
        <ele>320</ele>
        <time>2021-12-05T10:13:17.403Z</time>
      </trkpt>
      <trkpt lat="45.61174" lon="5.31098">
        <ele>320</ele>
        <time>2021-12-05T10:13:18.403Z</time>
      </trkpt>
      <trkpt lat="45.61174" lon="5.31095">
        <ele>320</ele>
        <time>2021-12-05T10:13:19.403Z</time>
      </trkpt>
      <trkpt lat="45.61174" lon="5.31092">
        <ele>320</ele>
        <time>2021-12-05T10:13:20.402Z</time>
      </trkpt>
      <trkpt lat="45.61174" lon="5.31089">
        <ele>320</ele>
        <time>2021-12-05T10:13:21.402Z</time>
      </trkpt>
      <trkpt lat="45.61174" lon="5.31086">
        <ele>320</ele>
        <time>2021-12-05T10:13:22.403Z</time>
      </trkpt>
      <trkpt lat="45.61175" lon="5.31082">
        <ele>320</ele>
        <time>2021-12-05T10:13:23.403Z</time>
      </trkpt>
      <trkpt lat="45.61175" lon="5.31079">
        <ele>320</ele>
        <time>2021-12-05T10:13:24.403Z</time>
      </trkpt>
      <trkpt lat="45.61175" lon="5.31075">
        <ele>320</ele>
        <time>2021-12-05T10:13:25.402Z</time>
      </trkpt>
      <trkpt lat="45.61175" lon="5.31072">
        <ele>320</ele>
        <time>2021-12-05T10:13:26.403Z</time>
      </trkpt>
      <trkpt lat="45.61175" lon="5.31068">
        <ele>320</ele>
        <time>2021-12-05T10:13:27.402Z</time>
      </trkpt>
      <trkpt lat="45.61175" lon="5.31065">
        <ele>320</ele>
        <time>2021-12-05T10:13:28.403Z</time>
      </trkpt>
      <trkpt lat="45.61175" lon="5.31061">
        <ele>320</ele>
        <time>2021-12-05T10:13:29.403Z</time>
      </trkpt>
      <trkpt lat="45.61175" lon="5.31058">
        <ele>320</ele>
        <time>2021-12-05T10:13:30.402Z</time>
      </trkpt>
      <trkpt lat="45.61175" lon="5.31055">
        <ele>320</ele>
        <time>2021-12-05T10:13:31.403Z</time>
      </trkpt>
      <trkpt lat="45.61175" lon="5.31052">
        <ele>319</ele>
        <time>2021-12-05T10:13:32.403Z</time>
      </trkpt>
      <trkpt lat="45.61175" lon="5.31047">
        <ele>319</ele>
        <time>2021-12-05T10:13:33.402Z</time>
      </trkpt>
      <trkpt lat="45.61175" lon="5.31045">
        <ele>318</ele>
        <time>2021-12-05T10:13:34.403Z</time>
      </trkpt>
      <trkpt lat="45.61176" lon="5.31041">
        <ele>318</ele>
        <time>2021-12-05T10:13:35.403Z</time>
      </trkpt>
      <trkpt lat="45.61176" lon="5.31038">
        <ele>318</ele>
        <time>2021-12-05T10:13:36.403Z</time>
      </trkpt>
      <trkpt lat="45.61176" lon="5.31034">
        <ele>318</ele>
        <time>2021-12-05T10:13:37.403Z</time>
      </trkpt>
      <trkpt lat="45.61176" lon="5.3103">
        <ele>318</ele>
        <time>2021-12-05T10:13:38.403Z</time>
      </trkpt>
      <trkpt lat="45.61176" lon="5.31026">
        <ele>318</ele>
        <time>2021-12-05T10:13:39.402Z</time>
      </trkpt>
      <trkpt lat="45.61175" lon="5.31023">
        <ele>318</ele>
        <time>2021-12-05T10:13:40.403Z</time>
      </trkpt>
      <trkpt lat="45.61175" lon="5.31019">
        <ele>317</ele>
        <time>2021-12-05T10:13:41.402Z</time>
      </trkpt>
      <trkpt lat="45.61174" lon="5.31016">
        <ele>317</ele>
        <time>2021-12-05T10:13:42.403Z</time>
      </trkpt>
      <trkpt lat="45.61174" lon="5.31012">
        <ele>317</ele>
        <time>2021-12-05T10:13:43.403Z</time>
      </trkpt>
      <trkpt lat="45.61174" lon="5.31008">
        <ele>317</ele>
        <time>2021-12-05T10:13:44.403Z</time>
      </trkpt>
      <trkpt lat="45.61174" lon="5.31005">
        <ele>317</ele>
        <time>2021-12-05T10:13:45.402Z</time>
      </trkpt>
      <trkpt lat="45.61174" lon="5.31001">
        <ele>317</ele>
        <time>2021-12-05T10:13:46.403Z</time>
      </trkpt>
      <trkpt lat="45.61173" lon="5.30997">
        <ele>317</ele>
        <time>2021-12-05T10:13:47.402Z</time>
      </trkpt>
      <trkpt lat="45.61173" lon="5.30994">
        <ele>317</ele>
        <time>2021-12-05T10:13:48.402Z</time>
      </trkpt>
      <trkpt lat="45.61173" lon="5.3099">
        <ele>316</ele>
        <time>2021-12-05T10:13:49.403Z</time>
      </trkpt>
      <trkpt lat="45.61173" lon="5.30987">
        <ele>316</ele>
        <time>2021-12-05T10:13:50.403Z</time>
      </trkpt>
      <trkpt lat="45.61172" lon="5.30983">
        <ele>316</ele>
        <time>2021-12-05T10:13:51.403Z</time>
      </trkpt>
      <trkpt lat="45.61172" lon="5.3098">
        <ele>316</ele>
        <time>2021-12-05T10:13:52.403Z</time>
      </trkpt>
      <trkpt lat="45.61171" lon="5.30976">
        <ele>316</ele>
        <time>2021-12-05T10:13:53.403Z</time>
      </trkpt>
      <trkpt lat="45.61171" lon="5.30973">
        <ele>316</ele>
        <time>2021-12-05T10:13:54.402Z</time>
      </trkpt>
      <trkpt lat="45.6117" lon="5.3097">
        <ele>316</ele>
        <time>2021-12-05T10:13:55.403Z</time>
      </trkpt>
      <trkpt lat="45.6117" lon="5.30966">
        <ele>317</ele>
        <time>2021-12-05T10:13:56.402Z</time>
      </trkpt>
      <trkpt lat="45.61169" lon="5.30963">
        <ele>317</ele>
        <time>2021-12-05T10:13:57.402Z</time>
      </trkpt>
      <trkpt lat="45.61168" lon="5.30959">
        <ele>317</ele>
        <time>2021-12-05T10:13:58.403Z</time>
      </trkpt>
      <trkpt lat="45.61168" lon="5.30956">
        <ele>317</ele>
        <time>2021-12-05T10:13:59.403Z</time>
      </trkpt>
      <trkpt lat="45.61167" lon="5.30953">
        <ele>317</ele>
        <time>2021-12-05T10:14:00.403Z</time>
      </trkpt>
      <trkpt lat="45.61167" lon="5.3095">
        <ele>318</ele>
        <time>2021-12-05T10:14:01.403Z</time>
      </trkpt>
      <trkpt lat="45.61166" lon="5.30947">
        <ele>318</ele>
        <time>2021-12-05T10:14:02.402Z</time>
      </trkpt>
      <trkpt lat="45.61165" lon="5.30944">
        <ele>318</ele>
        <time>2021-12-05T10:14:03.403Z</time>
      </trkpt>
      <trkpt lat="45.61164" lon="5.3094">
        <ele>318</ele>
        <time>2021-12-05T10:14:04.402Z</time>
      </trkpt>
      <trkpt lat="45.61163" lon="5.30937">
        <ele>319</ele>
        <time>2021-12-05T10:14:05.403Z</time>
      </trkpt>
      <trkpt lat="45.61162" lon="5.30934">
        <ele>319</ele>
        <time>2021-12-05T10:14:06.403Z</time>
      </trkpt>
      <trkpt lat="45.61161" lon="5.3093">
        <ele>319</ele>
        <time>2021-12-05T10:14:07.403Z</time>
      </trkpt>
      <trkpt lat="45.6116" lon="5.30927">
        <ele>319</ele>
        <time>2021-12-05T10:14:08.403Z</time>
      </trkpt>
      <trkpt lat="45.61159" lon="5.30922">
        <ele>319</ele>
        <time>2021-12-05T10:14:09.403Z</time>
      </trkpt>
      <trkpt lat="45.61158" lon="5.3092">
        <ele>319</ele>
        <time>2021-12-05T10:14:10.403Z</time>
      </trkpt>
      <trkpt lat="45.61158" lon="5.30916">
        <ele>319</ele>
        <time>2021-12-05T10:14:11.402Z</time>
      </trkpt>
      <trkpt lat="45.61157" lon="5.30912">
        <ele>319</ele>
        <time>2021-12-05T10:14:12.403Z</time>
      </trkpt>
      <trkpt lat="45.61156" lon="5.30909">
        <ele>319</ele>
        <time>2021-12-05T10:14:13.403Z</time>
      </trkpt>
      <trkpt lat="45.61156" lon="5.30905">
        <ele>320</ele>
        <time>2021-12-05T10:14:14.403Z</time>
      </trkpt>
      <trkpt lat="45.61156" lon="5.30902">
        <ele>320</ele>
        <time>2021-12-05T10:14:15.402Z</time>
      </trkpt>
      <trkpt lat="45.61156" lon="5.30898">
        <ele>320</ele>
        <time>2021-12-05T10:14:16.403Z</time>
      </trkpt>
      <trkpt lat="45.61155" lon="5.30894">
        <ele>319</ele>
        <time>2021-12-05T10:14:17.403Z</time>
      </trkpt>
      <trkpt lat="45.61156" lon="5.3089">
        <ele>319</ele>
        <time>2021-12-05T10:14:18.402Z</time>
      </trkpt>
      <trkpt lat="45.61156" lon="5.30887">
        <ele>319</ele>
        <time>2021-12-05T10:14:19.403Z</time>
      </trkpt>
      <trkpt lat="45.61156" lon="5.30883">
        <ele>319</ele>
        <time>2021-12-05T10:14:20.403Z</time>
      </trkpt>
      <trkpt lat="45.61156" lon="5.30879">
        <ele>319</ele>
        <time>2021-12-05T10:14:21.403Z</time>
      </trkpt>
      <trkpt lat="45.61157" lon="5.30876">
        <ele>318</ele>
        <time>2021-12-05T10:14:22.403Z</time>
      </trkpt>
      <trkpt lat="45.61157" lon="5.30872">
        <ele>318</ele>
        <time>2021-12-05T10:14:23.403Z</time>
      </trkpt>
      <trkpt lat="45.61157" lon="5.30869">
        <ele>318</ele>
        <time>2021-12-05T10:14:24.403Z</time>
      </trkpt>
      <trkpt lat="45.61158" lon="5.30865">
        <ele>318</ele>
        <time>2021-12-05T10:14:25.403Z</time>
      </trkpt>
      <trkpt lat="45.61158" lon="5.30862">
        <ele>319</ele>
        <time>2021-12-05T10:14:26.402Z</time>
      </trkpt>
      <trkpt lat="45.61158" lon="5.30858">
        <ele>319</ele>
        <time>2021-12-05T10:14:27.403Z</time>
      </trkpt>
      <trkpt lat="45.61159" lon="5.30854">
        <ele>320</ele>
        <time>2021-12-05T10:14:28.402Z</time>
      </trkpt>
      <trkpt lat="45.61159" lon="5.3085">
        <ele>320</ele>
        <time>2021-12-05T10:14:29.403Z</time>
      </trkpt>
      <trkpt lat="45.61159" lon="5.30846">
        <ele>320</ele>
        <time>2021-12-05T10:14:30.403Z</time>
      </trkpt>
      <trkpt lat="45.6116" lon="5.30843">
        <ele>320</ele>
        <time>2021-12-05T10:14:31.403Z</time>
      </trkpt>
      <trkpt lat="45.6116" lon="5.3084">
        <ele>320</ele>
        <time>2021-12-05T10:14:32.403Z</time>
      </trkpt>
      <trkpt lat="45.6116" lon="5.30837">
        <ele>320</ele>
        <time>2021-12-05T10:14:33.403Z</time>
      </trkpt>
      <trkpt lat="45.6116" lon="5.30834">
        <ele>320</ele>
        <time>2021-12-05T10:14:34.402Z</time>
      </trkpt>
      <trkpt lat="45.61161" lon="5.3083">
        <ele>320</ele>
        <time>2021-12-05T10:14:35.402Z</time>
      </trkpt>
      <trkpt lat="45.61161" lon="5.30827">
        <ele>320</ele>
        <time>2021-12-05T10:14:36.403Z</time>
      </trkpt>
      <trkpt lat="45.61162" lon="5.30824">
        <ele>319</ele>
        <time>2021-12-05T10:14:37.403Z</time>
      </trkpt>
      <trkpt lat="45.61162" lon="5.3082">
        <ele>319</ele>
        <time>2021-12-05T10:14:38.402Z</time>
      </trkpt>
      <trkpt lat="45.61163" lon="5.30818">
        <ele>318</ele>
        <time>2021-12-05T10:14:39.403Z</time>
      </trkpt>
      <trkpt lat="45.61164" lon="5.30815">
        <ele>317</ele>
        <time>2021-12-05T10:14:40.403Z</time>
      </trkpt>
      <trkpt lat="45.61164" lon="5.30812">
        <ele>317</ele>
        <time>2021-12-05T10:14:41.403Z</time>
      </trkpt>
      <trkpt lat="45.61165" lon="5.30808">
        <ele>317</ele>
        <time>2021-12-05T10:14:42.403Z</time>
      </trkpt>
      <trkpt lat="45.61165" lon="5.30804">
        <ele>316</ele>
        <time>2021-12-05T10:14:43.403Z</time>
      </trkpt>
      <trkpt lat="45.61166" lon="5.30801">
        <ele>317</ele>
        <time>2021-12-05T10:14:44.403Z</time>
      </trkpt>
      <trkpt lat="45.61166" lon="5.30797">
        <ele>316</ele>
        <time>2021-12-05T10:14:45.403Z</time>
      </trkpt>
      <trkpt lat="45.61166" lon="5.30793">
        <ele>316</ele>
        <time>2021-12-05T10:14:46.403Z</time>
      </trkpt>
      <trkpt lat="45.61167" lon="5.3079">
        <ele>316</ele>
        <time>2021-12-05T10:14:47.403Z</time>
      </trkpt>
      <trkpt lat="45.61167" lon="5.30787">
        <ele>316</ele>
        <time>2021-12-05T10:14:48.403Z</time>
      </trkpt>
      <trkpt lat="45.61168" lon="5.30783">
        <ele>315</ele>
        <time>2021-12-05T10:14:49.403Z</time>
      </trkpt>
      <trkpt lat="45.61168" lon="5.30779">
        <ele>315</ele>
        <time>2021-12-05T10:14:50.402Z</time>
      </trkpt>
      <trkpt lat="45.61169" lon="5.30776">
        <ele>315</ele>
        <time>2021-12-05T10:14:51.402Z</time>
      </trkpt>
      <trkpt lat="45.61169" lon="5.30773">
        <ele>316</ele>
        <time>2021-12-05T10:14:52.402Z</time>
      </trkpt>
      <trkpt lat="45.6117" lon="5.30769">
        <ele>316</ele>
        <time>2021-12-05T10:14:53.402Z</time>
      </trkpt>
      <trkpt lat="45.6117" lon="5.30766">
        <ele>316</ele>
        <time>2021-12-05T10:14:54.402Z</time>
      </trkpt>
      <trkpt lat="45.61171" lon="5.30763">
        <ele>316</ele>
        <time>2021-12-05T10:14:55.403Z</time>
      </trkpt>
      <trkpt lat="45.61171" lon="5.30759">
        <ele>316</ele>
        <time>2021-12-05T10:14:56.402Z</time>
      </trkpt>
      <trkpt lat="45.61171" lon="5.30755">
        <ele>316</ele>
        <time>2021-12-05T10:14:57.403Z</time>
      </trkpt>
      <trkpt lat="45.61172" lon="5.30752">
        <ele>315</ele>
        <time>2021-12-05T10:14:58.403Z</time>
      </trkpt>
      <trkpt lat="45.61172" lon="5.30748">
        <ele>315</ele>
        <time>2021-12-05T10:14:59.402Z</time>
      </trkpt>
      <trkpt lat="45.61172" lon="5.30745">
        <ele>315</ele>
        <time>2021-12-05T10:15:00.403Z</time>
      </trkpt>
      <trkpt lat="45.61173" lon="5.30741">
        <ele>314</ele>
        <time>2021-12-05T10:15:01.403Z</time>
      </trkpt>
      <trkpt lat="45.61173" lon="5.30737">
        <ele>314</ele>
        <time>2021-12-05T10:15:02.402Z</time>
      </trkpt>
      <trkpt lat="45.61173" lon="5.30734">
        <ele>314</ele>
        <time>2021-12-05T10:15:03.403Z</time>
      </trkpt>
      <trkpt lat="45.61174" lon="5.30731">
        <ele>313</ele>
        <time>2021-12-05T10:15:04.403Z</time>
      </trkpt>
      <trkpt lat="45.61174" lon="5.30727">
        <ele>313</ele>
        <time>2021-12-05T10:15:05.403Z</time>
      </trkpt>
      <trkpt lat="45.61174" lon="5.30724">
        <ele>313</ele>
        <time>2021-12-05T10:15:06.403Z</time>
      </trkpt>
      <trkpt lat="45.61174" lon="5.30721">
        <ele>313</ele>
        <time>2021-12-05T10:15:07.403Z</time>
      </trkpt>
      <trkpt lat="45.61174" lon="5.30718">
        <ele>312</ele>
        <time>2021-12-05T10:15:08.402Z</time>
      </trkpt>
      <trkpt lat="45.61175" lon="5.30714">
        <ele>311</ele>
        <time>2021-12-05T10:15:09.403Z</time>
      </trkpt>
      <trkpt lat="45.61175" lon="5.30711">
        <ele>311</ele>
        <time>2021-12-05T10:15:10.403Z</time>
      </trkpt>
      <trkpt lat="45.61175" lon="5.30707">
        <ele>311</ele>
        <time>2021-12-05T10:15:11.403Z</time>
      </trkpt>
      <trkpt lat="45.61175" lon="5.30704">
        <ele>310</ele>
        <time>2021-12-05T10:15:12.402Z</time>
      </trkpt>
      <trkpt lat="45.61176" lon="5.307">
        <ele>310</ele>
        <time>2021-12-05T10:15:13.403Z</time>
      </trkpt>
      <trkpt lat="45.61176" lon="5.30697">
        <ele>310</ele>
        <time>2021-12-05T10:15:14.403Z</time>
      </trkpt>
      <trkpt lat="45.61176" lon="5.30693">
        <ele>309</ele>
        <time>2021-12-05T10:15:15.403Z</time>
      </trkpt>
      <trkpt lat="45.61176" lon="5.3069">
        <ele>309</ele>
        <time>2021-12-05T10:15:16.402Z</time>
      </trkpt>
      <trkpt lat="45.61177" lon="5.30687">
        <ele>308</ele>
        <time>2021-12-05T10:15:17.403Z</time>
      </trkpt>
      <trkpt lat="45.61177" lon="5.30683">
        <ele>308</ele>
        <time>2021-12-05T10:15:18.402Z</time>
      </trkpt>
      <trkpt lat="45.61177" lon="5.3068">
        <ele>308</ele>
        <time>2021-12-05T10:15:19.403Z</time>
      </trkpt>
      <trkpt lat="45.61177" lon="5.30676">
        <ele>308</ele>
        <time>2021-12-05T10:15:20.403Z</time>
      </trkpt>
      <trkpt lat="45.61178" lon="5.30672">
        <ele>308</ele>
        <time>2021-12-05T10:15:21.403Z</time>
      </trkpt>
      <trkpt lat="45.61178" lon="5.30669">
        <ele>308</ele>
        <time>2021-12-05T10:15:22.403Z</time>
      </trkpt>
      <trkpt lat="45.61179" lon="5.30666">
        <ele>308</ele>
        <time>2021-12-05T10:15:23.403Z</time>
      </trkpt>
      <trkpt lat="45.61179" lon="5.30662">
        <ele>307</ele>
        <time>2021-12-05T10:15:24.402Z</time>
      </trkpt>
      <trkpt lat="45.61179" lon="5.30659">
        <ele>307</ele>
        <time>2021-12-05T10:15:25.403Z</time>
      </trkpt>
      <trkpt lat="45.61179" lon="5.30656">
        <ele>307</ele>
        <time>2021-12-05T10:15:26.403Z</time>
      </trkpt>
      <trkpt lat="45.61179" lon="5.30652">
        <ele>306</ele>
        <time>2021-12-05T10:15:27.403Z</time>
      </trkpt>
      <trkpt lat="45.61179" lon="5.30649">
        <ele>306</ele>
        <time>2021-12-05T10:15:28.402Z</time>
      </trkpt>
      <trkpt lat="45.61179" lon="5.30645">
        <ele>307</ele>
        <time>2021-12-05T10:15:29.403Z</time>
      </trkpt>
      <trkpt lat="45.61179" lon="5.30642">
        <ele>307</ele>
        <time>2021-12-05T10:15:30.403Z</time>
      </trkpt>
      <trkpt lat="45.61179" lon="5.30639">
        <ele>307</ele>
        <time>2021-12-05T10:15:31.403Z</time>
      </trkpt>
      <trkpt lat="45.61179" lon="5.30635">
        <ele>307</ele>
        <time>2021-12-05T10:15:32.403Z</time>
      </trkpt>
      <trkpt lat="45.61179" lon="5.30632">
        <ele>307</ele>
        <time>2021-12-05T10:15:33.403Z</time>
      </trkpt>
      <trkpt lat="45.61179" lon="5.30628">
        <ele>307</ele>
        <time>2021-12-05T10:15:34.402Z</time>
      </trkpt>
      <trkpt lat="45.61179" lon="5.30625">
        <ele>308</ele>
        <time>2021-12-05T10:15:35.403Z</time>
      </trkpt>
      <trkpt lat="45.61179" lon="5.30622">
        <ele>308</ele>
        <time>2021-12-05T10:15:36.403Z</time>
      </trkpt>
      <trkpt lat="45.61178" lon="5.30618">
        <ele>308</ele>
        <time>2021-12-05T10:15:37.403Z</time>
      </trkpt>
      <trkpt lat="45.61178" lon="5.30614">
        <ele>308</ele>
        <time>2021-12-05T10:15:38.403Z</time>
      </trkpt>
      <trkpt lat="45.61178" lon="5.3061">
        <ele>308</ele>
        <time>2021-12-05T10:15:39.403Z</time>
      </trkpt>
      <trkpt lat="45.61177" lon="5.30607">
        <ele>308</ele>
        <time>2021-12-05T10:15:40.403Z</time>
      </trkpt>
      <trkpt lat="45.61177" lon="5.30603">
        <ele>309</ele>
        <time>2021-12-05T10:15:41.403Z</time>
      </trkpt>
      <trkpt lat="45.61176" lon="5.30599">
        <ele>309</ele>
        <time>2021-12-05T10:15:42.403Z</time>
      </trkpt>
      <trkpt lat="45.61176" lon="5.30595">
        <ele>308</ele>
        <time>2021-12-05T10:15:43.402Z</time>
      </trkpt>
      <trkpt lat="45.61176" lon="5.30592">
        <ele>308</ele>
        <time>2021-12-05T10:15:44.403Z</time>
      </trkpt>
      <trkpt lat="45.61176" lon="5.30589">
        <ele>307</ele>
        <time>2021-12-05T10:15:45.402Z</time>
      </trkpt>
      <trkpt lat="45.61175" lon="5.30585">
        <ele>307</ele>
        <time>2021-12-05T10:15:46.403Z</time>
      </trkpt>
      <trkpt lat="45.61175" lon="5.30582">
        <ele>306</ele>
        <time>2021-12-05T10:15:47.403Z</time>
      </trkpt>
      <trkpt lat="45.61175" lon="5.30578">
        <ele>306</ele>
        <time>2021-12-05T10:15:48.403Z</time>
      </trkpt>
      <trkpt lat="45.61175" lon="5.30574">
        <ele>306</ele>
        <time>2021-12-05T10:15:49.403Z</time>
      </trkpt>
      <trkpt lat="45.61175" lon="5.30571">
        <ele>306</ele>
        <time>2021-12-05T10:15:50.402Z</time>
      </trkpt>
      <trkpt lat="45.61175" lon="5.30568">
        <ele>306</ele>
        <time>2021-12-05T10:15:51.402Z</time>
      </trkpt>
      <trkpt lat="45.61175" lon="5.30564">
        <ele>307</ele>
        <time>2021-12-05T10:15:52.403Z</time>
      </trkpt>
      <trkpt lat="45.61175" lon="5.30561">
        <ele>307</ele>
        <time>2021-12-05T10:15:53.403Z</time>
      </trkpt>
      <trkpt lat="45.61176" lon="5.30557">
        <ele>307</ele>
        <time>2021-12-05T10:15:54.403Z</time>
      </trkpt>
      <trkpt lat="45.61176" lon="5.30554">
        <ele>307</ele>
        <time>2021-12-05T10:15:55.402Z</time>
      </trkpt>
      <trkpt lat="45.61177" lon="5.3055">
        <ele>307</ele>
        <time>2021-12-05T10:15:56.403Z</time>
      </trkpt>
      <trkpt lat="45.61177" lon="5.30547">
        <ele>307</ele>
        <time>2021-12-05T10:15:57.403Z</time>
      </trkpt>
      <trkpt lat="45.61178" lon="5.30543">
        <ele>307</ele>
        <time>2021-12-05T10:15:58.402Z</time>
      </trkpt>
      <trkpt lat="45.61178" lon="5.30539">
        <ele>307</ele>
        <time>2021-12-05T10:15:59.403Z</time>
      </trkpt>
      <trkpt lat="45.61179" lon="5.30536">
        <ele>307</ele>
        <time>2021-12-05T10:16:00.403Z</time>
      </trkpt>
      <trkpt lat="45.6118" lon="5.30532">
        <ele>307</ele>
        <time>2021-12-05T10:16:01.403Z</time>
      </trkpt>
      <trkpt lat="45.6118" lon="5.30529">
        <ele>307</ele>
        <time>2021-12-05T10:16:02.403Z</time>
      </trkpt>
      <trkpt lat="45.61181" lon="5.30525">
        <ele>307</ele>
        <time>2021-12-05T10:16:03.403Z</time>
      </trkpt>
      <trkpt lat="45.61182" lon="5.30521">
        <ele>307</ele>
        <time>2021-12-05T10:16:04.403Z</time>
      </trkpt>
      <trkpt lat="45.61182" lon="5.30518">
        <ele>307</ele>
        <time>2021-12-05T10:16:05.402Z</time>
      </trkpt>
      <trkpt lat="45.61183" lon="5.30515">
        <ele>306</ele>
        <time>2021-12-05T10:16:06.403Z</time>
      </trkpt>
      <trkpt lat="45.61184" lon="5.30512">
        <ele>306</ele>
        <time>2021-12-05T10:16:07.403Z</time>
      </trkpt>
      <trkpt lat="45.61184" lon="5.30508">
        <ele>306</ele>
        <time>2021-12-05T10:16:08.403Z</time>
      </trkpt>
      <trkpt lat="45.61185" lon="5.30505">
        <ele>305</ele>
        <time>2021-12-05T10:16:09.403Z</time>
      </trkpt>
      <trkpt lat="45.61186" lon="5.30502">
        <ele>305</ele>
        <time>2021-12-05T10:16:10.403Z</time>
      </trkpt>
      <trkpt lat="45.61186" lon="5.30498">
        <ele>305</ele>
        <time>2021-12-05T10:16:11.403Z</time>
      </trkpt>
      <trkpt lat="45.61187" lon="5.30495">
        <ele>305</ele>
        <time>2021-12-05T10:16:12.403Z</time>
      </trkpt>
      <trkpt lat="45.61188" lon="5.30492">
        <ele>306</ele>
        <time>2021-12-05T10:16:13.403Z</time>
      </trkpt>
      <trkpt lat="45.61188" lon="5.30489">
        <ele>306</ele>
        <time>2021-12-05T10:16:14.403Z</time>
      </trkpt>
      <trkpt lat="45.61189" lon="5.30486">
        <ele>306</ele>
        <time>2021-12-05T10:16:15.403Z</time>
      </trkpt>
      <trkpt lat="45.6119" lon="5.30483">
        <ele>306</ele>
        <time>2021-12-05T10:16:16.403Z</time>
      </trkpt>
      <trkpt lat="45.6119" lon="5.3048">
        <ele>306</ele>
        <time>2021-12-05T10:16:17.403Z</time>
      </trkpt>
      <trkpt lat="45.61191" lon="5.30477">
        <ele>306</ele>
        <time>2021-12-05T10:16:18.403Z</time>
      </trkpt>
      <trkpt lat="45.61191" lon="5.30474">
        <ele>306</ele>
        <time>2021-12-05T10:16:19.402Z</time>
      </trkpt>
      <trkpt lat="45.61192" lon="5.30471">
        <ele>306</ele>
        <time>2021-12-05T10:16:20.402Z</time>
      </trkpt>
      <trkpt lat="45.61192" lon="5.30468">
        <ele>305</ele>
        <time>2021-12-05T10:16:21.403Z</time>
      </trkpt>
      <trkpt lat="45.61193" lon="5.30466">
        <ele>305</ele>
        <time>2021-12-05T10:16:22.402Z</time>
      </trkpt>
      <trkpt lat="45.61193" lon="5.30463">
        <ele>305</ele>
        <time>2021-12-05T10:16:23.403Z</time>
      </trkpt>
      <trkpt lat="45.61194" lon="5.3046">
        <ele>306</ele>
        <time>2021-12-05T10:16:24.402Z</time>
      </trkpt>
      <trkpt lat="45.61194" lon="5.30457">
        <ele>306</ele>
        <time>2021-12-05T10:16:25.403Z</time>
      </trkpt>
      <trkpt lat="45.61195" lon="5.30454">
        <ele>306</ele>
        <time>2021-12-05T10:16:26.402Z</time>
      </trkpt>
      <trkpt lat="45.61195" lon="5.30451">
        <ele>306</ele>
        <time>2021-12-05T10:16:27.403Z</time>
      </trkpt>
      <trkpt lat="45.61196" lon="5.30448">
        <ele>306</ele>
        <time>2021-12-05T10:16:28.402Z</time>
      </trkpt>
      <trkpt lat="45.61197" lon="5.30444">
        <ele>306</ele>
        <time>2021-12-05T10:16:29.403Z</time>
      </trkpt>
      <trkpt lat="45.61197" lon="5.30441">
        <ele>306</ele>
        <time>2021-12-05T10:16:30.402Z</time>
      </trkpt>
      <trkpt lat="45.61198" lon="5.30438">
        <ele>306</ele>
        <time>2021-12-05T10:16:31.402Z</time>
      </trkpt>
      <trkpt lat="45.61198" lon="5.30435">
        <ele>306</ele>
        <time>2021-12-05T10:16:32.403Z</time>
      </trkpt>
      <trkpt lat="45.61199" lon="5.30431">
        <ele>306</ele>
        <time>2021-12-05T10:16:33.403Z</time>
      </trkpt>
      <trkpt lat="45.612" lon="5.30428">
        <ele>306</ele>
        <time>2021-12-05T10:16:34.402Z</time>
      </trkpt>
      <trkpt lat="45.612" lon="5.30425">
        <ele>306</ele>
        <time>2021-12-05T10:16:35.403Z</time>
      </trkpt>
      <trkpt lat="45.61201" lon="5.30422">
        <ele>306</ele>
        <time>2021-12-05T10:16:36.403Z</time>
      </trkpt>
      <trkpt lat="45.61201" lon="5.30418">
        <ele>306</ele>
        <time>2021-12-05T10:16:37.403Z</time>
      </trkpt>
      <trkpt lat="45.61201" lon="5.30415">
        <ele>306</ele>
        <time>2021-12-05T10:16:38.403Z</time>
      </trkpt>
      <trkpt lat="45.61202" lon="5.30411">
        <ele>306</ele>
        <time>2021-12-05T10:16:39.403Z</time>
      </trkpt>
      <trkpt lat="45.61202" lon="5.30408">
        <ele>306</ele>
        <time>2021-12-05T10:16:40.403Z</time>
      </trkpt>
      <trkpt lat="45.61203" lon="5.30404">
        <ele>306</ele>
        <time>2021-12-05T10:16:41.403Z</time>
      </trkpt>
      <trkpt lat="45.61203" lon="5.304">
        <ele>307</ele>
        <time>2021-12-05T10:16:42.403Z</time>
      </trkpt>
      <trkpt lat="45.61203" lon="5.30396">
        <ele>307</ele>
        <time>2021-12-05T10:16:43.402Z</time>
      </trkpt>
      <trkpt lat="45.61204" lon="5.30392">
        <ele>307</ele>
        <time>2021-12-05T10:16:44.402Z</time>
      </trkpt>
      <trkpt lat="45.61205" lon="5.30389">
        <ele>308</ele>
        <time>2021-12-05T10:16:45.403Z</time>
      </trkpt>
      <trkpt lat="45.61205" lon="5.30385">
        <ele>309</ele>
        <time>2021-12-05T10:16:46.403Z</time>
      </trkpt>
      <trkpt lat="45.61206" lon="5.30381">
        <ele>309</ele>
        <time>2021-12-05T10:16:47.403Z</time>
      </trkpt>
      <trkpt lat="45.61207" lon="5.30378">
        <ele>309</ele>
        <time>2021-12-05T10:16:48.403Z</time>
      </trkpt>
      <trkpt lat="45.61207" lon="5.30375">
        <ele>309</ele>
        <time>2021-12-05T10:16:49.403Z</time>
      </trkpt>
      <trkpt lat="45.61208" lon="5.30371">
        <ele>309</ele>
        <time>2021-12-05T10:16:50.403Z</time>
      </trkpt>
      <trkpt lat="45.61209" lon="5.30368">
        <ele>309</ele>
        <time>2021-12-05T10:16:51.403Z</time>
      </trkpt>
      <trkpt lat="45.6121" lon="5.30364">
        <ele>309</ele>
        <time>2021-12-05T10:16:52.403Z</time>
      </trkpt>
      <trkpt lat="45.61211" lon="5.30361">
        <ele>309</ele>
        <time>2021-12-05T10:16:53.403Z</time>
      </trkpt>
      <trkpt lat="45.61212" lon="5.30358">
        <ele>309</ele>
        <time>2021-12-05T10:16:54.403Z</time>
      </trkpt>
      <trkpt lat="45.61213" lon="5.30355">
        <ele>308</ele>
        <time>2021-12-05T10:16:55.403Z</time>
      </trkpt>
      <trkpt lat="45.61214" lon="5.30352">
        <ele>308</ele>
        <time>2021-12-05T10:16:56.403Z</time>
      </trkpt>
      <trkpt lat="45.61214" lon="5.30348">
        <ele>307</ele>
        <time>2021-12-05T10:16:57.402Z</time>
      </trkpt>
      <trkpt lat="45.61215" lon="5.30345">
        <ele>307</ele>
        <time>2021-12-05T10:16:58.402Z</time>
      </trkpt>
      <trkpt lat="45.61216" lon="5.30341">
        <ele>307</ele>
        <time>2021-12-05T10:16:59.403Z</time>
      </trkpt>
      <trkpt lat="45.61217" lon="5.30338">
        <ele>306</ele>
        <time>2021-12-05T10:17:00.403Z</time>
      </trkpt>
      <trkpt lat="45.61218" lon="5.30334">
        <ele>306</ele>
        <time>2021-12-05T10:17:01.402Z</time>
      </trkpt>
      <trkpt lat="45.61219" lon="5.30331">
        <ele>307</ele>
        <time>2021-12-05T10:17:02.403Z</time>
      </trkpt>
      <trkpt lat="45.6122" lon="5.30328">
        <ele>307</ele>
        <time>2021-12-05T10:17:03.403Z</time>
      </trkpt>
      <trkpt lat="45.61222" lon="5.30325">
        <ele>307</ele>
        <time>2021-12-05T10:17:04.402Z</time>
      </trkpt>
      <trkpt lat="45.61223" lon="5.30321">
        <ele>306</ele>
        <time>2021-12-05T10:17:05.403Z</time>
      </trkpt>
      <trkpt lat="45.61224" lon="5.30318">
        <ele>306</ele>
        <time>2021-12-05T10:17:06.403Z</time>
      </trkpt>
      <trkpt lat="45.61225" lon="5.30315">
        <ele>306</ele>
        <time>2021-12-05T10:17:07.403Z</time>
      </trkpt>
      <trkpt lat="45.61226" lon="5.30312">
        <ele>305</ele>
        <time>2021-12-05T10:17:08.403Z</time>
      </trkpt>
      <trkpt lat="45.61228" lon="5.3031">
        <ele>305</ele>
        <time>2021-12-05T10:17:09.402Z</time>
      </trkpt>
      <trkpt lat="45.61229" lon="5.30307">
        <ele>304</ele>
        <time>2021-12-05T10:17:10.403Z</time>
      </trkpt>
      <trkpt lat="45.6123" lon="5.30304">
        <ele>304</ele>
        <time>2021-12-05T10:17:11.402Z</time>
      </trkpt>
      <trkpt lat="45.61231" lon="5.30301">
        <ele>303</ele>
        <time>2021-12-05T10:17:12.403Z</time>
      </trkpt>
      <trkpt lat="45.61232" lon="5.30298">
        <ele>303</ele>
        <time>2021-12-05T10:17:13.402Z</time>
      </trkpt>
      <trkpt lat="45.61233" lon="5.30295">
        <ele>303</ele>
        <time>2021-12-05T10:17:14.402Z</time>
      </trkpt>
      <trkpt lat="45.61234" lon="5.30291">
        <ele>303</ele>
        <time>2021-12-05T10:17:15.403Z</time>
      </trkpt>
      <trkpt lat="45.61235" lon="5.30288">
        <ele>304</ele>
        <time>2021-12-05T10:17:16.403Z</time>
      </trkpt>
      <trkpt lat="45.61236" lon="5.30285">
        <ele>304</ele>
        <time>2021-12-05T10:17:17.403Z</time>
      </trkpt>
      <trkpt lat="45.61237" lon="5.30282">
        <ele>304</ele>
        <time>2021-12-05T10:17:18.403Z</time>
      </trkpt>
      <trkpt lat="45.61238" lon="5.30279">
        <ele>304</ele>
        <time>2021-12-05T10:17:19.402Z</time>
      </trkpt>
      <trkpt lat="45.61239" lon="5.30276">
        <ele>304</ele>
        <time>2021-12-05T10:17:20.403Z</time>
      </trkpt>
      <trkpt lat="45.61241" lon="5.30273">
        <ele>304</ele>
        <time>2021-12-05T10:17:21.402Z</time>
      </trkpt>
      <trkpt lat="45.61242" lon="5.3027">
        <ele>304</ele>
        <time>2021-12-05T10:17:22.402Z</time>
      </trkpt>
      <trkpt lat="45.61243" lon="5.30267">
        <ele>304</ele>
        <time>2021-12-05T10:17:23.403Z</time>
      </trkpt>
      <trkpt lat="45.61244" lon="5.30263">
        <ele>304</ele>
        <time>2021-12-05T10:17:24.403Z</time>
      </trkpt>
      <trkpt lat="45.61245" lon="5.30261">
        <ele>305</ele>
        <time>2021-12-05T10:17:25.403Z</time>
      </trkpt>
      <trkpt lat="45.61246" lon="5.30258">
        <ele>305</ele>
        <time>2021-12-05T10:17:26.403Z</time>
      </trkpt>
      <trkpt lat="45.61247" lon="5.30255">
        <ele>306</ele>
        <time>2021-12-05T10:17:27.403Z</time>
      </trkpt>
      <trkpt lat="45.61248" lon="5.30252">
        <ele>306</ele>
        <time>2021-12-05T10:17:28.403Z</time>
      </trkpt>
      <trkpt lat="45.61249" lon="5.30249">
        <ele>306</ele>
        <time>2021-12-05T10:17:29.402Z</time>
      </trkpt>
      <trkpt lat="45.6125" lon="5.30246">
        <ele>306</ele>
        <time>2021-12-05T10:17:30.403Z</time>
      </trkpt>
      <trkpt lat="45.61251" lon="5.30244">
        <ele>305</ele>
        <time>2021-12-05T10:17:31.403Z</time>
      </trkpt>
      <trkpt lat="45.61252" lon="5.30241">
        <ele>305</ele>
        <time>2021-12-05T10:17:32.403Z</time>
      </trkpt>
      <trkpt lat="45.61253" lon="5.30238">
        <ele>305</ele>
        <time>2021-12-05T10:17:33.402Z</time>
      </trkpt>
      <trkpt lat="45.61255" lon="5.30235">
        <ele>305</ele>
        <time>2021-12-05T10:17:34.402Z</time>
      </trkpt>
      <trkpt lat="45.61256" lon="5.30232">
        <ele>305</ele>
        <time>2021-12-05T10:17:35.403Z</time>
      </trkpt>
      <trkpt lat="45.61257" lon="5.30228">
        <ele>305</ele>
        <time>2021-12-05T10:17:36.402Z</time>
      </trkpt>
      <trkpt lat="45.61258" lon="5.30225">
        <ele>305</ele>
        <time>2021-12-05T10:17:37.403Z</time>
      </trkpt>
      <trkpt lat="45.61259" lon="5.30222">
        <ele>306</ele>
        <time>2021-12-05T10:17:38.403Z</time>
      </trkpt>
      <trkpt lat="45.6126" lon="5.30219">
        <ele>306</ele>
        <time>2021-12-05T10:17:39.403Z</time>
      </trkpt>
      <trkpt lat="45.61261" lon="5.30216">
        <ele>307</ele>
        <time>2021-12-05T10:17:40.403Z</time>
      </trkpt>
      <trkpt lat="45.61262" lon="5.30214">
        <ele>307</ele>
        <time>2021-12-05T10:17:41.403Z</time>
      </trkpt>
      <trkpt lat="45.61263" lon="5.30212">
        <ele>307</ele>
        <time>2021-12-05T10:17:42.403Z</time>
      </trkpt>
      <trkpt lat="45.61265" lon="5.3021">
        <ele>307</ele>
        <time>2021-12-05T10:17:43.403Z</time>
      </trkpt>
      <trkpt lat="45.61266" lon="5.30208">
        <ele>307</ele>
        <time>2021-12-05T10:17:44.403Z</time>
      </trkpt>
      <trkpt lat="45.61268" lon="5.30206">
        <ele>307</ele>
        <time>2021-12-05T10:17:45.403Z</time>
      </trkpt>
      <trkpt lat="45.61269" lon="5.30204">
        <ele>306</ele>
        <time>2021-12-05T10:17:46.403Z</time>
      </trkpt>
      <trkpt lat="45.61271" lon="5.30202">
        <ele>306</ele>
        <time>2021-12-05T10:17:47.403Z</time>
      </trkpt>
      <trkpt lat="45.61272" lon="5.302">
        <ele>306</ele>
        <time>2021-12-05T10:17:48.403Z</time>
      </trkpt>
      <trkpt lat="45.61273" lon="5.30197">
        <ele>305</ele>
        <time>2021-12-05T10:17:49.403Z</time>
      </trkpt>
      <trkpt lat="45.61274" lon="5.30194">
        <ele>305</ele>
        <time>2021-12-05T10:17:50.403Z</time>
      </trkpt>
      <trkpt lat="45.61275" lon="5.3019">
        <ele>305</ele>
        <time>2021-12-05T10:17:51.403Z</time>
      </trkpt>
      <trkpt lat="45.61275" lon="5.30187">
        <ele>305</ele>
        <time>2021-12-05T10:17:52.402Z</time>
      </trkpt>
      <trkpt lat="45.61276" lon="5.30184">
        <ele>305</ele>
        <time>2021-12-05T10:17:53.403Z</time>
      </trkpt>
      <trkpt lat="45.61276" lon="5.3018">
        <ele>305</ele>
        <time>2021-12-05T10:17:54.403Z</time>
      </trkpt>
      <trkpt lat="45.61276" lon="5.30175">
        <ele>305</ele>
        <time>2021-12-05T10:17:55.403Z</time>
      </trkpt>
      <trkpt lat="45.61277" lon="5.30171">
        <ele>304</ele>
        <time>2021-12-05T10:17:56.402Z</time>
      </trkpt>
      <trkpt lat="45.61278" lon="5.30166">
        <ele>304</ele>
        <time>2021-12-05T10:17:57.403Z</time>
      </trkpt>
      <trkpt lat="45.61278" lon="5.30163">
        <ele>304</ele>
        <time>2021-12-05T10:17:58.403Z</time>
      </trkpt>
      <trkpt lat="45.61279" lon="5.30159">
        <ele>304</ele>
        <time>2021-12-05T10:17:59.402Z</time>
      </trkpt>
      <trkpt lat="45.61279" lon="5.30156">
        <ele>304</ele>
        <time>2021-12-05T10:18:00.402Z</time>
      </trkpt>
      <trkpt lat="45.6128" lon="5.30152">
        <ele>303</ele>
        <time>2021-12-05T10:18:01.403Z</time>
      </trkpt>
      <trkpt lat="45.61281" lon="5.30149">
        <ele>303</ele>
        <time>2021-12-05T10:18:02.402Z</time>
      </trkpt>
      <trkpt lat="45.61281" lon="5.30146">
        <ele>303</ele>
        <time>2021-12-05T10:18:03.403Z</time>
      </trkpt>
      <trkpt lat="45.61281" lon="5.30144">
        <ele>304</ele>
        <time>2021-12-05T10:18:04.402Z</time>
      </trkpt>
      <trkpt lat="45.61282" lon="5.30141">
        <ele>304</ele>
        <time>2021-12-05T10:18:05.403Z</time>
      </trkpt>
      <trkpt lat="45.61282" lon="5.30138">
        <ele>304</ele>
        <time>2021-12-05T10:18:06.403Z</time>
      </trkpt>
      <trkpt lat="45.61283" lon="5.30134">
        <ele>304</ele>
        <time>2021-12-05T10:18:07.402Z</time>
      </trkpt>
      <trkpt lat="45.61283" lon="5.30131">
        <ele>304</ele>
        <time>2021-12-05T10:18:08.403Z</time>
      </trkpt>
      <trkpt lat="45.61283" lon="5.30128">
        <ele>305</ele>
        <time>2021-12-05T10:18:09.402Z</time>
      </trkpt>
      <trkpt lat="45.61283" lon="5.30125">
        <ele>305</ele>
        <time>2021-12-05T10:18:10.403Z</time>
      </trkpt>
      <trkpt lat="45.61283" lon="5.30122">
        <ele>305</ele>
        <time>2021-12-05T10:18:11.402Z</time>
      </trkpt>
      <trkpt lat="45.61283" lon="5.30119">
        <ele>305</ele>
        <time>2021-12-05T10:18:12.403Z</time>
      </trkpt>
      <trkpt lat="45.61283" lon="5.30116">
        <ele>304</ele>
        <time>2021-12-05T10:18:13.402Z</time>
      </trkpt>
      <trkpt lat="45.61283" lon="5.30113">
        <ele>304</ele>
        <time>2021-12-05T10:18:14.403Z</time>
      </trkpt>
      <trkpt lat="45.61284" lon="5.30111">
        <ele>304</ele>
        <time>2021-12-05T10:18:15.403Z</time>
      </trkpt>
      <trkpt lat="45.61284" lon="5.30108">
        <ele>304</ele>
        <time>2021-12-05T10:18:16.403Z</time>
      </trkpt>
      <trkpt lat="45.61285" lon="5.30105">
        <ele>304</ele>
        <time>2021-12-05T10:18:17.403Z</time>
      </trkpt>
      <trkpt lat="45.61285" lon="5.30101">
        <ele>304</ele>
        <time>2021-12-05T10:18:18.403Z</time>
      </trkpt>
      <trkpt lat="45.61286" lon="5.30098">
        <ele>304</ele>
        <time>2021-12-05T10:18:19.403Z</time>
      </trkpt>
      <trkpt lat="45.61286" lon="5.30095">
        <ele>304</ele>
        <time>2021-12-05T10:18:20.402Z</time>
      </trkpt>
      <trkpt lat="45.61287" lon="5.30092">
        <ele>303</ele>
        <time>2021-12-05T10:18:21.403Z</time>
      </trkpt>
      <trkpt lat="45.61287" lon="5.30088">
        <ele>303</ele>
        <time>2021-12-05T10:18:22.403Z</time>
      </trkpt>
      <trkpt lat="45.61288" lon="5.30085">
        <ele>303</ele>
        <time>2021-12-05T10:18:23.403Z</time>
      </trkpt>
      <trkpt lat="45.61289" lon="5.30082">
        <ele>303</ele>
        <time>2021-12-05T10:18:24.402Z</time>
      </trkpt>
      <trkpt lat="45.61289" lon="5.30078">
        <ele>303</ele>
        <time>2021-12-05T10:18:25.402Z</time>
      </trkpt>
      <trkpt lat="45.6129" lon="5.30074">
        <ele>303</ele>
        <time>2021-12-05T10:18:26.403Z</time>
      </trkpt>
      <trkpt lat="45.61291" lon="5.30071">
        <ele>303</ele>
        <time>2021-12-05T10:18:27.402Z</time>
      </trkpt>
      <trkpt lat="45.61291" lon="5.30068">
        <ele>303</ele>
        <time>2021-12-05T10:18:28.402Z</time>
      </trkpt>
      <trkpt lat="45.61292" lon="5.30065">
        <ele>303</ele>
        <time>2021-12-05T10:18:29.403Z</time>
      </trkpt>
      <trkpt lat="45.61293" lon="5.30062">
        <ele>302</ele>
        <time>2021-12-05T10:18:30.403Z</time>
      </trkpt>
      <trkpt lat="45.61293" lon="5.30059">
        <ele>302</ele>
        <time>2021-12-05T10:18:31.402Z</time>
      </trkpt>
      <trkpt lat="45.61294" lon="5.30055">
        <ele>302</ele>
        <time>2021-12-05T10:18:32.403Z</time>
      </trkpt>
      <trkpt lat="45.61295" lon="5.30052">
        <ele>302</ele>
        <time>2021-12-05T10:18:33.402Z</time>
      </trkpt>
      <trkpt lat="45.61295" lon="5.30049">
        <ele>302</ele>
        <time>2021-12-05T10:18:34.402Z</time>
      </trkpt>
      <trkpt lat="45.61296" lon="5.30046">
        <ele>301</ele>
        <time>2021-12-05T10:18:35.402Z</time>
      </trkpt>
      <trkpt lat="45.61297" lon="5.30043">
        <ele>301</ele>
        <time>2021-12-05T10:18:36.402Z</time>
      </trkpt>
      <trkpt lat="45.61298" lon="5.3004">
        <ele>300</ele>
        <time>2021-12-05T10:18:37.402Z</time>
      </trkpt>
      <trkpt lat="45.61299" lon="5.30037">
        <ele>300</ele>
        <time>2021-12-05T10:18:38.403Z</time>
      </trkpt>
      <trkpt lat="45.613" lon="5.30034">
        <ele>299</ele>
        <time>2021-12-05T10:18:39.403Z</time>
      </trkpt>
      <trkpt lat="45.61301" lon="5.30031">
        <ele>299</ele>
        <time>2021-12-05T10:18:40.403Z</time>
      </trkpt>
      <trkpt lat="45.61302" lon="5.30028">
        <ele>299</ele>
        <time>2021-12-05T10:18:41.403Z</time>
      </trkpt>
      <trkpt lat="45.61303" lon="5.30025">
        <ele>298</ele>
        <time>2021-12-05T10:18:42.403Z</time>
      </trkpt>
      <trkpt lat="45.61304" lon="5.30022">
        <ele>298</ele>
        <time>2021-12-05T10:18:43.403Z</time>
      </trkpt>
      <trkpt lat="45.61305" lon="5.30019">
        <ele>298</ele>
        <time>2021-12-05T10:18:44.403Z</time>
      </trkpt>
      <trkpt lat="45.61306" lon="5.30016">
        <ele>298</ele>
        <time>2021-12-05T10:18:45.403Z</time>
      </trkpt>
      <trkpt lat="45.61308" lon="5.30013">
        <ele>298</ele>
        <time>2021-12-05T10:18:46.403Z</time>
      </trkpt>
      <trkpt lat="45.61309" lon="5.3001">
        <ele>297</ele>
        <time>2021-12-05T10:18:47.403Z</time>
      </trkpt>
      <trkpt lat="45.6131" lon="5.30006">
        <ele>297</ele>
        <time>2021-12-05T10:18:48.403Z</time>
      </trkpt>
      <trkpt lat="45.61311" lon="5.30003">
        <ele>297</ele>
        <time>2021-12-05T10:18:49.402Z</time>
      </trkpt>
      <trkpt lat="45.61312" lon="5.3">
        <ele>297</ele>
        <time>2021-12-05T10:18:50.403Z</time>
      </trkpt>
      <trkpt lat="45.61313" lon="5.29997">
        <ele>297</ele>
        <time>2021-12-05T10:18:51.403Z</time>
      </trkpt>
      <trkpt lat="45.61314" lon="5.29994">
        <ele>297</ele>
        <time>2021-12-05T10:18:52.403Z</time>
      </trkpt>
      <trkpt lat="45.61315" lon="5.29991">
        <ele>297</ele>
        <time>2021-12-05T10:18:53.402Z</time>
      </trkpt>
      <trkpt lat="45.61316" lon="5.29988">
        <ele>297</ele>
        <time>2021-12-05T10:18:54.403Z</time>
      </trkpt>
      <trkpt lat="45.61317" lon="5.29984">
        <ele>296</ele>
        <time>2021-12-05T10:18:55.403Z</time>
      </trkpt>
      <trkpt lat="45.61318" lon="5.29981">
        <ele>296</ele>
        <time>2021-12-05T10:18:56.403Z</time>
      </trkpt>
      <trkpt lat="45.61319" lon="5.29978">
        <ele>296</ele>
        <time>2021-12-05T10:18:57.403Z</time>
      </trkpt>
      <trkpt lat="45.61321" lon="5.29974">
        <ele>296</ele>
        <time>2021-12-05T10:18:58.403Z</time>
      </trkpt>
      <trkpt lat="45.61322" lon="5.2997">
        <ele>296</ele>
        <time>2021-12-05T10:18:59.403Z</time>
      </trkpt>
      <trkpt lat="45.61324" lon="5.29967">
        <ele>296</ele>
        <time>2021-12-05T10:19:00.403Z</time>
      </trkpt>
      <trkpt lat="45.61325" lon="5.29963">
        <ele>296</ele>
        <time>2021-12-05T10:19:01.402Z</time>
      </trkpt>
      <trkpt lat="45.61326" lon="5.2996">
        <ele>296</ele>
        <time>2021-12-05T10:19:02.403Z</time>
      </trkpt>
      <trkpt lat="45.61328" lon="5.29956">
        <ele>296</ele>
        <time>2021-12-05T10:19:03.403Z</time>
      </trkpt>
      <trkpt lat="45.61329" lon="5.29954">
        <ele>296</ele>
        <time>2021-12-05T10:19:04.403Z</time>
      </trkpt>
      <trkpt lat="45.6133" lon="5.2995">
        <ele>295</ele>
        <time>2021-12-05T10:19:05.403Z</time>
      </trkpt>
      <trkpt lat="45.61332" lon="5.29947">
        <ele>295</ele>
        <time>2021-12-05T10:19:06.403Z</time>
      </trkpt>
      <trkpt lat="45.61333" lon="5.29944">
        <ele>295</ele>
        <time>2021-12-05T10:19:07.403Z</time>
      </trkpt>
      <trkpt lat="45.61334" lon="5.2994">
        <ele>294</ele>
        <time>2021-12-05T10:19:08.403Z</time>
      </trkpt>
      <trkpt lat="45.61336" lon="5.29937">
        <ele>294</ele>
        <time>2021-12-05T10:19:09.403Z</time>
      </trkpt>
      <trkpt lat="45.61337" lon="5.29934">
        <ele>294</ele>
        <time>2021-12-05T10:19:10.403Z</time>
      </trkpt>
      <trkpt lat="45.61339" lon="5.29931">
        <ele>293</ele>
        <time>2021-12-05T10:19:11.403Z</time>
      </trkpt>
      <trkpt lat="45.6134" lon="5.29928">
        <ele>293</ele>
        <time>2021-12-05T10:19:12.402Z</time>
      </trkpt>
      <trkpt lat="45.61342" lon="5.29924">
        <ele>293</ele>
        <time>2021-12-05T10:19:13.403Z</time>
      </trkpt>
      <trkpt lat="45.61343" lon="5.29921">
        <ele>293</ele>
        <time>2021-12-05T10:19:14.403Z</time>
      </trkpt>
      <trkpt lat="45.61344" lon="5.29918">
        <ele>293</ele>
        <time>2021-12-05T10:19:15.402Z</time>
      </trkpt>
      <trkpt lat="45.61346" lon="5.29914">
        <ele>292</ele>
        <time>2021-12-05T10:19:16.402Z</time>
      </trkpt>
      <trkpt lat="45.61347" lon="5.29911">
        <ele>292</ele>
        <time>2021-12-05T10:19:17.403Z</time>
      </trkpt>
      <trkpt lat="45.61349" lon="5.29908">
        <ele>292</ele>
        <time>2021-12-05T10:19:18.402Z</time>
      </trkpt>
      <trkpt lat="45.6135" lon="5.29905">
        <ele>292</ele>
        <time>2021-12-05T10:19:19.402Z</time>
      </trkpt>
      <trkpt lat="45.61352" lon="5.29901">
        <ele>292</ele>
        <time>2021-12-05T10:19:20.403Z</time>
      </trkpt>
      <trkpt lat="45.61353" lon="5.29899">
        <ele>292</ele>
        <time>2021-12-05T10:19:21.403Z</time>
      </trkpt>
      <trkpt lat="45.61355" lon="5.29895">
        <ele>291</ele>
        <time>2021-12-05T10:19:22.403Z</time>
      </trkpt>
      <trkpt lat="45.61356" lon="5.29892">
        <ele>291</ele>
        <time>2021-12-05T10:19:23.403Z</time>
      </trkpt>
      <trkpt lat="45.61357" lon="5.29889">
        <ele>291</ele>
        <time>2021-12-05T10:19:24.403Z</time>
      </trkpt>
      <trkpt lat="45.61359" lon="5.29886">
        <ele>291</ele>
        <time>2021-12-05T10:19:25.402Z</time>
      </trkpt>
      <trkpt lat="45.61361" lon="5.29883">
        <ele>291</ele>
        <time>2021-12-05T10:19:26.403Z</time>
      </trkpt>
      <trkpt lat="45.61362" lon="5.2988">
        <ele>291</ele>
        <time>2021-12-05T10:19:27.403Z</time>
      </trkpt>
      <trkpt lat="45.61363" lon="5.29877">
        <ele>291</ele>
        <time>2021-12-05T10:19:28.403Z</time>
      </trkpt>
      <trkpt lat="45.61365" lon="5.29874">
        <ele>291</ele>
        <time>2021-12-05T10:19:29.402Z</time>
      </trkpt>
      <trkpt lat="45.61367" lon="5.2987">
        <ele>291</ele>
        <time>2021-12-05T10:19:30.402Z</time>
      </trkpt>
      <trkpt lat="45.61368" lon="5.29867">
        <ele>291</ele>
        <time>2021-12-05T10:19:31.403Z</time>
      </trkpt>
      <trkpt lat="45.61369" lon="5.29864">
        <ele>291</ele>
        <time>2021-12-05T10:19:32.403Z</time>
      </trkpt>
      <trkpt lat="45.61371" lon="5.29862">
        <ele>290</ele>
        <time>2021-12-05T10:19:33.403Z</time>
      </trkpt>
      <trkpt lat="45.61372" lon="5.29858">
        <ele>290</ele>
        <time>2021-12-05T10:19:34.403Z</time>
      </trkpt>
      <trkpt lat="45.61374" lon="5.29855">
        <ele>290</ele>
        <time>2021-12-05T10:19:35.403Z</time>
      </trkpt>
      <trkpt lat="45.61375" lon="5.29851">
        <ele>289</ele>
        <time>2021-12-05T10:19:36.403Z</time>
      </trkpt>
      <trkpt lat="45.61376" lon="5.29849">
        <ele>289</ele>
        <time>2021-12-05T10:19:37.403Z</time>
      </trkpt>
      <trkpt lat="45.61377" lon="5.29845">
        <ele>289</ele>
        <time>2021-12-05T10:19:38.403Z</time>
      </trkpt>
      <trkpt lat="45.61378" lon="5.29841">
        <ele>289</ele>
        <time>2021-12-05T10:19:39.403Z</time>
      </trkpt>
      <trkpt lat="45.61378" lon="5.29838">
        <ele>290</ele>
        <time>2021-12-05T10:19:40.402Z</time>
      </trkpt>
      <trkpt lat="45.61379" lon="5.29834">
        <ele>290</ele>
        <time>2021-12-05T10:19:41.402Z</time>
      </trkpt>
      <trkpt lat="45.61379" lon="5.29831">
        <ele>290</ele>
        <time>2021-12-05T10:19:42.403Z</time>
      </trkpt>
      <trkpt lat="45.6138" lon="5.29827">
        <ele>290</ele>
        <time>2021-12-05T10:19:43.403Z</time>
      </trkpt>
      <trkpt lat="45.6138" lon="5.29824">
        <ele>291</ele>
        <time>2021-12-05T10:19:44.403Z</time>
      </trkpt>
      <trkpt lat="45.61381" lon="5.2982">
        <ele>290</ele>
        <time>2021-12-05T10:19:45.402Z</time>
      </trkpt>
      <trkpt lat="45.61381" lon="5.29817">
        <ele>290</ele>
        <time>2021-12-05T10:19:46.403Z</time>
      </trkpt>
      <trkpt lat="45.61381" lon="5.29813">
        <ele>290</ele>
        <time>2021-12-05T10:19:47.403Z</time>
      </trkpt>
      <trkpt lat="45.61381" lon="5.2981">
        <ele>291</ele>
        <time>2021-12-05T10:19:48.403Z</time>
      </trkpt>
      <trkpt lat="45.61381" lon="5.29807">
        <ele>291</ele>
        <time>2021-12-05T10:19:49.402Z</time>
      </trkpt>
      <trkpt lat="45.61381" lon="5.29803">
        <ele>291</ele>
        <time>2021-12-05T10:19:50.402Z</time>
      </trkpt>
      <trkpt lat="45.61382" lon="5.29799">
        <ele>291</ele>
        <time>2021-12-05T10:19:51.403Z</time>
      </trkpt>
      <trkpt lat="45.61382" lon="5.29796">
        <ele>291</ele>
        <time>2021-12-05T10:19:52.402Z</time>
      </trkpt>
      <trkpt lat="45.61382" lon="5.29793">
        <ele>291</ele>
        <time>2021-12-05T10:19:53.403Z</time>
      </trkpt>
      <trkpt lat="45.61382" lon="5.29789">
        <ele>291</ele>
        <time>2021-12-05T10:19:54.403Z</time>
      </trkpt>
      <trkpt lat="45.61382" lon="5.29785">
        <ele>291</ele>
        <time>2021-12-05T10:19:55.403Z</time>
      </trkpt>
      <trkpt lat="45.61382" lon="5.29782">
        <ele>291</ele>
        <time>2021-12-05T10:19:56.403Z</time>
      </trkpt>
      <trkpt lat="45.61382" lon="5.29778">
        <ele>291</ele>
        <time>2021-12-05T10:19:57.403Z</time>
      </trkpt>
      <trkpt lat="45.61382" lon="5.29774">
        <ele>291</ele>
        <time>2021-12-05T10:19:58.403Z</time>
      </trkpt>
      <trkpt lat="45.61382" lon="5.2977">
        <ele>291</ele>
        <time>2021-12-05T10:19:59.402Z</time>
      </trkpt>
      <trkpt lat="45.61383" lon="5.29767">
        <ele>291</ele>
        <time>2021-12-05T10:20:00.402Z</time>
      </trkpt>
      <trkpt lat="45.61383" lon="5.29763">
        <ele>291</ele>
        <time>2021-12-05T10:20:01.403Z</time>
      </trkpt>
      <trkpt lat="45.61384" lon="5.2976">
        <ele>291</ele>
        <time>2021-12-05T10:20:02.403Z</time>
      </trkpt>
      <trkpt lat="45.61384" lon="5.29757">
        <ele>291</ele>
        <time>2021-12-05T10:20:03.403Z</time>
      </trkpt>
      <trkpt lat="45.61384" lon="5.29754">
        <ele>291</ele>
        <time>2021-12-05T10:20:04.402Z</time>
      </trkpt>
      <trkpt lat="45.61385" lon="5.29751">
        <ele>290</ele>
        <time>2021-12-05T10:20:05.403Z</time>
      </trkpt>
      <trkpt lat="45.61385" lon="5.29748">
        <ele>291</ele>
        <time>2021-12-05T10:20:06.403Z</time>
      </trkpt>
      <trkpt lat="45.61386" lon="5.29744">
        <ele>291</ele>
        <time>2021-12-05T10:20:07.403Z</time>
      </trkpt>
      <trkpt lat="45.61387" lon="5.29741">
        <ele>290</ele>
        <time>2021-12-05T10:20:08.403Z</time>
      </trkpt>
      <trkpt lat="45.61387" lon="5.29739">
        <ele>290</ele>
        <time>2021-12-05T10:20:09.403Z</time>
      </trkpt>
      <trkpt lat="45.61388" lon="5.29735">
        <ele>289</ele>
        <time>2021-12-05T10:20:10.403Z</time>
      </trkpt>
      <trkpt lat="45.61389" lon="5.29732">
        <ele>289</ele>
        <time>2021-12-05T10:20:11.403Z</time>
      </trkpt>
      <trkpt lat="45.61389" lon="5.29729">
        <ele>289</ele>
        <time>2021-12-05T10:20:12.402Z</time>
      </trkpt>
      <trkpt lat="45.6139" lon="5.29727">
        <ele>289</ele>
        <time>2021-12-05T10:20:13.402Z</time>
      </trkpt>
      <trkpt lat="45.6139" lon="5.29724">
        <ele>288</ele>
        <time>2021-12-05T10:20:14.402Z</time>
      </trkpt>
      <trkpt lat="45.6139" lon="5.2972">
        <ele>288</ele>
        <time>2021-12-05T10:20:15.403Z</time>
      </trkpt>
      <trkpt lat="45.61391" lon="5.29717">
        <ele>288</ele>
        <time>2021-12-05T10:20:16.403Z</time>
      </trkpt>
      <trkpt lat="45.61391" lon="5.29714">
        <ele>288</ele>
        <time>2021-12-05T10:20:17.403Z</time>
      </trkpt>
      <trkpt lat="45.61391" lon="5.29712">
        <ele>288</ele>
        <time>2021-12-05T10:20:18.402Z</time>
      </trkpt>
      <trkpt lat="45.61392" lon="5.29708">
        <ele>288</ele>
        <time>2021-12-05T10:20:19.403Z</time>
      </trkpt>
      <trkpt lat="45.61392" lon="5.29705">
        <ele>287</ele>
        <time>2021-12-05T10:20:20.402Z</time>
      </trkpt>
      <trkpt lat="45.61392" lon="5.29702">
        <ele>287</ele>
        <time>2021-12-05T10:20:21.403Z</time>
      </trkpt>
      <trkpt lat="45.61392" lon="5.29699">
        <ele>287</ele>
        <time>2021-12-05T10:20:22.402Z</time>
      </trkpt>
      <trkpt lat="45.61393" lon="5.29696">
        <ele>286</ele>
        <time>2021-12-05T10:20:23.403Z</time>
      </trkpt>
      <trkpt lat="45.61393" lon="5.29693">
        <ele>286</ele>
        <time>2021-12-05T10:20:24.403Z</time>
      </trkpt>
      <trkpt lat="45.61393" lon="5.29689">
        <ele>286</ele>
        <time>2021-12-05T10:20:25.403Z</time>
      </trkpt>
      <trkpt lat="45.61393" lon="5.29686">
        <ele>287</ele>
        <time>2021-12-05T10:20:26.403Z</time>
      </trkpt>
      <trkpt lat="45.61393" lon="5.29684">
        <ele>287</ele>
        <time>2021-12-05T10:20:27.402Z</time>
      </trkpt>
      <trkpt lat="45.61394" lon="5.2968">
        <ele>287</ele>
        <time>2021-12-05T10:20:28.403Z</time>
      </trkpt>
      <trkpt lat="45.61394" lon="5.29676">
        <ele>287</ele>
        <time>2021-12-05T10:20:29.402Z</time>
      </trkpt>
      <trkpt lat="45.61395" lon="5.29673">
        <ele>287</ele>
        <time>2021-12-05T10:20:30.403Z</time>
      </trkpt>
      <trkpt lat="45.61395" lon="5.2967">
        <ele>287</ele>
        <time>2021-12-05T10:20:31.403Z</time>
      </trkpt>
      <trkpt lat="45.61395" lon="5.29668">
        <ele>286</ele>
        <time>2021-12-05T10:20:32.403Z</time>
      </trkpt>
      <trkpt lat="45.61395" lon="5.29663">
        <ele>286</ele>
        <time>2021-12-05T10:20:33.402Z</time>
      </trkpt>
      <trkpt lat="45.61396" lon="5.2966">
        <ele>286</ele>
        <time>2021-12-05T10:20:34.403Z</time>
      </trkpt>
      <trkpt lat="45.61396" lon="5.29657">
        <ele>286</ele>
        <time>2021-12-05T10:20:35.403Z</time>
      </trkpt>
      <trkpt lat="45.61396" lon="5.29654">
        <ele>286</ele>
        <time>2021-12-05T10:20:36.402Z</time>
      </trkpt>
      <trkpt lat="45.61396" lon="5.2965">
        <ele>287</ele>
        <time>2021-12-05T10:20:37.402Z</time>
      </trkpt>
      <trkpt lat="45.61397" lon="5.29647">
        <ele>287</ele>
        <time>2021-12-05T10:20:38.403Z</time>
      </trkpt>
      <trkpt lat="45.61397" lon="5.29644">
        <ele>287</ele>
        <time>2021-12-05T10:20:39.403Z</time>
      </trkpt>
      <trkpt lat="45.61397" lon="5.2964">
        <ele>287</ele>
        <time>2021-12-05T10:20:40.403Z</time>
      </trkpt>
      <trkpt lat="45.61397" lon="5.29637">
        <ele>288</ele>
        <time>2021-12-05T10:20:41.403Z</time>
      </trkpt>
      <trkpt lat="45.61397" lon="5.29634">
        <ele>288</ele>
        <time>2021-12-05T10:20:42.403Z</time>
      </trkpt>
      <trkpt lat="45.61398" lon="5.29631">
        <ele>288</ele>
        <time>2021-12-05T10:20:43.402Z</time>
      </trkpt>
      <trkpt lat="45.61398" lon="5.29627">
        <ele>288</ele>
        <time>2021-12-05T10:20:44.403Z</time>
      </trkpt>
      <trkpt lat="45.61398" lon="5.29625">
        <ele>289</ele>
        <time>2021-12-05T10:20:45.403Z</time>
      </trkpt>
      <trkpt lat="45.61398" lon="5.29621">
        <ele>289</ele>
        <time>2021-12-05T10:20:46.402Z</time>
      </trkpt>
      <trkpt lat="45.61399" lon="5.29619">
        <ele>289</ele>
        <time>2021-12-05T10:20:47.403Z</time>
      </trkpt>
      <trkpt lat="45.61399" lon="5.29616">
        <ele>289</ele>
        <time>2021-12-05T10:20:48.403Z</time>
      </trkpt>
      <trkpt lat="45.61399" lon="5.29613">
        <ele>289</ele>
        <time>2021-12-05T10:20:49.403Z</time>
      </trkpt>
      <trkpt lat="45.614" lon="5.2961">
        <ele>290</ele>
        <time>2021-12-05T10:20:50.402Z</time>
      </trkpt>
      <trkpt lat="45.614" lon="5.29607">
        <ele>290</ele>
        <time>2021-12-05T10:20:51.403Z</time>
      </trkpt>
      <trkpt lat="45.614" lon="5.29603">
        <ele>290</ele>
        <time>2021-12-05T10:20:52.403Z</time>
      </trkpt>
      <trkpt lat="45.61401" lon="5.296">
        <ele>290</ele>
        <time>2021-12-05T10:20:53.403Z</time>
      </trkpt>
      <trkpt lat="45.61401" lon="5.29597">
        <ele>290</ele>
        <time>2021-12-05T10:20:54.403Z</time>
      </trkpt>
      <trkpt lat="45.61402" lon="5.29594">
        <ele>290</ele>
        <time>2021-12-05T10:20:55.402Z</time>
      </trkpt>
      <trkpt lat="45.61402" lon="5.2959">
        <ele>290</ele>
        <time>2021-12-05T10:20:56.403Z</time>
      </trkpt>
      <trkpt lat="45.61402" lon="5.29587">
        <ele>290</ele>
        <time>2021-12-05T10:20:57.403Z</time>
      </trkpt>
      <trkpt lat="45.61402" lon="5.29584">
        <ele>290</ele>
        <time>2021-12-05T10:20:58.403Z</time>
      </trkpt>
      <trkpt lat="45.61403" lon="5.2958">
        <ele>290</ele>
        <time>2021-12-05T10:20:59.402Z</time>
      </trkpt>
      <trkpt lat="45.61403" lon="5.29577">
        <ele>290</ele>
        <time>2021-12-05T10:21:00.403Z</time>
      </trkpt>
      <trkpt lat="45.61403" lon="5.29574">
        <ele>291</ele>
        <time>2021-12-05T10:21:01.403Z</time>
      </trkpt>
      <trkpt lat="45.61404" lon="5.29571">
        <ele>290</ele>
        <time>2021-12-05T10:21:02.403Z</time>
      </trkpt>
      <trkpt lat="45.61404" lon="5.29568">
        <ele>290</ele>
        <time>2021-12-05T10:21:03.403Z</time>
      </trkpt>
      <trkpt lat="45.61404" lon="5.29565">
        <ele>289</ele>
        <time>2021-12-05T10:21:04.403Z</time>
      </trkpt>
      <trkpt lat="45.61405" lon="5.29562">
        <ele>289</ele>
        <time>2021-12-05T10:21:05.403Z</time>
      </trkpt>
      <trkpt lat="45.61406" lon="5.2956">
        <ele>289</ele>
        <time>2021-12-05T10:21:06.403Z</time>
      </trkpt>
      <trkpt lat="45.61406" lon="5.29557">
        <ele>289</ele>
        <time>2021-12-05T10:21:07.403Z</time>
      </trkpt>
      <trkpt lat="45.61407" lon="5.29554">
        <ele>289</ele>
        <time>2021-12-05T10:21:08.403Z</time>
      </trkpt>
      <trkpt lat="45.61408" lon="5.29551">
        <ele>289</ele>
        <time>2021-12-05T10:21:09.402Z</time>
      </trkpt>
      <trkpt lat="45.61408" lon="5.29548">
        <ele>289</ele>
        <time>2021-12-05T10:21:10.402Z</time>
      </trkpt>
      <trkpt lat="45.61409" lon="5.29545">
        <ele>289</ele>
        <time>2021-12-05T10:21:11.403Z</time>
      </trkpt>
      <trkpt lat="45.61409" lon="5.29542">
        <ele>289</ele>
        <time>2021-12-05T10:21:12.402Z</time>
      </trkpt>
      <trkpt lat="45.6141" lon="5.29539">
        <ele>289</ele>
        <time>2021-12-05T10:21:13.403Z</time>
      </trkpt>
      <trkpt lat="45.61411" lon="5.29536">
        <ele>289</ele>
        <time>2021-12-05T10:21:14.403Z</time>
      </trkpt>
      <trkpt lat="45.61411" lon="5.29532">
        <ele>289</ele>
        <time>2021-12-05T10:21:15.403Z</time>
      </trkpt>
      <trkpt lat="45.61412" lon="5.29529">
        <ele>289</ele>
        <time>2021-12-05T10:21:16.403Z</time>
      </trkpt>
      <trkpt lat="45.61412" lon="5.29526">
        <ele>289</ele>
        <time>2021-12-05T10:21:17.403Z</time>
      </trkpt>
      <trkpt lat="45.61413" lon="5.29523">
        <ele>289</ele>
        <time>2021-12-05T10:21:18.403Z</time>
      </trkpt>
      <trkpt lat="45.61413" lon="5.29519">
        <ele>289</ele>
        <time>2021-12-05T10:21:19.403Z</time>
      </trkpt>
      <trkpt lat="45.61413" lon="5.29516">
        <ele>289</ele>
        <time>2021-12-05T10:21:20.403Z</time>
      </trkpt>
      <trkpt lat="45.61414" lon="5.29513">
        <ele>290</ele>
        <time>2021-12-05T10:21:21.402Z</time>
      </trkpt>
      <trkpt lat="45.61414" lon="5.2951">
        <ele>290</ele>
        <time>2021-12-05T10:21:22.402Z</time>
      </trkpt>
      <trkpt lat="45.61414" lon="5.29507">
        <ele>290</ele>
        <time>2021-12-05T10:21:23.402Z</time>
      </trkpt>
      <trkpt lat="45.61415" lon="5.29504">
        <ele>291</ele>
        <time>2021-12-05T10:21:24.403Z</time>
      </trkpt>
      <trkpt lat="45.61415" lon="5.29501">
        <ele>291</ele>
        <time>2021-12-05T10:21:25.403Z</time>
      </trkpt>
      <trkpt lat="45.61415" lon="5.29497">
        <ele>292</ele>
        <time>2021-12-05T10:21:26.402Z</time>
      </trkpt>
      <trkpt lat="45.61415" lon="5.29495">
        <ele>292</ele>
        <time>2021-12-05T10:21:27.402Z</time>
      </trkpt>
      <trkpt lat="45.61415" lon="5.2949">
        <ele>292</ele>
        <time>2021-12-05T10:21:28.403Z</time>
      </trkpt>
      <trkpt lat="45.61415" lon="5.29487">
        <ele>292</ele>
        <time>2021-12-05T10:21:29.403Z</time>
      </trkpt>
      <trkpt lat="45.61414" lon="5.29483">
        <ele>292</ele>
        <time>2021-12-05T10:21:30.403Z</time>
      </trkpt>
      <trkpt lat="45.61414" lon="5.2948">
        <ele>292</ele>
        <time>2021-12-05T10:21:31.402Z</time>
      </trkpt>
      <trkpt lat="45.61413" lon="5.29478">
        <ele>291</ele>
        <time>2021-12-05T10:21:32.403Z</time>
      </trkpt>
      <trkpt lat="45.61412" lon="5.29475">
        <ele>291</ele>
        <time>2021-12-05T10:21:33.403Z</time>
      </trkpt>
      <trkpt lat="45.6141" lon="5.29473">
        <ele>291</ele>
        <time>2021-12-05T10:21:34.403Z</time>
      </trkpt>
      <trkpt lat="45.61409" lon="5.29471">
        <ele>291</ele>
        <time>2021-12-05T10:21:35.403Z</time>
      </trkpt>
      <trkpt lat="45.61407" lon="5.2947">
        <ele>290</ele>
        <time>2021-12-05T10:21:36.403Z</time>
      </trkpt>
      <trkpt lat="45.61405" lon="5.29468">
        <ele>289</ele>
        <time>2021-12-05T10:21:37.403Z</time>
      </trkpt>
      <trkpt lat="45.61402" lon="5.29467">
        <ele>289</ele>
        <time>2021-12-05T10:21:38.403Z</time>
      </trkpt>
      <trkpt lat="45.614" lon="5.29466">
        <ele>288</ele>
        <time>2021-12-05T10:21:39.403Z</time>
      </trkpt>
      <trkpt lat="45.61398" lon="5.29465">
        <ele>287</ele>
        <time>2021-12-05T10:21:40.402Z</time>
      </trkpt>
      <trkpt lat="45.61395" lon="5.29465">
        <ele>287</ele>
        <time>2021-12-05T10:21:41.402Z</time>
      </trkpt>
      <trkpt lat="45.61392" lon="5.29464">
        <ele>286</ele>
        <time>2021-12-05T10:21:42.403Z</time>
      </trkpt>
      <trkpt lat="45.6139" lon="5.29464">
        <ele>286</ele>
        <time>2021-12-05T10:21:43.403Z</time>
      </trkpt>
      <trkpt lat="45.61387" lon="5.29464">
        <ele>285</ele>
        <time>2021-12-05T10:21:44.403Z</time>
      </trkpt>
      <trkpt lat="45.61384" lon="5.29463">
        <ele>284</ele>
        <time>2021-12-05T10:21:45.402Z</time>
      </trkpt>
      <trkpt lat="45.61382" lon="5.29463">
        <ele>284</ele>
        <time>2021-12-05T10:21:46.403Z</time>
      </trkpt>
      <trkpt lat="45.61379" lon="5.29462">
        <ele>284</ele>
        <time>2021-12-05T10:21:47.402Z</time>
      </trkpt>
      <trkpt lat="45.61377" lon="5.29463">
        <ele>284</ele>
        <time>2021-12-05T10:21:48.403Z</time>
      </trkpt>
      <trkpt lat="45.61374" lon="5.29463">
        <ele>283</ele>
        <time>2021-12-05T10:21:49.403Z</time>
      </trkpt>
      <trkpt lat="45.6137" lon="5.29462">
        <ele>284</ele>
        <time>2021-12-05T10:21:50.403Z</time>
      </trkpt>
      <trkpt lat="45.61367" lon="5.29463">
        <ele>284</ele>
        <time>2021-12-05T10:21:51.403Z</time>
      </trkpt>
      <trkpt lat="45.61364" lon="5.29463">
        <ele>285</ele>
        <time>2021-12-05T10:21:52.403Z</time>
      </trkpt>
      <trkpt lat="45.61362" lon="5.29463">
        <ele>285</ele>
        <time>2021-12-05T10:21:53.403Z</time>
      </trkpt>
      <trkpt lat="45.61359" lon="5.29463">
        <ele>286</ele>
        <time>2021-12-05T10:21:54.403Z</time>
      </trkpt>
      <trkpt lat="45.61356" lon="5.29463">
        <ele>286</ele>
        <time>2021-12-05T10:21:55.403Z</time>
      </trkpt>
      <trkpt lat="45.61353" lon="5.29463">
        <ele>287</ele>
        <time>2021-12-05T10:21:56.403Z</time>
      </trkpt>
      <trkpt lat="45.61351" lon="5.29463">
        <ele>287</ele>
        <time>2021-12-05T10:21:57.402Z</time>
      </trkpt>
      <trkpt lat="45.61348" lon="5.29463">
        <ele>287</ele>
        <time>2021-12-05T10:21:58.403Z</time>
      </trkpt>
      <trkpt lat="45.61344" lon="5.29462">
        <ele>287</ele>
        <time>2021-12-05T10:21:59.403Z</time>
      </trkpt>
      <trkpt lat="45.61342" lon="5.29463">
        <ele>287</ele>
        <time>2021-12-05T10:22:00.403Z</time>
      </trkpt>
      <trkpt lat="45.61339" lon="5.29463">
        <ele>288</ele>
        <time>2021-12-05T10:22:01.403Z</time>
      </trkpt>
      <trkpt lat="45.61337" lon="5.29463">
        <ele>288</ele>
        <time>2021-12-05T10:22:02.403Z</time>
      </trkpt>
      <trkpt lat="45.61335" lon="5.29463">
        <ele>288</ele>
        <time>2021-12-05T10:22:03.403Z</time>
      </trkpt>
      <trkpt lat="45.61332" lon="5.29464">
        <ele>288</ele>
        <time>2021-12-05T10:22:04.403Z</time>
      </trkpt>
      <trkpt lat="45.61329" lon="5.29464">
        <ele>288</ele>
        <time>2021-12-05T10:22:05.403Z</time>
      </trkpt>
      <trkpt lat="45.61326" lon="5.29464">
        <ele>288</ele>
        <time>2021-12-05T10:22:06.403Z</time>
      </trkpt>
      <trkpt lat="45.61323" lon="5.29465">
        <ele>288</ele>
        <time>2021-12-05T10:22:07.403Z</time>
      </trkpt>
      <trkpt lat="45.61321" lon="5.29465">
        <ele>288</ele>
        <time>2021-12-05T10:22:08.402Z</time>
      </trkpt>
      <trkpt lat="45.61318" lon="5.29466">
        <ele>288</ele>
        <time>2021-12-05T10:22:09.403Z</time>
      </trkpt>
      <trkpt lat="45.61315" lon="5.29466">
        <ele>288</ele>
        <time>2021-12-05T10:22:10.402Z</time>
      </trkpt>
      <trkpt lat="45.61313" lon="5.29467">
        <ele>288</ele>
        <time>2021-12-05T10:22:11.403Z</time>
      </trkpt>
      <trkpt lat="45.61311" lon="5.29467">
        <ele>288</ele>
        <time>2021-12-05T10:22:12.403Z</time>
      </trkpt>
      <trkpt lat="45.61308" lon="5.29467">
        <ele>288</ele>
        <time>2021-12-05T10:22:13.402Z</time>
      </trkpt>
      <trkpt lat="45.61305" lon="5.29467">
        <ele>289</ele>
        <time>2021-12-05T10:22:14.403Z</time>
      </trkpt>
      <trkpt lat="45.61303" lon="5.29466">
        <ele>289</ele>
        <time>2021-12-05T10:22:15.403Z</time>
      </trkpt>
      <trkpt lat="45.61302" lon="5.29464">
        <ele>289</ele>
        <time>2021-12-05T10:22:16.403Z</time>
      </trkpt>
      <trkpt lat="45.613" lon="5.29463">
        <ele>289</ele>
        <time>2021-12-05T10:22:17.403Z</time>
      </trkpt>
      <trkpt lat="45.61298" lon="5.29463">
        <ele>289</ele>
        <time>2021-12-05T10:22:18.403Z</time>
      </trkpt>
      <trkpt lat="45.61296" lon="5.29461">
        <ele>289</ele>
        <time>2021-12-05T10:22:19.403Z</time>
      </trkpt>
      <trkpt lat="45.61294" lon="5.2946">
        <ele>289</ele>
        <time>2021-12-05T10:22:20.403Z</time>
      </trkpt>
      <trkpt lat="45.61293" lon="5.29458">
        <ele>289</ele>
        <time>2021-12-05T10:22:21.403Z</time>
      </trkpt>
      <trkpt lat="45.61291" lon="5.29457">
        <ele>289</ele>
        <time>2021-12-05T10:22:22.403Z</time>
      </trkpt>
      <trkpt lat="45.6129" lon="5.29455">
        <ele>289</ele>
        <time>2021-12-05T10:22:23.403Z</time>
      </trkpt>
      <trkpt lat="45.61289" lon="5.29452">
        <ele>289</ele>
        <time>2021-12-05T10:22:24.403Z</time>
      </trkpt>
      <trkpt lat="45.61287" lon="5.29449">
        <ele>289</ele>
        <time>2021-12-05T10:22:25.403Z</time>
      </trkpt>
      <trkpt lat="45.61287" lon="5.29446">
        <ele>289</ele>
        <time>2021-12-05T10:22:26.402Z</time>
      </trkpt>
      <trkpt lat="45.61287" lon="5.29442">
        <ele>290</ele>
        <time>2021-12-05T10:22:27.403Z</time>
      </trkpt>
      <trkpt lat="45.61287" lon="5.29439">
        <ele>290</ele>
        <time>2021-12-05T10:22:28.403Z</time>
      </trkpt>
      <trkpt lat="45.61288" lon="5.29435">
        <ele>291</ele>
        <time>2021-12-05T10:22:29.403Z</time>
      </trkpt>
      <trkpt lat="45.61288" lon="5.29432">
        <ele>291</ele>
        <time>2021-12-05T10:22:30.403Z</time>
      </trkpt>
      <trkpt lat="45.61288" lon="5.29428">
        <ele>291</ele>
        <time>2021-12-05T10:22:31.403Z</time>
      </trkpt>
      <trkpt lat="45.61289" lon="5.29424">
        <ele>292</ele>
        <time>2021-12-05T10:22:32.403Z</time>
      </trkpt>
      <trkpt lat="45.61289" lon="5.2942">
        <ele>292</ele>
        <time>2021-12-05T10:22:33.403Z</time>
      </trkpt>
      <trkpt lat="45.61289" lon="5.29417">
        <ele>292</ele>
        <time>2021-12-05T10:22:34.402Z</time>
      </trkpt>
      <trkpt lat="45.6129" lon="5.29414">
        <ele>293</ele>
        <time>2021-12-05T10:22:35.403Z</time>
      </trkpt>
      <trkpt lat="45.6129" lon="5.29411">
        <ele>293</ele>
        <time>2021-12-05T10:22:36.402Z</time>
      </trkpt>
      <trkpt lat="45.6129" lon="5.29408">
        <ele>293</ele>
        <time>2021-12-05T10:22:37.403Z</time>
      </trkpt>
      <trkpt lat="45.6129" lon="5.29404">
        <ele>293</ele>
        <time>2021-12-05T10:22:38.403Z</time>
      </trkpt>
      <trkpt lat="45.61291" lon="5.29401">
        <ele>293</ele>
        <time>2021-12-05T10:22:39.402Z</time>
      </trkpt>
      <trkpt lat="45.61291" lon="5.29397">
        <ele>293</ele>
        <time>2021-12-05T10:22:40.402Z</time>
      </trkpt>
      <trkpt lat="45.61291" lon="5.29394">
        <ele>293</ele>
        <time>2021-12-05T10:22:41.403Z</time>
      </trkpt>
      <trkpt lat="45.61291" lon="5.29391">
        <ele>293</ele>
        <time>2021-12-05T10:22:42.403Z</time>
      </trkpt>
      <trkpt lat="45.61292" lon="5.29388">
        <ele>292</ele>
        <time>2021-12-05T10:22:43.403Z</time>
      </trkpt>
      <trkpt lat="45.61292" lon="5.29384">
        <ele>292</ele>
        <time>2021-12-05T10:22:44.403Z</time>
      </trkpt>
      <trkpt lat="45.61293" lon="5.29381">
        <ele>291</ele>
        <time>2021-12-05T10:22:45.403Z</time>
      </trkpt>
      <trkpt lat="45.61293" lon="5.29378">
        <ele>291</ele>
        <time>2021-12-05T10:22:46.403Z</time>
      </trkpt>
      <trkpt lat="45.61293" lon="5.29374">
        <ele>291</ele>
        <time>2021-12-05T10:22:47.403Z</time>
      </trkpt>
      <trkpt lat="45.61293" lon="5.29371">
        <ele>291</ele>
        <time>2021-12-05T10:22:48.402Z</time>
      </trkpt>
      <trkpt lat="45.61294" lon="5.29368">
        <ele>291</ele>
        <time>2021-12-05T10:22:49.403Z</time>
      </trkpt>
      <trkpt lat="45.61294" lon="5.29365">
        <ele>290</ele>
        <time>2021-12-05T10:22:50.403Z</time>
      </trkpt>
      <trkpt lat="45.61294" lon="5.29362">
        <ele>290</ele>
        <time>2021-12-05T10:22:51.403Z</time>
      </trkpt>
      <trkpt lat="45.61294" lon="5.29359">
        <ele>290</ele>
        <time>2021-12-05T10:22:52.403Z</time>
      </trkpt>
      <trkpt lat="45.61294" lon="5.29356">
        <ele>289</ele>
        <time>2021-12-05T10:22:53.403Z</time>
      </trkpt>
      <trkpt lat="45.61295" lon="5.29353">
        <ele>289</ele>
        <time>2021-12-05T10:22:54.403Z</time>
      </trkpt>
      <trkpt lat="45.61295" lon="5.29351">
        <ele>289</ele>
        <time>2021-12-05T10:22:55.403Z</time>
      </trkpt>
      <trkpt lat="45.61295" lon="5.29348">
        <ele>289</ele>
        <time>2021-12-05T10:22:56.402Z</time>
      </trkpt>
      <trkpt lat="45.61295" lon="5.29345">
        <ele>289</ele>
        <time>2021-12-05T10:22:57.403Z</time>
      </trkpt>
      <trkpt lat="45.61295" lon="5.29342">
        <ele>288</ele>
        <time>2021-12-05T10:22:58.403Z</time>
      </trkpt>
      <trkpt lat="45.61294" lon="5.29339">
        <ele>288</ele>
        <time>2021-12-05T10:22:59.403Z</time>
      </trkpt>
      <trkpt lat="45.61294" lon="5.29336">
        <ele>288</ele>
        <time>2021-12-05T10:23:00.403Z</time>
      </trkpt>
      <trkpt lat="45.61293" lon="5.29334">
        <ele>288</ele>
        <time>2021-12-05T10:23:01.403Z</time>
      </trkpt>
      <trkpt lat="45.61293" lon="5.29331">
        <ele>288</ele>
        <time>2021-12-05T10:23:02.403Z</time>
      </trkpt>
      <trkpt lat="45.61293" lon="5.29327">
        <ele>289</ele>
        <time>2021-12-05T10:23:03.403Z</time>
      </trkpt>
      <trkpt lat="45.61293" lon="5.29324">
        <ele>289</ele>
        <time>2021-12-05T10:23:04.403Z</time>
      </trkpt>
      <trkpt lat="45.61293" lon="5.29322">
        <ele>289</ele>
        <time>2021-12-05T10:23:05.403Z</time>
      </trkpt>
      <trkpt lat="45.61292" lon="5.2932">
        <ele>289</ele>
        <time>2021-12-05T10:23:06.403Z</time>
      </trkpt>
      <trkpt lat="45.61292" lon="5.29318">
        <ele>290</ele>
        <time>2021-12-05T10:23:07.403Z</time>
      </trkpt>
      <trkpt lat="45.61291" lon="5.29316">
        <ele>291</ele>
        <time>2021-12-05T10:23:08.403Z</time>
      </trkpt>
      <trkpt lat="45.61291" lon="5.29313">
        <ele>292</ele>
        <time>2021-12-05T10:23:09.402Z</time>
      </trkpt>
      <trkpt lat="45.6129" lon="5.29312">
        <ele>293</ele>
        <time>2021-12-05T10:23:10.403Z</time>
      </trkpt>
      <trkpt lat="45.6129" lon="5.2931">
        <ele>294</ele>
        <time>2021-12-05T10:23:11.403Z</time>
      </trkpt>
      <trkpt lat="45.61289" lon="5.29308">
        <ele>294</ele>
        <time>2021-12-05T10:23:12.403Z</time>
      </trkpt>
      <trkpt lat="45.61288" lon="5.29306">
        <ele>295</ele>
        <time>2021-12-05T10:23:13.403Z</time>
      </trkpt>
      <trkpt lat="45.61288" lon="5.29305">
        <ele>295</ele>
        <time>2021-12-05T10:23:14.403Z</time>
      </trkpt>
      <trkpt lat="45.61287" lon="5.29303">
        <ele>296</ele>
        <time>2021-12-05T10:23:15.403Z</time>
      </trkpt>
      <trkpt lat="45.61286" lon="5.29302">
        <ele>296</ele>
        <time>2021-12-05T10:23:16.403Z</time>
      </trkpt>
      <trkpt lat="45.61286" lon="5.293">
        <ele>297</ele>
        <time>2021-12-05T10:23:17.402Z</time>
      </trkpt>
      <trkpt lat="45.61286" lon="5.29298">
        <ele>297</ele>
        <time>2021-12-05T10:23:18.403Z</time>
      </trkpt>
      <trkpt lat="45.61285" lon="5.29296">
        <ele>298</ele>
        <time>2021-12-05T10:23:19.402Z</time>
      </trkpt>
      <trkpt lat="45.61285" lon="5.29294">
        <ele>299</ele>
        <time>2021-12-05T10:23:20.403Z</time>
      </trkpt>
      <trkpt lat="45.61284" lon="5.29291">
        <ele>300</ele>
        <time>2021-12-05T10:23:21.403Z</time>
      </trkpt>
      <trkpt lat="45.61283" lon="5.29288">
        <ele>301</ele>
        <time>2021-12-05T10:23:22.402Z</time>
      </trkpt>
      <trkpt lat="45.61282" lon="5.29284">
        <ele>301</ele>
        <time>2021-12-05T10:23:23.403Z</time>
      </trkpt>
      <trkpt lat="45.61282" lon="5.29281">
        <ele>302</ele>
        <time>2021-12-05T10:23:24.403Z</time>
      </trkpt>
      <trkpt lat="45.61282" lon="5.29277">
        <ele>302</ele>
        <time>2021-12-05T10:23:25.403Z</time>
      </trkpt>
      <trkpt lat="45.61282" lon="5.29275">
        <ele>303</ele>
        <time>2021-12-05T10:23:26.403Z</time>
      </trkpt>
      <trkpt lat="45.61282" lon="5.29272">
        <ele>303</ele>
        <time>2021-12-05T10:23:27.403Z</time>
      </trkpt>
      <trkpt lat="45.61282" lon="5.29269">
        <ele>304</ele>
        <time>2021-12-05T10:23:28.403Z</time>
      </trkpt>
      <trkpt lat="45.61282" lon="5.29266">
        <ele>304</ele>
        <time>2021-12-05T10:23:29.403Z</time>
      </trkpt>
      <trkpt lat="45.61283" lon="5.29263">
        <ele>305</ele>
        <time>2021-12-05T10:23:30.403Z</time>
      </trkpt>
      <trkpt lat="45.61283" lon="5.29262">
        <ele>305</ele>
        <time>2021-12-05T10:23:31.403Z</time>
      </trkpt>
      <trkpt lat="45.61282" lon="5.2926">
        <ele>305</ele>
        <time>2021-12-05T10:23:32.403Z</time>
      </trkpt>
      <trkpt lat="45.61282" lon="5.29258">
        <ele>305</ele>
        <time>2021-12-05T10:23:33.403Z</time>
      </trkpt>
      <trkpt lat="45.61282" lon="5.29256">
        <ele>305</ele>
        <time>2021-12-05T10:23:34.403Z</time>
      </trkpt>
      <trkpt lat="45.61281" lon="5.29253">
        <ele>305</ele>
        <time>2021-12-05T10:23:35.403Z</time>
      </trkpt>
      <trkpt lat="45.6128" lon="5.2925">
        <ele>305</ele>
        <time>2021-12-05T10:23:36.402Z</time>
      </trkpt>
      <trkpt lat="45.6128" lon="5.29247">
        <ele>306</ele>
        <time>2021-12-05T10:23:37.402Z</time>
      </trkpt>
      <trkpt lat="45.61279" lon="5.29245">
        <ele>307</ele>
        <time>2021-12-05T10:23:38.402Z</time>
      </trkpt>
      <trkpt lat="45.61279" lon="5.29242">
        <ele>307</ele>
        <time>2021-12-05T10:23:39.403Z</time>
      </trkpt>
      <trkpt lat="45.61278" lon="5.2924">
        <ele>308</ele>
        <time>2021-12-05T10:23:40.402Z</time>
      </trkpt>
      <trkpt lat="45.61278" lon="5.29238">
        <ele>308</ele>
        <time>2021-12-05T10:23:41.403Z</time>
      </trkpt>
      <trkpt lat="45.61278" lon="5.29236">
        <ele>309</ele>
        <time>2021-12-05T10:23:42.403Z</time>
      </trkpt>
      <trkpt lat="45.61277" lon="5.29234">
        <ele>309</ele>
        <time>2021-12-05T10:23:43.403Z</time>
      </trkpt>
      <trkpt lat="45.61277" lon="5.29232">
        <ele>309</ele>
        <time>2021-12-05T10:23:44.402Z</time>
      </trkpt>
      <trkpt lat="45.61276" lon="5.29231">
        <ele>309</ele>
        <time>2021-12-05T10:23:45.403Z</time>
      </trkpt>
      <trkpt lat="45.61275" lon="5.29229">
        <ele>310</ele>
        <time>2021-12-05T10:23:46.402Z</time>
      </trkpt>
      <trkpt lat="45.61275" lon="5.29227">
        <ele>310</ele>
        <time>2021-12-05T10:23:47.403Z</time>
      </trkpt>
      <trkpt lat="45.61275" lon="5.29226">
        <ele>311</ele>
        <time>2021-12-05T10:23:48.403Z</time>
      </trkpt>
      <trkpt lat="45.61274" lon="5.29225">
        <ele>312</ele>
        <time>2021-12-05T10:23:49.402Z</time>
      </trkpt>
      <trkpt lat="45.61274" lon="5.29224">
        <ele>312</ele>
        <time>2021-12-05T10:23:50.403Z</time>
      </trkpt>
      <trkpt lat="45.61273" lon="5.29222">
        <ele>312</ele>
        <time>2021-12-05T10:23:51.403Z</time>
      </trkpt>
      <trkpt lat="45.61272" lon="5.29221">
        <ele>313</ele>
        <time>2021-12-05T10:23:52.403Z</time>
      </trkpt>
      <trkpt lat="45.61272" lon="5.29219">
        <ele>313</ele>
        <time>2021-12-05T10:23:53.403Z</time>
      </trkpt>
      <trkpt lat="45.61272" lon="5.29217">
        <ele>314</ele>
        <time>2021-12-05T10:23:54.402Z</time>
      </trkpt>
      <trkpt lat="45.61272" lon="5.29214">
        <ele>314</ele>
        <time>2021-12-05T10:23:55.403Z</time>
      </trkpt>
      <trkpt lat="45.61271" lon="5.29211">
        <ele>314</ele>
        <time>2021-12-05T10:23:56.403Z</time>
      </trkpt>
      <trkpt lat="45.6127" lon="5.29208">
        <ele>315</ele>
        <time>2021-12-05T10:23:57.403Z</time>
      </trkpt>
      <trkpt lat="45.61269" lon="5.29206">
        <ele>315</ele>
        <time>2021-12-05T10:23:58.403Z</time>
      </trkpt>
      <trkpt lat="45.61268" lon="5.29204">
        <ele>315</ele>
        <time>2021-12-05T10:23:59.403Z</time>
      </trkpt>
      <trkpt lat="45.61267" lon="5.29202">
        <ele>316</ele>
        <time>2021-12-05T10:24:00.403Z</time>
      </trkpt>
      <trkpt lat="45.61266" lon="5.29201">
        <ele>316</ele>
        <time>2021-12-05T10:24:01.403Z</time>
      </trkpt>
      <trkpt lat="45.61266" lon="5.29199">
        <ele>316</ele>
        <time>2021-12-05T10:24:02.403Z</time>
      </trkpt>
      <trkpt lat="45.61266" lon="5.29197">
        <ele>316</ele>
        <time>2021-12-05T10:24:03.402Z</time>
      </trkpt>
      <trkpt lat="45.61266" lon="5.29195">
        <ele>316</ele>
        <time>2021-12-05T10:24:04.403Z</time>
      </trkpt>
      <trkpt lat="45.61266" lon="5.29192">
        <ele>317</ele>
        <time>2021-12-05T10:24:05.403Z</time>
      </trkpt>
      <trkpt lat="45.61267" lon="5.29191">
        <ele>317</ele>
        <time>2021-12-05T10:24:06.403Z</time>
      </trkpt>
      <trkpt lat="45.61267" lon="5.2919">
        <ele>318</ele>
        <time>2021-12-05T10:24:07.402Z</time>
      </trkpt>
      <trkpt lat="45.61267" lon="5.29189">
        <ele>318</ele>
        <time>2021-12-05T10:24:08.403Z</time>
      </trkpt>
      <trkpt lat="45.61266" lon="5.29189">
        <ele>318</ele>
        <time>2021-12-05T10:24:09.402Z</time>
      </trkpt>
      <trkpt lat="45.61266" lon="5.29188">
        <ele>319</ele>
        <time>2021-12-05T10:24:10.403Z</time>
      </trkpt>
      <trkpt lat="45.61266" lon="5.29187">
        <ele>319</ele>
        <time>2021-12-05T10:24:11.403Z</time>
      </trkpt>
      <trkpt lat="45.61267" lon="5.29187">
        <ele>320</ele>
        <time>2021-12-05T10:24:12.403Z</time>
      </trkpt>
      <trkpt lat="45.61268" lon="5.29186">
        <ele>320</ele>
        <time>2021-12-05T10:24:13.402Z</time>
      </trkpt>
      <trkpt lat="45.61269" lon="5.29185">
        <ele>320</ele>
        <time>2021-12-05T10:24:14.403Z</time>
      </trkpt>
      <trkpt lat="45.61269" lon="5.29183">
        <ele>321</ele>
        <time>2021-12-05T10:24:15.403Z</time>
      </trkpt>
      <trkpt lat="45.6127" lon="5.29182">
        <ele>321</ele>
        <time>2021-12-05T10:24:16.403Z</time>
      </trkpt>
      <trkpt lat="45.6127" lon="5.2918">
        <ele>321</ele>
        <time>2021-12-05T10:24:17.403Z</time>
      </trkpt>
      <trkpt lat="45.61271" lon="5.29178">
        <ele>321</ele>
        <time>2021-12-05T10:24:18.403Z</time>
      </trkpt>
      <trkpt lat="45.61271" lon="5.29176">
        <ele>321</ele>
        <time>2021-12-05T10:24:19.402Z</time>
      </trkpt>
      <trkpt lat="45.61272" lon="5.29173">
        <ele>321</ele>
        <time>2021-12-05T10:24:20.402Z</time>
      </trkpt>
      <trkpt lat="45.61272" lon="5.2917">
        <ele>320</ele>
        <time>2021-12-05T10:24:21.403Z</time>
      </trkpt>
      <trkpt lat="45.61273" lon="5.29168">
        <ele>320</ele>
        <time>2021-12-05T10:24:22.403Z</time>
      </trkpt>
      <trkpt lat="45.61273" lon="5.29165">
        <ele>319</ele>
        <time>2021-12-05T10:24:23.402Z</time>
      </trkpt>
      <trkpt lat="45.61274" lon="5.29162">
        <ele>319</ele>
        <time>2021-12-05T10:24:24.403Z</time>
      </trkpt>
      <trkpt lat="45.61274" lon="5.29159">
        <ele>319</ele>
        <time>2021-12-05T10:24:25.403Z</time>
      </trkpt>
      <trkpt lat="45.61274" lon="5.29156">
        <ele>319</ele>
        <time>2021-12-05T10:24:26.402Z</time>
      </trkpt>
      <trkpt lat="45.61275" lon="5.29154">
        <ele>319</ele>
        <time>2021-12-05T10:24:27.403Z</time>
      </trkpt>
      <trkpt lat="45.61276" lon="5.29152">
        <ele>318</ele>
        <time>2021-12-05T10:24:28.402Z</time>
      </trkpt>
      <trkpt lat="45.61277" lon="5.2915">
        <ele>318</ele>
        <time>2021-12-05T10:24:29.402Z</time>
      </trkpt>
      <trkpt lat="45.61277" lon="5.29148">
        <ele>317</ele>
        <time>2021-12-05T10:24:30.403Z</time>
      </trkpt>
      <trkpt lat="45.61278" lon="5.29147">
        <ele>317</ele>
        <time>2021-12-05T10:24:31.403Z</time>
      </trkpt>
      <trkpt lat="45.61278" lon="5.29144">
        <ele>317</ele>
        <time>2021-12-05T10:24:32.402Z</time>
      </trkpt>
      <trkpt lat="45.61279" lon="5.2914">
        <ele>316</ele>
        <time>2021-12-05T10:24:33.403Z</time>
      </trkpt>
      <trkpt lat="45.6128" lon="5.29137">
        <ele>316</ele>
        <time>2021-12-05T10:24:34.403Z</time>
      </trkpt>
      <trkpt lat="45.6128" lon="5.29133">
        <ele>316</ele>
        <time>2021-12-05T10:24:35.403Z</time>
      </trkpt>
      <trkpt lat="45.61281" lon="5.29131">
        <ele>316</ele>
        <time>2021-12-05T10:24:36.403Z</time>
      </trkpt>
      <trkpt lat="45.61281" lon="5.29128">
        <ele>316</ele>
        <time>2021-12-05T10:24:37.403Z</time>
      </trkpt>
      <trkpt lat="45.61281" lon="5.29125">
        <ele>317</ele>
        <time>2021-12-05T10:24:38.402Z</time>
      </trkpt>
      <trkpt lat="45.61281" lon="5.29122">
        <ele>317</ele>
        <time>2021-12-05T10:24:39.403Z</time>
      </trkpt>
      <trkpt lat="45.61281" lon="5.29119">
        <ele>318</ele>
        <time>2021-12-05T10:24:40.403Z</time>
      </trkpt>
      <trkpt lat="45.61282" lon="5.29116">
        <ele>318</ele>
        <time>2021-12-05T10:24:41.403Z</time>
      </trkpt>
      <trkpt lat="45.61282" lon="5.29112">
        <ele>318</ele>
        <time>2021-12-05T10:24:42.402Z</time>
      </trkpt>
      <trkpt lat="45.61283" lon="5.29109">
        <ele>318</ele>
        <time>2021-12-05T10:24:43.403Z</time>
      </trkpt>
      <trkpt lat="45.61283" lon="5.29106">
        <ele>318</ele>
        <time>2021-12-05T10:24:44.403Z</time>
      </trkpt>
      <trkpt lat="45.61283" lon="5.29103">
        <ele>318</ele>
        <time>2021-12-05T10:24:45.402Z</time>
      </trkpt>
      <trkpt lat="45.61284" lon="5.29099">
        <ele>318</ele>
        <time>2021-12-05T10:24:46.403Z</time>
      </trkpt>
      <trkpt lat="45.61284" lon="5.29095">
        <ele>318</ele>
        <time>2021-12-05T10:24:47.403Z</time>
      </trkpt>
      <trkpt lat="45.61284" lon="5.29092">
        <ele>318</ele>
        <time>2021-12-05T10:24:48.403Z</time>
      </trkpt>
      <trkpt lat="45.61284" lon="5.29089">
        <ele>317</ele>
        <time>2021-12-05T10:24:49.402Z</time>
      </trkpt>
      <trkpt lat="45.61285" lon="5.29086">
        <ele>317</ele>
        <time>2021-12-05T10:24:50.402Z</time>
      </trkpt>
      <trkpt lat="45.61285" lon="5.29083">
        <ele>316</ele>
        <time>2021-12-05T10:24:51.403Z</time>
      </trkpt>
      <trkpt lat="45.61285" lon="5.29081">
        <ele>315</ele>
        <time>2021-12-05T10:24:52.403Z</time>
      </trkpt>
      <trkpt lat="45.61285" lon="5.29078">
        <ele>315</ele>
        <time>2021-12-05T10:24:53.403Z</time>
      </trkpt>
      <trkpt lat="45.61286" lon="5.29076">
        <ele>315</ele>
        <time>2021-12-05T10:24:54.402Z</time>
      </trkpt>
      <trkpt lat="45.61286" lon="5.29073">
        <ele>315</ele>
        <time>2021-12-05T10:24:55.403Z</time>
      </trkpt>
      <trkpt lat="45.61286" lon="5.29071">
        <ele>314</ele>
        <time>2021-12-05T10:24:56.403Z</time>
      </trkpt>
      <trkpt lat="45.61286" lon="5.29069">
        <ele>314</ele>
        <time>2021-12-05T10:24:57.402Z</time>
      </trkpt>
      <trkpt lat="45.61286" lon="5.29067">
        <ele>314</ele>
        <time>2021-12-05T10:24:58.402Z</time>
      </trkpt>
      <trkpt lat="45.61286" lon="5.29065">
        <ele>313</ele>
        <time>2021-12-05T10:24:59.403Z</time>
      </trkpt>
      <trkpt lat="45.61285" lon="5.29062">
        <ele>313</ele>
        <time>2021-12-05T10:25:00.403Z</time>
      </trkpt>
      <trkpt lat="45.61285" lon="5.29059">
        <ele>313</ele>
        <time>2021-12-05T10:25:01.403Z</time>
      </trkpt>
      <trkpt lat="45.61285" lon="5.29056">
        <ele>312</ele>
        <time>2021-12-05T10:25:02.403Z</time>
      </trkpt>
      <trkpt lat="45.61286" lon="5.29052">
        <ele>312</ele>
        <time>2021-12-05T10:25:03.403Z</time>
      </trkpt>
      <trkpt lat="45.61286" lon="5.29048">
        <ele>311</ele>
        <time>2021-12-05T10:25:04.403Z</time>
      </trkpt>
      <trkpt lat="45.61286" lon="5.29046">
        <ele>310</ele>
        <time>2021-12-05T10:25:05.403Z</time>
      </trkpt>
      <trkpt lat="45.61287" lon="5.29043">
        <ele>310</ele>
        <time>2021-12-05T10:25:06.403Z</time>
      </trkpt>
      <trkpt lat="45.61287" lon="5.29039">
        <ele>309</ele>
        <time>2021-12-05T10:25:07.403Z</time>
      </trkpt>
      <trkpt lat="45.61287" lon="5.29035">
        <ele>309</ele>
        <time>2021-12-05T10:25:08.403Z</time>
      </trkpt>
      <trkpt lat="45.61286" lon="5.2903">
        <ele>309</ele>
        <time>2021-12-05T10:25:09.402Z</time>
      </trkpt>
      <trkpt lat="45.61286" lon="5.29026">
        <ele>309</ele>
        <time>2021-12-05T10:25:10.402Z</time>
      </trkpt>
      <trkpt lat="45.61285" lon="5.29022">
        <ele>309</ele>
        <time>2021-12-05T10:25:11.403Z</time>
      </trkpt>
      <trkpt lat="45.61285" lon="5.29019">
        <ele>309</ele>
        <time>2021-12-05T10:25:12.402Z</time>
      </trkpt>
      <trkpt lat="45.61285" lon="5.29015">
        <ele>310</ele>
        <time>2021-12-05T10:25:13.403Z</time>
      </trkpt>
      <trkpt lat="45.61286" lon="5.29013">
        <ele>311</ele>
        <time>2021-12-05T10:25:14.403Z</time>
      </trkpt>
      <trkpt lat="45.61286" lon="5.29009">
        <ele>311</ele>
        <time>2021-12-05T10:25:15.403Z</time>
      </trkpt>
      <trkpt lat="45.61286" lon="5.29006">
        <ele>311</ele>
        <time>2021-12-05T10:25:16.402Z</time>
      </trkpt>
      <trkpt lat="45.61285" lon="5.29003">
        <ele>311</ele>
        <time>2021-12-05T10:25:17.403Z</time>
      </trkpt>
      <trkpt lat="45.61284" lon="5.29">
        <ele>311</ele>
        <time>2021-12-05T10:25:18.403Z</time>
      </trkpt>
      <trkpt lat="45.61284" lon="5.28998">
        <ele>310</ele>
        <time>2021-12-05T10:25:19.403Z</time>
      </trkpt>
      <trkpt lat="45.61283" lon="5.28994">
        <ele>309</ele>
        <time>2021-12-05T10:25:20.403Z</time>
      </trkpt>
      <trkpt lat="45.61283" lon="5.28991">
        <ele>309</ele>
        <time>2021-12-05T10:25:21.402Z</time>
      </trkpt>
      <trkpt lat="45.61283" lon="5.28988">
        <ele>308</ele>
        <time>2021-12-05T10:25:22.403Z</time>
      </trkpt>
      <trkpt lat="45.61283" lon="5.28984">
        <ele>308</ele>
        <time>2021-12-05T10:25:23.403Z</time>
      </trkpt>
      <trkpt lat="45.61283" lon="5.28982">
        <ele>308</ele>
        <time>2021-12-05T10:25:24.403Z</time>
      </trkpt>
      <trkpt lat="45.61283" lon="5.28979">
        <ele>307</ele>
        <time>2021-12-05T10:25:25.403Z</time>
      </trkpt>
      <trkpt lat="45.61283" lon="5.28976">
        <ele>307</ele>
        <time>2021-12-05T10:25:26.403Z</time>
      </trkpt>
      <trkpt lat="45.61283" lon="5.28973">
        <ele>307</ele>
        <time>2021-12-05T10:25:27.403Z</time>
      </trkpt>
      <trkpt lat="45.61283" lon="5.28971">
        <ele>307</ele>
        <time>2021-12-05T10:25:28.403Z</time>
      </trkpt>
      <trkpt lat="45.61283" lon="5.28968">
        <ele>307</ele>
        <time>2021-12-05T10:25:29.403Z</time>
      </trkpt>
      <trkpt lat="45.61283" lon="5.28966">
        <ele>306</ele>
        <time>2021-12-05T10:25:30.402Z</time>
      </trkpt>
      <trkpt lat="45.61283" lon="5.28964">
        <ele>306</ele>
        <time>2021-12-05T10:25:31.403Z</time>
      </trkpt>
      <trkpt lat="45.61283" lon="5.2896">
        <ele>306</ele>
        <time>2021-12-05T10:25:32.403Z</time>
      </trkpt>
      <trkpt lat="45.61282" lon="5.28958">
        <ele>306</ele>
        <time>2021-12-05T10:25:33.403Z</time>
      </trkpt>
      <trkpt lat="45.61282" lon="5.28955">
        <ele>306</ele>
        <time>2021-12-05T10:25:34.403Z</time>
      </trkpt>
      <trkpt lat="45.61281" lon="5.28951">
        <ele>306</ele>
        <time>2021-12-05T10:25:35.402Z</time>
      </trkpt>
      <trkpt lat="45.61281" lon="5.28948">
        <ele>306</ele>
        <time>2021-12-05T10:25:36.403Z</time>
      </trkpt>
      <trkpt lat="45.61281" lon="5.28943">
        <ele>306</ele>
        <time>2021-12-05T10:25:37.403Z</time>
      </trkpt>
      <trkpt lat="45.61281" lon="5.28939">
        <ele>307</ele>
        <time>2021-12-05T10:25:38.403Z</time>
      </trkpt>
      <trkpt lat="45.6128" lon="5.28936">
        <ele>308</ele>
        <time>2021-12-05T10:25:39.403Z</time>
      </trkpt>
      <trkpt lat="45.6128" lon="5.28933">
        <ele>309</ele>
        <time>2021-12-05T10:25:40.403Z</time>
      </trkpt>
      <trkpt lat="45.6128" lon="5.2893">
        <ele>309</ele>
        <time>2021-12-05T10:25:41.402Z</time>
      </trkpt>
      <trkpt lat="45.6128" lon="5.28927">
        <ele>310</ele>
        <time>2021-12-05T10:25:42.403Z</time>
      </trkpt>
      <trkpt lat="45.6128" lon="5.28924">
        <ele>310</ele>
        <time>2021-12-05T10:25:43.402Z</time>
      </trkpt>
      <trkpt lat="45.6128" lon="5.28921">
        <ele>311</ele>
        <time>2021-12-05T10:25:44.403Z</time>
      </trkpt>
      <trkpt lat="45.6128" lon="5.28918">
        <ele>312</ele>
        <time>2021-12-05T10:25:45.403Z</time>
      </trkpt>
      <trkpt lat="45.6128" lon="5.28914">
        <ele>312</ele>
        <time>2021-12-05T10:25:46.403Z</time>
      </trkpt>
      <trkpt lat="45.6128" lon="5.28911">
        <ele>312</ele>
        <time>2021-12-05T10:25:47.403Z</time>
      </trkpt>
      <trkpt lat="45.6128" lon="5.28907">
        <ele>313</ele>
        <time>2021-12-05T10:25:48.403Z</time>
      </trkpt>
      <trkpt lat="45.6128" lon="5.28903">
        <ele>313</ele>
        <time>2021-12-05T10:25:49.403Z</time>
      </trkpt>
      <trkpt lat="45.61279" lon="5.289">
        <ele>313</ele>
        <time>2021-12-05T10:25:50.402Z</time>
      </trkpt>
      <trkpt lat="45.61279" lon="5.28896">
        <ele>314</ele>
        <time>2021-12-05T10:25:51.403Z</time>
      </trkpt>
      <trkpt lat="45.61279" lon="5.28893">
        <ele>313</ele>
        <time>2021-12-05T10:25:52.403Z</time>
      </trkpt>
      <trkpt lat="45.61279" lon="5.2889">
        <ele>313</ele>
        <time>2021-12-05T10:25:53.403Z</time>
      </trkpt>
      <trkpt lat="45.61279" lon="5.28887">
        <ele>313</ele>
        <time>2021-12-05T10:25:54.403Z</time>
      </trkpt>
      <trkpt lat="45.6128" lon="5.28885">
        <ele>313</ele>
        <time>2021-12-05T10:25:55.403Z</time>
      </trkpt>
      <trkpt lat="45.6128" lon="5.28882">
        <ele>313</ele>
        <time>2021-12-05T10:25:56.403Z</time>
      </trkpt>
      <trkpt lat="45.6128" lon="5.2888">
        <ele>313</ele>
        <time>2021-12-05T10:25:57.403Z</time>
      </trkpt>
      <trkpt lat="45.6128" lon="5.28878">
        <ele>312</ele>
        <time>2021-12-05T10:25:58.403Z</time>
      </trkpt>
      <trkpt lat="45.6128" lon="5.28876">
        <ele>311</ele>
        <time>2021-12-05T10:25:59.402Z</time>
      </trkpt>
      <trkpt lat="45.6128" lon="5.28873">
        <ele>310</ele>
        <time>2021-12-05T10:26:00.403Z</time>
      </trkpt>
      <trkpt lat="45.6128" lon="5.28869">
        <ele>309</ele>
        <time>2021-12-05T10:26:01.403Z</time>
      </trkpt>
      <trkpt lat="45.6128" lon="5.28865">
        <ele>307</ele>
        <time>2021-12-05T10:26:02.403Z</time>
      </trkpt>
      <trkpt lat="45.6128" lon="5.28861">
        <ele>306</ele>
        <time>2021-12-05T10:26:03.402Z</time>
      </trkpt>
      <trkpt lat="45.6128" lon="5.28859">
        <ele>305</ele>
        <time>2021-12-05T10:26:04.403Z</time>
      </trkpt>
      <trkpt lat="45.6128" lon="5.28858">
        <ele>304</ele>
        <time>2021-12-05T10:26:05.402Z</time>
      </trkpt>
      <trkpt lat="45.61279" lon="5.28858">
        <ele>303</ele>
        <time>2021-12-05T10:26:06.403Z</time>
      </trkpt>
      <trkpt lat="45.61278" lon="5.28856">
        <ele>303</ele>
        <time>2021-12-05T10:26:07.403Z</time>
      </trkpt>
      <trkpt lat="45.61277" lon="5.28855">
        <ele>302</ele>
        <time>2021-12-05T10:26:08.403Z</time>
      </trkpt>
      <trkpt lat="45.61277" lon="5.28852">
        <ele>302</ele>
        <time>2021-12-05T10:26:09.403Z</time>
      </trkpt>
      <trkpt lat="45.61276" lon="5.28849">
        <ele>302</ele>
        <time>2021-12-05T10:26:10.402Z</time>
      </trkpt>
      <trkpt lat="45.61276" lon="5.28846">
        <ele>303</ele>
        <time>2021-12-05T10:26:11.403Z</time>
      </trkpt>
      <trkpt lat="45.61276" lon="5.28844">
        <ele>303</ele>
        <time>2021-12-05T10:26:12.403Z</time>
      </trkpt>
      <trkpt lat="45.61276" lon="5.28841">
        <ele>303</ele>
        <time>2021-12-05T10:26:13.402Z</time>
      </trkpt>
      <trkpt lat="45.61275" lon="5.28839">
        <ele>303</ele>
        <time>2021-12-05T10:26:14.403Z</time>
      </trkpt>
      <trkpt lat="45.61276" lon="5.28834">
        <ele>303</ele>
        <time>2021-12-05T10:26:15.403Z</time>
      </trkpt>
      <trkpt lat="45.61276" lon="5.28831">
        <ele>303</ele>
        <time>2021-12-05T10:26:16.403Z</time>
      </trkpt>
      <trkpt lat="45.61276" lon="5.28827">
        <ele>304</ele>
        <time>2021-12-05T10:26:17.402Z</time>
      </trkpt>
      <trkpt lat="45.61276" lon="5.28825">
        <ele>304</ele>
        <time>2021-12-05T10:26:18.403Z</time>
      </trkpt>
      <trkpt lat="45.61275" lon="5.28823">
        <ele>304</ele>
        <time>2021-12-05T10:26:19.403Z</time>
      </trkpt>
      <trkpt lat="45.61275" lon="5.28821">
        <ele>305</ele>
        <time>2021-12-05T10:26:20.403Z</time>
      </trkpt>
      <trkpt lat="45.61275" lon="5.28819">
        <ele>305</ele>
        <time>2021-12-05T10:26:21.403Z</time>
      </trkpt>
      <trkpt lat="45.61275" lon="5.28817">
        <ele>306</ele>
        <time>2021-12-05T10:26:22.403Z</time>
      </trkpt>
      <trkpt lat="45.61275" lon="5.28815">
        <ele>306</ele>
        <time>2021-12-05T10:26:23.403Z</time>
      </trkpt>
      <trkpt lat="45.61275" lon="5.28812">
        <ele>306</ele>
        <time>2021-12-05T10:26:24.403Z</time>
      </trkpt>
      <trkpt lat="45.61274" lon="5.28809">
        <ele>306</ele>
        <time>2021-12-05T10:26:25.403Z</time>
      </trkpt>
      <trkpt lat="45.61273" lon="5.28807">
        <ele>307</ele>
        <time>2021-12-05T10:26:26.403Z</time>
      </trkpt>
      <trkpt lat="45.61272" lon="5.28805">
        <ele>307</ele>
        <time>2021-12-05T10:26:27.403Z</time>
      </trkpt>
      <trkpt lat="45.61271" lon="5.28803">
        <ele>308</ele>
        <time>2021-12-05T10:26:28.403Z</time>
      </trkpt>
      <trkpt lat="45.61269" lon="5.28801">
        <ele>308</ele>
        <time>2021-12-05T10:26:29.403Z</time>
      </trkpt>
      <trkpt lat="45.61268" lon="5.28799">
        <ele>309</ele>
        <time>2021-12-05T10:26:30.402Z</time>
      </trkpt>
      <trkpt lat="45.61266" lon="5.28797">
        <ele>309</ele>
        <time>2021-12-05T10:26:31.402Z</time>
      </trkpt>
      <trkpt lat="45.61265" lon="5.28795">
        <ele>310</ele>
        <time>2021-12-05T10:26:32.403Z</time>
      </trkpt>
      <trkpt lat="45.61264" lon="5.28793">
        <ele>310</ele>
        <time>2021-12-05T10:26:33.403Z</time>
      </trkpt>
      <trkpt lat="45.61263" lon="5.2879">
        <ele>311</ele>
        <time>2021-12-05T10:26:34.403Z</time>
      </trkpt>
      <trkpt lat="45.61262" lon="5.28788">
        <ele>312</ele>
        <time>2021-12-05T10:26:35.403Z</time>
      </trkpt>
      <trkpt lat="45.61262" lon="5.28786">
        <ele>313</ele>
        <time>2021-12-05T10:26:36.403Z</time>
      </trkpt>
      <trkpt lat="45.61261" lon="5.28784">
        <ele>314</ele>
        <time>2021-12-05T10:26:37.403Z</time>
      </trkpt>
      <trkpt lat="45.61261" lon="5.28782">
        <ele>314</ele>
        <time>2021-12-05T10:26:38.403Z</time>
      </trkpt>
      <trkpt lat="45.61261" lon="5.28781">
        <ele>315</ele>
        <time>2021-12-05T10:26:39.403Z</time>
      </trkpt>
      <trkpt lat="45.6126" lon="5.28778">
        <ele>314</ele>
        <time>2021-12-05T10:26:40.402Z</time>
      </trkpt>
      <trkpt lat="45.6126" lon="5.28776">
        <ele>314</ele>
        <time>2021-12-05T10:26:41.402Z</time>
      </trkpt>
      <trkpt lat="45.61259" lon="5.28772">
        <ele>314</ele>
        <time>2021-12-05T10:26:42.403Z</time>
      </trkpt>
      <trkpt lat="45.61258" lon="5.28769">
        <ele>313</ele>
        <time>2021-12-05T10:26:43.403Z</time>
      </trkpt>
      <trkpt lat="45.61258" lon="5.28766">
        <ele>313</ele>
        <time>2021-12-05T10:26:44.402Z</time>
      </trkpt>
      <trkpt lat="45.61257" lon="5.28763">
        <ele>313</ele>
        <time>2021-12-05T10:26:45.402Z</time>
      </trkpt>
      <trkpt lat="45.61257" lon="5.2876">
        <ele>313</ele>
        <time>2021-12-05T10:26:46.403Z</time>
      </trkpt>
      <trkpt lat="45.61256" lon="5.28756">
        <ele>313</ele>
        <time>2021-12-05T10:26:47.403Z</time>
      </trkpt>
      <trkpt lat="45.61256" lon="5.28753">
        <ele>313</ele>
        <time>2021-12-05T10:26:48.403Z</time>
      </trkpt>
      <trkpt lat="45.61256" lon="5.28751">
        <ele>313</ele>
        <time>2021-12-05T10:26:49.402Z</time>
      </trkpt>
      <trkpt lat="45.61255" lon="5.28746">
        <ele>314</ele>
        <time>2021-12-05T10:26:50.402Z</time>
      </trkpt>
      <trkpt lat="45.61255" lon="5.28741">
        <ele>315</ele>
        <time>2021-12-05T10:26:51.403Z</time>
      </trkpt>
      <trkpt lat="45.61255" lon="5.28737">
        <ele>315</ele>
        <time>2021-12-05T10:26:52.402Z</time>
      </trkpt>
      <trkpt lat="45.61255" lon="5.28734">
        <ele>315</ele>
        <time>2021-12-05T10:26:53.402Z</time>
      </trkpt>
      <trkpt lat="45.61255" lon="5.28731">
        <ele>315</ele>
        <time>2021-12-05T10:26:54.402Z</time>
      </trkpt>
      <trkpt lat="45.61255" lon="5.28728">
        <ele>314</ele>
        <time>2021-12-05T10:26:55.402Z</time>
      </trkpt>
      <trkpt lat="45.61255" lon="5.28726">
        <ele>314</ele>
        <time>2021-12-05T10:26:56.403Z</time>
      </trkpt>
      <trkpt lat="45.61255" lon="5.28723">
        <ele>314</ele>
        <time>2021-12-05T10:26:57.403Z</time>
      </trkpt>
      <trkpt lat="45.61255" lon="5.2872">
        <ele>314</ele>
        <time>2021-12-05T10:26:58.402Z</time>
      </trkpt>
      <trkpt lat="45.61255" lon="5.28717">
        <ele>314</ele>
        <time>2021-12-05T10:26:59.403Z</time>
      </trkpt>
      <trkpt lat="45.61256" lon="5.28715">
        <ele>315</ele>
        <time>2021-12-05T10:27:00.402Z</time>
      </trkpt>
      <trkpt lat="45.61256" lon="5.28712">
        <ele>315</ele>
        <time>2021-12-05T10:27:01.403Z</time>
      </trkpt>
      <trkpt lat="45.61257" lon="5.2871">
        <ele>315</ele>
        <time>2021-12-05T10:27:02.402Z</time>
      </trkpt>
      <trkpt lat="45.61257" lon="5.28707">
        <ele>314</ele>
        <time>2021-12-05T10:27:03.402Z</time>
      </trkpt>
      <trkpt lat="45.61257" lon="5.28704">
        <ele>313</ele>
        <time>2021-12-05T10:27:04.402Z</time>
      </trkpt>
      <trkpt lat="45.61257" lon="5.28702">
        <ele>312</ele>
        <time>2021-12-05T10:27:05.402Z</time>
      </trkpt>
      <trkpt lat="45.61258" lon="5.28699">
        <ele>312</ele>
        <time>2021-12-05T10:27:06.403Z</time>
      </trkpt>
      <trkpt lat="45.61258" lon="5.28696">
        <ele>311</ele>
        <time>2021-12-05T10:27:07.402Z</time>
      </trkpt>
      <trkpt lat="45.61259" lon="5.28693">
        <ele>311</ele>
        <time>2021-12-05T10:27:08.402Z</time>
      </trkpt>
      <trkpt lat="45.61259" lon="5.2869">
        <ele>310</ele>
        <time>2021-12-05T10:27:09.402Z</time>
      </trkpt>
      <trkpt lat="45.6126" lon="5.28688">
        <ele>310</ele>
        <time>2021-12-05T10:27:10.402Z</time>
      </trkpt>
      <trkpt lat="45.6126" lon="5.28685">
        <ele>309</ele>
        <time>2021-12-05T10:27:11.402Z</time>
      </trkpt>
      <trkpt lat="45.6126" lon="5.28682">
        <ele>309</ele>
        <time>2021-12-05T10:27:12.402Z</time>
      </trkpt>
      <trkpt lat="45.6126" lon="5.2868">
        <ele>309</ele>
        <time>2021-12-05T10:27:13.402Z</time>
      </trkpt>
      <trkpt lat="45.6126" lon="5.28677">
        <ele>309</ele>
        <time>2021-12-05T10:27:14.403Z</time>
      </trkpt>
      <trkpt lat="45.61259" lon="5.28673">
        <ele>309</ele>
        <time>2021-12-05T10:27:15.402Z</time>
      </trkpt>
      <trkpt lat="45.6126" lon="5.28669">
        <ele>309</ele>
        <time>2021-12-05T10:27:16.402Z</time>
      </trkpt>
      <trkpt lat="45.61259" lon="5.28665">
        <ele>309</ele>
        <time>2021-12-05T10:27:17.403Z</time>
      </trkpt>
      <trkpt lat="45.61259" lon="5.28661">
        <ele>310</ele>
        <time>2021-12-05T10:27:18.402Z</time>
      </trkpt>
      <trkpt lat="45.61258" lon="5.28658">
        <ele>310</ele>
        <time>2021-12-05T10:27:19.403Z</time>
      </trkpt>
      <trkpt lat="45.61257" lon="5.28655">
        <ele>310</ele>
        <time>2021-12-05T10:27:20.403Z</time>
      </trkpt>
      <trkpt lat="45.61256" lon="5.28653">
        <ele>309</ele>
        <time>2021-12-05T10:27:21.403Z</time>
      </trkpt>
      <trkpt lat="45.61256" lon="5.28651">
        <ele>309</ele>
        <time>2021-12-05T10:27:22.402Z</time>
      </trkpt>
      <trkpt lat="45.61256" lon="5.28649">
        <ele>309</ele>
        <time>2021-12-05T10:27:23.403Z</time>
      </trkpt>
      <trkpt lat="45.61255" lon="5.28647">
        <ele>308</ele>
        <time>2021-12-05T10:27:24.403Z</time>
      </trkpt>
      <trkpt lat="45.61255" lon="5.28644">
        <ele>309</ele>
        <time>2021-12-05T10:27:25.402Z</time>
      </trkpt>
      <trkpt lat="45.61254" lon="5.28642">
        <ele>309</ele>
        <time>2021-12-05T10:27:26.402Z</time>
      </trkpt>
      <trkpt lat="45.61253" lon="5.28638">
        <ele>309</ele>
        <time>2021-12-05T10:27:27.403Z</time>
      </trkpt>
      <trkpt lat="45.61253" lon="5.28636">
        <ele>310</ele>
        <time>2021-12-05T10:27:28.403Z</time>
      </trkpt>
      <trkpt lat="45.61253" lon="5.28632">
        <ele>310</ele>
        <time>2021-12-05T10:27:29.403Z</time>
      </trkpt>
      <trkpt lat="45.61253" lon="5.28626">
        <ele>311</ele>
        <time>2021-12-05T10:27:30.403Z</time>
      </trkpt>
      <trkpt lat="45.61254" lon="5.28622">
        <ele>312</ele>
        <time>2021-12-05T10:27:31.403Z</time>
      </trkpt>
      <trkpt lat="45.61254" lon="5.28619">
        <ele>313</ele>
        <time>2021-12-05T10:27:32.403Z</time>
      </trkpt>
      <trkpt lat="45.61255" lon="5.28615">
        <ele>313</ele>
        <time>2021-12-05T10:27:33.402Z</time>
      </trkpt>
      <trkpt lat="45.61255" lon="5.28612">
        <ele>313</ele>
        <time>2021-12-05T10:27:34.403Z</time>
      </trkpt>
      <trkpt lat="45.61256" lon="5.28608">
        <ele>313</ele>
        <time>2021-12-05T10:27:35.403Z</time>
      </trkpt>
      <trkpt lat="45.61256" lon="5.28604">
        <ele>313</ele>
        <time>2021-12-05T10:27:36.403Z</time>
      </trkpt>
      <trkpt lat="45.61256" lon="5.28601">
        <ele>312</ele>
        <time>2021-12-05T10:27:37.403Z</time>
      </trkpt>
      <trkpt lat="45.61256" lon="5.28596">
        <ele>312</ele>
        <time>2021-12-05T10:27:38.403Z</time>
      </trkpt>
      <trkpt lat="45.61256" lon="5.28593">
        <ele>312</ele>
        <time>2021-12-05T10:27:39.403Z</time>
      </trkpt>
      <trkpt lat="45.61256" lon="5.2859">
        <ele>312</ele>
        <time>2021-12-05T10:27:40.403Z</time>
      </trkpt>
      <trkpt lat="45.61256" lon="5.28588">
        <ele>312</ele>
        <time>2021-12-05T10:27:41.403Z</time>
      </trkpt>
      <trkpt lat="45.61257" lon="5.28585">
        <ele>311</ele>
        <time>2021-12-05T10:27:42.403Z</time>
      </trkpt>
      <trkpt lat="45.61257" lon="5.28582">
        <ele>311</ele>
        <time>2021-12-05T10:27:43.402Z</time>
      </trkpt>
      <trkpt lat="45.61257" lon="5.2858">
        <ele>311</ele>
        <time>2021-12-05T10:27:44.402Z</time>
      </trkpt>
      <trkpt lat="45.61257" lon="5.28576">
        <ele>311</ele>
        <time>2021-12-05T10:27:45.402Z</time>
      </trkpt>
      <trkpt lat="45.61257" lon="5.28573">
        <ele>311</ele>
        <time>2021-12-05T10:27:46.402Z</time>
      </trkpt>
      <trkpt lat="45.61258" lon="5.2857">
        <ele>310</ele>
        <time>2021-12-05T10:27:47.402Z</time>
      </trkpt>
      <trkpt lat="45.61258" lon="5.28566">
        <ele>310</ele>
        <time>2021-12-05T10:27:48.403Z</time>
      </trkpt>
      <trkpt lat="45.61258" lon="5.28563">
        <ele>309</ele>
        <time>2021-12-05T10:27:49.403Z</time>
      </trkpt>
      <trkpt lat="45.61257" lon="5.2856">
        <ele>309</ele>
        <time>2021-12-05T10:27:50.402Z</time>
      </trkpt>
      <trkpt lat="45.61257" lon="5.28557">
        <ele>309</ele>
        <time>2021-12-05T10:27:51.403Z</time>
      </trkpt>
      <trkpt lat="45.61257" lon="5.28554">
        <ele>309</ele>
        <time>2021-12-05T10:27:52.403Z</time>
      </trkpt>
      <trkpt lat="45.61257" lon="5.2855">
        <ele>309</ele>
        <time>2021-12-05T10:27:53.402Z</time>
      </trkpt>
      <trkpt lat="45.61257" lon="5.28546">
        <ele>309</ele>
        <time>2021-12-05T10:27:54.403Z</time>
      </trkpt>
      <trkpt lat="45.61257" lon="5.28543">
        <ele>309</ele>
        <time>2021-12-05T10:27:55.402Z</time>
      </trkpt>
      <trkpt lat="45.61257" lon="5.28539">
        <ele>309</ele>
        <time>2021-12-05T10:27:56.402Z</time>
      </trkpt>
      <trkpt lat="45.61257" lon="5.28535">
        <ele>310</ele>
        <time>2021-12-05T10:27:57.403Z</time>
      </trkpt>
      <trkpt lat="45.61257" lon="5.28532">
        <ele>310</ele>
        <time>2021-12-05T10:27:58.403Z</time>
      </trkpt>
      <trkpt lat="45.61257" lon="5.28529">
        <ele>311</ele>
        <time>2021-12-05T10:27:59.402Z</time>
      </trkpt>
      <trkpt lat="45.61257" lon="5.28526">
        <ele>311</ele>
        <time>2021-12-05T10:28:00.403Z</time>
      </trkpt>
      <trkpt lat="45.61256" lon="5.28523">
        <ele>312</ele>
        <time>2021-12-05T10:28:01.402Z</time>
      </trkpt>
      <trkpt lat="45.61256" lon="5.2852">
        <ele>313</ele>
        <time>2021-12-05T10:28:02.403Z</time>
      </trkpt>
      <trkpt lat="45.61255" lon="5.28517">
        <ele>313</ele>
        <time>2021-12-05T10:28:03.403Z</time>
      </trkpt>
      <trkpt lat="45.61255" lon="5.28514">
        <ele>314</ele>
        <time>2021-12-05T10:28:04.403Z</time>
      </trkpt>
      <trkpt lat="45.61255" lon="5.28511">
        <ele>315</ele>
        <time>2021-12-05T10:28:05.403Z</time>
      </trkpt>
      <trkpt lat="45.61254" lon="5.28508">
        <ele>315</ele>
        <time>2021-12-05T10:28:06.403Z</time>
      </trkpt>
      <trkpt lat="45.61253" lon="5.28506">
        <ele>315</ele>
        <time>2021-12-05T10:28:07.402Z</time>
      </trkpt>
      <trkpt lat="45.61253" lon="5.28503">
        <ele>315</ele>
        <time>2021-12-05T10:28:08.403Z</time>
      </trkpt>
      <trkpt lat="45.61252" lon="5.285">
        <ele>315</ele>
        <time>2021-12-05T10:28:09.403Z</time>
      </trkpt>
      <trkpt lat="45.61252" lon="5.28497">
        <ele>315</ele>
        <time>2021-12-05T10:28:10.403Z</time>
      </trkpt>
      <trkpt lat="45.61251" lon="5.28494">
        <ele>315</ele>
        <time>2021-12-05T10:28:11.402Z</time>
      </trkpt>
      <trkpt lat="45.6125" lon="5.28491">
        <ele>315</ele>
        <time>2021-12-05T10:28:12.403Z</time>
      </trkpt>
      <trkpt lat="45.6125" lon="5.28487">
        <ele>315</ele>
        <time>2021-12-05T10:28:13.403Z</time>
      </trkpt>
      <trkpt lat="45.61249" lon="5.28484">
        <ele>315</ele>
        <time>2021-12-05T10:28:14.403Z</time>
      </trkpt>
      <trkpt lat="45.61248" lon="5.28481">
        <ele>315</ele>
        <time>2021-12-05T10:28:15.403Z</time>
      </trkpt>
      <trkpt lat="45.61247" lon="5.28478">
        <ele>314</ele>
        <time>2021-12-05T10:28:16.403Z</time>
      </trkpt>
      <trkpt lat="45.61246" lon="5.28475">
        <ele>314</ele>
        <time>2021-12-05T10:28:17.403Z</time>
      </trkpt>
      <trkpt lat="45.61245" lon="5.28472">
        <ele>313</ele>
        <time>2021-12-05T10:28:18.403Z</time>
      </trkpt>
      <trkpt lat="45.61244" lon="5.2847">
        <ele>313</ele>
        <time>2021-12-05T10:28:19.403Z</time>
      </trkpt>
      <trkpt lat="45.61243" lon="5.28467">
        <ele>313</ele>
        <time>2021-12-05T10:28:20.403Z</time>
      </trkpt>
      <trkpt lat="45.61243" lon="5.28464">
        <ele>313</ele>
        <time>2021-12-05T10:28:21.403Z</time>
      </trkpt>
      <trkpt lat="45.61243" lon="5.28461">
        <ele>312</ele>
        <time>2021-12-05T10:28:22.403Z</time>
      </trkpt>
      <trkpt lat="45.61242" lon="5.28458">
        <ele>312</ele>
        <time>2021-12-05T10:28:23.403Z</time>
      </trkpt>
      <trkpt lat="45.61242" lon="5.28455">
        <ele>312</ele>
        <time>2021-12-05T10:28:24.402Z</time>
      </trkpt>
      <trkpt lat="45.61242" lon="5.28452">
        <ele>311</ele>
        <time>2021-12-05T10:28:25.402Z</time>
      </trkpt>
      <trkpt lat="45.61242" lon="5.28449">
        <ele>311</ele>
        <time>2021-12-05T10:28:26.403Z</time>
      </trkpt>
      <trkpt lat="45.61241" lon="5.28446">
        <ele>310</ele>
        <time>2021-12-05T10:28:27.403Z</time>
      </trkpt>
      <trkpt lat="45.6124" lon="5.28443">
        <ele>310</ele>
        <time>2021-12-05T10:28:28.402Z</time>
      </trkpt>
      <trkpt lat="45.6124" lon="5.2844">
        <ele>310</ele>
        <time>2021-12-05T10:28:29.403Z</time>
      </trkpt>
      <trkpt lat="45.6124" lon="5.28435">
        <ele>310</ele>
        <time>2021-12-05T10:28:30.403Z</time>
      </trkpt>
      <trkpt lat="45.6124" lon="5.28431">
        <ele>310</ele>
        <time>2021-12-05T10:28:31.403Z</time>
      </trkpt>
      <trkpt lat="45.6124" lon="5.28428">
        <ele>310</ele>
        <time>2021-12-05T10:28:32.403Z</time>
      </trkpt>
      <trkpt lat="45.61239" lon="5.28424">
        <ele>310</ele>
        <time>2021-12-05T10:28:33.403Z</time>
      </trkpt>
      <trkpt lat="45.61238" lon="5.28421">
        <ele>310</ele>
        <time>2021-12-05T10:28:34.403Z</time>
      </trkpt>
      <trkpt lat="45.61238" lon="5.28418">
        <ele>310</ele>
        <time>2021-12-05T10:28:35.403Z</time>
      </trkpt>
      <trkpt lat="45.61237" lon="5.28416">
        <ele>310</ele>
        <time>2021-12-05T10:28:36.402Z</time>
      </trkpt>
      <trkpt lat="45.61236" lon="5.28414">
        <ele>310</ele>
        <time>2021-12-05T10:28:37.403Z</time>
      </trkpt>
      <trkpt lat="45.61235" lon="5.2841">
        <ele>311</ele>
        <time>2021-12-05T10:28:38.403Z</time>
      </trkpt>
      <trkpt lat="45.61235" lon="5.28407">
        <ele>311</ele>
        <time>2021-12-05T10:28:39.403Z</time>
      </trkpt>
      <trkpt lat="45.61234" lon="5.28404">
        <ele>311</ele>
        <time>2021-12-05T10:28:40.402Z</time>
      </trkpt>
      <trkpt lat="45.61232" lon="5.28402">
        <ele>311</ele>
        <time>2021-12-05T10:28:41.403Z</time>
      </trkpt>
      <trkpt lat="45.61231" lon="5.28398">
        <ele>311</ele>
        <time>2021-12-05T10:28:42.403Z</time>
      </trkpt>
      <trkpt lat="45.6123" lon="5.28394">
        <ele>311</ele>
        <time>2021-12-05T10:28:43.402Z</time>
      </trkpt>
      <trkpt lat="45.61229" lon="5.2839">
        <ele>312</ele>
        <time>2021-12-05T10:28:44.403Z</time>
      </trkpt>
      <trkpt lat="45.61229" lon="5.28386">
        <ele>312</ele>
        <time>2021-12-05T10:28:45.402Z</time>
      </trkpt>
      <trkpt lat="45.61229" lon="5.28382">
        <ele>312</ele>
        <time>2021-12-05T10:28:46.403Z</time>
      </trkpt>
      <trkpt lat="45.61229" lon="5.28379">
        <ele>313</ele>
        <time>2021-12-05T10:28:47.403Z</time>
      </trkpt>
      <trkpt lat="45.61229" lon="5.28376">
        <ele>313</ele>
        <time>2021-12-05T10:28:48.403Z</time>
      </trkpt>
      <trkpt lat="45.61229" lon="5.28374">
        <ele>314</ele>
        <time>2021-12-05T10:28:49.403Z</time>
      </trkpt>
      <trkpt lat="45.61229" lon="5.28371">
        <ele>314</ele>
        <time>2021-12-05T10:28:50.403Z</time>
      </trkpt>
      <trkpt lat="45.61229" lon="5.28369">
        <ele>315</ele>
        <time>2021-12-05T10:28:51.403Z</time>
      </trkpt>
      <trkpt lat="45.6123" lon="5.28365">
        <ele>315</ele>
        <time>2021-12-05T10:28:52.402Z</time>
      </trkpt>
      <trkpt lat="45.6123" lon="5.28362">
        <ele>316</ele>
        <time>2021-12-05T10:28:53.403Z</time>
      </trkpt>
      <trkpt lat="45.6123" lon="5.28359">
        <ele>316</ele>
        <time>2021-12-05T10:28:54.403Z</time>
      </trkpt>
      <trkpt lat="45.6123" lon="5.28356">
        <ele>316</ele>
        <time>2021-12-05T10:28:55.403Z</time>
      </trkpt>
      <trkpt lat="45.61231" lon="5.28352">
        <ele>316</ele>
        <time>2021-12-05T10:28:56.402Z</time>
      </trkpt>
      <trkpt lat="45.61232" lon="5.28349">
        <ele>316</ele>
        <time>2021-12-05T10:28:57.402Z</time>
      </trkpt>
      <trkpt lat="45.61232" lon="5.28345">
        <ele>316</ele>
        <time>2021-12-05T10:28:58.403Z</time>
      </trkpt>
      <trkpt lat="45.61233" lon="5.28343">
        <ele>316</ele>
        <time>2021-12-05T10:28:59.403Z</time>
      </trkpt>
      <trkpt lat="45.61233" lon="5.28339">
        <ele>316</ele>
        <time>2021-12-05T10:29:00.403Z</time>
      </trkpt>
      <trkpt lat="45.61234" lon="5.28335">
        <ele>316</ele>
        <time>2021-12-05T10:29:01.403Z</time>
      </trkpt>
      <trkpt lat="45.61235" lon="5.28332">
        <ele>316</ele>
        <time>2021-12-05T10:29:02.402Z</time>
      </trkpt>
      <trkpt lat="45.61236" lon="5.28328">
        <ele>316</ele>
        <time>2021-12-05T10:29:03.403Z</time>
      </trkpt>
      <trkpt lat="45.61236" lon="5.28324">
        <ele>316</ele>
        <time>2021-12-05T10:29:04.403Z</time>
      </trkpt>
      <trkpt lat="45.61237" lon="5.28321">
        <ele>317</ele>
        <time>2021-12-05T10:29:05.403Z</time>
      </trkpt>
      <trkpt lat="45.61237" lon="5.28317">
        <ele>317</ele>
        <time>2021-12-05T10:29:06.403Z</time>
      </trkpt>
      <trkpt lat="45.61237" lon="5.28312">
        <ele>317</ele>
        <time>2021-12-05T10:29:07.403Z</time>
      </trkpt>
      <trkpt lat="45.61238" lon="5.28308">
        <ele>317</ele>
        <time>2021-12-05T10:29:08.403Z</time>
      </trkpt>
      <trkpt lat="45.61239" lon="5.28305">
        <ele>316</ele>
        <time>2021-12-05T10:29:09.402Z</time>
      </trkpt>
      <trkpt lat="45.6124" lon="5.28302">
        <ele>316</ele>
        <time>2021-12-05T10:29:10.402Z</time>
      </trkpt>
      <trkpt lat="45.6124" lon="5.28298">
        <ele>316</ele>
        <time>2021-12-05T10:29:11.403Z</time>
      </trkpt>
      <trkpt lat="45.61241" lon="5.28295">
        <ele>316</ele>
        <time>2021-12-05T10:29:12.403Z</time>
      </trkpt>
      <trkpt lat="45.6124" lon="5.28291">
        <ele>315</ele>
        <time>2021-12-05T10:29:13.402Z</time>
      </trkpt>
      <trkpt lat="45.6124" lon="5.28288">
        <ele>315</ele>
        <time>2021-12-05T10:29:14.403Z</time>
      </trkpt>
      <trkpt lat="45.61239" lon="5.28284">
        <ele>315</ele>
        <time>2021-12-05T10:29:15.402Z</time>
      </trkpt>
      <trkpt lat="45.61239" lon="5.2828">
        <ele>315</ele>
        <time>2021-12-05T10:29:16.403Z</time>
      </trkpt>
      <trkpt lat="45.61239" lon="5.28277">
        <ele>314</ele>
        <time>2021-12-05T10:29:17.403Z</time>
      </trkpt>
      <trkpt lat="45.61238" lon="5.28275">
        <ele>313</ele>
        <time>2021-12-05T10:29:18.402Z</time>
      </trkpt>
      <trkpt lat="45.61237" lon="5.28272">
        <ele>313</ele>
        <time>2021-12-05T10:29:19.403Z</time>
      </trkpt>
      <trkpt lat="45.61237" lon="5.28269">
        <ele>312</ele>
        <time>2021-12-05T10:29:20.402Z</time>
      </trkpt>
      <trkpt lat="45.61236" lon="5.28266">
        <ele>312</ele>
        <time>2021-12-05T10:29:21.402Z</time>
      </trkpt>
      <trkpt lat="45.61236" lon="5.28265">
        <ele>312</ele>
        <time>2021-12-05T10:29:22.403Z</time>
      </trkpt>
      <trkpt lat="45.61236" lon="5.28264">
        <ele>312</ele>
        <time>2021-12-05T10:29:23.403Z</time>
      </trkpt>
      <trkpt lat="45.61237" lon="5.28264">
        <ele>311</ele>
        <time>2021-12-05T10:29:24.403Z</time>
      </trkpt>
      <trkpt lat="45.61238" lon="5.28264">
        <ele>311</ele>
        <time>2021-12-05T10:29:25.403Z</time>
      </trkpt>
      <trkpt lat="45.61238" lon="5.28266">
        <ele>310</ele>
        <time>2021-12-05T10:29:26.403Z</time>
      </trkpt>
      <trkpt lat="45.6124" lon="5.28269">
        <ele>309</ele>
        <time>2021-12-05T10:29:27.403Z</time>
      </trkpt>
      <trkpt lat="45.6124" lon="5.28271">
        <ele>309</ele>
        <time>2021-12-05T10:29:28.403Z</time>
      </trkpt>
      <trkpt lat="45.6124" lon="5.28274">
        <ele>308</ele>
        <time>2021-12-05T10:29:29.403Z</time>
      </trkpt>
      <trkpt lat="45.61241" lon="5.28277">
        <ele>308</ele>
        <time>2021-12-05T10:29:30.402Z</time>
      </trkpt>
      <trkpt lat="45.61241" lon="5.28279">
        <ele>307</ele>
        <time>2021-12-05T10:29:31.403Z</time>
      </trkpt>
      <trkpt lat="45.61241" lon="5.28281">
        <ele>307</ele>
        <time>2021-12-05T10:29:32.403Z</time>
      </trkpt>
      <trkpt lat="45.61241" lon="5.28284">
        <ele>306</ele>
        <time>2021-12-05T10:29:33.403Z</time>
      </trkpt>
      <trkpt lat="45.61241" lon="5.28286">
        <ele>306</ele>
        <time>2021-12-05T10:29:34.403Z</time>
      </trkpt>
      <trkpt lat="45.61241" lon="5.28289">
        <ele>305</ele>
        <time>2021-12-05T10:29:35.402Z</time>
      </trkpt>
      <trkpt lat="45.61241" lon="5.2829">
        <ele>305</ele>
        <time>2021-12-05T10:29:36.403Z</time>
      </trkpt>
      <trkpt lat="45.61241" lon="5.2829">
        <ele>305</ele>
        <time>2021-12-05T10:29:37.403Z</time>
      </trkpt>
      <trkpt lat="45.6124" lon="5.28289">
        <ele>305</ele>
        <time>2021-12-05T10:29:38.403Z</time>
      </trkpt>
      <trkpt lat="45.6124" lon="5.28287">
        <ele>304</ele>
        <time>2021-12-05T10:29:39.403Z</time>
      </trkpt>
      <trkpt lat="45.61238" lon="5.28284">
        <ele>304</ele>
        <time>2021-12-05T10:29:40.402Z</time>
      </trkpt>
      <trkpt lat="45.61238" lon="5.28282">
        <ele>304</ele>
        <time>2021-12-05T10:29:41.402Z</time>
      </trkpt>
      <trkpt lat="45.61237" lon="5.28279">
        <ele>304</ele>
        <time>2021-12-05T10:29:42.402Z</time>
      </trkpt>
      <trkpt lat="45.61236" lon="5.28276">
        <ele>304</ele>
        <time>2021-12-05T10:29:43.403Z</time>
      </trkpt>
      <trkpt lat="45.61236" lon="5.28274">
        <ele>304</ele>
        <time>2021-12-05T10:29:44.403Z</time>
      </trkpt>
      <trkpt lat="45.61235" lon="5.28271">
        <ele>304</ele>
        <time>2021-12-05T10:29:45.403Z</time>
      </trkpt>
      <trkpt lat="45.61234" lon="5.28269">
        <ele>304</ele>
        <time>2021-12-05T10:29:46.403Z</time>
      </trkpt>
      <trkpt lat="45.61234" lon="5.28267">
        <ele>303</ele>
        <time>2021-12-05T10:29:47.403Z</time>
      </trkpt>
      <trkpt lat="45.61234" lon="5.28265">
        <ele>303</ele>
        <time>2021-12-05T10:29:48.402Z</time>
      </trkpt>
      <trkpt lat="45.61233" lon="5.28262">
        <ele>302</ele>
        <time>2021-12-05T10:29:49.403Z</time>
      </trkpt>
      <trkpt lat="45.61233" lon="5.2826">
        <ele>302</ele>
        <time>2021-12-05T10:29:50.403Z</time>
      </trkpt>
      <trkpt lat="45.61232" lon="5.28257">
        <ele>301</ele>
        <time>2021-12-05T10:29:51.403Z</time>
      </trkpt>
      <trkpt lat="45.61231" lon="5.28254">
        <ele>301</ele>
        <time>2021-12-05T10:29:52.402Z</time>
      </trkpt>
      <trkpt lat="45.61231" lon="5.28251">
        <ele>301</ele>
        <time>2021-12-05T10:29:53.403Z</time>
      </trkpt>
      <trkpt lat="45.61231" lon="5.28248">
        <ele>301</ele>
        <time>2021-12-05T10:29:54.403Z</time>
      </trkpt>
      <trkpt lat="45.61231" lon="5.28245">
        <ele>300</ele>
        <time>2021-12-05T10:29:55.403Z</time>
      </trkpt>
      <trkpt lat="45.61229" lon="5.2824">
        <ele>300</ele>
        <time>2021-12-05T10:29:56.403Z</time>
      </trkpt>
      <trkpt lat="45.61229" lon="5.28237">
        <ele>300</ele>
        <time>2021-12-05T10:29:57.403Z</time>
      </trkpt>
      <trkpt lat="45.61229" lon="5.28233">
        <ele>300</ele>
        <time>2021-12-05T10:29:58.403Z</time>
      </trkpt>
      <trkpt lat="45.61229" lon="5.28229">
        <ele>300</ele>
        <time>2021-12-05T10:29:59.402Z</time>
      </trkpt>
      <trkpt lat="45.61229" lon="5.28226">
        <ele>301</ele>
        <time>2021-12-05T10:30:00.402Z</time>
      </trkpt>
      <trkpt lat="45.61228" lon="5.28223">
        <ele>301</ele>
        <time>2021-12-05T10:30:01.402Z</time>
      </trkpt>
      <trkpt lat="45.61228" lon="5.28221">
        <ele>302</ele>
        <time>2021-12-05T10:30:02.403Z</time>
      </trkpt>
      <trkpt lat="45.61228" lon="5.28218">
        <ele>303</ele>
        <time>2021-12-05T10:30:03.403Z</time>
      </trkpt>
      <trkpt lat="45.61228" lon="5.28216">
        <ele>303</ele>
        <time>2021-12-05T10:30:04.403Z</time>
      </trkpt>
      <trkpt lat="45.61228" lon="5.28213">
        <ele>304</ele>
        <time>2021-12-05T10:30:05.403Z</time>
      </trkpt>
      <trkpt lat="45.61228" lon="5.2821">
        <ele>304</ele>
        <time>2021-12-05T10:30:06.403Z</time>
      </trkpt>
      <trkpt lat="45.61229" lon="5.28207">
        <ele>305</ele>
        <time>2021-12-05T10:30:07.402Z</time>
      </trkpt>
      <trkpt lat="45.61229" lon="5.28205">
        <ele>306</ele>
        <time>2021-12-05T10:30:08.402Z</time>
      </trkpt>
      <trkpt lat="45.61229" lon="5.28202">
        <ele>306</ele>
        <time>2021-12-05T10:30:09.403Z</time>
      </trkpt>
      <trkpt lat="45.61229" lon="5.28199">
        <ele>306</ele>
        <time>2021-12-05T10:30:10.402Z</time>
      </trkpt>
      <trkpt lat="45.6123" lon="5.28196">
        <ele>306</ele>
        <time>2021-12-05T10:30:11.403Z</time>
      </trkpt>
      <trkpt lat="45.6123" lon="5.28192">
        <ele>306</ele>
        <time>2021-12-05T10:30:12.402Z</time>
      </trkpt>
      <trkpt lat="45.6123" lon="5.2819">
        <ele>305</ele>
        <time>2021-12-05T10:30:13.403Z</time>
      </trkpt>
      <trkpt lat="45.6123" lon="5.28187">
        <ele>305</ele>
        <time>2021-12-05T10:30:14.403Z</time>
      </trkpt>
      <trkpt lat="45.61229" lon="5.28184">
        <ele>305</ele>
        <time>2021-12-05T10:30:15.402Z</time>
      </trkpt>
      <trkpt lat="45.61229" lon="5.28181">
        <ele>304</ele>
        <time>2021-12-05T10:30:16.403Z</time>
      </trkpt>
      <trkpt lat="45.6123" lon="5.28175">
        <ele>304</ele>
        <time>2021-12-05T10:30:17.403Z</time>
      </trkpt>
      <trkpt lat="45.6123" lon="5.28169">
        <ele>303</ele>
        <time>2021-12-05T10:30:18.403Z</time>
      </trkpt>
      <trkpt lat="45.6123" lon="5.28165">
        <ele>303</ele>
        <time>2021-12-05T10:30:19.403Z</time>
      </trkpt>
      <trkpt lat="45.61229" lon="5.28163">
        <ele>302</ele>
        <time>2021-12-05T10:30:20.403Z</time>
      </trkpt>
      <trkpt lat="45.61229" lon="5.28161">
        <ele>302</ele>
        <time>2021-12-05T10:30:21.403Z</time>
      </trkpt>
      <trkpt lat="45.61228" lon="5.28159">
        <ele>301</ele>
        <time>2021-12-05T10:30:22.402Z</time>
      </trkpt>
      <trkpt lat="45.61227" lon="5.28155">
        <ele>300</ele>
        <time>2021-12-05T10:30:23.402Z</time>
      </trkpt>
      <trkpt lat="45.61226" lon="5.28152">
        <ele>299</ele>
        <time>2021-12-05T10:30:24.402Z</time>
      </trkpt>
      <trkpt lat="45.61224" lon="5.28148">
        <ele>298</ele>
        <time>2021-12-05T10:30:25.403Z</time>
      </trkpt>
      <trkpt lat="45.61223" lon="5.28146">
        <ele>298</ele>
        <time>2021-12-05T10:30:26.403Z</time>
      </trkpt>
      <trkpt lat="45.61222" lon="5.28143">
        <ele>298</ele>
        <time>2021-12-05T10:30:27.403Z</time>
      </trkpt>
      <trkpt lat="45.61222" lon="5.28141">
        <ele>297</ele>
        <time>2021-12-05T10:30:28.403Z</time>
      </trkpt>
      <trkpt lat="45.61221" lon="5.28139">
        <ele>297</ele>
        <time>2021-12-05T10:30:29.403Z</time>
      </trkpt>
      <trkpt lat="45.61221" lon="5.28137">
        <ele>297</ele>
        <time>2021-12-05T10:30:30.403Z</time>
      </trkpt>
      <trkpt lat="45.6122" lon="5.28134">
        <ele>297</ele>
        <time>2021-12-05T10:30:31.403Z</time>
      </trkpt>
      <trkpt lat="45.61219" lon="5.28131">
        <ele>297</ele>
        <time>2021-12-05T10:30:32.403Z</time>
      </trkpt>
      <trkpt lat="45.61218" lon="5.28128">
        <ele>297</ele>
        <time>2021-12-05T10:30:33.403Z</time>
      </trkpt>
      <trkpt lat="45.61217" lon="5.28125">
        <ele>297</ele>
        <time>2021-12-05T10:30:34.403Z</time>
      </trkpt>
      <trkpt lat="45.61216" lon="5.28122">
        <ele>298</ele>
        <time>2021-12-05T10:30:35.403Z</time>
      </trkpt>
      <trkpt lat="45.61214" lon="5.28119">
        <ele>298</ele>
        <time>2021-12-05T10:30:36.403Z</time>
      </trkpt>
      <trkpt lat="45.61213" lon="5.28116">
        <ele>298</ele>
        <time>2021-12-05T10:30:37.402Z</time>
      </trkpt>
      <trkpt lat="45.61212" lon="5.28112">
        <ele>299</ele>
        <time>2021-12-05T10:30:38.403Z</time>
      </trkpt>
      <trkpt lat="45.61211" lon="5.2811">
        <ele>299</ele>
        <time>2021-12-05T10:30:39.403Z</time>
      </trkpt>
      <trkpt lat="45.61211" lon="5.28108">
        <ele>299</ele>
        <time>2021-12-05T10:30:40.403Z</time>
      </trkpt>
      <trkpt lat="45.6121" lon="5.28106">
        <ele>299</ele>
        <time>2021-12-05T10:30:41.403Z</time>
      </trkpt>
      <trkpt lat="45.61209" lon="5.28104">
        <ele>299</ele>
        <time>2021-12-05T10:30:42.402Z</time>
      </trkpt>
      <trkpt lat="45.61207" lon="5.28102">
        <ele>299</ele>
        <time>2021-12-05T10:30:43.403Z</time>
      </trkpt>
      <trkpt lat="45.61206" lon="5.281">
        <ele>299</ele>
        <time>2021-12-05T10:30:44.403Z</time>
      </trkpt>
      <trkpt lat="45.61205" lon="5.28098">
        <ele>299</ele>
        <time>2021-12-05T10:30:45.402Z</time>
      </trkpt>
      <trkpt lat="45.61203" lon="5.28096">
        <ele>300</ele>
        <time>2021-12-05T10:30:46.402Z</time>
      </trkpt>
      <trkpt lat="45.61201" lon="5.28093">
        <ele>300</ele>
        <time>2021-12-05T10:30:47.403Z</time>
      </trkpt>
      <trkpt lat="45.612" lon="5.2809">
        <ele>300</ele>
        <time>2021-12-05T10:30:48.402Z</time>
      </trkpt>
      <trkpt lat="45.61199" lon="5.28088">
        <ele>299</ele>
        <time>2021-12-05T10:30:49.402Z</time>
      </trkpt>
      <trkpt lat="45.61198" lon="5.28085">
        <ele>300</ele>
        <time>2021-12-05T10:30:50.403Z</time>
      </trkpt>
      <trkpt lat="45.61197" lon="5.28082">
        <ele>300</ele>
        <time>2021-12-05T10:30:51.403Z</time>
      </trkpt>
      <trkpt lat="45.61197" lon="5.28079">
        <ele>300</ele>
        <time>2021-12-05T10:30:52.403Z</time>
      </trkpt>
      <trkpt lat="45.61196" lon="5.28075">
        <ele>301</ele>
        <time>2021-12-05T10:30:53.403Z</time>
      </trkpt>
      <trkpt lat="45.61195" lon="5.28072">
        <ele>301</ele>
        <time>2021-12-05T10:30:54.402Z</time>
      </trkpt>
      <trkpt lat="45.61194" lon="5.2807">
        <ele>302</ele>
        <time>2021-12-05T10:30:55.403Z</time>
      </trkpt>
      <trkpt lat="45.61193" lon="5.28067">
        <ele>302</ele>
        <time>2021-12-05T10:30:56.403Z</time>
      </trkpt>
      <trkpt lat="45.61193" lon="5.28065">
        <ele>303</ele>
        <time>2021-12-05T10:30:57.403Z</time>
      </trkpt>
      <trkpt lat="45.61192" lon="5.28062">
        <ele>304</ele>
        <time>2021-12-05T10:30:58.402Z</time>
      </trkpt>
      <trkpt lat="45.61191" lon="5.2806">
        <ele>305</ele>
        <time>2021-12-05T10:30:59.402Z</time>
      </trkpt>
      <trkpt lat="45.61191" lon="5.28057">
        <ele>305</ele>
        <time>2021-12-05T10:31:00.403Z</time>
      </trkpt>
      <trkpt lat="45.6119" lon="5.28055">
        <ele>306</ele>
        <time>2021-12-05T10:31:01.403Z</time>
      </trkpt>
      <trkpt lat="45.6119" lon="5.28052">
        <ele>306</ele>
        <time>2021-12-05T10:31:02.403Z</time>
      </trkpt>
      <trkpt lat="45.61189" lon="5.2805">
        <ele>306</ele>
        <time>2021-12-05T10:31:03.403Z</time>
      </trkpt>
      <trkpt lat="45.61189" lon="5.28048">
        <ele>307</ele>
        <time>2021-12-05T10:31:04.403Z</time>
      </trkpt>
      <trkpt lat="45.61188" lon="5.28046">
        <ele>307</ele>
        <time>2021-12-05T10:31:05.403Z</time>
      </trkpt>
      <trkpt lat="45.61188" lon="5.28044">
        <ele>307</ele>
        <time>2021-12-05T10:31:06.403Z</time>
      </trkpt>
      <trkpt lat="45.61187" lon="5.28042">
        <ele>307</ele>
        <time>2021-12-05T10:31:07.403Z</time>
      </trkpt>
      <trkpt lat="45.61187" lon="5.28041">
        <ele>307</ele>
        <time>2021-12-05T10:31:08.403Z</time>
      </trkpt>
      <trkpt lat="45.61187" lon="5.28039">
        <ele>307</ele>
        <time>2021-12-05T10:31:09.403Z</time>
      </trkpt>
      <trkpt lat="45.61187" lon="5.28037">
        <ele>307</ele>
        <time>2021-12-05T10:31:10.403Z</time>
      </trkpt>
      <trkpt lat="45.61186" lon="5.28035">
        <ele>307</ele>
        <time>2021-12-05T10:31:11.402Z</time>
      </trkpt>
      <trkpt lat="45.61186" lon="5.28032">
        <ele>307</ele>
        <time>2021-12-05T10:31:12.403Z</time>
      </trkpt>
      <trkpt lat="45.61186" lon="5.2803">
        <ele>306</ele>
        <time>2021-12-05T10:31:13.403Z</time>
      </trkpt>
      <trkpt lat="45.61185" lon="5.28028">
        <ele>306</ele>
        <time>2021-12-05T10:31:14.402Z</time>
      </trkpt>
      <trkpt lat="45.61184" lon="5.28025">
        <ele>306</ele>
        <time>2021-12-05T10:31:15.403Z</time>
      </trkpt>
      <trkpt lat="45.61184" lon="5.28023">
        <ele>306</ele>
        <time>2021-12-05T10:31:16.403Z</time>
      </trkpt>
      <trkpt lat="45.61184" lon="5.2802">
        <ele>306</ele>
        <time>2021-12-05T10:31:17.403Z</time>
      </trkpt>
      <trkpt lat="45.61183" lon="5.28018">
        <ele>305</ele>
        <time>2021-12-05T10:31:18.403Z</time>
      </trkpt>
      <trkpt lat="45.61183" lon="5.28015">
        <ele>305</ele>
        <time>2021-12-05T10:31:19.402Z</time>
      </trkpt>
      <trkpt lat="45.61182" lon="5.28012">
        <ele>305</ele>
        <time>2021-12-05T10:31:20.402Z</time>
      </trkpt>
      <trkpt lat="45.61181" lon="5.28008">
        <ele>305</ele>
        <time>2021-12-05T10:31:21.403Z</time>
      </trkpt>
      <trkpt lat="45.6118" lon="5.28005">
        <ele>306</ele>
        <time>2021-12-05T10:31:22.403Z</time>
      </trkpt>
      <trkpt lat="45.61179" lon="5.27998">
        <ele>306</ele>
        <time>2021-12-05T10:31:23.402Z</time>
      </trkpt>
      <trkpt lat="45.61177" lon="5.27994">
        <ele>307</ele>
        <time>2021-12-05T10:31:24.402Z</time>
      </trkpt>
      <trkpt lat="45.61176" lon="5.27991">
        <ele>307</ele>
        <time>2021-12-05T10:31:25.403Z</time>
      </trkpt>
      <trkpt lat="45.61174" lon="5.27989">
        <ele>307</ele>
        <time>2021-12-05T10:31:26.402Z</time>
      </trkpt>
      <trkpt lat="45.61173" lon="5.27986">
        <ele>307</ele>
        <time>2021-12-05T10:31:27.402Z</time>
      </trkpt>
      <trkpt lat="45.61172" lon="5.27982">
        <ele>307</ele>
        <time>2021-12-05T10:31:28.403Z</time>
      </trkpt>
      <trkpt lat="45.61171" lon="5.27979">
        <ele>307</ele>
        <time>2021-12-05T10:31:29.403Z</time>
      </trkpt>
      <trkpt lat="45.61171" lon="5.27976">
        <ele>307</ele>
        <time>2021-12-05T10:31:30.403Z</time>
      </trkpt>
      <trkpt lat="45.61171" lon="5.27973">
        <ele>306</ele>
        <time>2021-12-05T10:31:31.403Z</time>
      </trkpt>
      <trkpt lat="45.6117" lon="5.27969">
        <ele>306</ele>
        <time>2021-12-05T10:31:32.403Z</time>
      </trkpt>
      <trkpt lat="45.6117" lon="5.27965">
        <ele>306</ele>
        <time>2021-12-05T10:31:33.402Z</time>
      </trkpt>
      <trkpt lat="45.61169" lon="5.27961">
        <ele>306</ele>
        <time>2021-12-05T10:31:34.403Z</time>
      </trkpt>
      <trkpt lat="45.61169" lon="5.27957">
        <ele>305</ele>
        <time>2021-12-05T10:31:35.403Z</time>
      </trkpt>
      <trkpt lat="45.61169" lon="5.27953">
        <ele>305</ele>
        <time>2021-12-05T10:31:36.403Z</time>
      </trkpt>
      <trkpt lat="45.61169" lon="5.27949">
        <ele>305</ele>
        <time>2021-12-05T10:31:37.403Z</time>
      </trkpt>
      <trkpt lat="45.6117" lon="5.27945">
        <ele>304</ele>
        <time>2021-12-05T10:31:38.402Z</time>
      </trkpt>
      <trkpt lat="45.6117" lon="5.27942">
        <ele>304</ele>
        <time>2021-12-05T10:31:39.402Z</time>
      </trkpt>
      <trkpt lat="45.61171" lon="5.27939">
        <ele>303</ele>
        <time>2021-12-05T10:31:40.403Z</time>
      </trkpt>
      <trkpt lat="45.61172" lon="5.27936">
        <ele>303</ele>
        <time>2021-12-05T10:31:41.403Z</time>
      </trkpt>
      <trkpt lat="45.61172" lon="5.27932">
        <ele>302</ele>
        <time>2021-12-05T10:31:42.403Z</time>
      </trkpt>
      <trkpt lat="45.61173" lon="5.2793">
        <ele>301</ele>
        <time>2021-12-05T10:31:43.403Z</time>
      </trkpt>
      <trkpt lat="45.61174" lon="5.27927">
        <ele>301</ele>
        <time>2021-12-05T10:31:44.402Z</time>
      </trkpt>
      <trkpt lat="45.61175" lon="5.27923">
        <ele>300</ele>
        <time>2021-12-05T10:31:45.403Z</time>
      </trkpt>
      <trkpt lat="45.61177" lon="5.27919">
        <ele>299</ele>
        <time>2021-12-05T10:31:46.403Z</time>
      </trkpt>
      <trkpt lat="45.61179" lon="5.27917">
        <ele>298</ele>
        <time>2021-12-05T10:31:47.402Z</time>
      </trkpt>
      <trkpt lat="45.61181" lon="5.27916">
        <ele>298</ele>
        <time>2021-12-05T10:31:48.403Z</time>
      </trkpt>
      <trkpt lat="45.61183" lon="5.27916">
        <ele>297</ele>
        <time>2021-12-05T10:31:49.402Z</time>
      </trkpt>
      <trkpt lat="45.61185" lon="5.27917">
        <ele>297</ele>
        <time>2021-12-05T10:31:50.403Z</time>
      </trkpt>
      <trkpt lat="45.61187" lon="5.27918">
        <ele>297</ele>
        <time>2021-12-05T10:31:51.402Z</time>
      </trkpt>
      <trkpt lat="45.61189" lon="5.27919">
        <ele>296</ele>
        <time>2021-12-05T10:31:52.403Z</time>
      </trkpt>
      <trkpt lat="45.61191" lon="5.27921">
        <ele>296</ele>
        <time>2021-12-05T10:31:53.402Z</time>
      </trkpt>
      <trkpt lat="45.61192" lon="5.27923">
        <ele>296</ele>
        <time>2021-12-05T10:31:54.403Z</time>
      </trkpt>
      <trkpt lat="45.61194" lon="5.27925">
        <ele>296</ele>
        <time>2021-12-05T10:31:55.403Z</time>
      </trkpt>
      <trkpt lat="45.61196" lon="5.27926">
        <ele>295</ele>
        <time>2021-12-05T10:31:56.402Z</time>
      </trkpt>
      <trkpt lat="45.61199" lon="5.27927">
        <ele>295</ele>
        <time>2021-12-05T10:31:57.403Z</time>
      </trkpt>
      <trkpt lat="45.61202" lon="5.27929">
        <ele>295</ele>
        <time>2021-12-05T10:31:58.403Z</time>
      </trkpt>
      <trkpt lat="45.61204" lon="5.27931">
        <ele>295</ele>
        <time>2021-12-05T10:31:59.402Z</time>
      </trkpt>
      <trkpt lat="45.61205" lon="5.27934">
        <ele>295</ele>
        <time>2021-12-05T10:32:00.402Z</time>
      </trkpt>
      <trkpt lat="45.61207" lon="5.27936">
        <ele>295</ele>
        <time>2021-12-05T10:32:01.402Z</time>
      </trkpt>
      <trkpt lat="45.61209" lon="5.27938">
        <ele>295</ele>
        <time>2021-12-05T10:32:02.403Z</time>
      </trkpt>
      <trkpt lat="45.61211" lon="5.27939">
        <ele>295</ele>
        <time>2021-12-05T10:32:03.403Z</time>
      </trkpt>
      <trkpt lat="45.61212" lon="5.27941">
        <ele>295</ele>
        <time>2021-12-05T10:32:04.403Z</time>
      </trkpt>
      <trkpt lat="45.61214" lon="5.27942">
        <ele>295</ele>
        <time>2021-12-05T10:32:05.403Z</time>
      </trkpt>
      <trkpt lat="45.61215" lon="5.27944">
        <ele>295</ele>
        <time>2021-12-05T10:32:06.403Z</time>
      </trkpt>
      <trkpt lat="45.61216" lon="5.27946">
        <ele>296</ele>
        <time>2021-12-05T10:32:07.402Z</time>
      </trkpt>
      <trkpt lat="45.61217" lon="5.27948">
        <ele>295</ele>
        <time>2021-12-05T10:32:08.403Z</time>
      </trkpt>
      <trkpt lat="45.61218" lon="5.27949">
        <ele>295</ele>
        <time>2021-12-05T10:32:09.402Z</time>
      </trkpt>
      <trkpt lat="45.6122" lon="5.2795">
        <ele>296</ele>
        <time>2021-12-05T10:32:10.403Z</time>
      </trkpt>
      <trkpt lat="45.61221" lon="5.27952">
        <ele>296</ele>
        <time>2021-12-05T10:32:11.403Z</time>
      </trkpt>
      <trkpt lat="45.61222" lon="5.27953">
        <ele>296</ele>
        <time>2021-12-05T10:32:12.403Z</time>
      </trkpt>
      <trkpt lat="45.61224" lon="5.27955">
        <ele>296</ele>
        <time>2021-12-05T10:32:13.402Z</time>
      </trkpt>
      <trkpt lat="45.61225" lon="5.27957">
        <ele>295</ele>
        <time>2021-12-05T10:32:14.403Z</time>
      </trkpt>
      <trkpt lat="45.61227" lon="5.27959">
        <ele>295</ele>
        <time>2021-12-05T10:32:15.403Z</time>
      </trkpt>
      <trkpt lat="45.61228" lon="5.27961">
        <ele>294</ele>
        <time>2021-12-05T10:32:16.403Z</time>
      </trkpt>
      <trkpt lat="45.61231" lon="5.27962">
        <ele>294</ele>
        <time>2021-12-05T10:32:17.403Z</time>
      </trkpt>
      <trkpt lat="45.61232" lon="5.27964">
        <ele>293</ele>
        <time>2021-12-05T10:32:18.403Z</time>
      </trkpt>
      <trkpt lat="45.61233" lon="5.27966">
        <ele>292</ele>
        <time>2021-12-05T10:32:19.403Z</time>
      </trkpt>
      <trkpt lat="45.61235" lon="5.27968">
        <ele>292</ele>
        <time>2021-12-05T10:32:20.403Z</time>
      </trkpt>
      <trkpt lat="45.61236" lon="5.2797">
        <ele>292</ele>
        <time>2021-12-05T10:32:21.403Z</time>
      </trkpt>
      <trkpt lat="45.61237" lon="5.27971">
        <ele>291</ele>
        <time>2021-12-05T10:32:22.403Z</time>
      </trkpt>
      <trkpt lat="45.61238" lon="5.27973">
        <ele>291</ele>
        <time>2021-12-05T10:32:23.403Z</time>
      </trkpt>
      <trkpt lat="45.61239" lon="5.27975">
        <ele>290</ele>
        <time>2021-12-05T10:32:24.403Z</time>
      </trkpt>
      <trkpt lat="45.6124" lon="5.27978">
        <ele>290</ele>
        <time>2021-12-05T10:32:25.402Z</time>
      </trkpt>
      <trkpt lat="45.61241" lon="5.2798">
        <ele>290</ele>
        <time>2021-12-05T10:32:26.403Z</time>
      </trkpt>
      <trkpt lat="45.61242" lon="5.27983">
        <ele>289</ele>
        <time>2021-12-05T10:32:27.402Z</time>
      </trkpt>
      <trkpt lat="45.61243" lon="5.27985">
        <ele>288</ele>
        <time>2021-12-05T10:32:28.403Z</time>
      </trkpt>
      <trkpt lat="45.61244" lon="5.27987">
        <ele>287</ele>
        <time>2021-12-05T10:32:29.403Z</time>
      </trkpt>
      <trkpt lat="45.61245" lon="5.27989">
        <ele>286</ele>
        <time>2021-12-05T10:32:30.403Z</time>
      </trkpt>
      <trkpt lat="45.61247" lon="5.27992">
        <ele>285</ele>
        <time>2021-12-05T10:32:31.403Z</time>
      </trkpt>
      <trkpt lat="45.61248" lon="5.27994">
        <ele>284</ele>
        <time>2021-12-05T10:32:32.403Z</time>
      </trkpt>
      <trkpt lat="45.61249" lon="5.27996">
        <ele>284</ele>
        <time>2021-12-05T10:32:33.402Z</time>
      </trkpt>
      <trkpt lat="45.6125" lon="5.27998">
        <ele>283</ele>
        <time>2021-12-05T10:32:34.402Z</time>
      </trkpt>
      <trkpt lat="45.61251" lon="5.28001">
        <ele>282</ele>
        <time>2021-12-05T10:32:35.403Z</time>
      </trkpt>
      <trkpt lat="45.61253" lon="5.28003">
        <ele>282</ele>
        <time>2021-12-05T10:32:36.402Z</time>
      </trkpt>
      <trkpt lat="45.61254" lon="5.28005">
        <ele>282</ele>
        <time>2021-12-05T10:32:37.402Z</time>
      </trkpt>
      <trkpt lat="45.61256" lon="5.28007">
        <ele>282</ele>
        <time>2021-12-05T10:32:38.403Z</time>
      </trkpt>
      <trkpt lat="45.61258" lon="5.28008">
        <ele>282</ele>
        <time>2021-12-05T10:32:39.403Z</time>
      </trkpt>
      <trkpt lat="45.61261" lon="5.28009">
        <ele>282</ele>
        <time>2021-12-05T10:32:40.403Z</time>
      </trkpt>
      <trkpt lat="45.61264" lon="5.2801">
        <ele>282</ele>
        <time>2021-12-05T10:32:41.403Z</time>
      </trkpt>
      <trkpt lat="45.61266" lon="5.2801">
        <ele>282</ele>
        <time>2021-12-05T10:32:42.403Z</time>
      </trkpt>
      <trkpt lat="45.61269" lon="5.2801">
        <ele>281</ele>
        <time>2021-12-05T10:32:43.403Z</time>
      </trkpt>
      <trkpt lat="45.61272" lon="5.2801">
        <ele>281</ele>
        <time>2021-12-05T10:32:44.403Z</time>
      </trkpt>
      <trkpt lat="45.61274" lon="5.2801">
        <ele>280</ele>
        <time>2021-12-05T10:32:45.403Z</time>
      </trkpt>
      <trkpt lat="45.61276" lon="5.28009">
        <ele>280</ele>
        <time>2021-12-05T10:32:46.402Z</time>
      </trkpt>
      <trkpt lat="45.61279" lon="5.28008">
        <ele>279</ele>
        <time>2021-12-05T10:32:47.403Z</time>
      </trkpt>
      <trkpt lat="45.61281" lon="5.28006">
        <ele>278</ele>
        <time>2021-12-05T10:32:48.403Z</time>
      </trkpt>
      <trkpt lat="45.61282" lon="5.28005">
        <ele>277</ele>
        <time>2021-12-05T10:32:49.403Z</time>
      </trkpt>
      <trkpt lat="45.61284" lon="5.28003">
        <ele>277</ele>
        <time>2021-12-05T10:32:50.403Z</time>
      </trkpt>
      <trkpt lat="45.61285" lon="5.28001">
        <ele>276</ele>
        <time>2021-12-05T10:32:51.402Z</time>
      </trkpt>
      <trkpt lat="45.61286" lon="5.27999">
        <ele>276</ele>
        <time>2021-12-05T10:32:52.403Z</time>
      </trkpt>
      <trkpt lat="45.61288" lon="5.27996">
        <ele>275</ele>
        <time>2021-12-05T10:32:53.402Z</time>
      </trkpt>
      <trkpt lat="45.61289" lon="5.27994">
        <ele>274</ele>
        <time>2021-12-05T10:32:54.402Z</time>
      </trkpt>
      <trkpt lat="45.61291" lon="5.27992">
        <ele>274</ele>
        <time>2021-12-05T10:32:55.402Z</time>
      </trkpt>
      <trkpt lat="45.61292" lon="5.27989">
        <ele>273</ele>
        <time>2021-12-05T10:32:56.403Z</time>
      </trkpt>
      <trkpt lat="45.61294" lon="5.27985">
        <ele>272</ele>
        <time>2021-12-05T10:32:57.402Z</time>
      </trkpt>
      <trkpt lat="45.61295" lon="5.27982">
        <ele>272</ele>
        <time>2021-12-05T10:32:58.403Z</time>
      </trkpt>
      <trkpt lat="45.61296" lon="5.27979">
        <ele>271</ele>
        <time>2021-12-05T10:32:59.403Z</time>
      </trkpt>
      <trkpt lat="45.61297" lon="5.27977">
        <ele>271</ele>
        <time>2021-12-05T10:33:00.403Z</time>
      </trkpt>
      <trkpt lat="45.61298" lon="5.27974">
        <ele>271</ele>
        <time>2021-12-05T10:33:01.403Z</time>
      </trkpt>
      <trkpt lat="45.613" lon="5.27972">
        <ele>270</ele>
        <time>2021-12-05T10:33:02.402Z</time>
      </trkpt>
      <trkpt lat="45.61301" lon="5.27969">
        <ele>270</ele>
        <time>2021-12-05T10:33:03.403Z</time>
      </trkpt>
      <trkpt lat="45.61303" lon="5.27966">
        <ele>269</ele>
        <time>2021-12-05T10:33:04.403Z</time>
      </trkpt>
      <trkpt lat="45.61304" lon="5.27964">
        <ele>269</ele>
        <time>2021-12-05T10:33:05.402Z</time>
      </trkpt>
      <trkpt lat="45.61306" lon="5.27962">
        <ele>268</ele>
        <time>2021-12-05T10:33:06.402Z</time>
      </trkpt>
      <trkpt lat="45.61308" lon="5.27959">
        <ele>267</ele>
        <time>2021-12-05T10:33:07.402Z</time>
      </trkpt>
      <trkpt lat="45.61309" lon="5.27957">
        <ele>267</ele>
        <time>2021-12-05T10:33:08.403Z</time>
      </trkpt>
      <trkpt lat="45.61311" lon="5.27954">
        <ele>266</ele>
        <time>2021-12-05T10:33:09.402Z</time>
      </trkpt>
      <trkpt lat="45.61313" lon="5.27953">
        <ele>266</ele>
        <time>2021-12-05T10:33:10.402Z</time>
      </trkpt>
      <trkpt lat="45.61314" lon="5.27951">
        <ele>266</ele>
        <time>2021-12-05T10:33:11.402Z</time>
      </trkpt>
      <trkpt lat="45.61316" lon="5.27949">
        <ele>266</ele>
        <time>2021-12-05T10:33:12.403Z</time>
      </trkpt>
      <trkpt lat="45.61317" lon="5.27946">
        <ele>266</ele>
        <time>2021-12-05T10:33:13.402Z</time>
      </trkpt>
      <trkpt lat="45.61319" lon="5.27943">
        <ele>265</ele>
        <time>2021-12-05T10:33:14.403Z</time>
      </trkpt>
      <trkpt lat="45.6132" lon="5.27941">
        <ele>265</ele>
        <time>2021-12-05T10:33:15.403Z</time>
      </trkpt>
      <trkpt lat="45.61322" lon="5.27938">
        <ele>265</ele>
        <time>2021-12-05T10:33:16.403Z</time>
      </trkpt>
      <trkpt lat="45.61323" lon="5.27936">
        <ele>265</ele>
        <time>2021-12-05T10:33:17.403Z</time>
      </trkpt>
      <trkpt lat="45.61325" lon="5.27933">
        <ele>264</ele>
        <time>2021-12-05T10:33:18.403Z</time>
      </trkpt>
      <trkpt lat="45.61326" lon="5.2793">
        <ele>264</ele>
        <time>2021-12-05T10:33:19.403Z</time>
      </trkpt>
      <trkpt lat="45.61327" lon="5.27927">
        <ele>264</ele>
        <time>2021-12-05T10:33:20.403Z</time>
      </trkpt>
      <trkpt lat="45.61328" lon="5.27925">
        <ele>264</ele>
        <time>2021-12-05T10:33:21.402Z</time>
      </trkpt>
      <trkpt lat="45.61329" lon="5.27922">
        <ele>264</ele>
        <time>2021-12-05T10:33:22.402Z</time>
      </trkpt>
      <trkpt lat="45.61329" lon="5.27919">
        <ele>264</ele>
        <time>2021-12-05T10:33:23.403Z</time>
      </trkpt>
      <trkpt lat="45.6133" lon="5.27915">
        <ele>264</ele>
        <time>2021-12-05T10:33:24.402Z</time>
      </trkpt>
      <trkpt lat="45.6133" lon="5.27912">
        <ele>264</ele>
        <time>2021-12-05T10:33:25.403Z</time>
      </trkpt>
      <trkpt lat="45.6133" lon="5.27909">
        <ele>264</ele>
        <time>2021-12-05T10:33:26.403Z</time>
      </trkpt>
      <trkpt lat="45.6133" lon="5.27905">
        <ele>263</ele>
        <time>2021-12-05T10:33:27.403Z</time>
      </trkpt>
      <trkpt lat="45.6133" lon="5.27902">
        <ele>263</ele>
        <time>2021-12-05T10:33:28.402Z</time>
      </trkpt>
      <trkpt lat="45.61329" lon="5.27898">
        <ele>263</ele>
        <time>2021-12-05T10:33:29.402Z</time>
      </trkpt>
      <trkpt lat="45.61329" lon="5.27895">
        <ele>263</ele>
        <time>2021-12-05T10:33:30.403Z</time>
      </trkpt>
      <trkpt lat="45.61328" lon="5.27891">
        <ele>262</ele>
        <time>2021-12-05T10:33:31.402Z</time>
      </trkpt>
      <trkpt lat="45.61328" lon="5.27888">
        <ele>262</ele>
        <time>2021-12-05T10:33:32.403Z</time>
      </trkpt>
      <trkpt lat="45.61328" lon="5.27884">
        <ele>262</ele>
        <time>2021-12-05T10:33:33.402Z</time>
      </trkpt>
      <trkpt lat="45.61327" lon="5.27881">
        <ele>261</ele>
        <time>2021-12-05T10:33:34.403Z</time>
      </trkpt>
      <trkpt lat="45.61326" lon="5.27878">
        <ele>261</ele>
        <time>2021-12-05T10:33:35.403Z</time>
      </trkpt>
      <trkpt lat="45.61325" lon="5.27874">
        <ele>261</ele>
        <time>2021-12-05T10:33:36.403Z</time>
      </trkpt>
      <trkpt lat="45.61324" lon="5.27871">
        <ele>260</ele>
        <time>2021-12-05T10:33:37.403Z</time>
      </trkpt>
      <trkpt lat="45.61323" lon="5.27867">
        <ele>260</ele>
        <time>2021-12-05T10:33:38.402Z</time>
      </trkpt>
      <trkpt lat="45.61323" lon="5.27865">
        <ele>260</ele>
        <time>2021-12-05T10:33:39.403Z</time>
      </trkpt>
      <trkpt lat="45.61322" lon="5.27862">
        <ele>260</ele>
        <time>2021-12-05T10:33:40.403Z</time>
      </trkpt>
      <trkpt lat="45.61321" lon="5.27859">
        <ele>260</ele>
        <time>2021-12-05T10:33:41.403Z</time>
      </trkpt>
      <trkpt lat="45.6132" lon="5.27856">
        <ele>259</ele>
        <time>2021-12-05T10:33:42.402Z</time>
      </trkpt>
      <trkpt lat="45.61319" lon="5.27853">
        <ele>260</ele>
        <time>2021-12-05T10:33:43.402Z</time>
      </trkpt>
      <trkpt lat="45.61318" lon="5.27851">
        <ele>260</ele>
        <time>2021-12-05T10:33:44.402Z</time>
      </trkpt>
      <trkpt lat="45.61317" lon="5.27848">
        <ele>260</ele>
        <time>2021-12-05T10:33:45.403Z</time>
      </trkpt>
      <trkpt lat="45.61317" lon="5.27845">
        <ele>259</ele>
        <time>2021-12-05T10:33:46.403Z</time>
      </trkpt>
      <trkpt lat="45.61316" lon="5.27841">
        <ele>259</ele>
        <time>2021-12-05T10:33:47.402Z</time>
      </trkpt>
      <trkpt lat="45.61315" lon="5.27838">
        <ele>258</ele>
        <time>2021-12-05T10:33:48.403Z</time>
      </trkpt>
      <trkpt lat="45.61314" lon="5.27835">
        <ele>258</ele>
        <time>2021-12-05T10:33:49.402Z</time>
      </trkpt>
      <trkpt lat="45.61314" lon="5.27833">
        <ele>257</ele>
        <time>2021-12-05T10:33:50.403Z</time>
      </trkpt>
      <trkpt lat="45.61313" lon="5.2783">
        <ele>256</ele>
        <time>2021-12-05T10:33:51.403Z</time>
      </trkpt>
      <trkpt lat="45.61312" lon="5.27826">
        <ele>256</ele>
        <time>2021-12-05T10:33:52.402Z</time>
      </trkpt>
      <trkpt lat="45.61311" lon="5.27823">
        <ele>256</ele>
        <time>2021-12-05T10:33:53.402Z</time>
      </trkpt>
      <trkpt lat="45.6131" lon="5.2782">
        <ele>256</ele>
        <time>2021-12-05T10:33:54.403Z</time>
      </trkpt>
      <trkpt lat="45.61311" lon="5.27816">
        <ele>255</ele>
        <time>2021-12-05T10:33:55.402Z</time>
      </trkpt>
      <trkpt lat="45.6131" lon="5.27813">
        <ele>255</ele>
        <time>2021-12-05T10:33:56.403Z</time>
      </trkpt>
      <trkpt lat="45.6131" lon="5.2781">
        <ele>254</ele>
        <time>2021-12-05T10:33:57.403Z</time>
      </trkpt>
      <trkpt lat="45.6131" lon="5.27806">
        <ele>254</ele>
        <time>2021-12-05T10:33:58.403Z</time>
      </trkpt>
      <trkpt lat="45.61309" lon="5.27803">
        <ele>253</ele>
        <time>2021-12-05T10:33:59.403Z</time>
      </trkpt>
      <trkpt lat="45.61308" lon="5.278">
        <ele>252</ele>
        <time>2021-12-05T10:34:00.403Z</time>
      </trkpt>
      <trkpt lat="45.61308" lon="5.27797">
        <ele>251</ele>
        <time>2021-12-05T10:34:01.402Z</time>
      </trkpt>
      <trkpt lat="45.61307" lon="5.27793">
        <ele>251</ele>
        <time>2021-12-05T10:34:02.403Z</time>
      </trkpt>
      <trkpt lat="45.61306" lon="5.2779">
        <ele>251</ele>
        <time>2021-12-05T10:34:03.403Z</time>
      </trkpt>
      <trkpt lat="45.61305" lon="5.27786">
        <ele>250</ele>
        <time>2021-12-05T10:34:04.402Z</time>
      </trkpt>
      <trkpt lat="45.61305" lon="5.27783">
        <ele>251</ele>
        <time>2021-12-05T10:34:05.402Z</time>
      </trkpt>
      <trkpt lat="45.61304" lon="5.27779">
        <ele>251</ele>
        <time>2021-12-05T10:34:06.403Z</time>
      </trkpt>
      <trkpt lat="45.61304" lon="5.27776">
        <ele>251</ele>
        <time>2021-12-05T10:34:07.403Z</time>
      </trkpt>
      <trkpt lat="45.61303" lon="5.27773">
        <ele>251</ele>
        <time>2021-12-05T10:34:08.403Z</time>
      </trkpt>
      <trkpt lat="45.61302" lon="5.2777">
        <ele>251</ele>
        <time>2021-12-05T10:34:09.402Z</time>
      </trkpt>
      <trkpt lat="45.61301" lon="5.27767">
        <ele>251</ele>
        <time>2021-12-05T10:34:10.403Z</time>
      </trkpt>
      <trkpt lat="45.61301" lon="5.27764">
        <ele>251</ele>
        <time>2021-12-05T10:34:11.403Z</time>
      </trkpt>
      <trkpt lat="45.613" lon="5.2776">
        <ele>251</ele>
        <time>2021-12-05T10:34:12.403Z</time>
      </trkpt>
      <trkpt lat="45.61299" lon="5.27757">
        <ele>251</ele>
        <time>2021-12-05T10:34:13.403Z</time>
      </trkpt>
      <trkpt lat="45.61299" lon="5.27754">
        <ele>251</ele>
        <time>2021-12-05T10:34:14.403Z</time>
      </trkpt>
      <trkpt lat="45.61298" lon="5.27751">
        <ele>250</ele>
        <time>2021-12-05T10:34:15.402Z</time>
      </trkpt>
      <trkpt lat="45.61298" lon="5.27748">
        <ele>250</ele>
        <time>2021-12-05T10:34:16.403Z</time>
      </trkpt>
      <trkpt lat="45.61297" lon="5.27745">
        <ele>250</ele>
        <time>2021-12-05T10:34:17.403Z</time>
      </trkpt>
      <trkpt lat="45.61297" lon="5.27742">
        <ele>249</ele>
        <time>2021-12-05T10:34:18.403Z</time>
      </trkpt>
      <trkpt lat="45.61296" lon="5.27738">
        <ele>249</ele>
        <time>2021-12-05T10:34:19.403Z</time>
      </trkpt>
      <trkpt lat="45.61296" lon="5.27735">
        <ele>249</ele>
        <time>2021-12-05T10:34:20.403Z</time>
      </trkpt>
      <trkpt lat="45.61296" lon="5.27731">
        <ele>248</ele>
        <time>2021-12-05T10:34:21.402Z</time>
      </trkpt>
      <trkpt lat="45.61296" lon="5.27727">
        <ele>248</ele>
        <time>2021-12-05T10:34:22.403Z</time>
      </trkpt>
      <trkpt lat="45.61295" lon="5.27724">
        <ele>248</ele>
        <time>2021-12-05T10:34:23.402Z</time>
      </trkpt>
      <trkpt lat="45.61295" lon="5.27721">
        <ele>248</ele>
        <time>2021-12-05T10:34:24.402Z</time>
      </trkpt>
      <trkpt lat="45.61295" lon="5.27718">
        <ele>248</ele>
        <time>2021-12-05T10:34:25.403Z</time>
      </trkpt>
      <trkpt lat="45.61295" lon="5.27714">
        <ele>248</ele>
        <time>2021-12-05T10:34:26.403Z</time>
      </trkpt>
      <trkpt lat="45.61294" lon="5.27711">
        <ele>247</ele>
        <time>2021-12-05T10:34:27.403Z</time>
      </trkpt>
      <trkpt lat="45.61294" lon="5.27708">
        <ele>247</ele>
        <time>2021-12-05T10:34:28.403Z</time>
      </trkpt>
      <trkpt lat="45.61293" lon="5.27704">
        <ele>246</ele>
        <time>2021-12-05T10:34:29.403Z</time>
      </trkpt>
      <trkpt lat="45.61293" lon="5.27701">
        <ele>246</ele>
        <time>2021-12-05T10:34:30.402Z</time>
      </trkpt>
      <trkpt lat="45.61293" lon="5.27697">
        <ele>246</ele>
        <time>2021-12-05T10:34:31.402Z</time>
      </trkpt>
      <trkpt lat="45.61293" lon="5.27694">
        <ele>246</ele>
        <time>2021-12-05T10:34:32.403Z</time>
      </trkpt>
      <trkpt lat="45.61293" lon="5.27691">
        <ele>246</ele>
        <time>2021-12-05T10:34:33.403Z</time>
      </trkpt>
      <trkpt lat="45.61292" lon="5.27688">
        <ele>245</ele>
        <time>2021-12-05T10:34:34.403Z</time>
      </trkpt>
      <trkpt lat="45.61292" lon="5.27685">
        <ele>245</ele>
        <time>2021-12-05T10:34:35.403Z</time>
      </trkpt>
      <trkpt lat="45.61292" lon="5.27681">
        <ele>244</ele>
        <time>2021-12-05T10:34:36.403Z</time>
      </trkpt>
      <trkpt lat="45.61293" lon="5.27678">
        <ele>244</ele>
        <time>2021-12-05T10:34:37.403Z</time>
      </trkpt>
      <trkpt lat="45.61293" lon="5.27674">
        <ele>244</ele>
        <time>2021-12-05T10:34:38.402Z</time>
      </trkpt>
      <trkpt lat="45.61294" lon="5.2767">
        <ele>243</ele>
        <time>2021-12-05T10:34:39.402Z</time>
      </trkpt>
      <trkpt lat="45.61295" lon="5.27668">
        <ele>243</ele>
        <time>2021-12-05T10:34:40.403Z</time>
      </trkpt>
      <trkpt lat="45.61297" lon="5.27665">
        <ele>243</ele>
        <time>2021-12-05T10:34:41.403Z</time>
      </trkpt>
      <trkpt lat="45.613" lon="5.27662">
        <ele>243</ele>
        <time>2021-12-05T10:34:42.403Z</time>
      </trkpt>
      <trkpt lat="45.61301" lon="5.27662">
        <ele>243</ele>
        <time>2021-12-05T10:34:43.402Z</time>
      </trkpt>
      <trkpt lat="45.61304" lon="5.27661">
        <ele>242</ele>
        <time>2021-12-05T10:34:44.403Z</time>
      </trkpt>
      <trkpt lat="45.61306" lon="5.27661">
        <ele>242</ele>
        <time>2021-12-05T10:34:45.403Z</time>
      </trkpt>
      <trkpt lat="45.61308" lon="5.27661">
        <ele>242</ele>
        <time>2021-12-05T10:34:46.403Z</time>
      </trkpt>
      <trkpt lat="45.6131" lon="5.27661">
        <ele>241</ele>
        <time>2021-12-05T10:34:47.403Z</time>
      </trkpt>
      <trkpt lat="45.61312" lon="5.27661">
        <ele>241</ele>
        <time>2021-12-05T10:34:48.402Z</time>
      </trkpt>
      <trkpt lat="45.61314" lon="5.2766">
        <ele>241</ele>
        <time>2021-12-05T10:34:49.403Z</time>
      </trkpt>
      <trkpt lat="45.61317" lon="5.27659">
        <ele>242</ele>
        <time>2021-12-05T10:34:50.403Z</time>
      </trkpt>
      <trkpt lat="45.61319" lon="5.27659">
        <ele>242</ele>
        <time>2021-12-05T10:34:51.402Z</time>
      </trkpt>
      <trkpt lat="45.61321" lon="5.27658">
        <ele>242</ele>
        <time>2021-12-05T10:34:52.402Z</time>
      </trkpt>
      <trkpt lat="45.61324" lon="5.27657">
        <ele>242</ele>
        <time>2021-12-05T10:34:53.403Z</time>
      </trkpt>
      <trkpt lat="45.61326" lon="5.27656">
        <ele>242</ele>
        <time>2021-12-05T10:34:54.403Z</time>
      </trkpt>
      <trkpt lat="45.61328" lon="5.27654">
        <ele>241</ele>
        <time>2021-12-05T10:34:55.403Z</time>
      </trkpt>
      <trkpt lat="45.6133" lon="5.27654">
        <ele>241</ele>
        <time>2021-12-05T10:34:56.403Z</time>
      </trkpt>
      <trkpt lat="45.61333" lon="5.27653">
        <ele>241</ele>
        <time>2021-12-05T10:34:57.403Z</time>
      </trkpt>
      <trkpt lat="45.61335" lon="5.27653">
        <ele>241</ele>
        <time>2021-12-05T10:34:58.403Z</time>
      </trkpt>
      <trkpt lat="45.61338" lon="5.27653">
        <ele>240</ele>
        <time>2021-12-05T10:34:59.402Z</time>
      </trkpt>
      <trkpt lat="45.6134" lon="5.27652">
        <ele>240</ele>
        <time>2021-12-05T10:35:00.403Z</time>
      </trkpt>
      <trkpt lat="45.61342" lon="5.27652">
        <ele>240</ele>
        <time>2021-12-05T10:35:01.402Z</time>
      </trkpt>
      <trkpt lat="45.61345" lon="5.27652">
        <ele>239</ele>
        <time>2021-12-05T10:35:02.403Z</time>
      </trkpt>
      <trkpt lat="45.61347" lon="5.27651">
        <ele>239</ele>
        <time>2021-12-05T10:35:03.403Z</time>
      </trkpt>
      <trkpt lat="45.6135" lon="5.27651">
        <ele>239</ele>
        <time>2021-12-05T10:35:04.403Z</time>
      </trkpt>
      <trkpt lat="45.61352" lon="5.2765">
        <ele>239</ele>
        <time>2021-12-05T10:35:05.403Z</time>
      </trkpt>
      <trkpt lat="45.61354" lon="5.27649">
        <ele>239</ele>
        <time>2021-12-05T10:35:06.403Z</time>
      </trkpt>
      <trkpt lat="45.61357" lon="5.27649">
        <ele>238</ele>
        <time>2021-12-05T10:35:07.402Z</time>
      </trkpt>
      <trkpt lat="45.61359" lon="5.27648">
        <ele>238</ele>
        <time>2021-12-05T10:35:08.403Z</time>
      </trkpt>
      <trkpt lat="45.61362" lon="5.27646">
        <ele>238</ele>
        <time>2021-12-05T10:35:09.402Z</time>
      </trkpt>
      <trkpt lat="45.61364" lon="5.27645">
        <ele>237</ele>
        <time>2021-12-05T10:35:10.403Z</time>
      </trkpt>
      <trkpt lat="45.61367" lon="5.27645">
        <ele>237</ele>
        <time>2021-12-05T10:35:11.403Z</time>
      </trkpt>
      <trkpt lat="45.61369" lon="5.27645">
        <ele>237</ele>
        <time>2021-12-05T10:35:12.403Z</time>
      </trkpt>
      <trkpt lat="45.61371" lon="5.27644">
        <ele>236</ele>
        <time>2021-12-05T10:35:13.403Z</time>
      </trkpt>
      <trkpt lat="45.61374" lon="5.27644">
        <ele>236</ele>
        <time>2021-12-05T10:35:14.402Z</time>
      </trkpt>
      <trkpt lat="45.61376" lon="5.27643">
        <ele>236</ele>
        <time>2021-12-05T10:35:15.402Z</time>
      </trkpt>
      <trkpt lat="45.61378" lon="5.27643">
        <ele>236</ele>
        <time>2021-12-05T10:35:16.403Z</time>
      </trkpt>
      <trkpt lat="45.61381" lon="5.27642">
        <ele>236</ele>
        <time>2021-12-05T10:35:17.403Z</time>
      </trkpt>
      <trkpt lat="45.61383" lon="5.27642">
        <ele>236</ele>
        <time>2021-12-05T10:35:18.403Z</time>
      </trkpt>
      <trkpt lat="45.61386" lon="5.27641">
        <ele>236</ele>
        <time>2021-12-05T10:35:19.403Z</time>
      </trkpt>
      <trkpt lat="45.61388" lon="5.2764">
        <ele>235</ele>
        <time>2021-12-05T10:35:20.403Z</time>
      </trkpt>
      <trkpt lat="45.61391" lon="5.27638">
        <ele>235</ele>
        <time>2021-12-05T10:35:21.402Z</time>
      </trkpt>
      <trkpt lat="45.61393" lon="5.27637">
        <ele>235</ele>
        <time>2021-12-05T10:35:22.403Z</time>
      </trkpt>
      <trkpt lat="45.61394" lon="5.27637">
        <ele>235</ele>
        <time>2021-12-05T10:35:23.403Z</time>
      </trkpt>
      <trkpt lat="45.61395" lon="5.27636">
        <ele>235</ele>
        <time>2021-12-05T10:35:24.403Z</time>
      </trkpt>
      <trkpt lat="45.61396" lon="5.27636">
        <ele>235</ele>
        <time>2021-12-05T10:35:25.403Z</time>
      </trkpt>
      <trkpt lat="45.61398" lon="5.27635">
        <ele>235</ele>
        <time>2021-12-05T10:35:26.402Z</time>
      </trkpt>
      <trkpt lat="45.61399" lon="5.27634">
        <ele>235</ele>
        <time>2021-12-05T10:35:27.403Z</time>
      </trkpt>
      <trkpt lat="45.61401" lon="5.27632">
        <ele>234</ele>
        <time>2021-12-05T10:35:28.402Z</time>
      </trkpt>
      <trkpt lat="45.61403" lon="5.27631">
        <ele>234</ele>
        <time>2021-12-05T10:35:29.403Z</time>
      </trkpt>
      <trkpt lat="45.61406" lon="5.27629">
        <ele>233</ele>
        <time>2021-12-05T10:35:30.403Z</time>
      </trkpt>
      <trkpt lat="45.61408" lon="5.27627">
        <ele>233</ele>
        <time>2021-12-05T10:35:31.403Z</time>
      </trkpt>
      <trkpt lat="45.61409" lon="5.27625">
        <ele>232</ele>
        <time>2021-12-05T10:35:32.403Z</time>
      </trkpt>
      <trkpt lat="45.6141" lon="5.27623">
        <ele>232</ele>
        <time>2021-12-05T10:35:33.402Z</time>
      </trkpt>
      <trkpt lat="45.61411" lon="5.2762">
        <ele>231</ele>
        <time>2021-12-05T10:35:34.403Z</time>
      </trkpt>
      <trkpt lat="45.61412" lon="5.27617">
        <ele>231</ele>
        <time>2021-12-05T10:35:35.403Z</time>
      </trkpt>
      <trkpt lat="45.61412" lon="5.27613">
        <ele>231</ele>
        <time>2021-12-05T10:35:36.403Z</time>
      </trkpt>
      <trkpt lat="45.61411" lon="5.2761">
        <ele>230</ele>
        <time>2021-12-05T10:35:37.402Z</time>
      </trkpt>
      <trkpt lat="45.61411" lon="5.27606">
        <ele>230</ele>
        <time>2021-12-05T10:35:38.403Z</time>
      </trkpt>
      <trkpt lat="45.61409" lon="5.27603">
        <ele>230</ele>
        <time>2021-12-05T10:35:39.403Z</time>
      </trkpt>
      <trkpt lat="45.61408" lon="5.27601">
        <ele>230</ele>
        <time>2021-12-05T10:35:40.402Z</time>
      </trkpt>
      <trkpt lat="45.61407" lon="5.27598">
        <ele>229</ele>
        <time>2021-12-05T10:35:41.402Z</time>
      </trkpt>
      <trkpt lat="45.61406" lon="5.27595">
        <ele>229</ele>
        <time>2021-12-05T10:35:42.402Z</time>
      </trkpt>
      <trkpt lat="45.61405" lon="5.27592">
        <ele>229</ele>
        <time>2021-12-05T10:35:43.403Z</time>
      </trkpt>
      <trkpt lat="45.61403" lon="5.27589">
        <ele>229</ele>
        <time>2021-12-05T10:35:44.403Z</time>
      </trkpt>
      <trkpt lat="45.61402" lon="5.27586">
        <ele>228</ele>
        <time>2021-12-05T10:35:45.403Z</time>
      </trkpt>
      <trkpt lat="45.61401" lon="5.27584">
        <ele>228</ele>
        <time>2021-12-05T10:35:46.402Z</time>
      </trkpt>
      <trkpt lat="45.614" lon="5.27581">
        <ele>228</ele>
        <time>2021-12-05T10:35:47.402Z</time>
      </trkpt>
      <trkpt lat="45.61398" lon="5.27578">
        <ele>228</ele>
        <time>2021-12-05T10:35:48.403Z</time>
      </trkpt>
      <trkpt lat="45.61397" lon="5.27576">
        <ele>228</ele>
        <time>2021-12-05T10:35:49.402Z</time>
      </trkpt>
      <trkpt lat="45.61396" lon="5.27573">
        <ele>228</ele>
        <time>2021-12-05T10:35:50.402Z</time>
      </trkpt>
      <trkpt lat="45.61395" lon="5.2757">
        <ele>228</ele>
        <time>2021-12-05T10:35:51.403Z</time>
      </trkpt>
      <trkpt lat="45.61394" lon="5.27568">
        <ele>228</ele>
        <time>2021-12-05T10:35:52.403Z</time>
      </trkpt>
      <trkpt lat="45.61393" lon="5.27566">
        <ele>228</ele>
        <time>2021-12-05T10:35:53.403Z</time>
      </trkpt>
      <trkpt lat="45.61393" lon="5.27563">
        <ele>227</ele>
        <time>2021-12-05T10:35:54.403Z</time>
      </trkpt>
      <trkpt lat="45.61394" lon="5.2756">
        <ele>226</ele>
        <time>2021-12-05T10:35:55.403Z</time>
      </trkpt>
      <trkpt lat="45.61394" lon="5.27556">
        <ele>226</ele>
        <time>2021-12-05T10:35:56.403Z</time>
      </trkpt>
      <trkpt lat="45.61394" lon="5.27553">
        <ele>225</ele>
        <time>2021-12-05T10:35:57.403Z</time>
      </trkpt>
      <trkpt lat="45.61395" lon="5.27549">
        <ele>225</ele>
        <time>2021-12-05T10:35:58.403Z</time>
      </trkpt>
      <trkpt lat="45.61396" lon="5.27546">
        <ele>225</ele>
        <time>2021-12-05T10:35:59.402Z</time>
      </trkpt>
      <trkpt lat="45.61396" lon="5.27543">
        <ele>225</ele>
        <time>2021-12-05T10:36:00.403Z</time>
      </trkpt>
      <trkpt lat="45.61397" lon="5.2754">
        <ele>224</ele>
        <time>2021-12-05T10:36:01.402Z</time>
      </trkpt>
      <trkpt lat="45.61397" lon="5.27536">
        <ele>224</ele>
        <time>2021-12-05T10:36:02.402Z</time>
      </trkpt>
      <trkpt lat="45.61398" lon="5.27533">
        <ele>225</ele>
        <time>2021-12-05T10:36:03.402Z</time>
      </trkpt>
      <trkpt lat="45.61399" lon="5.27529">
        <ele>225</ele>
        <time>2021-12-05T10:36:04.402Z</time>
      </trkpt>
      <trkpt lat="45.61399" lon="5.27526">
        <ele>225</ele>
        <time>2021-12-05T10:36:05.402Z</time>
      </trkpt>
      <trkpt lat="45.614" lon="5.27522">
        <ele>225</ele>
        <time>2021-12-05T10:36:06.403Z</time>
      </trkpt>
      <trkpt lat="45.61401" lon="5.2752">
        <ele>225</ele>
        <time>2021-12-05T10:36:07.403Z</time>
      </trkpt>
      <trkpt lat="45.61402" lon="5.27519">
        <ele>225</ele>
        <time>2021-12-05T10:36:08.403Z</time>
      </trkpt>
      <trkpt lat="45.61402" lon="5.27516">
        <ele>225</ele>
        <time>2021-12-05T10:36:09.403Z</time>
      </trkpt>
      <trkpt lat="45.61403" lon="5.27514">
        <ele>225</ele>
        <time>2021-12-05T10:36:10.403Z</time>
      </trkpt>
      <trkpt lat="45.61403" lon="5.27511">
        <ele>225</ele>
        <time>2021-12-05T10:36:11.402Z</time>
      </trkpt>
      <trkpt lat="45.61404" lon="5.27508">
        <ele>225</ele>
        <time>2021-12-05T10:36:12.403Z</time>
      </trkpt>
      <trkpt lat="45.61405" lon="5.27505">
        <ele>225</ele>
        <time>2021-12-05T10:36:13.403Z</time>
      </trkpt>
      <trkpt lat="45.61405" lon="5.27501">
        <ele>225</ele>
        <time>2021-12-05T10:36:14.402Z</time>
      </trkpt>
      <trkpt lat="45.61405" lon="5.27498">
        <ele>225</ele>
        <time>2021-12-05T10:36:15.402Z</time>
      </trkpt>
      <trkpt lat="45.61406" lon="5.27494">
        <ele>225</ele>
        <time>2021-12-05T10:36:16.403Z</time>
      </trkpt>
      <trkpt lat="45.61406" lon="5.27491">
        <ele>224</ele>
        <time>2021-12-05T10:36:17.403Z</time>
      </trkpt>
      <trkpt lat="45.61407" lon="5.27488">
        <ele>225</ele>
        <time>2021-12-05T10:36:18.403Z</time>
      </trkpt>
      <trkpt lat="45.61407" lon="5.27484">
        <ele>225</ele>
        <time>2021-12-05T10:36:19.402Z</time>
      </trkpt>
      <trkpt lat="45.61408" lon="5.27481">
        <ele>224</ele>
        <time>2021-12-05T10:36:20.403Z</time>
      </trkpt>
      <trkpt lat="45.61409" lon="5.27477">
        <ele>224</ele>
        <time>2021-12-05T10:36:21.402Z</time>
      </trkpt>
      <trkpt lat="45.61409" lon="5.27474">
        <ele>224</ele>
        <time>2021-12-05T10:36:22.403Z</time>
      </trkpt>
      <trkpt lat="45.6141" lon="5.27471">
        <ele>223</ele>
        <time>2021-12-05T10:36:23.403Z</time>
      </trkpt>
      <trkpt lat="45.61411" lon="5.27468">
        <ele>223</ele>
        <time>2021-12-05T10:36:24.403Z</time>
      </trkpt>
      <trkpt lat="45.61412" lon="5.27464">
        <ele>223</ele>
        <time>2021-12-05T10:36:25.403Z</time>
      </trkpt>
      <trkpt lat="45.61413" lon="5.27461">
        <ele>223</ele>
        <time>2021-12-05T10:36:26.403Z</time>
      </trkpt>
      <trkpt lat="45.61414" lon="5.27458">
        <ele>222</ele>
        <time>2021-12-05T10:36:27.402Z</time>
      </trkpt>
      <trkpt lat="45.61415" lon="5.27454">
        <ele>222</ele>
        <time>2021-12-05T10:36:28.402Z</time>
      </trkpt>
      <trkpt lat="45.61415" lon="5.27451">
        <ele>222</ele>
        <time>2021-12-05T10:36:29.402Z</time>
      </trkpt>
      <trkpt lat="45.61416" lon="5.27448">
        <ele>222</ele>
        <time>2021-12-05T10:36:30.403Z</time>
      </trkpt>
      <trkpt lat="45.61417" lon="5.27445">
        <ele>222</ele>
        <time>2021-12-05T10:36:31.402Z</time>
      </trkpt>
      <trkpt lat="45.61419" lon="5.27444">
        <ele>222</ele>
        <time>2021-12-05T10:36:32.403Z</time>
      </trkpt>
      <trkpt lat="45.61421" lon="5.27442">
        <ele>222</ele>
        <time>2021-12-05T10:36:33.403Z</time>
      </trkpt>
      <trkpt lat="45.61423" lon="5.27442">
        <ele>221</ele>
        <time>2021-12-05T10:36:34.402Z</time>
      </trkpt>
      <trkpt lat="45.61425" lon="5.27442">
        <ele>221</ele>
        <time>2021-12-05T10:36:35.403Z</time>
      </trkpt>
      <trkpt lat="45.61428" lon="5.27442">
        <ele>221</ele>
        <time>2021-12-05T10:36:36.402Z</time>
      </trkpt>
      <trkpt lat="45.6143" lon="5.27443">
        <ele>220</ele>
        <time>2021-12-05T10:36:37.403Z</time>
      </trkpt>
      <trkpt lat="45.61432" lon="5.27443">
        <ele>221</ele>
        <time>2021-12-05T10:36:38.403Z</time>
      </trkpt>
      <trkpt lat="45.61435" lon="5.27444">
        <ele>221</ele>
        <time>2021-12-05T10:36:39.403Z</time>
      </trkpt>
      <trkpt lat="45.61437" lon="5.27445">
        <ele>221</ele>
        <time>2021-12-05T10:36:40.403Z</time>
      </trkpt>
      <trkpt lat="45.61439" lon="5.27446">
        <ele>221</ele>
        <time>2021-12-05T10:36:41.403Z</time>
      </trkpt>
      <trkpt lat="45.61442" lon="5.27447">
        <ele>221</ele>
        <time>2021-12-05T10:36:42.403Z</time>
      </trkpt>
      <trkpt lat="45.61444" lon="5.27448">
        <ele>222</ele>
        <time>2021-12-05T10:36:43.402Z</time>
      </trkpt>
      <trkpt lat="45.61446" lon="5.27448">
        <ele>222</ele>
        <time>2021-12-05T10:36:44.402Z</time>
      </trkpt>
      <trkpt lat="45.61449" lon="5.27449">
        <ele>222</ele>
        <time>2021-12-05T10:36:45.403Z</time>
      </trkpt>
      <trkpt lat="45.61451" lon="5.2745">
        <ele>222</ele>
        <time>2021-12-05T10:36:46.402Z</time>
      </trkpt>
      <trkpt lat="45.61453" lon="5.2745">
        <ele>222</ele>
        <time>2021-12-05T10:36:47.403Z</time>
      </trkpt>
      <trkpt lat="45.61455" lon="5.27451">
        <ele>222</ele>
        <time>2021-12-05T10:36:48.403Z</time>
      </trkpt>
      <trkpt lat="45.61457" lon="5.27452">
        <ele>222</ele>
        <time>2021-12-05T10:36:49.403Z</time>
      </trkpt>
      <trkpt lat="45.61459" lon="5.27454">
        <ele>222</ele>
        <time>2021-12-05T10:36:50.402Z</time>
      </trkpt>
      <trkpt lat="45.61462" lon="5.27454">
        <ele>222</ele>
        <time>2021-12-05T10:36:51.402Z</time>
      </trkpt>
      <trkpt lat="45.61464" lon="5.27455">
        <ele>222</ele>
        <time>2021-12-05T10:36:52.402Z</time>
      </trkpt>
      <trkpt lat="45.61466" lon="5.27456">
        <ele>221</ele>
        <time>2021-12-05T10:36:53.403Z</time>
      </trkpt>
      <trkpt lat="45.61469" lon="5.27457">
        <ele>221</ele>
        <time>2021-12-05T10:36:54.403Z</time>
      </trkpt>
      <trkpt lat="45.61471" lon="5.27458">
        <ele>221</ele>
        <time>2021-12-05T10:36:55.403Z</time>
      </trkpt>
      <trkpt lat="45.61473" lon="5.27459">
        <ele>221</ele>
        <time>2021-12-05T10:36:56.402Z</time>
      </trkpt>
      <trkpt lat="45.61475" lon="5.27459">
        <ele>221</ele>
        <time>2021-12-05T10:36:57.403Z</time>
      </trkpt>
      <trkpt lat="45.61477" lon="5.2746">
        <ele>222</ele>
        <time>2021-12-05T10:36:58.403Z</time>
      </trkpt>
      <trkpt lat="45.61479" lon="5.27461">
        <ele>222</ele>
        <time>2021-12-05T10:36:59.402Z</time>
      </trkpt>
      <trkpt lat="45.61481" lon="5.27462">
        <ele>222</ele>
        <time>2021-12-05T10:37:00.402Z</time>
      </trkpt>
      <trkpt lat="45.61482" lon="5.27463">
        <ele>222</ele>
        <time>2021-12-05T10:37:01.403Z</time>
      </trkpt>
      <trkpt lat="45.61484" lon="5.27464">
        <ele>222</ele>
        <time>2021-12-05T10:37:02.403Z</time>
      </trkpt>
      <trkpt lat="45.61485" lon="5.27465">
        <ele>222</ele>
        <time>2021-12-05T10:37:03.403Z</time>
      </trkpt>
      <trkpt lat="45.61486" lon="5.27466">
        <ele>222</ele>
        <time>2021-12-05T10:37:04.403Z</time>
      </trkpt>
      <trkpt lat="45.61486" lon="5.27467">
        <ele>222</ele>
        <time>2021-12-05T10:37:05.403Z</time>
      </trkpt>
      <trkpt lat="45.61487" lon="5.27467">
        <ele>222</ele>
        <time>2021-12-05T10:37:06.402Z</time>
      </trkpt>
      <trkpt lat="45.61488" lon="5.27468">
        <ele>222</ele>
        <time>2021-12-05T10:37:07.403Z</time>
      </trkpt>
    </trkseg>
  </trk>
</gpx>